Wetterdaten: Sonntag, 24.12.2017
Datum Zeit Temp. A. Pool Temp. Feuchte A. Luftdruck Regen Wind Richtung Richtung Sonnenschein ET UV Solar Taupunkt Windchill Windben Empfang
24.12.2017 00:00 6,7 C 3,9 C 84 % 1030,3 hPa 0,0 l/m 22,5 km/h (4 Bft) W-SW 247 0 min 0,025 mm 0,0 UV-I 0 W/m 4,2 C -1,9 C 33,8 km/h (5 Bft) 100,00 %
24.12.2017 00:01 6,7 C 3,9 C 84 % 1030,2 hPa 0,0 l/m 22,5 km/h (4 Bft) SW 225 0 min 0,000 mm 0,0 UV-I 0 W/m 4,2 C -1,9 C 29,0 km/h (5 Bft) 86,96 %
24.12.2017 00:02 6,7 C 3,9 C 84 % 1030,3 hPa 0,0 l/m 24,1 km/h (4 Bft) W-SW 247 0 min 0,000 mm 0,0 UV-I 0 W/m 4,2 C -2,4 C 35,4 km/h (5 Bft) 100,00 %
24.12.2017 00:03 6,7 C 3,9 C 84 % 1030,3 hPa 0,0 l/m 20,9 km/h (4 Bft) W-SW 247 0 min 0,000 mm 0,0 UV-I 0 W/m 4,2 C -1,3 C 27,4 km/h (4 Bft) 100,00 %
24.12.2017 00:04 6,8 C 3,9 C 84 % 1030,3 hPa 0,0 l/m 17,7 km/h (3 Bft) W-SW 247 0 min 0,000 mm 0,0 UV-I 0 W/m 4,3 C 0,1 C 24,1 km/h (4 Bft) 95,65 %
24.12.2017 00:05 6,8 C 3,9 C 84 % 1030,3 hPa 0,0 l/m 22,5 km/h (4 Bft) W-SW 247 0 min 0,000 mm 0,0 UV-I 0 W/m 4,3 C -1,7 C 30,6 km/h (5 Bft) 100,00 %
24.12.2017 00:06 6,8 C 3,9 C 84 % 1030,3 hPa 0,0 l/m 24,1 km/h (4 Bft) W-SW 247 0 min 0,000 mm 0,0 UV-I 0 W/m 4,3 C -2,2 C 35,4 km/h (5 Bft) 100,00 %
24.12.2017 00:07 6,8 C 3,9 C 84 % 1030,3 hPa 0,0 l/m 22,5 km/h (4 Bft) W-SW 247 0 min 0,000 mm 0,0 UV-I 0 W/m 4,3 C -1,7 C 32,2 km/h (5 Bft) 100,00 %
24.12.2017 00:08 6,8 C 3,9 C 84 % 1030,3 hPa 0,0 l/m 22,5 km/h (4 Bft) W-SW 247 0 min 0,000 mm 0,0 UV-I 0 W/m 4,3 C -1,7 C 30,6 km/h (5 Bft) 100,00 %
24.12.2017 00:09 6,7 C 3,9 C 84 % 1030,3 hPa 0,0 l/m 22,5 km/h (4 Bft) W-SW 247 0 min 0,000 mm 0,0 UV-I 0 W/m 4,2 C -1,9 C 29,0 km/h (5 Bft) 95,65 %
24.12.2017 00:10 6,7 C 3,9 C 84 % 1030,4 hPa 0,0 l/m 22,5 km/h (4 Bft) W-SW 247 0 min 0,000 mm 0,0 UV-I 0 W/m 4,2 C -1,9 C 32,2 km/h (5 Bft) 100,00 %
24.12.2017 00:11 6,7 C 3,9 C 84 % 1030,4 hPa 0,0 l/m 20,9 km/h (4 Bft) W-SW 247 0 min 0,000 mm 0,0 UV-I 0 W/m 4,2 C -1,3 C 27,4 km/h (4 Bft) 95,65 %
24.12.2017 00:12 6,7 C 3,9 C 84 % 1030,3 hPa 0,0 l/m 22,5 km/h (4 Bft) W-SW 247 0 min 0,000 mm 0,0 UV-I 0 W/m 4,2 C -1,9 C 29,0 km/h (5 Bft) 100,00 %
24.12.2017 00:13 6,7 C 3,9 C 84 % 1030,3 hPa 0,0 l/m 24,1 km/h (4 Bft) W-SW 247 0 min 0,000 mm 0,0 UV-I 0 W/m 4,2 C -2,4 C 33,8 km/h (5 Bft) 100,00 %
24.12.2017 00:14 6,8 C 3,9 C 84 % 1030,3 hPa 0,0 l/m 17,7 km/h (3 Bft) W-SW 247 0 min 0,000 mm 0,0 UV-I 0 W/m 4,3 C 0,1 C 25,7 km/h (4 Bft) 100,00 %
24.12.2017 00:15 6,8 C 3,9 C 84 % 1030,3 hPa 0,0 l/m 24,1 km/h (4 Bft) W-SW 247 0 min 0,000 mm 0,0 UV-I 0 W/m 4,3 C -2,2 C 32,2 km/h (5 Bft) 100,00 %
24.12.2017 00:16 6,8 C 3,9 C 84 % 1030,4 hPa 0,0 l/m 22,5 km/h (4 Bft) W-SW 247 0 min 0,000 mm 0,0 UV-I 0 W/m 4,3 C -1,7 C 33,8 km/h (5 Bft) 95,65 %
24.12.2017 00:17 6,8 C 3,9 C 83 % 1030,3 hPa 0,0 l/m 24,1 km/h (4 Bft) W 270 0 min 0,000 mm 0,0 UV-I 0 W/m 4,1 C -2,2 C 29,0 km/h (5 Bft) 100,00 %
24.12.2017 00:18 6,8 C 3,9 C 83 % 1030,4 hPa 0,0 l/m 25,7 km/h (4 Bft) W-SW 247 0 min 0,000 mm 0,0 UV-I 0 W/m 4,1 C -2,7 C 30,6 km/h (5 Bft) 91,30 %
24.12.2017 00:19 6,8 C 3,9 C 83 % 1030,3 hPa 0,0 l/m 25,7 km/h (4 Bft) W-SW 247 0 min 0,000 mm 0,0 UV-I 0 W/m 4,1 C -2,7 C 37,0 km/h (5 Bft) 100,00 %
24.12.2017 00:20 6,8 C 3,9 C 83 % 1030,4 hPa 0,0 l/m 24,1 km/h (4 Bft) W-SW 247 0 min 0,000 mm 0,0 UV-I 0 W/m 4,1 C -2,2 C 38,6 km/h (5 Bft) 95,65 %
24.12.2017 00:21 6,8 C 3,9 C 83 % 1030,4 hPa 0,0 l/m 20,9 km/h (4 Bft) W-SW 247 0 min 0,000 mm 0,0 UV-I 0 W/m 4,1 C -1,2 C 38,6 km/h (5 Bft) 95,65 %
24.12.2017 00:22 6,8 C 3,9 C 83 % 1030,4 hPa 0,0 l/m 24,1 km/h (4 Bft) W-SW 247 0 min 0,000 mm 0,0 UV-I 0 W/m 4,1 C -2,2 C 35,4 km/h (5 Bft) 95,65 %
24.12.2017 00:23 6,8 C 3,9 C 83 % 1030,5 hPa 0,0 l/m 24,1 km/h (4 Bft) W-SW 247 0 min 0,000 mm 0,0 UV-I 0 W/m 4,1 C -2,2 C 32,2 km/h (5 Bft) 95,65 %
24.12.2017 00:24 6,8 C 3,9 C 83 % 1030,4 hPa 0,0 l/m 20,9 km/h (4 Bft) W-SW 247 0 min 0,000 mm 0,0 UV-I 0 W/m 4,1 C -1,2 C 33,8 km/h (5 Bft) 95,65 %
24.12.2017 00:25 6,8 C 3,9 C 83 % 1030,4 hPa 0,0 l/m 24,1 km/h (4 Bft) W-SW 247 0 min 0,000 mm 0,0 UV-I 0 W/m 4,1 C -2,2 C 30,6 km/h (5 Bft) 95,65 %
24.12.2017 00:26 6,8 C 3,9 C 83 % 1030,4 hPa 0,0 l/m 22,5 km/h (4 Bft) W-SW 247 0 min 0,000 mm 0,0 UV-I 0 W/m 4,1 C -1,7 C 30,6 km/h (5 Bft) 91,30 %
24.12.2017 00:27 6,8 C 3,9 C 83 % 1030,4 hPa 0,0 l/m 25,7 km/h (4 Bft) W-SW 247 0 min 0,000 mm 0,0 UV-I 0 W/m 4,1 C -2,7 C 40,2 km/h (6 Bft) 95,65 %
24.12.2017 00:28 6,8 C 3,9 C 83 % 1030,4 hPa 0,0 l/m 27,4 km/h (4 Bft) W 270 0 min 0,000 mm 0,0 UV-I 0 W/m 4,1 C -3,2 C 40,2 km/h (6 Bft) 100,00 %
24.12.2017 00:29 6,8 C 3,9 C 83 % 1030,4 hPa 0,0 l/m 25,7 km/h (4 Bft) W-SW 247 0 min 0,000 mm 0,0 UV-I 0 W/m 4,1 C -2,7 C 35,4 km/h (5 Bft) 95,65 %
24.12.2017 00:30 6,8 C 3,9 C 83 % 1030,4 hPa 0,0 l/m 22,5 km/h (4 Bft) W-SW 247 0 min 0,000 mm 0,0 UV-I 0 W/m 4,1 C -1,7 C 30,6 km/h (5 Bft) 100,00 %
24.12.2017 00:31 6,8 C 3,9 C 83 % 1030,5 hPa 0,0 l/m 20,9 km/h (4 Bft) SW 225 0 min 0,000 mm 0,0 UV-I 0 W/m 4,1 C -1,2 C 30,6 km/h (5 Bft) 95,65 %
24.12.2017 00:32 6,8 C 3,9 C 83 % 1030,5 hPa 0,0 l/m 19,3 km/h (3 Bft) SW 225 0 min 0,000 mm 0,0 UV-I 0 W/m 4,1 C -0,6 C 37,0 km/h (5 Bft) 100,00 %
24.12.2017 00:33 6,8 C 3,9 C 83 % 1030,4 hPa 0,0 l/m 20,9 km/h (4 Bft) W 270 0 min 0,000 mm 0,0 UV-I 0 W/m 4,1 C -1,2 C 27,4 km/h (4 Bft) 91,30 %
24.12.2017 00:34 6,8 C 3,9 C 83 % 1030,5 hPa 0,0 l/m 17,7 km/h (3 Bft) SW 225 0 min 0,000 mm 0,0 UV-I 0 W/m 4,1 C 0,1 C 24,1 km/h (4 Bft) 100,00 %
24.12.2017 00:35 6,8 C 3,9 C 83 % 1030,5 hPa 0,0 l/m 14,5 km/h (3 Bft) W-SW 247 0 min 0,000 mm 0,0 UV-I 0 W/m 4,1 C 1,5 C 19,3 km/h (3 Bft) 95,65 %
24.12.2017 00:36 6,8 C 3,9 C 83 % 1030,4 hPa 0,0 l/m 19,3 km/h (3 Bft) SW 225 0 min 0,000 mm 0,0 UV-I 0 W/m 4,1 C -0,6 C 25,7 km/h (4 Bft) 100,00 %
24.12.2017 00:37 6,8 C 3,9 C 83 % 1030,5 hPa 0,0 l/m 22,5 km/h (4 Bft) SW 225 0 min 0,000 mm 0,0 UV-I 0 W/m 4,1 C -1,7 C 32,2 km/h (5 Bft) 91,30 %
24.12.2017 00:38 6,8 C 3,9 C 83 % 1030,5 hPa 0,0 l/m 16,1 km/h (3 Bft) W-SW 247 0 min 0,000 mm 0,0 UV-I 0 W/m 4,1 C 0,7 C 22,5 km/h (4 Bft) 100,00 %
24.12.2017 00:39 6,8 C 3,9 C 83 % 1030,4 hPa 0,0 l/m 14,5 km/h (3 Bft) W-SW 247 0 min 0,000 mm 0,0 UV-I 0 W/m 4,1 C 1,5 C 17,7 km/h (3 Bft) 100,00 %
24.12.2017 00:40 6,7 C 3,9 C 84 % 1030,4 hPa 0,0 l/m 22,5 km/h (4 Bft) W-SW 247 0 min 0,000 mm 0,0 UV-I 0 W/m 4,2 C -1,9 C 32,2 km/h (5 Bft) 95,65 %
24.12.2017 00:41 6,8 C 3,9 C 83 % 1030,5 hPa 0,0 l/m 25,7 km/h (4 Bft) SW 225 0 min 0,000 mm 0,0 UV-I 0 W/m 4,1 C -2,7 C 35,4 km/h (5 Bft) 100,00 %
24.12.2017 00:42 6,8 C 3,9 C 83 % 1030,4 hPa 0,0 l/m 19,3 km/h (3 Bft) W-SW 247 0 min 0,000 mm 0,0 UV-I 0 W/m 4,1 C -0,6 C 25,7 km/h (4 Bft) 100,00 %
24.12.2017 00:43 6,8 C 3,9 C 83 % 1030,4 hPa 0,0 l/m 16,1 km/h (3 Bft) W-SW 247 0 min 0,000 mm 0,0 UV-I 0 W/m 4,1 C 0,7 C 22,5 km/h (4 Bft) 100,00 %
24.12.2017 00:44 6,8 C 3,9 C 83 % 1030,4 hPa 0,0 l/m 20,9 km/h (4 Bft) W-SW 247 0 min 0,000 mm 0,0 UV-I 0 W/m 4,1 C -1,2 C 25,7 km/h (4 Bft) 100,00 %
24.12.2017 00:45 6,8 C 3,9 C 83 % 1030,4 hPa 0,0 l/m 14,5 km/h (3 Bft) SW 225 0 min 0,000 mm 0,0 UV-I 0 W/m 4,1 C 1,5 C 20,9 km/h (4 Bft) 100,00 %
24.12.2017 00:46 6,8 C 3,9 C 83 % 1030,4 hPa 0,0 l/m 17,7 km/h (3 Bft) W-SW 247 0 min 0,000 mm 0,0 UV-I 0 W/m 4,1 C 0,1 C 25,7 km/h (4 Bft) 95,65 %
24.12.2017 00:47 6,8 C 3,9 C 83 % 1030,4 hPa 0,0 l/m 24,1 km/h (4 Bft) W-SW 247 0 min 0,000 mm 0,0 UV-I 0 W/m 4,1 C -2,2 C 32,2 km/h (5 Bft) 95,65 %
24.12.2017 00:48 6,8 C 3,9 C 83 % 1030,4 hPa 0,0 l/m 20,9 km/h (4 Bft) W-SW 247 0 min 0,000 mm 0,0 UV-I 0 W/m 4,1 C -1,2 C 27,4 km/h (4 Bft) 100,00 %
24.12.2017 00:49 6,8 C 3,9 C 83 % 1030,4 hPa 0,0 l/m 12,9 km/h (3 Bft) W 270 0 min 0,000 mm 0,0 UV-I 0 W/m 4,1 C 2,3 C 17,7 km/h (3 Bft) 100,00 %
24.12.2017 00:50 6,7 C 3,9 C 83 % 1030,4 hPa 0,0 l/m 17,7 km/h (3 Bft) W-SW 247 0 min 0,000 mm 0,0 UV-I 0 W/m 4,0 C -0,1 C 30,6 km/h (5 Bft) 100,00 %
24.12.2017 00:51 6,8 C 3,9 C 83 % 1030,5 hPa 0,0 l/m 22,5 km/h (4 Bft) W-SW 247 0 min 0,000 mm 0,0 UV-I 0 W/m 4,1 C -1,7 C 29,0 km/h (5 Bft) 95,65 %
24.12.2017 00:52 6,8 C 3,9 C 83 % 1030,3 hPa 0,0 l/m 19,3 km/h (3 Bft) W-SW 247 0 min 0,000 mm 0,0 UV-I 0 W/m 4,1 C -0,6 C 32,2 km/h (5 Bft) 100,00 %
24.12.2017 00:53 6,7 C 3,9 C 83 % 1030,4 hPa 0,0 l/m 20,9 km/h (4 Bft) W-SW 247 0 min 0,000 mm 0,0 UV-I 0 W/m 4,0 C -1,3 C 32,2 km/h (5 Bft) 100,00 %
24.12.2017 00:54 6,8 C 3,9 C 83 % 1030,3 hPa 0,0 l/m 20,9 km/h (4 Bft) W-SW 247 0 min 0,000 mm 0,0 UV-I 0 W/m 4,1 C -1,2 C 27,4 km/h (4 Bft) 95,65 %
24.12.2017 00:55 6,7 C 3,9 C 83 % 1030,3 hPa 0,0 l/m 17,7 km/h (3 Bft) W-SW 247 0 min 0,000 mm 0,0 UV-I 0 W/m 4,0 C -0,1 C 25,7 km/h (4 Bft) 100,00 %
24.12.2017 00:56 6,8 C 3,9 C 83 % 1030,4 hPa 0,0 l/m 24,1 km/h (4 Bft) W-SW 247 0 min 0,000 mm 0,0 UV-I 0 W/m 4,1 C -2,2 C 33,8 km/h (5 Bft) 100,00 %
24.12.2017 00:57 6,8 C 3,9 C 83 % 1030,4 hPa 0,0 l/m 19,3 km/h (3 Bft) W-SW 247 0 min 0,000 mm 0,0 UV-I 0 W/m 4,1 C -0,6 C 29,0 km/h (5 Bft) 100,00 %
24.12.2017 00:58 6,8 C 3,9 C 83 % 1030,4 hPa 0,0 l/m 17,7 km/h (3 Bft) W-SW 247 0 min 0,000 mm 0,0 UV-I 0 W/m 4,1 C 0,1 C 24,1 km/h (4 Bft) 100,00 %
24.12.2017 00:59 6,7 C 3,9 C 83 % 1030,4 hPa 0,0 l/m 12,9 km/h (3 Bft) W-SW 247 0 min 0,000 mm 0,0 UV-I 0 W/m 4,0 C 2,2 C 14,5 km/h (3 Bft) 100,00 %
24.12.2017 01:00 6,7 C 3,9 C 83 % 1030,4 hPa 0,0 l/m 19,3 km/h (3 Bft) W-SW 247 0 min 0,025 mm 0,0 UV-I 0 W/m 4,0 C -0,7 C 24,1 km/h (4 Bft) 100,00 %
24.12.2017 01:01 6,7 C 3,9 C 83 % 1030,4 hPa 0,0 l/m 16,1 km/h (3 Bft) W-SW 247 0 min 0,000 mm 0,0 UV-I 0 W/m 4,0 C 0,6 C 25,7 km/h (4 Bft) 95,65 %
24.12.2017 01:02 6,7 C 3,9 C 83 % 1030,4 hPa 0,0 l/m 16,1 km/h (3 Bft) W 270 0 min 0,000 mm 0,0 UV-I 0 W/m 4,0 C 0,6 C 19,3 km/h (3 Bft) 100,00 %
24.12.2017 01:03 6,7 C 3,9 C 83 % 1030,4 hPa 0,0 l/m 20,9 km/h (4 Bft) W-SW 247 0 min 0,000 mm 0,0 UV-I 0 W/m 4,0 C -1,3 C 32,2 km/h (5 Bft) 100,00 %
24.12.2017 01:04 6,7 C 3,9 C 83 % 1030,4 hPa 0,0 l/m 20,9 km/h (4 Bft) W-SW 247 0 min 0,000 mm 0,0 UV-I 0 W/m 4,0 C -1,3 C 27,4 km/h (4 Bft) 95,65 %
24.12.2017 01:05 6,7 C 3,9 C 83 % 1030,4 hPa 0,0 l/m 16,1 km/h (3 Bft) W-SW 247 0 min 0,000 mm 0,0 UV-I 0 W/m 4,0 C 0,6 C 24,1 km/h (4 Bft) 100,00 %
24.12.2017 01:06 6,7 C 3,9 C 83 % 1030,4 hPa 0,0 l/m 12,9 km/h (3 Bft) W 270 0 min 0,000 mm 0,0 UV-I 0 W/m 4,0 C 2,2 C 17,7 km/h (3 Bft) 100,00 %
24.12.2017 01:07 6,7 C 3,9 C 83 % 1030,4 hPa 0,0 l/m 16,1 km/h (3 Bft) W-SW 247 0 min 0,000 mm 0,0 UV-I 0 W/m 4,0 C 0,6 C 19,3 km/h (3 Bft) 95,65 %
24.12.2017 01:08 6,7 C 3,9 C 83 % 1030,4 hPa 0,0 l/m 14,5 km/h (3 Bft) W-SW 247 0 min 0,000 mm 0,0 UV-I 0 W/m 4,0 C 1,4 C 20,9 km/h (4 Bft) 95,65 %
24.12.2017 01:09 6,7 C 3,9 C 83 % 1030,4 hPa 0,0 l/m 16,1 km/h (3 Bft) W 270 0 min 0,000 mm 0,0 UV-I 0 W/m 4,0 C 0,6 C 20,9 km/h (4 Bft) 100,00 %
24.12.2017 01:10 6,7 C 3,9 C 83 % 1030,3 hPa 0,0 l/m 19,3 km/h (3 Bft) W-SW 247 0 min 0,000 mm 0,0 UV-I 0 W/m 4,0 C -0,7 C 25,7 km/h (4 Bft) 100,00 %
24.12.2017 01:11 6,7 C 3,9 C 83 % 1030,4 hPa 0,0 l/m 14,5 km/h (3 Bft) W 270 0 min 0,000 mm 0,0 UV-I 0 W/m 4,0 C 1,4 C 17,7 km/h (3 Bft) 100,00 %
24.12.2017 01:12 6,6 C 3,9 C 83 % 1030,4 hPa 0,0 l/m 14,5 km/h (3 Bft) SW 225 0 min 0,000 mm 0,0 UV-I 0 W/m 3,9 C 1,3 C 19,3 km/h (3 Bft) 100,00 %
24.12.2017 01:13 6,6 C 3,9 C 83 % 1030,4 hPa 0,0 l/m 16,1 km/h (3 Bft) SW 225 0 min 0,000 mm 0,0 UV-I 0 W/m 3,9 C 0,5 C 24,1 km/h (4 Bft) 100,00 %
24.12.2017 01:14 6,6 C 3,9 C 83 % 1030,4 hPa 0,0 l/m 14,5 km/h (3 Bft) W-SW 247 0 min 0,000 mm 0,0 UV-I 0 W/m 3,9 C 1,3 C 20,9 km/h (4 Bft) 100,00 %
24.12.2017 01:15 6,6 C 3,9 C 83 % 1030,3 hPa 0,0 l/m 17,7 km/h (3 Bft) W-SW 247 0 min 0,000 mm 0,0 UV-I 0 W/m 3,9 C -0,2 C 29,0 km/h (5 Bft) 95,65 %
24.12.2017 01:16 6,6 C 3,9 C 83 % 1030,4 hPa 0,0 l/m 19,3 km/h (3 Bft) W-SW 247 0 min 0,000 mm 0,0 UV-I 0 W/m 3,9 C -0,8 C 35,4 km/h (5 Bft) 95,65 %
24.12.2017 01:17 6,6 C 3,9 C 83 % 1030,4 hPa 0,0 l/m 22,5 km/h (4 Bft) W-SW 247 0 min 0,000 mm 0,0 UV-I 0 W/m 3,9 C -2,0 C 30,6 km/h (5 Bft) 95,65 %
24.12.2017 01:18 6,6 C 3,9 C 83 % 1030,3 hPa 0,0 l/m 14,5 km/h (3 Bft) W-SW 247 0 min 0,000 mm 0,0 UV-I 0 W/m 3,9 C 1,3 C 17,7 km/h (3 Bft) 100,00 %
24.12.2017 01:19 6,6 C 3,9 C 83 % 1030,4 hPa 0,0 l/m 16,1 km/h (3 Bft) W-SW 247 0 min 0,000 mm 0,0 UV-I 0 W/m 3,9 C 0,5 C 22,5 km/h (4 Bft) 100,00 %
24.12.2017 01:20 6,6 C 3,9 C 83 % 1030,3 hPa 0,0 l/m 24,1 km/h (4 Bft) W-SW 247 0 min 0,000 mm 0,0 UV-I 0 W/m 3,9 C -2,5 C 30,6 km/h (5 Bft) 95,65 %
24.12.2017 01:21 6,6 C 3,9 C 83 % 1030,3 hPa 0,0 l/m 24,1 km/h (4 Bft) SW 225 0 min 0,000 mm 0,0 UV-I 0 W/m 3,9 C -2,5 C 32,2 km/h (5 Bft) 95,65 %
24.12.2017 01:22 6,6 C 3,9 C 83 % 1030,3 hPa 0,0 l/m 20,9 km/h (4 Bft) W 270 0 min 0,000 mm 0,0 UV-I 0 W/m 3,9 C -1,4 C 30,6 km/h (5 Bft) 91,30 %
24.12.2017 01:23 6,6 C 3,9 C 83 % 1030,3 hPa 0,0 l/m 16,1 km/h (3 Bft) W-SW 247 0 min 0,000 mm 0,0 UV-I 0 W/m 3,9 C 0,5 C 24,1 km/h (4 Bft) 95,65 %
24.12.2017 01:24 6,6 C 3,9 C 83 % 1030,3 hPa 0,0 l/m 16,1 km/h (3 Bft) W-SW 247 0 min 0,000 mm 0,0 UV-I 0 W/m 3,9 C 0,5 C 25,7 km/h (4 Bft) 95,65 %
24.12.2017 01:25 6,6 C 3,9 C 83 % 1030,3 hPa 0,0 l/m 17,7 km/h (3 Bft) W-SW 247 0 min 0,000 mm 0,0 UV-I 0 W/m 3,9 C -0,2 C 24,1 km/h (4 Bft) 91,30 %
24.12.2017 01:26 6,6 C 3,9 C 83 % 1030,3 hPa 0,0 l/m 17,7 km/h (3 Bft) W-SW 247 0 min 0,000 mm 0,0 UV-I 0 W/m 3,9 C -0,2 C 25,7 km/h (4 Bft) 100,00 %
24.12.2017 01:27 6,6 C 3,9 C 83 % 1030,3 hPa 0,0 l/m 16,1 km/h (3 Bft) W-SW 247 0 min 0,000 mm 0,0 UV-I 0 W/m 3,9 C 0,5 C 24,1 km/h (4 Bft) 95,65 %
24.12.2017 01:28 6,6 C 3,9 C 83 % 1030,3 hPa 0,0 l/m 17,7 km/h (3 Bft) W-SW 247 0 min 0,000 mm 0,0 UV-I 0 W/m 3,9 C -0,2 C 24,1 km/h (4 Bft) 100,00 %
24.12.2017 01:29 6,6 C 3,9 C 83 % 1030,3 hPa 0,0 l/m 16,1 km/h (3 Bft) W-SW 247 0 min 0,000 mm 0,0 UV-I 0 W/m 3,9 C 0,5 C 22,5 km/h (4 Bft) 91,30 %
24.12.2017 01:30 6,6 C 3,9 C 84 % 1030,2 hPa 0,0 l/m 14,5 km/h (3 Bft) W 270 0 min 0,000 mm 0,0 UV-I 0 W/m 4,1 C 1,3 C 19,3 km/h (3 Bft) 95,65 %
24.12.2017 01:31 6,6 C 3,9 C 83 % 1030,2 hPa 0,0 l/m 20,9 km/h (4 Bft) W-SW 247 0 min 0,000 mm 0,0 UV-I 0 W/m 3,9 C -1,4 C 30,6 km/h (5 Bft) 100,00 %
24.12.2017 01:32 6,6 C 3,9 C 83 % 1030,1 hPa 0,0 l/m 19,3 km/h (3 Bft) W-SW 247 0 min 0,000 mm 0,0 UV-I 0 W/m 3,9 C -0,8 C 30,6 km/h (5 Bft) 95,65 %
24.12.2017 01:33 6,6 C 3,9 C 84 % 1030,2 hPa 0,0 l/m 12,9 km/h (3 Bft) W-SW 247 0 min 0,000 mm 0,0 UV-I 0 W/m 4,1 C 2,1 C 20,9 km/h (4 Bft) 100,00 %
24.12.2017 01:34 6,6 C 3,9 C 84 % 1030,1 hPa 0,0 l/m 16,1 km/h (3 Bft) SW 225 0 min 0,000 mm 0,0 UV-I 0 W/m 4,1 C 0,5 C 24,1 km/h (4 Bft) 91,30 %
24.12.2017 01:35 6,5 C 3,9 C 84 % 1030,1 hPa 0,0 l/m 17,7 km/h (3 Bft) W 270 0 min 0,000 mm 0,0 UV-I 0 W/m 4,0 C -0,3 C 27,4 km/h (4 Bft) 100,00 %
24.12.2017 01:36 6,5 C 3,9 C 84 % 1030,2 hPa 0,0 l/m 16,1 km/h (3 Bft) W 270 0 min 0,000 mm 0,0 UV-I 0 W/m 4,0 C 0,4 C 24,1 km/h (4 Bft) 91,30 %
24.12.2017 01:37 6,5 C 3,9 C 84 % 1030,1 hPa 0,0 l/m 16,1 km/h (3 Bft) W-SW 247 0 min 0,000 mm 0,0 UV-I 0 W/m 4,0 C 0,4 C 22,5 km/h (4 Bft) 100,00 %
24.12.2017 01:38 6,5 C 3,9 C 84 % 1030,2 hPa 0,0 l/m 20,9 km/h (4 Bft) W-SW 247 0 min 0,000 mm 0,0 UV-I 0 W/m 4,0 C -1,6 C 33,8 km/h (5 Bft) 91,30 %
24.12.2017 01:39 6,5 C 3,9 C 84 % 1030,1 hPa 0,0 l/m 14,5 km/h (3 Bft) W-SW 247 0 min 0,000 mm 0,0 UV-I 0 W/m 4,0 C 1,1 C 25,7 km/h (4 Bft) 86,96 %
24.12.2017 01:40 6,5 C 3,9 C 84 % 1030,1 hPa 0,0 l/m 12,9 km/h (3 Bft) SW 225 0 min 0,000 mm 0,0 UV-I 0 W/m 4,0 C 2,0 C 17,7 km/h (3 Bft) 100,00 %
24.12.2017 01:41 6,5 C 3,9 C 84 % 1030,2 hPa 0,0 l/m 16,1 km/h (3 Bft) W-SW 247 0 min 0,000 mm 0,0 UV-I 0 W/m 4,0 C 0,4 C 20,9 km/h (4 Bft) 91,30 %
24.12.2017 01:42 6,5 C 3,9 C 84 % 1030,2 hPa 0,0 l/m 14,5 km/h (3 Bft) SW 225 0 min 0,000 mm 0,0 UV-I 0 W/m 4,0 C 1,1 C 22,5 km/h (4 Bft) 100,00 %
24.12.2017 01:43 6,4 C 3,9 C 84 % 1030,1 hPa 0,0 l/m 17,7 km/h (3 Bft) W 270 0 min 0,000 mm 0,0 UV-I 0 W/m 3,9 C -0,4 C 30,6 km/h (5 Bft) 86,96 %
24.12.2017 01:44 6,4 C 3,9 C 84 % 1030,1 hPa 0,0 l/m 19,3 km/h (3 Bft) W-SW 247 0 min 0,000 mm 0,0 UV-I 0 W/m 3,9 C -1,1 C 27,4 km/h (4 Bft) 100,00 %
24.12.2017 01:45 6,4 C 3,9 C 84 % 1030,1 hPa 0,0 l/m 22,5 km/h (4 Bft) W-SW 247 0 min 0,000 mm 0,0 UV-I 0 W/m 3,9 C -2,3 C 32,2 km/h (5 Bft) 91,30 %
24.12.2017 01:46 6,4 C 3,9 C 84 % 1030,1 hPa 0,0 l/m 19,3 km/h (3 Bft) W-SW 247 0 min 0,000 mm 0,0 UV-I 0 W/m 3,9 C -1,1 C 27,4 km/h (4 Bft) 100,00 %
24.12.2017 01:47 6,4 C 3,9 C 84 % 1030,1 hPa 0,0 l/m 16,1 km/h (3 Bft) W-SW 247 0 min 0,000 mm 0,0 UV-I 0 W/m 3,9 C 0,3 C 25,7 km/h (4 Bft) 91,30 %
24.12.2017 01:48 6,4 C 3,9 C 84 % 1030,1 hPa 0,0 l/m 22,5 km/h (4 Bft) W-SW 247 0 min 0,000 mm 0,0 UV-I 0 W/m 3,9 C -2,3 C 32,2 km/h (5 Bft) 91,30 %
24.12.2017 01:49 6,4 C 3,9 C 84 % 1030,2 hPa 0,0 l/m 16,1 km/h (3 Bft) W-SW 247 0 min 0,000 mm 0,0 UV-I 0 W/m 3,9 C 0,3 C 30,6 km/h (5 Bft) 100,00 %
24.12.2017 01:50 6,4 C 3,9 C 84 % 1030,2 hPa 0,0 l/m 17,7 km/h (3 Bft) W-SW 247 0 min 0,000 mm 0,0 UV-I 0 W/m 3,9 C -0,4 C 25,7 km/h (4 Bft) 82,61 %
24.12.2017 01:51 6,4 C 3,9 C 84 % 1030,1 hPa 0,0 l/m 20,9 km/h (4 Bft) W-SW 247 0 min 0,000 mm 0,0 UV-I 0 W/m 3,9 C -1,7 C 29,0 km/h (5 Bft) 100,00 %
24.12.2017 01:52 6,4 C 3,9 C 84 % 1030,1 hPa 0,0 l/m 14,5 km/h (3 Bft) W 270 0 min 0,000 mm 0,0 UV-I 0 W/m 3,9 C 1,0 C 17,7 km/h (3 Bft) 91,30 %
24.12.2017 01:53 6,4 C 3,9 C 84 % 1030,1 hPa 0,0 l/m 17,7 km/h (3 Bft) W-SW 247 0 min 0,000 mm 0,0 UV-I 0 W/m 3,9 C -0,4 C 24,1 km/h (4 Bft) 100,00 %
24.12.2017 01:54 6,4 C 3,9 C 84 % 1030,0 hPa 0,0 l/m 20,9 km/h (4 Bft) SW 225 0 min 0,000 mm 0,0 UV-I 0 W/m 3,9 C -1,7 C 30,6 km/h (5 Bft) 91,30 %
24.12.2017 01:55 6,4 C 3,9 C 84 % 1030,0 hPa 0,0 l/m 12,9 km/h (3 Bft) W-SW 247 0 min 0,000 mm 0,0 UV-I 0 W/m 3,9 C 1,9 C 17,7 km/h (3 Bft) 100,00 %
24.12.2017 01:56 6,4 C 3,9 C 84 % 1030,0 hPa 0,0 l/m 17,7 km/h (3 Bft) W-SW 247 0 min 0,000 mm 0,0 UV-I 0 W/m 3,9 C -0,4 C 22,5 km/h (4 Bft) 95,65 %
24.12.2017 01:57 6,4 C 3,9 C 84 % 1030,0 hPa 0,0 l/m 12,9 km/h (3 Bft) W 270 0 min 0,000 mm 0,0 UV-I 0 W/m 3,9 C 1,9 C 19,3 km/h (3 Bft) 91,30 %
24.12.2017 01:58 6,4 C 3,9 C 84 % 1030,0 hPa 0,0 l/m 19,3 km/h (3 Bft) W-SW 247 0 min 0,000 mm 0,0 UV-I 0 W/m 3,9 C -1,1 C 32,2 km/h (5 Bft) 91,30 %
24.12.2017 01:59 6,4 C 3,9 C 84 % 1029,9 hPa 0,0 l/m 11,3 km/h (2 Bft) W-SW 247 0 min 0,000 mm 0,0 UV-I 0 W/m 3,9 C 2,8 C 20,9 km/h (4 Bft) 100,00 %
24.12.2017 02:00 6,4 C 3,9 C 84 % 1029,9 hPa 0,0 l/m 17,7 km/h (3 Bft) W 270 0 min 0,025 mm 0,0 UV-I 0 W/m 3,9 C -0,4 C 30,6 km/h (5 Bft) 95,65 %
24.12.2017 02:01 6,4 C 3,9 C 84 % 1030,0 hPa 0,0 l/m 19,3 km/h (3 Bft) W-SW 247 0 min 0,000 mm 0,0 UV-I 0 W/m 3,9 C -1,1 C 33,8 km/h (5 Bft) 100,00 %
24.12.2017 02:02 6,4 C 3,9 C 84 % 1030,0 hPa 0,0 l/m 20,9 km/h (4 Bft) W-SW 247 0 min 0,000 mm 0,0 UV-I 0 W/m 3,9 C -1,7 C 27,4 km/h (4 Bft) 100,00 %
24.12.2017 02:03 6,3 C 3,9 C 84 % 1030,0 hPa 0,0 l/m 22,5 km/h (4 Bft) W 270 0 min 0,000 mm 0,0 UV-I 0 W/m 3,8 C -2,4 C 33,8 km/h (5 Bft) 100,00 %
24.12.2017 02:04 6,3 C 3,9 C 84 % 1030,0 hPa 0,0 l/m 17,7 km/h (3 Bft) W 270 0 min 0,000 mm 0,0 UV-I 0 W/m 3,8 C -0,6 C 24,1 km/h (4 Bft) 95,65 %
24.12.2017 02:05 6,3 C 3,9 C 84 % 1030,0 hPa 0,0 l/m 17,7 km/h (3 Bft) W-SW 247 0 min 0,000 mm 0,0 UV-I 0 W/m 3,8 C -0,6 C 30,6 km/h (5 Bft) 100,00 %
24.12.2017 02:06 6,3 C 3,9 C 84 % 1029,9 hPa 0,0 l/m 17,7 km/h (3 Bft) W-SW 247 0 min 0,000 mm 0,0 UV-I 0 W/m 3,8 C -0,6 C 27,4 km/h (4 Bft) 100,00 %
24.12.2017 02:07 6,3 C 3,9 C 85 % 1030,0 hPa 0,0 l/m 20,9 km/h (4 Bft) W-SW 247 0 min 0,000 mm 0,0 UV-I 0 W/m 4,0 C -1,8 C 29,0 km/h (5 Bft) 95,65 %
24.12.2017 02:08 6,3 C 3,9 C 84 % 1030,0 hPa 0,0 l/m 24,1 km/h (4 Bft) W-SW 247 0 min 0,000 mm 0,0 UV-I 0 W/m 3,8 C -2,9 C 32,2 km/h (5 Bft) 100,00 %
24.12.2017 02:09 6,3 C 3,9 C 85 % 1030,0 hPa 0,0 l/m 22,5 km/h (4 Bft) W 270 0 min 0,000 mm 0,0 UV-I 0 W/m 4,0 C -2,4 C 30,6 km/h (5 Bft) 100,00 %
24.12.2017 02:10 6,3 C 3,9 C 85 % 1030,1 hPa 0,0 l/m 22,5 km/h (4 Bft) W 270 0 min 0,000 mm 0,0 UV-I 0 W/m 4,0 C -2,4 C 33,8 km/h (5 Bft) 95,65 %
24.12.2017 02:11 6,3 C 3,9 C 85 % 1030,0 hPa 0,0 l/m 17,7 km/h (3 Bft) W-SW 247 0 min 0,000 mm 0,0 UV-I 0 W/m 4,0 C -0,6 C 32,2 km/h (5 Bft) 95,65 %
24.12.2017 02:12 6,3 C 3,9 C 85 % 1030,1 hPa 0,0 l/m 19,3 km/h (3 Bft) W-SW 247 0 min 0,000 mm 0,0 UV-I 0 W/m 4,0 C -1,2 C 29,0 km/h (5 Bft) 100,00 %
24.12.2017 02:13 6,3 C 3,9 C 85 % 1030,0 hPa 0,0 l/m 19,3 km/h (3 Bft) W-SW 247 0 min 0,000 mm 0,0 UV-I 0 W/m 4,0 C -1,2 C 30,6 km/h (5 Bft) 100,00 %
24.12.2017 02:14 6,3 C 3,9 C 85 % 1030,1 hPa 0,0 l/m 25,7 km/h (4 Bft) W-SW 247 0 min 0,000 mm 0,0 UV-I 0 W/m 4,0 C -3,4 C 37,0 km/h (5 Bft) 100,00 %
24.12.2017 02:15 6,3 C 3,9 C 85 % 1030,0 hPa 0,0 l/m 24,1 km/h (4 Bft) W 270 0 min 0,000 mm 0,0 UV-I 0 W/m 4,0 C -2,9 C 35,4 km/h (5 Bft) 100,00 %
24.12.2017 02:16 6,3 C 3,9 C 85 % 1030,1 hPa 0,0 l/m 22,5 km/h (4 Bft) W-SW 247 0 min 0,000 mm 0,0 UV-I 0 W/m 4,0 C -2,4 C 32,2 km/h (5 Bft) 100,00 %
24.12.2017 02:17 6,3 C 3,9 C 85 % 1030,1 hPa 0,0 l/m 20,9 km/h (4 Bft) W-SW 247 0 min 0,000 mm 0,0 UV-I 0 W/m 4,0 C -1,8 C 30,6 km/h (5 Bft) 100,00 %
24.12.2017 02:18 6,3 C 3,9 C 85 % 1030,1 hPa 0,0 l/m 17,7 km/h (3 Bft) W-SW 247 0 min 0,000 mm 0,0 UV-I 0 W/m 4,0 C -0,6 C 22,5 km/h (4 Bft) 95,65 %
24.12.2017 02:19 6,3 C 3,9 C 85 % 1030,1 hPa 0,0 l/m 19,3 km/h (3 Bft) W 270 0 min 0,000 mm 0,0 UV-I 0 W/m 4,0 C -1,2 C 24,1 km/h (4 Bft) 100,00 %
24.12.2017 02:20 6,3 C 3,9 C 85 % 1030,1 hPa 0,0 l/m 19,3 km/h (3 Bft) W-SW 247 0 min 0,000 mm 0,0 UV-I 0 W/m 4,0 C -1,2 C 30,6 km/h (5 Bft) 95,65 %
24.12.2017 02:21 6,2 C 3,9 C 85 % 1030,1 hPa 0,0 l/m 14,5 km/h (3 Bft) W-SW 247 0 min 0,000 mm 0,0 UV-I 0 W/m 3,9 C 0,8 C 27,4 km/h (4 Bft) 100,00 %
24.12.2017 02:22 6,2 C 3,9 C 85 % 1030,1 hPa 0,0 l/m 17,7 km/h (3 Bft) W 270 0 min 0,000 mm 0,0 UV-I 0 W/m 3,9 C -0,7 C 22,5 km/h (4 Bft) 100,00 %
24.12.2017 02:23 6,2 C 3,9 C 85 % 1030,1 hPa 0,0 l/m 24,1 km/h (4 Bft) W-SW 247 0 min 0,000 mm 0,0 UV-I 0 W/m 3,9 C -3,0 C 32,2 km/h (5 Bft) 100,00 %
24.12.2017 02:24 6,2 C 3,9 C 85 % 1030,1 hPa 0,0 l/m 17,7 km/h (3 Bft) W-SW 247 0 min 0,000 mm 0,0 UV-I 0 W/m 3,9 C -0,7 C 25,7 km/h (4 Bft) 100,00 %
24.12.2017 02:25 6,2 C 3,9 C 85 % 1030,2 hPa 0,0 l/m 12,9 km/h (3 Bft) W-SW 247 0 min 0,000 mm 0,0 UV-I 0 W/m 3,9 C 1,6 C 16,1 km/h (3 Bft) 91,30 %
24.12.2017 02:26 6,2 C 3,9 C 85 % 1030,2 hPa 0,0 l/m 24,1 km/h (4 Bft) W-SW 247 0 min 0,000 mm 0,0 UV-I 0 W/m 3,9 C -3,0 C 32,2 km/h (5 Bft) 100,00 %
24.12.2017 02:27 6,2 C 3,9 C 85 % 1030,2 hPa 0,0 l/m 20,9 km/h (4 Bft) W-SW 247 0 min 0,000 mm 0,0 UV-I 0 W/m 3,9 C -2,0 C 40,2 km/h (6 Bft) 100,00 %
24.12.2017 02:28 6,2 C 3,9 C 85 % 1030,2 hPa 0,0 l/m 25,7 km/h (4 Bft) W-SW 247 0 min 0,000 mm 0,0 UV-I 0 W/m 3,9 C -3,5 C 38,6 km/h (5 Bft) 100,00 %
24.12.2017 02:29 6,2 C 3,9 C 85 % 1030,2 hPa 0,0 l/m 27,4 km/h (4 Bft) W-SW 247 0 min 0,000 mm 0,0 UV-I 0 W/m 3,9 C -4,0 C 35,4 km/h (5 Bft) 100,00 %
24.12.2017 02:30 6,2 C 3,9 C 85 % 1030,1 hPa 0,0 l/m 20,9 km/h (4 Bft) W 270 0 min 0,000 mm 0,0 UV-I 0 W/m 3,9 C -2,0 C 27,4 km/h (4 Bft) 100,00 %
24.12.2017 02:31 6,2 C 3,9 C 85 % 1030,1 hPa 0,0 l/m 19,3 km/h (3 Bft) W-SW 247 0 min 0,000 mm 0,0 UV-I 0 W/m 3,9 C -1,4 C 29,0 km/h (5 Bft) 100,00 %
24.12.2017 02:32 6,2 C 3,9 C 85 % 1030,1 hPa 0,0 l/m 14,5 km/h (3 Bft) W-SW 247 0 min 0,000 mm 0,0 UV-I 0 W/m 3,9 C 0,8 C 24,1 km/h (4 Bft) 95,65 %
24.12.2017 02:33 6,2 C 3,9 C 85 % 1030,1 hPa 0,0 l/m 16,1 km/h (3 Bft) W-SW 247 0 min 0,000 mm 0,0 UV-I 0 W/m 3,9 C 0,0 C 27,4 km/h (4 Bft) 100,00 %
24.12.2017 02:34 6,2 C 3,9 C 85 % 1030,1 hPa 0,0 l/m 20,9 km/h (4 Bft) W-SW 247 0 min 0,000 mm 0,0 UV-I 0 W/m 3,9 C -2,0 C 25,7 km/h (4 Bft) 100,00 %
24.12.2017 02:35 6,2 C 3,9 C 85 % 1030,1 hPa 0,0 l/m 16,1 km/h (3 Bft) W 270 0 min 0,000 mm 0,0 UV-I 0 W/m 3,9 C 0,0 C 22,5 km/h (4 Bft) 100,00 %
24.12.2017 02:36 6,2 C 3,9 C 85 % 1030,1 hPa 0,0 l/m 14,5 km/h (3 Bft) W-SW 247 0 min 0,000 mm 0,0 UV-I 0 W/m 3,9 C 0,8 C 20,9 km/h (4 Bft) 95,65 %
24.12.2017 02:37 6,2 C 3,9 C 85 % 1030,1 hPa 0,0 l/m 19,3 km/h (3 Bft) W-SW 247 0 min 0,000 mm 0,0 UV-I 0 W/m 3,9 C -1,4 C 24,1 km/h (4 Bft) 100,00 %
24.12.2017 02:38 6,2 C 3,9 C 85 % 1030,0 hPa 0,0 l/m 17,7 km/h (3 Bft) W 270 0 min 0,000 mm 0,0 UV-I 0 W/m 3,9 C -0,7 C 24,1 km/h (4 Bft) 100,00 %
24.12.2017 02:39 6,1 C 3,9 C 85 % 1030,1 hPa 0,0 l/m 19,3 km/h (3 Bft) W-SW 247 0 min 0,000 mm 0,0 UV-I 0 W/m 3,8 C -1,5 C 24,1 km/h (4 Bft) 95,65 %
24.12.2017 02:40 6,1 C 3,9 C 84 % 1030,0 hPa 0,0 l/m 19,3 km/h (3 Bft) W 270 0 min 0,000 mm 0,0 UV-I 0 W/m 3,6 C -1,5 C 25,7 km/h (4 Bft) 100,00 %
24.12.2017 02:41 6,1 C 3,9 C 84 % 1030,0 hPa 0,0 l/m 24,1 km/h (4 Bft) W 270 0 min 0,000 mm 0,0 UV-I 0 W/m 3,6 C -3,2 C 30,6 km/h (5 Bft) 95,65 %
24.12.2017 02:42 6,2 C 3,9 C 84 % 1029,9 hPa 0,0 l/m 14,5 km/h (3 Bft) W-SW 247 0 min 0,000 mm 0,0 UV-I 0 W/m 3,7 C 0,8 C 20,9 km/h (4 Bft) 100,00 %
24.12.2017 02:43 6,1 C 3,9 C 84 % 1029,9 hPa 0,0 l/m 17,7 km/h (3 Bft) W 270 0 min 0,000 mm 0,0 UV-I 0 W/m 3,6 C -0,8 C 27,4 km/h (4 Bft) 100,00 %
24.12.2017 02:44 6,1 C 3,9 C 85 % 1029,9 hPa 0,0 l/m 19,3 km/h (3 Bft) W-SW 247 0 min 0,000 mm 0,0 UV-I 0 W/m 3,8 C -1,5 C 29,0 km/h (5 Bft) 95,65 %
24.12.2017 02:45 6,1 C 3,9 C 84 % 1029,9 hPa 0,0 l/m 19,3 km/h (3 Bft) W-SW 247 0 min 0,000 mm 0,0 UV-I 0 W/m 3,6 C -1,5 C 24,1 km/h (4 Bft) 100,00 %
24.12.2017 02:46 6,1 C 3,9 C 85 % 1029,9 hPa 0,0 l/m 19,3 km/h (3 Bft) W 270 0 min 0,000 mm 0,0 UV-I 0 W/m 3,8 C -1,5 C 25,7 km/h (4 Bft) 95,65 %
24.12.2017 02:47 6,1 C 3,9 C 85 % 1029,9 hPa 0,0 l/m 14,5 km/h (3 Bft) W-SW 247 0 min 0,000 mm 0,0 UV-I 0 W/m 3,8 C 0,7 C 25,7 km/h (4 Bft) 100,00 %
24.12.2017 02:48 6,1 C 3,9 C 85 % 1029,9 hPa 0,0 l/m 20,9 km/h (4 Bft) W 270 0 min 0,000 mm 0,0 UV-I 0 W/m 3,8 C -2,1 C 30,6 km/h (5 Bft) 100,00 %
24.12.2017 02:49 6,1 C 3,9 C 85 % 1029,9 hPa 0,0 l/m 19,3 km/h (3 Bft) W-SW 247 0 min 0,000 mm 0,0 UV-I 0 W/m 3,8 C -1,5 C 27,4 km/h (4 Bft) 95,65 %
24.12.2017 02:50 6,1 C 3,9 C 85 % 1029,9 hPa 0,0 l/m 17,7 km/h (3 Bft) W 270 0 min 0,000 mm 0,0 UV-I 0 W/m 3,8 C -0,8 C 22,5 km/h (4 Bft) 100,00 %
24.12.2017 02:51 6,0 C 3,9 C 85 % 1029,8 hPa 0,0 l/m 17,7 km/h (3 Bft) W 270 0 min 0,000 mm 0,0 UV-I 0 W/m 3,7 C -1,0 C 24,1 km/h (4 Bft) 100,00 %
24.12.2017 02:52 6,0 C 3,9 C 85 % 1029,9 hPa 0,0 l/m 16,1 km/h (3 Bft) W-SW 247 0 min 0,000 mm 0,0 UV-I 0 W/m 3,7 C -0,2 C 19,3 km/h (3 Bft) 100,00 %
24.12.2017 02:53 6,0 C 3,9 C 85 % 1029,9 hPa 0,0 l/m 24,1 km/h (4 Bft) W 270 0 min 0,000 mm 0,0 UV-I 0 W/m 3,7 C -3,3 C 30,6 km/h (5 Bft) 95,65 %
24.12.2017 02:54 6,0 C 3,9 C 85 % 1029,8 hPa 0,0 l/m 24,1 km/h (4 Bft) W-SW 247 0 min 0,000 mm 0,0 UV-I 0 W/m 3,7 C -3,3 C 30,6 km/h (5 Bft) 95,65 %
24.12.2017 02:55 6,0 C 3,9 C 85 % 1029,8 hPa 0,0 l/m 25,7 km/h (4 Bft) W-SW 247 0 min 0,000 mm 0,0 UV-I 0 W/m 3,7 C -3,8 C 30,6 km/h (5 Bft) 95,65 %
24.12.2017 02:56 6,0 C 3,9 C 85 % 1029,8 hPa 0,0 l/m 17,7 km/h (3 Bft) W 270 0 min 0,000 mm 0,0 UV-I 0 W/m 3,7 C -1,0 C 22,5 km/h (4 Bft) 100,00 %
24.12.2017 02:57 6,0 C 3,9 C 85 % 1029,9 hPa 0,0 l/m 22,5 km/h (4 Bft) W-SW 247 0 min 0,000 mm 0,0 UV-I 0 W/m 3,7 C -2,8 C 33,8 km/h (5 Bft) 100,00 %
24.12.2017 02:58 6,0 C 3,9 C 85 % 1029,8 hPa 0,0 l/m 16,1 km/h (3 Bft) W-SW 247 0 min 0,000 mm 0,0 UV-I 0 W/m 3,7 C -0,2 C 22,5 km/h (4 Bft) 91,30 %
24.12.2017 02:59 6,0 C 3,9 C 85 % 1029,9 hPa 0,0 l/m 17,7 km/h (3 Bft) W-SW 247 0 min 0,000 mm 0,0 UV-I 0 W/m 3,7 C -1,0 C 22,5 km/h (4 Bft) 100,00 %
24.12.2017 03:00 6,0 C 3,9 C 85 % 1029,9 hPa 0,0 l/m 24,1 km/h (4 Bft) W-SW 247 0 min 0,025 mm 0,0 UV-I 0 W/m 3,7 C -3,3 C 35,4 km/h (5 Bft) 95,65 %
24.12.2017 03:01 6,0 C 3,9 C 85 % 1029,9 hPa 0,0 l/m 16,1 km/h (3 Bft) W 270 0 min 0,000 mm 0,0 UV-I 0 W/m 3,7 C -0,2 C 24,1 km/h (4 Bft) 100,00 %
24.12.2017 03:02 6,0 C 3,9 C 85 % 1029,9 hPa 0,0 l/m 20,9 km/h (4 Bft) W 270 0 min 0,000 mm 0,0 UV-I 0 W/m 3,7 C -2,2 C 27,4 km/h (4 Bft) 95,65 %
24.12.2017 03:03 6,0 C 3,9 C 85 % 1029,9 hPa 0,0 l/m 19,3 km/h (3 Bft) W 270 0 min 0,000 mm 0,0 UV-I 0 W/m 3,7 C -1,6 C 30,6 km/h (5 Bft) 100,00 %
24.12.2017 03:04 6,0 C 3,9 C 85 % 1029,8 hPa 0,0 l/m 20,9 km/h (4 Bft) W-SW 247 0 min 0,000 mm 0,0 UV-I 0 W/m 3,7 C -2,2 C 32,2 km/h (5 Bft) 95,65 %
24.12.2017 03:05 6,0 C 3,9 C 85 % 1029,9 hPa 0,0 l/m 19,3 km/h (3 Bft) W 270 0 min 0,000 mm 0,0 UV-I 0 W/m 3,7 C -1,6 C 29,0 km/h (5 Bft) 100,00 %
24.12.2017 03:06 5,9 C 3,9 C 85 % 1029,9 hPa 0,0 l/m 20,9 km/h (4 Bft) W-SW 247 0 min 0,000 mm 0,0 UV-I 0 W/m 3,6 C -2,3 C 27,4 km/h (4 Bft) 95,65 %
24.12.2017 03:07 5,9 C 3,9 C 85 % 1029,8 hPa 0,0 l/m 20,9 km/h (4 Bft) W-SW 247 0 min 0,000 mm 0,0 UV-I 0 W/m 3,6 C -2,3 C 25,7 km/h (4 Bft) 91,30 %
24.12.2017 03:08 5,9 C 3,9 C 85 % 1029,9 hPa 0,0 l/m 22,5 km/h (4 Bft) W-SW 247 0 min 0,000 mm 0,0 UV-I 0 W/m 3,6 C -2,9 C 29,0 km/h (5 Bft) 100,00 %
24.12.2017 03:09 5,9 C 3,9 C 85 % 1029,8 hPa 0,0 l/m 17,7 km/h (3 Bft) W-SW 247 0 min 0,000 mm 0,0 UV-I 0 W/m 3,6 C -1,1 C 24,1 km/h (4 Bft) 95,65 %
24.12.2017 03:10 5,9 C 3,9 C 85 % 1029,8 hPa 0,0 l/m 20,9 km/h (4 Bft) W-SW 247 0 min 0,000 mm 0,0 UV-I 0 W/m 3,6 C -2,3 C 33,8 km/h (5 Bft) 100,00 %
24.12.2017 03:11 5,9 C 3,9 C 86 % 1029,9 hPa 0,0 l/m 16,1 km/h (3 Bft) W-SW 247 0 min 0,000 mm 0,0 UV-I 0 W/m 3,7 C -0,4 C 24,1 km/h (4 Bft) 91,30 %
24.12.2017 03:12 5,9 C 3,9 C 86 % 1029,8 hPa 0,0 l/m 27,4 km/h (4 Bft) W-SW 247 0 min 0,000 mm 0,0 UV-I 0 W/m 3,7 C -4,4 C 32,2 km/h (5 Bft) 100,00 %
24.12.2017 03:13 5,9 C 3,9 C 86 % 1029,9 hPa 0,0 l/m 17,7 km/h (3 Bft) W-SW 247 0 min 0,000 mm 0,0 UV-I 0 W/m 3,7 C -1,1 C 22,5 km/h (4 Bft) 91,30 %
24.12.2017 03:14 5,9 C 3,9 C 86 % 1029,9 hPa 0,0 l/m 19,3 km/h (3 Bft) W 270 0 min 0,000 mm 0,0 UV-I 0 W/m 3,7 C -1,7 C 27,4 km/h (4 Bft) 95,65 %
24.12.2017 03:15 5,9 C 3,9 C 86 % 1029,9 hPa 0,0 l/m 14,5 km/h (3 Bft) W 270 0 min 0,000 mm 0,0 UV-I 0 W/m 3,7 C 0,4 C 19,3 km/h (3 Bft) 91,30 %
24.12.2017 03:16 5,9 C 3,9 C 86 % 1030,0 hPa 0,0 l/m 19,3 km/h (3 Bft) W-SW 247 0 min 0,000 mm 0,0 UV-I 0 W/m 3,7 C -1,7 C 27,4 km/h (4 Bft) 100,00 %
24.12.2017 03:17 5,9 C 3,9 C 86 % 1029,9 hPa 0,0 l/m 19,3 km/h (3 Bft) W-SW 247 0 min 0,000 mm 0,0 UV-I 0 W/m 3,7 C -1,7 C 27,4 km/h (4 Bft) 95,65 %
24.12.2017 03:18 5,9 C 3,9 C 86 % 1029,9 hPa 0,0 l/m 17,7 km/h (3 Bft) W-SW 247 0 min 0,000 mm 0,0 UV-I 0 W/m 3,7 C -1,1 C 20,9 km/h (4 Bft) 100,00 %
24.12.2017 03:19 5,9 C 3,9 C 86 % 1029,9 hPa 0,0 l/m 17,7 km/h (3 Bft) W-SW 247 0 min 0,000 mm 0,0 UV-I 0 W/m 3,7 C -1,1 C 22,5 km/h (4 Bft) 91,30 %
24.12.2017 03:20 5,9 C 3,9 C 86 % 1029,9 hPa 0,0 l/m 17,7 km/h (3 Bft) W-SW 247 0 min 0,000 mm 0,0 UV-I 0 W/m 3,7 C -1,1 C 29,0 km/h (5 Bft) 100,00 %
24.12.2017 03:21 5,9 C 3,9 C 86 % 1029,8 hPa 0,0 l/m 19,3 km/h (3 Bft) W-SW 247 0 min 0,000 mm 0,0 UV-I 0 W/m 3,7 C -1,7 C 25,7 km/h (4 Bft) 91,30 %
24.12.2017 03:22 5,9 C 3,9 C 86 % 1029,8 hPa 0,0 l/m 24,1 km/h (4 Bft) W-SW 247 0 min 0,000 mm 0,0 UV-I 0 W/m 3,7 C -3,4 C 30,6 km/h (5 Bft) 95,65 %
24.12.2017 03:23 5,9 C 3,9 C 86 % 1029,7 hPa 0,0 l/m 17,7 km/h (3 Bft) W-SW 247 0 min 0,000 mm 0,0 UV-I 0 W/m 3,7 C -1,1 C 22,5 km/h (4 Bft) 91,30 %
24.12.2017 03:24 5,8 C 3,9 C 86 % 1029,7 hPa 0,0 l/m 14,5 km/h (3 Bft) W-SW 247 0 min 0,000 mm 0,0 UV-I 0 W/m 3,6 C 0,3 C 20,9 km/h (4 Bft) 100,00 %
24.12.2017 03:25 5,9 C 3,9 C 86 % 1029,7 hPa 0,0 l/m 20,9 km/h (4 Bft) W 270 0 min 0,000 mm 0,0 UV-I 0 W/m 3,7 C -2,3 C 24,1 km/h (4 Bft) 95,65 %
24.12.2017 03:26 5,8 C 3,9 C 86 % 1029,8 hPa 0,0 l/m 20,9 km/h (4 Bft) W-SW 247 0 min 0,000 mm 0,0 UV-I 0 W/m 3,6 C -2,5 C 29,0 km/h (5 Bft) 100,00 %
24.12.2017 03:27 5,8 C 3,9 C 86 % 1029,7 hPa 0,0 l/m 19,3 km/h (3 Bft) W 270 0 min 0,000 mm 0,0 UV-I 0 W/m 3,6 C -1,9 C 30,6 km/h (5 Bft) 95,65 %
24.12.2017 03:28 5,8 C 3,9 C 86 % 1029,7 hPa 0,0 l/m 19,3 km/h (3 Bft) W-SW 247 0 min 0,000 mm 0,0 UV-I 0 W/m 3,6 C -1,9 C 22,5 km/h (4 Bft) 95,65 %
24.12.2017 03:29 5,8 C 3,9 C 86 % 1029,7 hPa 0,0 l/m 17,7 km/h (3 Bft) W-SW 247 0 min 0,000 mm 0,0 UV-I 0 W/m 3,6 C -1,2 C 25,7 km/h (4 Bft) 91,30 %
24.12.2017 03:30 5,8 C 3,9 C 86 % 1029,7 hPa 0,0 l/m 19,3 km/h (3 Bft) W 270 0 min 0,000 mm 0,0 UV-I 0 W/m 3,6 C -1,9 C 24,1 km/h (4 Bft) 100,00 %
24.12.2017 03:31 5,8 C 3,9 C 86 % 1029,7 hPa 0,0 l/m 17,7 km/h (3 Bft) W-SW 247 0 min 0,000 mm 0,0 UV-I 0 W/m 3,6 C -1,2 C 25,7 km/h (4 Bft) 95,65 %
24.12.2017 03:32 5,8 C 3,9 C 86 % 1029,7 hPa 0,0 l/m 17,7 km/h (3 Bft) W-SW 247 0 min 0,000 mm 0,0 UV-I 0 W/m 3,6 C -1,2 C 22,5 km/h (4 Bft) 95,65 %
24.12.2017 03:33 5,8 C 3,9 C 86 % 1029,7 hPa 0,0 l/m 20,9 km/h (4 Bft) W-SW 247 0 min 0,000 mm 0,0 UV-I 0 W/m 3,6 C -2,5 C 27,4 km/h (4 Bft) 100,00 %
24.12.2017 03:34 5,8 C 3,9 C 86 % 1029,7 hPa 0,0 l/m 20,9 km/h (4 Bft) W-SW 247 0 min 0,000 mm 0,0 UV-I 0 W/m 3,6 C -2,5 C 27,4 km/h (4 Bft) 95,65 %
24.12.2017 03:35 5,8 C 3,9 C 86 % 1029,7 hPa 0,0 l/m 16,1 km/h (3 Bft) W-SW 247 0 min 0,000 mm 0,0 UV-I 0 W/m 3,6 C -0,5 C 20,9 km/h (4 Bft) 95,65 %
24.12.2017 03:36 5,8 C 3,9 C 86 % 1029,7 hPa 0,0 l/m 16,1 km/h (3 Bft) W-SW 247 0 min 0,000 mm 0,0 UV-I 0 W/m 3,6 C -0,5 C 30,6 km/h (5 Bft) 95,65 %
24.12.2017 03:37 5,8 C 3,9 C 86 % 1029,6 hPa 0,0 l/m 14,5 km/h (3 Bft) W 270 0 min 0,000 mm 0,0 UV-I 0 W/m 3,6 C 0,3 C 22,5 km/h (4 Bft) 100,00 %
24.12.2017 03:38 5,8 C 3,9 C 86 % 1029,7 hPa 0,0 l/m 19,3 km/h (3 Bft) W-SW 247 0 min 0,000 mm 0,0 UV-I 0 W/m 3,6 C -1,9 C 24,1 km/h (4 Bft) 95,65 %
24.12.2017 03:39 5,8 C 3,9 C 86 % 1029,6 hPa 0,0 l/m 19,3 km/h (3 Bft) W-SW 247 0 min 0,000 mm 0,0 UV-I 0 W/m 3,6 C -1,9 C 27,4 km/h (4 Bft) 100,00 %
24.12.2017 03:40 5,8 C 3,9 C 87 % 1029,6 hPa 0,0 l/m 20,9 km/h (4 Bft) W-SW 247 0 min 0,000 mm 0,0 UV-I 0 W/m 3,8 C -2,5 C 27,4 km/h (4 Bft) 86,96 %
24.12.2017 03:41 5,8 C 3,9 C 87 % 1029,7 hPa 0,0 l/m 20,9 km/h (4 Bft) W-SW 247 0 min 0,000 mm 0,0 UV-I 0 W/m 3,8 C -2,5 C 29,0 km/h (5 Bft) 95,65 %
24.12.2017 03:42 5,8 C 3,9 C 87 % 1029,7 hPa 0,0 l/m 17,7 km/h (3 Bft) W-SW 247 0 min 0,000 mm 0,0 UV-I 0 W/m 3,8 C -1,2 C 22,5 km/h (4 Bft) 95,65 %
24.12.2017 03:43 5,8 C 3,9 C 87 % 1029,7 hPa 0,0 l/m 19,3 km/h (3 Bft) W-SW 247 0 min 0,000 mm 0,0 UV-I 0 W/m 3,8 C -1,9 C 32,2 km/h (5 Bft) 95,65 %
24.12.2017 03:44 5,8 C 3,9 C 87 % 1029,6 hPa 0,0 l/m 25,7 km/h (4 Bft) W-SW 247 0 min 0,000 mm 0,0 UV-I 0 W/m 3,8 C -4,1 C 35,4 km/h (5 Bft) 100,00 %
24.12.2017 03:45 5,8 C 3,9 C 87 % 1029,5 hPa 0,0 l/m 25,7 km/h (4 Bft) W-SW 247 0 min 0,000 mm 0,0 UV-I 0 W/m 3,8 C -4,1 C 30,6 km/h (5 Bft) 95,65 %
24.12.2017 03:46 5,8 C 3,9 C 87 % 1029,6 hPa 0,0 l/m 22,5 km/h (4 Bft) W-SW 247 0 min 0,000 mm 0,0 UV-I 0 W/m 3,8 C -3,0 C 30,6 km/h (5 Bft) 100,00 %
24.12.2017 03:47 5,8 C 3,9 C 87 % 1029,5 hPa 0,0 l/m 20,9 km/h (4 Bft) W-SW 247 0 min 0,000 mm 0,0 UV-I 0 W/m 3,8 C -2,5 C 27,4 km/h (4 Bft) 95,65 %
24.12.2017 03:48 5,7 C 3,9 C 87 % 1029,5 hPa 0,0 l/m 17,7 km/h (3 Bft) W-SW 247 0 min 0,000 mm 0,0 UV-I 0 W/m 3,7 C -1,3 C 20,9 km/h (4 Bft) 91,30 %
24.12.2017 03:49 5,7 C 3,9 C 87 % 1029,5 hPa 0,0 l/m 19,3 km/h (3 Bft) W 270 0 min 0,000 mm 0,0 UV-I 0 W/m 3,7 C -2,0 C 25,7 km/h (4 Bft) 95,65 %
24.12.2017 03:50 5,7 C 3,9 C 87 % 1029,5 hPa 0,0 l/m 17,7 km/h (3 Bft) W 270 0 min 0,000 mm 0,0 UV-I 0 W/m 3,7 C -1,3 C 27,4 km/h (4 Bft) 95,65 %
24.12.2017 03:51 5,7 C 3,9 C 87 % 1029,5 hPa 0,0 l/m 22,5 km/h (4 Bft) W-SW 247 0 min 0,000 mm 0,0 UV-I 0 W/m 3,7 C -3,2 C 25,7 km/h (4 Bft) 95,65 %
24.12.2017 03:52 5,7 C 3,9 C 87 % 1029,5 hPa 0,0 l/m 20,9 km/h (4 Bft) W 270 0 min 0,000 mm 0,0 UV-I 0 W/m 3,7 C -2,6 C 27,4 km/h (4 Bft) 95,65 %
24.12.2017 03:53 5,7 C 3,9 C 87 % 1029,6 hPa 0,0 l/m 24,1 km/h (4 Bft) W 270 0 min 0,000 mm 0,0 UV-I 0 W/m 3,7 C -3,7 C 29,0 km/h (5 Bft) 95,65 %
24.12.2017 03:54 5,7 C 3,9 C 87 % 1029,5 hPa 0,0 l/m 17,7 km/h (3 Bft) W 270 0 min 0,000 mm 0,0 UV-I 0 W/m 3,7 C -1,3 C 22,5 km/h (4 Bft) 95,65 %
24.12.2017 03:55 5,7 C 3,9 C 87 % 1029,5 hPa 0,0 l/m 20,9 km/h (4 Bft) W 270 0 min 0,000 mm 0,0 UV-I 0 W/m 3,7 C -2,6 C 30,6 km/h (5 Bft) 95,65 %
24.12.2017 03:56 5,7 C 3,9 C 87 % 1029,5 hPa 0,0 l/m 19,3 km/h (3 Bft) W-SW 247 0 min 0,000 mm 0,0 UV-I 0 W/m 3,7 C -2,0 C 25,7 km/h (4 Bft) 91,30 %
24.12.2017 03:57 5,7 C 3,9 C 87 % 1029,6 hPa 0,0 l/m 17,7 km/h (3 Bft) W-SW 247 0 min 0,000 mm 0,0 UV-I 0 W/m 3,7 C -1,3 C 22,5 km/h (4 Bft) 100,00 %
24.12.2017 03:58 5,7 C 3,9 C 87 % 1029,6 hPa 0,0 l/m 14,5 km/h (3 Bft) W-SW 247 0 min 0,000 mm 0,0 UV-I 0 W/m 3,7 C 0,2 C 20,9 km/h (4 Bft) 95,65 %
24.12.2017 03:59 5,7 C 3,9 C 87 % 1029,6 hPa 0,0 l/m 14,5 km/h (3 Bft) SW 225 0 min 0,000 mm 0,0 UV-I 0 W/m 3,7 C 0,2 C 22,5 km/h (4 Bft) 100,00 %
24.12.2017 04:00 5,6 C 3,9 C 87 % 1029,7 hPa 0,0 l/m 17,7 km/h (3 Bft) W-SW 247 0 min 0,025 mm 0,0 UV-I 0 W/m 3,6 C -1,5 C 22,5 km/h (4 Bft) 100,00 %
24.12.2017 04:01 5,6 C 3,9 C 87 % 1029,7 hPa 0,0 l/m 19,3 km/h (3 Bft) W-SW 247 0 min 0,000 mm 0,0 UV-I 0 W/m 3,6 C -2,1 C 27,4 km/h (4 Bft) 100,00 %
24.12.2017 04:02 5,6 C 3,9 C 87 % 1029,7 hPa 0,0 l/m 17,7 km/h (3 Bft) W 270 0 min 0,000 mm 0,0 UV-I 0 W/m 3,6 C -1,5 C 24,1 km/h (4 Bft) 100,00 %
24.12.2017 04:03 5,6 C 3,9 C 87 % 1029,7 hPa 0,0 l/m 14,5 km/h (3 Bft) SW 225 0 min 0,000 mm 0,0 UV-I 0 W/m 3,6 C 0,1 C 16,1 km/h (3 Bft) 95,65 %
24.12.2017 04:04 5,5 C 3,9 C 87 % 1029,7 hPa 0,0 l/m 14,5 km/h (3 Bft) SW 225 0 min 0,000 mm 0,0 UV-I 0 W/m 3,5 C -0,1 C 20,9 km/h (4 Bft) 100,00 %
24.12.2017 04:05 5,5 C 3,9 C 87 % 1029,8 hPa 0,0 l/m 14,5 km/h (3 Bft) SW 225 0 min 0,000 mm 0,0 UV-I 0 W/m 3,5 C -0,1 C 17,7 km/h (3 Bft) 100,00 %
24.12.2017 04:06 5,4 C 3,9 C 87 % 1029,8 hPa 0,0 l/m 16,1 km/h (3 Bft) W-SW 247 0 min 0,000 mm 0,0 UV-I 0 W/m 3,4 C -1,0 C 20,9 km/h (4 Bft) 100,00 %
24.12.2017 04:07 5,4 C 3,9 C 87 % 1029,8 hPa 0,0 l/m 14,5 km/h (3 Bft) SW 225 0 min 0,000 mm 0,0 UV-I 0 W/m 3,4 C -0,2 C 19,3 km/h (3 Bft) 100,00 %
24.12.2017 04:08 5,4 C 3,9 C 87 % 1029,9 hPa 0,0 l/m 14,5 km/h (3 Bft) W-SW 247 0 min 0,000 mm 0,0 UV-I 0 W/m 3,4 C -0,2 C 19,3 km/h (3 Bft) 100,00 %
24.12.2017 04:09 5,4 C 3,9 C 87 % 1029,9 hPa 0,0 l/m 11,3 km/h (2 Bft) W-SW 247 0 min 0,000 mm 0,0 UV-I 0 W/m 3,4 C 1,7 C 17,7 km/h (3 Bft) 100,00 %
24.12.2017 04:10 5,4 C 3,9 C 87 % 1029,9 hPa 0,0 l/m 12,9 km/h (3 Bft) W-SW 247 0 min 0,000 mm 0,0 UV-I 0 W/m 3,4 C 0,7 C 17,7 km/h (3 Bft) 91,30 %
24.12.2017 04:11 5,4 C 3,9 C 87 % 1030,0 hPa 0,0 l/m 14,5 km/h (3 Bft) W 270 0 min 0,000 mm 0,0 UV-I 0 W/m 3,4 C -0,2 C 17,7 km/h (3 Bft) 100,00 %
24.12.2017 04:12 5,4 C 3,9 C 87 % 1030,0 hPa 0,0 l/m 11,3 km/h (2 Bft) W-SW 247 0 min 0,000 mm 0,0 UV-I 0 W/m 3,4 C 1,7 C 17,7 km/h (3 Bft) 100,00 %
24.12.2017 04:13 5,4 C 3,9 C 87 % 1030,0 hPa 0,0 l/m 9,7 km/h (2 Bft) W-SW 247 0 min 0,000 mm 0,0 UV-I 0 W/m 3,4 C 2,7 C 14,5 km/h (3 Bft) 95,65 %
24.12.2017 04:14 5,3 C 3,9 C 87 % 1029,9 hPa 0,0 l/m 14,5 km/h (3 Bft) SW 225 0 min 0,000 mm 0,0 UV-I 0 W/m 3,3 C -0,3 C 19,3 km/h (3 Bft) 100,00 %
24.12.2017 04:15 5,4 C 3,9 C 88 % 1030,0 hPa 0,0 l/m 12,9 km/h (3 Bft) W-SW 247 0 min 0,000 mm 0,0 UV-I 0 W/m 3,6 C 0,7 C 16,1 km/h (3 Bft) 100,00 %
24.12.2017 04:16 5,4 C 3,9 C 87 % 1030,0 hPa 0,0 l/m 11,3 km/h (2 Bft) SW 225 0 min 0,000 mm 0,0 UV-I 0 W/m 3,4 C 1,7 C 16,1 km/h (3 Bft) 100,00 %
24.12.2017 04:17 5,4 C 3,9 C 87 % 1030,0 hPa 0,0 l/m 9,7 km/h (2 Bft) SW 225 0 min 0,000 mm 0,0 UV-I 0 W/m 3,4 C 2,7 C 12,9 km/h (3 Bft) 95,65 %
24.12.2017 04:18 5,4 C 3,9 C 87 % 1030,0 hPa 0,0 l/m 11,3 km/h (2 Bft) SW 225 0 min 0,000 mm 0,0 UV-I 0 W/m 3,4 C 1,7 C 14,5 km/h (3 Bft) 100,00 %
24.12.2017 04:19 5,3 C 3,9 C 88 % 1029,9 hPa 0,0 l/m 12,9 km/h (3 Bft) SW 225 0 min 0,000 mm 0,0 UV-I 0 W/m 3,5 C 0,6 C 17,7 km/h (3 Bft) 100,00 %
24.12.2017 04:20 5,3 C 3,9 C 88 % 1029,8 hPa 0,0 l/m 12,9 km/h (3 Bft) SW 225 0 min 0,000 mm 0,0 UV-I 0 W/m 3,5 C 0,6 C 19,3 km/h (3 Bft) 100,00 %
24.12.2017 04:21 5,3 C 3,9 C 88 % 1029,9 hPa 0,0 l/m 12,9 km/h (3 Bft) SW 225 0 min 0,000 mm 0,0 UV-I 0 W/m 3,5 C 0,6 C 19,3 km/h (3 Bft) 100,00 %
24.12.2017 04:22 5,3 C 3,9 C 88 % 1029,7 hPa 0,0 l/m 11,3 km/h (2 Bft) SW 225 0 min 0,000 mm 0,0 UV-I 0 W/m 3,5 C 1,5 C 20,9 km/h (4 Bft) 100,00 %
24.12.2017 04:23 5,3 C 3,9 C 88 % 1029,7 hPa 0,0 l/m 14,5 km/h (3 Bft) SW 225 0 min 0,000 mm 0,0 UV-I 0 W/m 3,5 C -0,3 C 19,3 km/h (3 Bft) 100,00 %
24.12.2017 04:24 5,4 C 3,9 C 88 % 1029,7 hPa 0,0 l/m 12,9 km/h (3 Bft) S-SW 202 0 min 0,000 mm 0,0 UV-I 0 W/m 3,6 C 0,7 C 16,1 km/h (3 Bft) 95,65 %
24.12.2017 04:25 5,3 C 3,9 C 87 % 1029,7 hPa 0,0 l/m 12,9 km/h (3 Bft) SW 225 0 min 0,000 mm 0,0 UV-I 0 W/m 3,3 C 0,6 C 17,7 km/h (3 Bft) 91,30 %
24.12.2017 04:26 5,3 C 3,9 C 87 % 1029,7 hPa 0,0 l/m 11,3 km/h (2 Bft) S-SW 202 0 min 0,000 mm 0,0 UV-I 0 W/m 3,3 C 1,5 C 17,7 km/h (3 Bft) 100,00 %
24.12.2017 04:27 5,3 C 3,9 C 88 % 1029,6 hPa 0,0 l/m 12,9 km/h (3 Bft) S-SW 202 0 min 0,000 mm 0,0 UV-I 0 W/m 3,5 C 0,6 C 17,7 km/h (3 Bft) 95,65 %
24.12.2017 04:28 5,3 C 3,9 C 88 % 1029,6 hPa 0,0 l/m 11,3 km/h (2 Bft) SW 225 0 min 0,000 mm 0,0 UV-I 0 W/m 3,5 C 1,5 C 17,7 km/h (3 Bft) 95,65 %
24.12.2017 04:29 5,3 C 3,9 C 88 % 1029,7 hPa 0,0 l/m 12,9 km/h (3 Bft) S-SW 202 0 min 0,000 mm 0,0 UV-I 0 W/m 3,5 C 0,6 C 16,1 km/h (3 Bft) 100,00 %
24.12.2017 04:30 5,3 C 3,9 C 88 % 1029,7 hPa 0,0 l/m 9,7 km/h (2 Bft) S-SW 202 0 min 0,000 mm 0,0 UV-I 0 W/m 3,5 C 2,6 C 11,3 km/h (2 Bft) 91,30 %
24.12.2017 04:31 5,3 C 3,9 C 88 % 1029,7 hPa 0,0 l/m 8,0 km/h (2 Bft) SW 225 0 min 0,000 mm 0,0 UV-I 0 W/m 3,5 C 3,9 C 14,5 km/h (3 Bft) 95,65 %
24.12.2017 04:32 5,3 C 3,9 C 88 % 1029,7 hPa 0,0 l/m 9,7 km/h (2 Bft) SW 225 0 min 0,000 mm 0,0 UV-I 0 W/m 3,5 C 2,6 C 16,1 km/h (3 Bft) 95,65 %
24.12.2017 04:33 5,3 C 3,9 C 88 % 1029,7 hPa 0,0 l/m 8,0 km/h (2 Bft) SW 225 0 min 0,000 mm 0,0 UV-I 0 W/m 3,5 C 3,9 C 11,3 km/h (2 Bft) 100,00 %
24.12.2017 04:34 5,3 C 3,9 C 88 % 1029,7 hPa 0,0 l/m 9,7 km/h (2 Bft) SW 225 0 min 0,000 mm 0,0 UV-I 0 W/m 3,5 C 2,6 C 11,3 km/h (2 Bft) 95,65 %
24.12.2017 04:35 5,3 C 3,9 C 88 % 1029,7 hPa 0,0 l/m 8,0 km/h (2 Bft) SW 225 0 min 0,000 mm 0,0 UV-I 0 W/m 3,5 C 3,9 C 11,3 km/h (2 Bft) 95,65 %
24.12.2017 04:36 5,3 C 3,9 C 88 % 1029,7 hPa 0,0 l/m 9,7 km/h (2 Bft) S-SW 202 0 min 0,000 mm 0,0 UV-I 0 W/m 3,5 C 2,6 C 11,3 km/h (2 Bft) 95,65 %
24.12.2017 04:37 5,3 C 3,9 C 88 % 1029,8 hPa 0,0 l/m 9,7 km/h (2 Bft) SW 225 0 min 0,000 mm 0,0 UV-I 0 W/m 3,5 C 2,6 C 16,1 km/h (3 Bft) 100,00 %
24.12.2017 04:38 5,3 C 3,9 C 88 % 1029,8 hPa 0,0 l/m 11,3 km/h (2 Bft) S-SW 202 0 min 0,000 mm 0,0 UV-I 0 W/m 3,5 C 1,5 C 16,1 km/h (3 Bft) 91,30 %
24.12.2017 04:39 5,2 C 3,9 C 88 % 1029,8 hPa 0,0 l/m 8,0 km/h (2 Bft) S-SW 202 0 min 0,000 mm 0,0 UV-I 0 W/m 3,4 C 3,8 C 12,9 km/h (3 Bft) 95,65 %
24.12.2017 04:40 5,2 C 3,9 C 88 % 1029,8 hPa 0,0 l/m 9,7 km/h (2 Bft) S-SW 202 0 min 0,000 mm 0,0 UV-I 0 W/m 3,4 C 2,5 C 12,9 km/h (3 Bft) 95,65 %
24.12.2017 04:41 5,2 C 3,9 C 88 % 1029,8 hPa 0,0 l/m 9,7 km/h (2 Bft) W-SW 247 0 min 0,000 mm 0,0 UV-I 0 W/m 3,4 C 2,5 C 14,5 km/h (3 Bft) 100,00 %
24.12.2017 04:42 5,2 C 3,9 C 88 % 1029,9 hPa 0,0 l/m 9,7 km/h (2 Bft) SW 225 0 min 0,000 mm 0,0 UV-I 0 W/m 3,4 C 2,5 C 14,5 km/h (3 Bft) 95,65 %
24.12.2017 04:43 5,2 C 3,9 C 88 % 1029,9 hPa 0,0 l/m 9,7 km/h (2 Bft) S-SW 202 0 min 0,000 mm 0,0 UV-I 0 W/m 3,4 C 2,5 C 16,1 km/h (3 Bft) 95,65 %
24.12.2017 04:44 5,2 C 3,9 C 88 % 1029,9 hPa 0,0 l/m 8,0 km/h (2 Bft) W-SW 247 0 min 0,000 mm 0,0 UV-I 0 W/m 3,4 C 3,8 C 14,5 km/h (3 Bft) 100,00 %
24.12.2017 04:45 5,2 C 3,9 C 87 % 1029,9 hPa 0,0 l/m 8,0 km/h (2 Bft) SW 225 0 min 0,000 mm 0,0 UV-I 0 W/m 3,2 C 3,8 C 14,5 km/h (3 Bft) 91,30 %
24.12.2017 04:46 5,2 C 3,9 C 87 % 1029,9 hPa 0,0 l/m 9,7 km/h (2 Bft) S-SW 202 0 min 0,000 mm 0,0 UV-I 0 W/m 3,2 C 2,5 C 12,9 km/h (3 Bft) 95,65 %
24.12.2017 04:47 5,2 C 3,9 C 87 % 1029,9 hPa 0,0 l/m 8,0 km/h (2 Bft) SW 225 0 min 0,000 mm 0,0 UV-I 0 W/m 3,2 C 3,8 C 11,3 km/h (2 Bft) 100,00 %
24.12.2017 04:48 5,2 C 3,9 C 87 % 1030,0 hPa 0,0 l/m 8,0 km/h (2 Bft) SW 225 0 min 0,000 mm 0,0 UV-I 0 W/m 3,2 C 3,8 C 9,7 km/h (2 Bft) 100,00 %
24.12.2017 04:49 5,2 C 3,9 C 87 % 1029,9 hPa 0,0 l/m 8,0 km/h (2 Bft) SW 225 0 min 0,000 mm 0,0 UV-I 0 W/m 3,2 C 3,8 C 11,3 km/h (2 Bft) 100,00 %
24.12.2017 04:50 5,2 C 3,9 C 87 % 1030,0 hPa 0,0 l/m 6,4 km/h (2 Bft) SW 225 0 min 0,000 mm 0,0 UV-I 0 W/m 3,2 C 5,2 C 8,0 km/h (2 Bft) 100,00 %
24.12.2017 04:51 5,2 C 3,9 C 87 % 1030,0 hPa 0,0 l/m 8,0 km/h (2 Bft) W-SW 247 0 min 0,000 mm 0,0 UV-I 0 W/m 3,2 C 3,8 C 12,9 km/h (3 Bft) 100,00 %
24.12.2017 04:52 5,2 C 3,9 C 88 % 1030,0 hPa 0,0 l/m 9,7 km/h (2 Bft) S-SW 202 0 min 0,000 mm 0,0 UV-I 0 W/m 3,4 C 2,5 C 12,9 km/h (3 Bft) 95,65 %
24.12.2017 04:53 5,2 C 3,9 C 88 % 1030,0 hPa 0,0 l/m 8,0 km/h (2 Bft) SW 225 0 min 0,000 mm 0,0 UV-I 0 W/m 3,4 C 3,8 C 11,3 km/h (2 Bft) 91,30 %
24.12.2017 04:54 5,2 C 3,9 C 88 % 1030,0 hPa 0,0 l/m 8,0 km/h (2 Bft) SW 225 0 min 0,000 mm 0,0 UV-I 0 W/m 3,4 C 3,8 C 16,1 km/h (3 Bft) 95,65 %
24.12.2017 04:55 5,2 C 3,9 C 88 % 1030,0 hPa 0,0 l/m 9,7 km/h (2 Bft) SW 225 0 min 0,000 mm 0,0 UV-I 0 W/m 3,4 C 2,5 C 14,5 km/h (3 Bft) 100,00 %
24.12.2017 04:56 5,2 C 3,9 C 88 % 1030,0 hPa 0,0 l/m 9,7 km/h (2 Bft) S-SW 202 0 min 0,000 mm 0,0 UV-I 0 W/m 3,4 C 2,5 C 14,5 km/h (3 Bft) 100,00 %
24.12.2017 04:57 5,2 C 3,9 C 88 % 1030,0 hPa 0,0 l/m 6,4 km/h (2 Bft) SW 225 0 min 0,000 mm 0,0 UV-I 0 W/m 3,4 C 5,2 C 9,7 km/h (2 Bft) 100,00 %
24.12.2017 04:58 5,2 C 3,9 C 88 % 1030,0 hPa 0,0 l/m 9,7 km/h (2 Bft) SW 225 0 min 0,000 mm 0,0 UV-I 0 W/m 3,4 C 2,5 C 12,9 km/h (3 Bft) 100,00 %
24.12.2017 04:59 5,2 C 3,9 C 88 % 1030,0 hPa 0,0 l/m 9,7 km/h (2 Bft) SW 225 0 min 0,000 mm 0,0 UV-I 0 W/m 3,4 C 2,5 C 12,9 km/h (3 Bft) 95,65 %
24.12.2017 05:00 5,2 C 3,9 C 88 % 1030,1 hPa 0,0 l/m 9,7 km/h (2 Bft) SW 225 0 min 0,025 mm 0,0 UV-I 0 W/m 3,4 C 2,5 C 12,9 km/h (3 Bft) 100,00 %
24.12.2017 05:01 5,2 C 3,9 C 88 % 1030,0 hPa 0,0 l/m 9,7 km/h (2 Bft) SW 225 0 min 0,000 mm 0,0 UV-I 0 W/m 3,4 C 2,5 C 14,5 km/h (3 Bft) 95,65 %
24.12.2017 05:02 5,2 C 3,9 C 88 % 1030,1 hPa 0,0 l/m 11,3 km/h (2 Bft) W-SW 247 0 min 0,000 mm 0,0 UV-I 0 W/m 3,4 C 1,4 C 14,5 km/h (3 Bft) 100,00 %
24.12.2017 05:03 5,2 C 3,9 C 88 % 1030,1 hPa 0,0 l/m 8,0 km/h (2 Bft) W-SW 247 0 min 0,000 mm 0,0 UV-I 0 W/m 3,4 C 3,8 C 14,5 km/h (3 Bft) 100,00 %
24.12.2017 05:04 5,2 C 3,9 C 88 % 1030,0 hPa 0,0 l/m 11,3 km/h (2 Bft) W-SW 247 0 min 0,000 mm 0,0 UV-I 0 W/m 3,4 C 1,4 C 14,5 km/h (3 Bft) 100,00 %
24.12.2017 05:05 5,2 C 3,9 C 88 % 1030,0 hPa 0,0 l/m 9,7 km/h (2 Bft) W-SW 247 0 min 0,000 mm 0,0 UV-I 0 W/m 3,4 C 2,5 C 14,5 km/h (3 Bft) 100,00 %
24.12.2017 05:06 5,2 C 3,9 C 88 % 1030,0 hPa 0,0 l/m 11,3 km/h (2 Bft) W-SW 247 0 min 0,000 mm 0,0 UV-I 0 W/m 3,4 C 1,4 C 14,5 km/h (3 Bft) 95,65 %
24.12.2017 05:07 5,2 C 3,9 C 88 % 1030,0 hPa 0,0 l/m 12,9 km/h (3 Bft) W 270 0 min 0,000 mm 0,0 UV-I 0 W/m 3,4 C 0,5 C 16,1 km/h (3 Bft) 100,00 %
24.12.2017 05:08 5,2 C 3,9 C 88 % 1030,0 hPa 0,0 l/m 9,7 km/h (2 Bft) W-SW 247 0 min 0,000 mm 0,0 UV-I 0 W/m 3,4 C 2,5 C 14,5 km/h (3 Bft) 95,65 %
24.12.2017 05:09 5,2 C 3,9 C 88 % 1030,0 hPa 0,0 l/m 11,3 km/h (2 Bft) W-SW 247 0 min 0,000 mm 0,0 UV-I 0 W/m 3,4 C 1,4 C 14,5 km/h (3 Bft) 100,00 %
24.12.2017 05:10 5,2 C 3,9 C 88 % 1030,0 hPa 0,0 l/m 9,7 km/h (2 Bft) SW 225 0 min 0,000 mm 0,0 UV-I 0 W/m 3,4 C 2,5 C 14,5 km/h (3 Bft) 100,00 %
24.12.2017 05:11 5,2 C 3,9 C 88 % 1030,0 hPa 0,0 l/m 11,3 km/h (2 Bft) SW 225 0 min 0,000 mm 0,0 UV-I 0 W/m 3,4 C 1,4 C 14,5 km/h (3 Bft) 100,00 %
24.12.2017 05:12 5,2 C 3,9 C 88 % 1029,9 hPa 0,0 l/m 9,7 km/h (2 Bft) SW 225 0 min 0,000 mm 0,0 UV-I 0 W/m 3,4 C 2,5 C 14,5 km/h (3 Bft) 100,00 %
24.12.2017 05:13 5,2 C 3,9 C 88 % 1030,0 hPa 0,0 l/m 11,3 km/h (2 Bft) W-SW 247 0 min 0,000 mm 0,0 UV-I 0 W/m 3,4 C 1,4 C 17,7 km/h (3 Bft) 95,65 %
24.12.2017 05:14 5,2 C 3,9 C 88 % 1030,0 hPa 0,0 l/m 8,0 km/h (2 Bft) W-SW 247 0 min 0,000 mm 0,0 UV-I 0 W/m 3,4 C 3,8 C 11,3 km/h (2 Bft) 100,00 %
24.12.2017 05:15 5,2 C 3,9 C 88 % 1030,1 hPa 0,0 l/m 6,4 km/h (2 Bft) W-SW 247 0 min 0,000 mm 0,0 UV-I 0 W/m 3,4 C 5,2 C 11,3 km/h (2 Bft) 100,00 %
24.12.2017 05:16 5,2 C 3,9 C 88 % 1030,1 hPa 0,0 l/m 6,4 km/h (2 Bft) SW 225 0 min 0,000 mm 0,0 UV-I 0 W/m 3,4 C 5,2 C 9,7 km/h (2 Bft) 100,00 %
24.12.2017 05:17 5,2 C 3,9 C 88 % 1030,1 hPa 0,0 l/m 6,4 km/h (2 Bft) W 270 0 min 0,000 mm 0,0 UV-I 0 W/m 3,4 C 5,2 C 11,3 km/h (2 Bft) 100,00 %
24.12.2017 05:18 5,2 C 3,9 C 88 % 1030,1 hPa 0,0 l/m 6,4 km/h (2 Bft) W-SW 247 0 min 0,000 mm 0,0 UV-I 0 W/m 3,4 C 5,2 C 9,7 km/h (2 Bft) 95,65 %
24.12.2017 05:19 5,2 C 3,9 C 88 % 1030,1 hPa 0,0 l/m 9,7 km/h (2 Bft) W 270 0 min 0,000 mm 0,0 UV-I 0 W/m 3,4 C 2,5 C 14,5 km/h (3 Bft) 100,00 %
24.12.2017 05:20 5,2 C 3,9 C 88 % 1030,0 hPa 0,0 l/m 4,8 km/h (1 Bft) SW 225 0 min 0,000 mm 0,0 UV-I 0 W/m 3,4 C 5,2 C 9,7 km/h (2 Bft) 95,65 %
24.12.2017 05:21 5,2 C 3,9 C 88 % 1030,1 hPa 0,0 l/m 8,0 km/h (2 Bft) SW 225 0 min 0,000 mm 0,0 UV-I 0 W/m 3,4 C 3,8 C 12,9 km/h (3 Bft) 100,00 %
24.12.2017 05:22 5,2 C 3,9 C 88 % 1030,2 hPa 0,0 l/m 6,4 km/h (2 Bft) W-SW 247 0 min 0,000 mm 0,0 UV-I 0 W/m 3,4 C 5,2 C 8,0 km/h (2 Bft) 100,00 %
24.12.2017 05:23 5,3 C 3,9 C 88 % 1030,1 hPa 0,0 l/m 8,0 km/h (2 Bft) W-SW 247 0 min 0,000 mm 0,0 UV-I 0 W/m 3,5 C 3,9 C 12,9 km/h (3 Bft) 95,65 %
24.12.2017 05:24 5,3 C 3,9 C 88 % 1030,2 hPa 0,0 l/m 6,4 km/h (2 Bft) SW 225 0 min 0,000 mm 0,0 UV-I 0 W/m 3,5 C 5,3 C 11,3 km/h (2 Bft) 95,65 %
24.12.2017 05:25 5,3 C 3,9 C 88 % 1030,2 hPa 0,0 l/m 14,5 km/h (3 Bft) SW 225 0 min 0,000 mm 0,0 UV-I 0 W/m 3,5 C -0,3 C 16,1 km/h (3 Bft) 100,00 %
24.12.2017 05:26 5,3 C 3,9 C 88 % 1030,2 hPa 0,0 l/m 9,7 km/h (2 Bft) SW 225 0 min 0,000 mm 0,0 UV-I 0 W/m 3,5 C 2,6 C 12,9 km/h (3 Bft) 100,00 %
24.12.2017 05:27 5,3 C 3,9 C 88 % 1030,1 hPa 0,0 l/m 11,3 km/h (2 Bft) SW 225 0 min 0,000 mm 0,0 UV-I 0 W/m 3,5 C 1,5 C 16,1 km/h (3 Bft) 91,30 %
24.12.2017 05:28 5,3 C 3,9 C 88 % 1030,1 hPa 0,0 l/m 16,1 km/h (3 Bft) W-SW 247 0 min 0,000 mm 0,0 UV-I 0 W/m 3,5 C -1,1 C 22,5 km/h (4 Bft) 100,00 %
24.12.2017 05:29 5,3 C 3,9 C 88 % 1030,1 hPa 0,0 l/m 16,1 km/h (3 Bft) W-SW 247 0 min 0,000 mm 0,0 UV-I 0 W/m 3,5 C -1,1 C 20,9 km/h (4 Bft) 95,65 %
24.12.2017 05:30 5,3 C 3,9 C 88 % 1030,0 hPa 0,0 l/m 14,5 km/h (3 Bft) W 270 0 min 0,000 mm 0,0 UV-I 0 W/m 3,5 C -0,3 C 20,9 km/h (4 Bft) 100,00 %
24.12.2017 05:31 5,3 C 3,9 C 88 % 1030,0 hPa 0,0 l/m 12,9 km/h (3 Bft) SW 225 0 min 0,000 mm 0,0 UV-I 0 W/m 3,5 C 0,6 C 22,5 km/h (4 Bft) 91,30 %
24.12.2017 05:32 5,4 C 3,9 C 88 % 1029,9 hPa 0,0 l/m 17,7 km/h (3 Bft) W-SW 247 0 min 0,000 mm 0,0 UV-I 0 W/m 3,6 C -1,7 C 22,5 km/h (4 Bft) 95,65 %
24.12.2017 05:33 5,4 C 3,9 C 88 % 1030,0 hPa 0,0 l/m 16,1 km/h (3 Bft) W-SW 247 0 min 0,000 mm 0,0 UV-I 0 W/m 3,6 C -1,0 C 25,7 km/h (4 Bft) 100,00 %
24.12.2017 05:34 5,4 C 3,9 C 88 % 1030,0 hPa 0,0 l/m 20,9 km/h (4 Bft) W-SW 247 0 min 0,000 mm 0,0 UV-I 0 W/m 3,6 C -3,0 C 29,0 km/h (5 Bft) 91,30 %
24.12.2017 05:35 5,4 C 3,9 C 88 % 1029,9 hPa 0,0 l/m 16,1 km/h (3 Bft) SW 225 0 min 0,000 mm 0,0 UV-I 0 W/m 3,6 C -1,0 C 22,5 km/h (4 Bft) 100,00 %
24.12.2017 05:36 5,4 C 3,9 C 88 % 1029,9 hPa 0,0 l/m 14,5 km/h (3 Bft) W-SW 247 0 min 0,000 mm 0,0 UV-I 0 W/m 3,6 C -0,2 C 19,3 km/h (3 Bft) 95,65 %
24.12.2017 05:37 5,4 C 3,9 C 88 % 1030,0 hPa 0,0 l/m 11,3 km/h (2 Bft) W-SW 247 0 min 0,000 mm 0,0 UV-I 0 W/m 3,6 C 1,7 C 16,1 km/h (3 Bft) 100,00 %
24.12.2017 05:38 5,4 C 3,9 C 88 % 1029,9 hPa 0,0 l/m 8,0 km/h (2 Bft) W-SW 247 0 min 0,000 mm 0,0 UV-I 0 W/m 3,6 C 4,0 C 9,7 km/h (2 Bft) 95,65 %
24.12.2017 05:39 5,4 C 3,9 C 88 % 1029,9 hPa 0,0 l/m 11,3 km/h (2 Bft) SW 225 0 min 0,000 mm 0,0 UV-I 0 W/m 3,6 C 1,7 C 12,9 km/h (3 Bft) 100,00 %
24.12.2017 05:40 5,4 C 3,9 C 88 % 1029,9 hPa 0,0 l/m 9,7 km/h (2 Bft) W-SW 247 0 min 0,000 mm 0,0 UV-I 0 W/m 3,6 C 2,7 C 12,9 km/h (3 Bft) 91,30 %
24.12.2017 05:41 5,4 C 3,9 C 88 % 1029,9 hPa 0,0 l/m 8,0 km/h (2 Bft) SW 225 0 min 0,000 mm 0,0 UV-I 0 W/m 3,6 C 4,0 C 11,3 km/h (2 Bft) 86,96 %
24.12.2017 05:42 5,3 C 3,9 C 88 % 1029,9 hPa 0,0 l/m 12,9 km/h (3 Bft) SW 225 0 min 0,000 mm 0,0 UV-I 0 W/m 3,5 C 0,6 C 19,3 km/h (3 Bft) 100,00 %
24.12.2017 05:43 5,3 C 3,9 C 88 % 1029,9 hPa 0,0 l/m 9,7 km/h (2 Bft) W-SW 247 0 min 0,000 mm 0,0 UV-I 0 W/m 3,5 C 2,6 C 16,1 km/h (3 Bft) 95,65 %
24.12.2017 05:44 5,3 C 3,9 C 88 % 1029,9 hPa 0,0 l/m 9,7 km/h (2 Bft) W 270 0 min 0,000 mm 0,0 UV-I 0 W/m 3,5 C 2,6 C 14,5 km/h (3 Bft) 100,00 %
24.12.2017 05:45 5,3 C 3,9 C 88 % 1029,9 hPa 0,0 l/m 8,0 km/h (2 Bft) W-SW 247 0 min 0,000 mm 0,0 UV-I 0 W/m 3,5 C 3,9 C 11,3 km/h (2 Bft) 95,65 %
24.12.2017 05:46 5,3 C 3,9 C 88 % 1029,9 hPa 0,0 l/m 11,3 km/h (2 Bft) W-SW 247 0 min 0,000 mm 0,0 UV-I 0 W/m 3,5 C 1,5 C 16,1 km/h (3 Bft) 95,65 %
24.12.2017 05:47 5,3 C 3,9 C 88 % 1029,9 hPa 0,0 l/m 9,7 km/h (2 Bft) W-SW 247 0 min 0,000 mm 0,0 UV-I 0 W/m 3,5 C 2,6 C 12,9 km/h (3 Bft) 91,30 %
24.12.2017 05:48 5,3 C 3,9 C 88 % 1029,9 hPa 0,0 l/m 12,9 km/h (3 Bft) W-SW 247 0 min 0,000 mm 0,0 UV-I 0 W/m 3,5 C 0,6 C 16,1 km/h (3 Bft) 95,65 %
24.12.2017 05:49 5,3 C 3,9 C 88 % 1029,9 hPa 0,0 l/m 11,3 km/h (2 Bft) SW 225 0 min 0,000 mm 0,0 UV-I 0 W/m 3,5 C 1,5 C 14,5 km/h (3 Bft) 91,30 %
24.12.2017 05:50 5,3 C 3,9 C 88 % 1029,9 hPa 0,0 l/m 8,0 km/h (2 Bft) W-SW 247 0 min 0,000 mm 0,0 UV-I 0 W/m 3,5 C 3,9 C 11,3 km/h (2 Bft) 95,65 %
24.12.2017 05:51 5,3 C 3,9 C 88 % 1029,9 hPa 0,0 l/m 12,9 km/h (3 Bft) W-SW 247 0 min 0,000 mm 0,0 UV-I 0 W/m 3,5 C 0,6 C 17,7 km/h (3 Bft) 91,30 %
24.12.2017 05:52 5,3 C 3,9 C 88 % 1029,9 hPa 0,0 l/m 12,9 km/h (3 Bft) W-SW 247 0 min 0,000 mm 0,0 UV-I 0 W/m 3,5 C 0,6 C 19,3 km/h (3 Bft) 95,65 %
24.12.2017 05:53 5,3 C 3,9 C 88 % 1029,8 hPa 0,0 l/m 14,5 km/h (3 Bft) W-SW 247 0 min 0,000 mm 0,0 UV-I 0 W/m 3,5 C -0,3 C 20,9 km/h (4 Bft) 95,65 %
24.12.2017 05:54 5,3 C 3,9 C 88 % 1029,8 hPa 0,0 l/m 14,5 km/h (3 Bft) W-SW 247 0 min 0,000 mm 0,0 UV-I 0 W/m 3,5 C -0,3 C 17,7 km/h (3 Bft) 91,30 %
24.12.2017 05:55 5,3 C 3,9 C 88 % 1029,7 hPa 0,0 l/m 9,7 km/h (2 Bft) SW 225 0 min 0,000 mm 0,0 UV-I 0 W/m 3,5 C 2,6 C 17,7 km/h (3 Bft) 95,65 %
24.12.2017 05:56 5,3 C 3,9 C 88 % 1029,8 hPa 0,0 l/m 9,7 km/h (2 Bft) SW 225 0 min 0,000 mm 0,0 UV-I 0 W/m 3,5 C 2,6 C 12,9 km/h (3 Bft) 91,30 %
24.12.2017 05:57 5,3 C 3,9 C 88 % 1029,7 hPa 0,0 l/m 11,3 km/h (2 Bft) W-SW 247 0 min 0,000 mm 0,0 UV-I 0 W/m 3,5 C 1,5 C 16,1 km/h (3 Bft) 91,30 %
24.12.2017 05:58 5,3 C 3,9 C 88 % 1029,7 hPa 0,0 l/m 12,9 km/h (3 Bft) SW 225 0 min 0,000 mm 0,0 UV-I 0 W/m 3,5 C 0,6 C 19,3 km/h (3 Bft) 95,65 %
24.12.2017 05:59 5,2 C 3,9 C 88 % 1029,7 hPa 0,0 l/m 12,9 km/h (3 Bft) SW 225 0 min 0,000 mm 0,0 UV-I 0 W/m 3,4 C 0,5 C 17,7 km/h (3 Bft) 91,30 %
24.12.2017 06:00 5,2 C 3,9 C 88 % 1029,8 hPa 0,0 l/m 11,3 km/h (2 Bft) SW 225 0 min 0,025 mm 0,0 UV-I 0 W/m 3,4 C 1,4 C 17,7 km/h (3 Bft) 100,00 %
24.12.2017 06:01 5,1 C 3,9 C 88 % 1029,7 hPa 0,0 l/m 14,5 km/h (3 Bft) W-SW 247 0 min 0,000 mm 0,0 UV-I 0 W/m 3,3 C -0,5 C 19,3 km/h (3 Bft) 91,30 %
24.12.2017 06:02 5,1 C 3,9 C 88 % 1029,7 hPa 0,0 l/m 14,5 km/h (3 Bft) SW 225 0 min 0,000 mm 0,0 UV-I 0 W/m 3,3 C -0,5 C 20,9 km/h (4 Bft) 95,65 %
24.12.2017 06:03 5,1 C 3,9 C 88 % 1029,7 hPa 0,0 l/m 12,9 km/h (3 Bft) SW 225 0 min 0,000 mm 0,0 UV-I 0 W/m 3,3 C 0,3 C 20,9 km/h (4 Bft) 95,65 %
24.12.2017 06:04 5,1 C 3,9 C 88 % 1029,6 hPa 0,0 l/m 11,3 km/h (2 Bft) SW 225 0 min 0,000 mm 0,0 UV-I 0 W/m 3,3 C 1,3 C 20,9 km/h (4 Bft) 95,65 %
24.12.2017 06:05 5,1 C 3,9 C 88 % 1029,6 hPa 0,0 l/m 12,9 km/h (3 Bft) SW 225 0 min 0,000 mm 0,0 UV-I 0 W/m 3,3 C 0,3 C 19,3 km/h (3 Bft) 100,00 %
24.12.2017 06:06 5,0 C 3,9 C 88 % 1029,6 hPa 0,0 l/m 16,1 km/h (3 Bft) SW 225 0 min 0,000 mm 0,0 UV-I 0 W/m 3,2 C -1,5 C 19,3 km/h (3 Bft) 95,65 %
24.12.2017 06:07 5,0 C 3,9 C 88 % 1029,6 hPa 0,0 l/m 12,9 km/h (3 Bft) SW 225 0 min 0,000 mm 0,0 UV-I 0 W/m 3,2 C 0,2 C 17,7 km/h (3 Bft) 100,00 %
24.12.2017 06:08 5,0 C 3,9 C 89 % 1029,6 hPa 0,0 l/m 12,9 km/h (3 Bft) W-SW 247 0 min 0,000 mm 0,0 UV-I 0 W/m 3,3 C 0,2 C 16,1 km/h (3 Bft) 91,30 %
24.12.2017 06:09 5,0 C 3,9 C 89 % 1029,6 hPa 0,0 l/m 11,3 km/h (2 Bft) W-SW 247 0 min 0,000 mm 0,0 UV-I 0 W/m 3,3 C 1,2 C 14,5 km/h (3 Bft) 100,00 %
24.12.2017 06:10 5,0 C 3,9 C 88 % 1029,6 hPa 0,0 l/m 11,3 km/h (2 Bft) SW 225 0 min 0,000 mm 0,0 UV-I 0 W/m 3,2 C 1,2 C 16,1 km/h (3 Bft) 95,65 %
24.12.2017 06:11 4,9 C 3,9 C 89 % 1029,6 hPa 0,0 l/m 11,3 km/h (2 Bft) SW 225 0 min 0,000 mm 0,0 UV-I 0 W/m 3,2 C 1,1 C 14,5 km/h (3 Bft) 100,00 %
24.12.2017 06:12 4,9 C 3,9 C 89 % 1029,6 hPa 0,0 l/m 16,1 km/h (3 Bft) W-SW 247 0 min 0,000 mm 0,0 UV-I 0 W/m 3,2 C -1,6 C 22,5 km/h (4 Bft) 100,00 %
24.12.2017 06:13 4,9 C 3,9 C 89 % 1029,6 hPa 0,0 l/m 11,3 km/h (2 Bft) W-SW 247 0 min 0,000 mm 0,0 UV-I 0 W/m 3,2 C 1,1 C 14,5 km/h (3 Bft) 100,00 %
24.12.2017 06:14 4,9 C 3,9 C 89 % 1029,6 hPa 0,0 l/m 11,3 km/h (2 Bft) SW 225 0 min 0,000 mm 0,0 UV-I 0 W/m 3,2 C 1,1 C 17,7 km/h (3 Bft) 95,65 %
24.12.2017 06:15 4,9 C 3,9 C 89 % 1029,6 hPa 0,0 l/m 11,3 km/h (2 Bft) W-SW 247 0 min 0,000 mm 0,0 UV-I 0 W/m 3,2 C 1,1 C 17,7 km/h (3 Bft) 100,00 %
24.12.2017 06:16 4,9 C 3,9 C 89 % 1029,6 hPa 0,0 l/m 11,3 km/h (2 Bft) W-SW 247 0 min 0,000 mm 0,0 UV-I 0 W/m 3,2 C 1,1 C 17,7 km/h (3 Bft) 100,00 %
24.12.2017 06:17 4,9 C 3,9 C 89 % 1029,5 hPa 0,0 l/m 11,3 km/h (2 Bft) SW 225 0 min 0,000 mm 0,0 UV-I 0 W/m 3,2 C 1,1 C 19,3 km/h (3 Bft) 95,65 %
24.12.2017 06:18 4,9 C 3,9 C 89 % 1029,5 hPa 0,0 l/m 14,5 km/h (3 Bft) W-SW 247 0 min 0,000 mm 0,0 UV-I 0 W/m 3,2 C -0,8 C 19,3 km/h (3 Bft) 100,00 %
24.12.2017 06:19 4,9 C 3,9 C 88 % 1029,6 hPa 0,0 l/m 12,9 km/h (3 Bft) W-SW 247 0 min 0,000 mm 0,0 UV-I 0 W/m 3,1 C 0,1 C 16,1 km/h (3 Bft) 100,00 %
24.12.2017 06:20 4,9 C 3,9 C 88 % 1029,5 hPa 0,0 l/m 14,5 km/h (3 Bft) W-SW 247 0 min 0,000 mm 0,0 UV-I 0 W/m 3,1 C -0,8 C 19,3 km/h (3 Bft) 95,65 %
24.12.2017 06:21 4,9 C 3,9 C 88 % 1029,5 hPa 0,0 l/m 19,3 km/h (3 Bft) SW 225 0 min 0,000 mm 0,0 UV-I 0 W/m 3,1 C -3,0 C 25,7 km/h (4 Bft) 100,00 %
24.12.2017 06:22 4,9 C 3,9 C 88 % 1029,5 hPa 0,0 l/m 17,7 km/h (3 Bft) SW 225 0 min 0,000 mm 0,0 UV-I 0 W/m 3,1 C -2,3 C 22,5 km/h (4 Bft) 100,00 %
24.12.2017 06:23 4,9 C 3,9 C 88 % 1029,5 hPa 0,0 l/m 16,1 km/h (3 Bft) SW 225 0 min 0,000 mm 0,0 UV-I 0 W/m 3,1 C -1,6 C 20,9 km/h (4 Bft) 95,65 %
24.12.2017 06:24 4,9 C 3,9 C 88 % 1029,5 hPa 0,0 l/m 17,7 km/h (3 Bft) SW 225 0 min 0,000 mm 0,0 UV-I 0 W/m 3,1 C -2,3 C 25,7 km/h (4 Bft) 95,65 %
24.12.2017 06:25 4,9 C 3,9 C 88 % 1029,4 hPa 0,0 l/m 20,9 km/h (4 Bft) W-SW 247 0 min 0,000 mm 0,0 UV-I 0 W/m 3,1 C -3,7 C 27,4 km/h (4 Bft) 100,00 %
24.12.2017 06:26 4,9 C 3,9 C 88 % 1029,5 hPa 0,0 l/m 16,1 km/h (3 Bft) SW 225 0 min 0,000 mm 0,0 UV-I 0 W/m 3,1 C -1,6 C 24,1 km/h (4 Bft) 100,00 %
24.12.2017 06:27 4,9 C 3,9 C 88 % 1029,4 hPa 0,0 l/m 16,1 km/h (3 Bft) SW 225 0 min 0,000 mm 0,0 UV-I 0 W/m 3,1 C -1,6 C 19,3 km/h (3 Bft) 100,00 %
24.12.2017 06:28 4,9 C 3,9 C 88 % 1029,4 hPa 0,0 l/m 16,1 km/h (3 Bft) SW 225 0 min 0,000 mm 0,0 UV-I 0 W/m 3,1 C -1,6 C 22,5 km/h (4 Bft) 95,65 %
24.12.2017 06:29 4,9 C 3,9 C 88 % 1029,4 hPa 0,0 l/m 19,3 km/h (3 Bft) SW 225 0 min 0,000 mm 0,0 UV-I 0 W/m 3,1 C -3,0 C 27,4 km/h (4 Bft) 100,00 %
24.12.2017 06:30 4,9 C 3,9 C 88 % 1029,4 hPa 0,0 l/m 19,3 km/h (3 Bft) SW 225 0 min 0,000 mm 0,0 UV-I 0 W/m 3,1 C -3,0 C 25,7 km/h (4 Bft) 95,65 %
24.12.2017 06:31 4,9 C 3,9 C 88 % 1029,5 hPa 0,0 l/m 19,3 km/h (3 Bft) SW 225 0 min 0,000 mm 0,0 UV-I 0 W/m 3,1 C -3,0 C 22,5 km/h (4 Bft) 95,65 %
24.12.2017 06:32 4,9 C 3,9 C 88 % 1029,5 hPa 0,0 l/m 14,5 km/h (3 Bft) SW 225 0 min 0,000 mm 0,0 UV-I 0 W/m 3,1 C -0,8 C 24,1 km/h (4 Bft) 100,00 %
24.12.2017 06:33 4,8 C 3,9 C 88 % 1029,5 hPa 0,0 l/m 17,7 km/h (3 Bft) SW 225 0 min 0,000 mm 0,0 UV-I 0 W/m 3,0 C -2,5 C 27,4 km/h (4 Bft) 95,65 %
24.12.2017 06:34 4,9 C 3,9 C 88 % 1029,6 hPa 0,0 l/m 20,9 km/h (4 Bft) W-SW 247 0 min 0,000 mm 0,0 UV-I 0 W/m 3,1 C -3,7 C 25,7 km/h (4 Bft) 95,65 %
24.12.2017 06:35 4,8 C 3,9 C 88 % 1029,5 hPa 0,0 l/m 16,1 km/h (3 Bft) W-SW 247 0 min 0,000 mm 0,0 UV-I 0 W/m 3,0 C -1,7 C 22,5 km/h (4 Bft) 100,00 %
24.12.2017 06:36 4,8 C 3,9 C 88 % 1029,5 hPa 0,0 l/m 16,1 km/h (3 Bft) SW 225 0 min 0,000 mm 0,0 UV-I 0 W/m 3,0 C -1,7 C 24,1 km/h (4 Bft) 95,65 %
24.12.2017 06:37 4,8 C 3,9 C 88 % 1029,5 hPa 0,0 l/m 14,5 km/h (3 Bft) SW 225 0 min 0,000 mm 0,0 UV-I 0 W/m 3,0 C -0,9 C 19,3 km/h (3 Bft) 100,00 %
24.12.2017 06:38 4,8 C 3,9 C 88 % 1029,4 hPa 0,0 l/m 16,1 km/h (3 Bft) SW 225 0 min 0,000 mm 0,0 UV-I 0 W/m 3,0 C -1,7 C 19,3 km/h (3 Bft) 95,65 %
24.12.2017 06:39 4,8 C 3,9 C 88 % 1029,4 hPa 0,0 l/m 19,3 km/h (3 Bft) SW 225 0 min 0,000 mm 0,0 UV-I 0 W/m 3,0 C -3,1 C 24,1 km/h (4 Bft) 100,00 %
24.12.2017 06:40 4,8 C 3,9 C 88 % 1029,4 hPa 0,0 l/m 17,7 km/h (3 Bft) SW 225 0 min 0,000 mm 0,0 UV-I 0 W/m 3,0 C -2,5 C 24,1 km/h (4 Bft) 100,00 %
24.12.2017 06:41 4,8 C 3,9 C 88 % 1029,4 hPa 0,0 l/m 22,5 km/h (4 Bft) SW 225 0 min 0,000 mm 0,0 UV-I 0 W/m 3,0 C -4,4 C 27,4 km/h (4 Bft) 100,00 %
24.12.2017 06:42 4,8 C 3,9 C 88 % 1029,4 hPa 0,0 l/m 19,3 km/h (3 Bft) W-SW 247 0 min 0,000 mm 0,0 UV-I 0 W/m 3,0 C -3,1 C 29,0 km/h (5 Bft) 100,00 %
24.12.2017 06:43 4,8 C 3,9 C 88 % 1029,3 hPa 0,0 l/m 17,7 km/h (3 Bft) SW 225 0 min 0,000 mm 0,0 UV-I 0 W/m 3,0 C -2,5 C 22,5 km/h (4 Bft) 100,00 %
24.12.2017 06:44 4,7 C 3,9 C 89 % 1029,3 hPa 0,0 l/m 16,1 km/h (3 Bft) W-SW 247 0 min 0,000 mm 0,0 UV-I 0 W/m 3,0 C -1,8 C 19,3 km/h (3 Bft) 100,00 %
24.12.2017 06:45 4,7 C 3,9 C 89 % 1029,3 hPa 0,0 l/m 16,1 km/h (3 Bft) SW 225 0 min 0,000 mm 0,0 UV-I 0 W/m 3,0 C -1,8 C 19,3 km/h (3 Bft) 91,30 %
24.12.2017 06:46 4,7 C 3,9 C 89 % 1029,3 hPa 0,0 l/m 16,1 km/h (3 Bft) W-SW 247 0 min 0,000 mm 0,0 UV-I 0 W/m 3,0 C -1,8 C 22,5 km/h (4 Bft) 100,00 %
24.12.2017 06:47 4,7 C 3,9 C 89 % 1029,3 hPa 0,0 l/m 14,5 km/h (3 Bft) SW 225 0 min 0,000 mm 0,0 UV-I 0 W/m 3,0 C -1,0 C 17,7 km/h (3 Bft) 100,00 %
24.12.2017 06:48 4,7 C 3,9 C 89 % 1029,4 hPa 0,0 l/m 17,7 km/h (3 Bft) SW 225 0 min 0,000 mm 0,0 UV-I 0 W/m 3,0 C -2,6 C 24,1 km/h (4 Bft) 100,00 %
24.12.2017 06:49 4,7 C 3,9 C 89 % 1029,3 hPa 0,0 l/m 14,5 km/h (3 Bft) SW 225 0 min 0,000 mm 0,0 UV-I 0 W/m 3,0 C -1,0 C 19,3 km/h (3 Bft) 100,00 %
24.12.2017 06:50 4,7 C 3,9 C 89 % 1029,4 hPa 0,0 l/m 16,1 km/h (3 Bft) SW 225 0 min 0,000 mm 0,0 UV-I 0 W/m 3,0 C -1,8 C 20,9 km/h (4 Bft) 100,00 %
24.12.2017 06:51 4,7 C 3,9 C 89 % 1029,4 hPa 0,0 l/m 12,9 km/h (3 Bft) W-SW 247 0 min 0,000 mm 0,0 UV-I 0 W/m 3,0 C -0,1 C 19,3 km/h (3 Bft) 100,00 %
24.12.2017 06:52 4,7 C 3,9 C 89 % 1029,3 hPa 0,0 l/m 12,9 km/h (3 Bft) W-SW 247 0 min 0,000 mm 0,0 UV-I 0 W/m 3,0 C -0,1 C 17,7 km/h (3 Bft) 95,65 %
24.12.2017 06:53 4,7 C 3,9 C 89 % 1029,3 hPa 0,0 l/m 14,5 km/h (3 Bft) W-SW 247 0 min 0,000 mm 0,0 UV-I 0 W/m 3,0 C -1,0 C 20,9 km/h (4 Bft) 100,00 %
24.12.2017 06:54 4,7 C 3,9 C 89 % 1029,4 hPa 0,0 l/m 14,5 km/h (3 Bft) SW 225 0 min 0,000 mm 0,0 UV-I 0 W/m 3,0 C -1,0 C 22,5 km/h (4 Bft) 100,00 %
24.12.2017 06:55 4,7 C 3,9 C 89 % 1029,3 hPa 0,0 l/m 16,1 km/h (3 Bft) W-SW 247 0 min 0,000 mm 0,0 UV-I 0 W/m 3,0 C -1,8 C 22,5 km/h (4 Bft) 100,00 %
24.12.2017 06:56 4,7 C 3,9 C 89 % 1029,3 hPa 0,0 l/m 12,9 km/h (3 Bft) W-SW 247 0 min 0,000 mm 0,0 UV-I 0 W/m 3,0 C -0,1 C 17,7 km/h (3 Bft) 100,00 %
24.12.2017 06:57 4,7 C 3,9 C 89 % 1029,3 hPa 0,0 l/m 14,5 km/h (3 Bft) SW 225 0 min 0,000 mm 0,0 UV-I 0 W/m 3,0 C -1,0 C 20,9 km/h (4 Bft) 100,00 %
24.12.2017 06:58 4,7 C 3,9 C 89 % 1029,3 hPa 0,0 l/m 16,1 km/h (3 Bft) W-SW 247 0 min 0,000 mm 0,0 UV-I 0 W/m 3,0 C -1,8 C 19,3 km/h (3 Bft) 100,00 %
24.12.2017 06:59 4,7 C 3,9 C 88 % 1029,3 hPa 0,0 l/m 19,3 km/h (3 Bft) W-SW 247 0 min 0,000 mm 0,0 UV-I 0 W/m 2,9 C -3,3 C 24,1 km/h (4 Bft) 95,65 %
24.12.2017 07:00 4,7 C 3,9 C 88 % 1029,2 hPa 0,0 l/m 16,1 km/h (3 Bft) W-SW 247 0 min 0,025 mm 0,0 UV-I 0 W/m 2,9 C -1,8 C 20,9 km/h (4 Bft) 100,00 %
24.12.2017 07:01 4,7 C 3,9 C 88 % 1029,2 hPa 0,0 l/m 19,3 km/h (3 Bft) W-SW 247 0 min 0,000 mm 0,0 UV-I 0 W/m 2,9 C -3,3 C 24,1 km/h (4 Bft) 95,65 %
24.12.2017 07:02 4,7 C 3,9 C 88 % 1029,2 hPa 0,0 l/m 12,9 km/h (3 Bft) W-SW 247 0 min 0,000 mm 0,0 UV-I 0 W/m 2,9 C -0,1 C 20,9 km/h (4 Bft) 95,65 %
24.12.2017 07:03 4,7 C 3,9 C 88 % 1029,1 hPa 0,0 l/m 16,1 km/h (3 Bft) W-SW 247 0 min 0,000 mm 0,0 UV-I 0 W/m 2,9 C -1,8 C 20,9 km/h (4 Bft) 95,65 %
24.12.2017 07:04 4,7 C 3,9 C 88 % 1029,1 hPa 0,0 l/m 16,1 km/h (3 Bft) SW 225 0 min 0,000 mm 0,0 UV-I 0 W/m 2,9 C -1,8 C 25,7 km/h (4 Bft) 100,00 %
24.12.2017 07:05 4,7 C 3,9 C 88 % 1029,0 hPa 0,0 l/m 16,1 km/h (3 Bft) SW 225 0 min 0,000 mm 0,0 UV-I 0 W/m 2,9 C -1,8 C 20,9 km/h (4 Bft) 100,00 %
24.12.2017 07:06 4,7 C 3,9 C 88 % 1029,0 hPa 0,0 l/m 17,7 km/h (3 Bft) W-SW 247 0 min 0,000 mm 0,0 UV-I 0 W/m 2,9 C -2,6 C 22,5 km/h (4 Bft) 95,65 %
24.12.2017 07:07 4,7 C 3,9 C 88 % 1029,0 hPa 0,0 l/m 14,5 km/h (3 Bft) W-SW 247 0 min 0,000 mm 0,0 UV-I 0 W/m 2,9 C -1,0 C 19,3 km/h (3 Bft) 95,65 %
24.12.2017 07:08 4,7 C 3,9 C 88 % 1029,0 hPa 0,0 l/m 19,3 km/h (3 Bft) SW 225 0 min 0,000 mm 0,0 UV-I 0 W/m 2,9 C -3,3 C 24,1 km/h (4 Bft) 91,30 %
24.12.2017 07:09 4,8 C 3,9 C 88 % 1029,1 hPa 0,0 l/m 14,5 km/h (3 Bft) SW 225 0 min 0,000 mm 0,0 UV-I 0 W/m 3,0 C -0,9 C 22,5 km/h (4 Bft) 100,00 %
24.12.2017 07:10 4,7 C 3,9 C 88 % 1029,1 hPa 0,0 l/m 17,7 km/h (3 Bft) SW 225 0 min 0,000 mm 0,0 UV-I 0 W/m 2,9 C -2,6 C 30,6 km/h (5 Bft) 95,65 %
24.12.2017 07:11 4,7 C 3,9 C 88 % 1029,1 hPa 0,0 l/m 16,1 km/h (3 Bft) W-SW 247 0 min 0,000 mm 0,0 UV-I 0 W/m 2,9 C -1,8 C 24,1 km/h (4 Bft) 100,00 %
24.12.2017 07:12 4,7 C 3,9 C 88 % 1029,1 hPa 0,0 l/m 11,3 km/h (2 Bft) W-SW 247 0 min 0,000 mm 0,0 UV-I 0 W/m 2,9 C 0,9 C 16,1 km/h (3 Bft) 95,65 %
24.12.2017 07:13 4,7 C 3,9 C 88 % 1029,1 hPa 0,0 l/m 11,3 km/h (2 Bft) SW 225 0 min 0,000 mm 0,0 UV-I 0 W/m 2,9 C 0,9 C 17,7 km/h (3 Bft) 95,65 %
24.12.2017 07:14 4,7 C 3,9 C 88 % 1029,1 hPa 0,0 l/m 19,3 km/h (3 Bft) SW 225 0 min 0,000 mm 0,0 UV-I 0 W/m 2,9 C -3,3 C 24,1 km/h (4 Bft) 95,65 %
24.12.2017 07:15 4,7 C 3,9 C 88 % 1029,1 hPa 0,0 l/m 14,5 km/h (3 Bft) SW 225 0 min 0,000 mm 0,0 UV-I 0 W/m 2,9 C -1,0 C 17,7 km/h (3 Bft) 100,00 %
24.12.2017 07:16 4,7 C 3,9 C 88 % 1029,1 hPa 0,0 l/m 19,3 km/h (3 Bft) SW 225 0 min 0,000 mm 0,0 UV-I 0 W/m 2,9 C -3,3 C 25,7 km/h (4 Bft) 91,30 %
24.12.2017 07:17 4,7 C 3,9 C 88 % 1029,0 hPa 0,0 l/m 16,1 km/h (3 Bft) SW 225 0 min 0,000 mm 0,0 UV-I 0 W/m 2,9 C -1,8 C 19,3 km/h (3 Bft) 100,00 %
24.12.2017 07:18 4,7 C 3,9 C 88 % 1029,1 hPa 0,0 l/m 14,5 km/h (3 Bft) SW 225 0 min 0,000 mm 0,0 UV-I 0 W/m 2,9 C -1,0 C 19,3 km/h (3 Bft) 95,65 %
24.12.2017 07:19 4,7 C 3,9 C 88 % 1029,0 hPa 0,0 l/m 17,7 km/h (3 Bft) SW 225 0 min 0,000 mm 0,0 UV-I 0 W/m 2,9 C -2,6 C 24,1 km/h (4 Bft) 100,00 %
24.12.2017 07:20 4,7 C 3,9 C 88 % 1029,1 hPa 0,0 l/m 20,9 km/h (4 Bft) SW 225 0 min 0,000 mm 0,0 UV-I 0 W/m 2,9 C -3,9 C 30,6 km/h (5 Bft) 91,30 %
24.12.2017 07:21 4,7 C 3,9 C 88 % 1029,1 hPa 0,0 l/m 14,5 km/h (3 Bft) W-SW 247 0 min 0,000 mm 0,0 UV-I 0 W/m 2,9 C -1,0 C 22,5 km/h (4 Bft) 95,65 %
24.12.2017 07:22 4,7 C 3,9 C 88 % 1029,1 hPa 0,0 l/m 14,5 km/h (3 Bft) W-SW 247 0 min 0,000 mm 0,0 UV-I 0 W/m 2,9 C -1,0 C 19,3 km/h (3 Bft) 95,65 %
24.12.2017 07:23 4,7 C 3,9 C 88 % 1029,1 hPa 0,0 l/m 16,1 km/h (3 Bft) SW 225 0 min 0,000 mm 0,0 UV-I 0 W/m 2,9 C -1,8 C 19,3 km/h (3 Bft) 95,65 %
24.12.2017 07:24 4,7 C 3,9 C 88 % 1029,1 hPa 0,0 l/m 12,9 km/h (3 Bft) W-SW 247 0 min 0,000 mm 0,0 UV-I 0 W/m 2,9 C -0,1 C 19,3 km/h (3 Bft) 95,65 %
24.12.2017 07:25 4,7 C 3,9 C 88 % 1029,1 hPa 0,0 l/m 16,1 km/h (3 Bft) SW 225 0 min 0,000 mm 0,0 UV-I 0 W/m 2,9 C -1,8 C 22,5 km/h (4 Bft) 95,65 %
24.12.2017 07:26 4,7 C 3,9 C 88 % 1029,1 hPa 0,0 l/m 11,3 km/h (2 Bft) SW 225 0 min 0,000 mm 0,0 UV-I 0 W/m 2,9 C 0,9 C 16,1 km/h (3 Bft) 100,00 %
24.12.2017 07:27 4,7 C 3,9 C 88 % 1029,1 hPa 0,0 l/m 14,5 km/h (3 Bft) SW 225 0 min 0,000 mm 0,0 UV-I 0 W/m 2,9 C -1,0 C 17,7 km/h (3 Bft) 91,30 %
24.12.2017 07:28 4,7 C 3,9 C 88 % 1029,2 hPa 0,0 l/m 14,5 km/h (3 Bft) SW 225 0 min 0,000 mm 0,0 UV-I 0 W/m 2,9 C -1,0 C 19,3 km/h (3 Bft) 100,00 %
24.12.2017 07:29 4,7 C 3,9 C 88 % 1029,2 hPa 0,0 l/m 11,3 km/h (2 Bft) SW 225 0 min 0,000 mm 0,0 UV-I 0 W/m 2,9 C 0,9 C 12,9 km/h (3 Bft) 86,96 %
24.12.2017 07:30 4,7 C 3,9 C 88 % 1029,2 hPa 0,0 l/m 14,5 km/h (3 Bft) W-SW 247 0 min 0,000 mm 0,0 UV-I 0 W/m 2,9 C -1,0 C 20,9 km/h (4 Bft) 100,00 %
24.12.2017 07:31 4,7 C 3,9 C 88 % 1029,2 hPa 0,0 l/m 9,7 km/h (2 Bft) SW 225 0 min 0,000 mm 0,0 UV-I 0 W/m 2,9 C 2,0 C 12,9 km/h (3 Bft) 91,30 %
24.12.2017 07:32 4,7 C 3,9 C 88 % 1029,2 hPa 0,0 l/m 12,9 km/h (3 Bft) SW 225 0 min 0,000 mm 0,0 UV-I 0 W/m 2,9 C -0,1 C 19,3 km/h (3 Bft) 100,00 %
24.12.2017 07:33 4,7 C 3,9 C 88 % 1029,2 hPa 0,0 l/m 11,3 km/h (2 Bft) SW 225 0 min 0,000 mm 0,0 UV-I 0 W/m 2,9 C 0,9 C 16,1 km/h (3 Bft) 95,65 %
24.12.2017 07:34 4,7 C 3,9 C 88 % 1029,2 hPa 0,0 l/m 14,5 km/h (3 Bft) SW 225 0 min 0,000 mm 0,0 UV-I 0 W/m 2,9 C -1,0 C 17,7 km/h (3 Bft) 91,30 %
24.12.2017 07:35 4,7 C 3,9 C 88 % 1029,2 hPa 0,0 l/m 12,9 km/h (3 Bft) W-SW 247 0 min 0,000 mm 0,0 UV-I 0 W/m 2,9 C -0,1 C 16,1 km/h (3 Bft) 95,65 %
24.12.2017 07:36 4,7 C 3,9 C 88 % 1029,2 hPa 0,0 l/m 12,9 km/h (3 Bft) SW 225 0 min 0,000 mm 0,0 UV-I 0 W/m 2,9 C -0,1 C 17,7 km/h (3 Bft) 95,65 %
24.12.2017 07:37 4,7 C 3,9 C 88 % 1029,2 hPa 0,0 l/m 11,3 km/h (2 Bft) SW 225 0 min 0,000 mm 0,0 UV-I 0 W/m 2,9 C 0,9 C 16,1 km/h (3 Bft) 91,30 %
24.12.2017 07:38 4,7 C 3,9 C 88 % 1029,2 hPa 0,0 l/m 12,9 km/h (3 Bft) W-SW 247 0 min 0,000 mm 0,0 UV-I 0 W/m 2,9 C -0,1 C 17,7 km/h (3 Bft) 95,65 %
24.12.2017 07:39 4,7 C 3,9 C 88 % 1029,2 hPa 0,0 l/m 14,5 km/h (3 Bft) SW 225 0 min 0,000 mm 0,0 UV-I 0 W/m 2,9 C -1,0 C 19,3 km/h (3 Bft) 100,00 %
24.12.2017 07:40 4,7 C 3,9 C 88 % 1029,2 hPa 0,0 l/m 12,9 km/h (3 Bft) SW 225 0 min 0,000 mm 0,0 UV-I 0 W/m 2,9 C -0,1 C 17,7 km/h (3 Bft) 95,65 %
24.12.2017 07:41 4,7 C 3,9 C 88 % 1029,2 hPa 0,0 l/m 14,5 km/h (3 Bft) SW 225 0 min 0,000 mm 0,0 UV-I 0 W/m 2,9 C -1,0 C 20,9 km/h (4 Bft) 95,65 %
24.12.2017 07:42 4,7 C 3,9 C 88 % 1029,2 hPa 0,0 l/m 14,5 km/h (3 Bft) W-SW 247 0 min 0,000 mm 0,0 UV-I 0 W/m 2,9 C -1,0 C 19,3 km/h (3 Bft) 91,30 %
24.12.2017 07:43 4,7 C 3,9 C 88 % 1029,2 hPa 0,0 l/m 11,3 km/h (2 Bft) SW 225 0 min 0,000 mm 0,0 UV-I 0 W/m 2,9 C 0,9 C 17,7 km/h (3 Bft) 95,65 %
24.12.2017 07:44 4,7 C 3,9 C 88 % 1029,2 hPa 0,0 l/m 11,3 km/h (2 Bft) W-SW 247 0 min 0,000 mm 0,0 UV-I 5 W/m 2,9 C 0,9 C 16,1 km/h (3 Bft) 100,00 %
24.12.2017 07:45 4,7 C 3,9 C 88 % 1029,2 hPa 0,0 l/m 12,9 km/h (3 Bft) W-SW 247 0 min 0,000 mm 0,0 UV-I 5 W/m 2,9 C -0,1 C 22,5 km/h (4 Bft) 95,65 %
24.12.2017 07:46 4,7 C 3,9 C 88 % 1029,2 hPa 0,0 l/m 14,5 km/h (3 Bft) SW 225 0 min 0,000 mm 0,0 UV-I 5 W/m 2,9 C -1,0 C 19,3 km/h (3 Bft) 100,00 %
24.12.2017 07:47 4,7 C 3,9 C 88 % 1029,1 hPa 0,0 l/m 14,5 km/h (3 Bft) W-SW 247 0 min 0,000 mm 0,0 UV-I 5 W/m 2,9 C -1,0 C 19,3 km/h (3 Bft) 95,65 %
24.12.2017 07:48 4,7 C 3,9 C 88 % 1029,2 hPa 0,0 l/m 16,1 km/h (3 Bft) W-SW 247 0 min 0,000 mm 0,0 UV-I 5 W/m 2,9 C -1,8 C 20,9 km/h (4 Bft) 95,65 %
24.12.2017 07:49 4,7 C 3,9 C 88 % 1029,1 hPa 0,0 l/m 14,5 km/h (3 Bft) W-SW 247 0 min 0,000 mm 0,0 UV-I 5 W/m 2,9 C -1,0 C 19,3 km/h (3 Bft) 95,65 %
24.12.2017 07:50 4,7 C 3,9 C 88 % 1029,2 hPa 0,0 l/m 14,5 km/h (3 Bft) W-SW 247 0 min 0,000 mm 0,0 UV-I 5 W/m 2,9 C -1,0 C 20,9 km/h (4 Bft) 100,00 %
24.12.2017 07:51 4,7 C 3,9 C 88 % 1029,2 hPa 0,0 l/m 14,5 km/h (3 Bft) W-SW 247 0 min 0,000 mm 0,0 UV-I 5 W/m 2,9 C -1,0 C 20,9 km/h (4 Bft) 95,65 %
24.12.2017 07:52 4,7 C 3,9 C 88 % 1029,2 hPa 0,0 l/m 14,5 km/h (3 Bft) W-SW 247 0 min 0,000 mm 0,0 UV-I 5 W/m 2,9 C -1,0 C 20,9 km/h (4 Bft) 95,65 %
24.12.2017 07:53 4,7 C 3,9 C 88 % 1029,2 hPa 0,0 l/m 11,3 km/h (2 Bft) SW 225 0 min 0,000 mm 0,0 UV-I 5 W/m 2,9 C 0,9 C 16,1 km/h (3 Bft) 95,65 %
24.12.2017 07:54 4,7 C 3,9 C 88 % 1029,2 hPa 0,0 l/m 12,9 km/h (3 Bft) SW 225 0 min 0,000 mm 0,0 UV-I 5 W/m 2,9 C -0,1 C 22,5 km/h (4 Bft) 95,65 %
24.12.2017 07:55 4,7 C 3,9 C 88 % 1029,2 hPa 0,0 l/m 17,7 km/h (3 Bft) W-SW 247 0 min 0,000 mm 0,0 UV-I 5 W/m 2,9 C -2,6 C 20,9 km/h (4 Bft) 95,65 %
24.12.2017 07:56 4,7 C 3,9 C 88 % 1029,2 hPa 0,0 l/m 12,9 km/h (3 Bft) W-SW 247 0 min 0,000 mm 0,0 UV-I 5 W/m 2,9 C -0,1 C 19,3 km/h (3 Bft) 95,65 %
24.12.2017 07:57 4,7 C 3,9 C 88 % 1029,2 hPa 0,0 l/m 14,5 km/h (3 Bft) SW 225 0 min 0,000 mm 0,0 UV-I 7 W/m 2,9 C -1,0 C 19,3 km/h (3 Bft) 100,00 %
24.12.2017 07:58 4,7 C 3,9 C 88 % 1029,2 hPa 0,0 l/m 12,9 km/h (3 Bft) W 270 0 min 0,000 mm 0,0 UV-I 7 W/m 2,9 C -0,1 C 17,7 km/h (3 Bft) 95,65 %
24.12.2017 07:59 4,7 C 3,9 C 88 % 1029,2 hPa 0,0 l/m 11,3 km/h (2 Bft) W-SW 247 0 min 0,000 mm 0,0 UV-I 7 W/m 2,9 C 0,9 C 17,7 km/h (3 Bft) 100,00 %
24.12.2017 08:00 4,7 C 3,9 C 88 % 1029,2 hPa 0,0 l/m 11,3 km/h (2 Bft) SW 225 0 min 0,025 mm 0,0 UV-I 7 W/m 2,9 C 0,9 C 17,7 km/h (3 Bft) 95,65 %
24.12.2017 08:01 4,7 C 3,9 C 88 % 1029,2 hPa 0,0 l/m 12,9 km/h (3 Bft) W-SW 247 0 min 0,000 mm 0,0 UV-I 9 W/m 2,9 C -0,1 C 16,1 km/h (3 Bft) 95,65 %
24.12.2017 08:02 4,7 C 3,9 C 88 % 1029,2 hPa 0,0 l/m 14,5 km/h (3 Bft) W-SW 247 0 min 0,000 mm 0,0 UV-I 9 W/m 2,9 C -1,0 C 19,3 km/h (3 Bft) 86,96 %
24.12.2017 08:03 4,7 C 3,9 C 88 % 1029,2 hPa 0,0 l/m 14,5 km/h (3 Bft) W-SW 247 0 min 0,000 mm 0,0 UV-I 9 W/m 2,9 C -1,0 C 19,3 km/h (3 Bft) 95,65 %
24.12.2017 08:04 4,7 C 3,9 C 88 % 1029,1 hPa 0,0 l/m 16,1 km/h (3 Bft) W-SW 247 0 min 0,000 mm 0,0 UV-I 7 W/m 2,9 C -1,8 C 20,9 km/h (4 Bft) 95,65 %
24.12.2017 08:05 4,7 C 3,9 C 88 % 1029,1 hPa 0,0 l/m 14,5 km/h (3 Bft) W-SW 247 1 min 0,000 mm 0,0 UV-I 9 W/m 2,9 C -1,0 C 19,3 km/h (3 Bft) 100,00 %
24.12.2017 08:06 4,7 C 3,9 C 88 % 1029,2 hPa 0,0 l/m 16,1 km/h (3 Bft) W-SW 247 0 min 0,000 mm 0,0 UV-I 9 W/m 2,9 C -1,8 C 24,1 km/h (4 Bft) 100,00 %
24.12.2017 08:07 4,7 C 3,9 C 88 % 1029,1 hPa 0,0 l/m 11,3 km/h (2 Bft) W-SW 247 0 min 0,000 mm 0,0 UV-I 9 W/m 2,9 C 0,9 C 14,5 km/h (3 Bft) 91,30 %
24.12.2017 08:08 4,7 C 3,9 C 88 % 1029,2 hPa 0,0 l/m 14,5 km/h (3 Bft) W 270 0 min 0,000 mm 0,0 UV-I 9 W/m 2,9 C -1,0 C 17,7 km/h (3 Bft) 100,00 %
24.12.2017 08:09 4,7 C 3,9 C 88 % 1029,2 hPa 0,0 l/m 9,7 km/h (2 Bft) W-SW 247 0 min 0,000 mm 0,0 UV-I 9 W/m 2,9 C 2,0 C 12,9 km/h (3 Bft) 95,65 %
24.12.2017 08:10 4,7 C 3,9 C 88 % 1029,2 hPa 0,0 l/m 9,7 km/h (2 Bft) W-SW 247 0 min 0,000 mm 0,0 UV-I 11 W/m 2,9 C 2,0 C 14,5 km/h (3 Bft) 100,00 %
24.12.2017 08:11 4,7 C 3,9 C 88 % 1029,2 hPa 0,0 l/m 12,9 km/h (3 Bft) W-SW 247 0 min 0,000 mm 0,0 UV-I 12 W/m 2,9 C -0,1 C 25,7 km/h (4 Bft) 100,00 %
24.12.2017 08:12 4,7 C 3,9 C 88 % 1029,2 hPa 0,0 l/m 11,3 km/h (2 Bft) W-SW 247 0 min 0,000 mm 0,0 UV-I 12 W/m 2,9 C 0,9 C 14,5 km/h (3 Bft) 91,30 %
24.12.2017 08:13 4,7 C 3,9 C 88 % 1029,2 hPa 0,0 l/m 14,5 km/h (3 Bft) W-SW 247 0 min 0,000 mm 0,0 UV-I 14 W/m 2,9 C -1,0 C 17,7 km/h (3 Bft) 100,00 %
24.12.2017 08:14 4,7 C 3,9 C 88 % 1029,2 hPa 0,0 l/m 12,9 km/h (3 Bft) W 270 0 min 0,000 mm 0,0 UV-I 16 W/m 2,9 C -0,1 C 19,3 km/h (3 Bft) 95,65 %
24.12.2017 08:15 4,7 C 3,9 C 88 % 1029,2 hPa 0,0 l/m 17,7 km/h (3 Bft) W-SW 247 0 min 0,000 mm 0,0 UV-I 16 W/m 2,9 C -2,6 C 20,9 km/h (4 Bft) 100,00 %
24.12.2017 08:16 4,8 C 3,9 C 88 % 1029,3 hPa 0,0 l/m 14,5 km/h (3 Bft) W-SW 247 0 min 0,000 mm 0,0 UV-I 17 W/m 3,0 C -0,9 C 17,7 km/h (3 Bft) 95,65 %
24.12.2017 08:17 4,8 C 3,9 C 88 % 1029,2 hPa 0,0 l/m 14,5 km/h (3 Bft) W-SW 247 0 min 0,000 mm 0,0 UV-I 16 W/m 3,0 C -0,9 C 19,3 km/h (3 Bft) 95,65 %
24.12.2017 08:18 4,8 C 3,9 C 88 % 1029,2 hPa 0,0 l/m 12,9 km/h (3 Bft) W-SW 247 0 min 0,000 mm 0,0 UV-I 18 W/m 3,0 C -0,0 C 17,7 km/h (3 Bft) 100,00 %
24.12.2017 08:19 4,8 C 3,9 C 88 % 1029,2 hPa 0,0 l/m 16,1 km/h (3 Bft) W 270 0 min 0,000 mm 0,0 UV-I 16 W/m 3,0 C -1,7 C 19,3 km/h (3 Bft) 100,00 %
24.12.2017 08:20 4,9 C 3,9 C 88 % 1029,2 hPa 0,0 l/m 14,5 km/h (3 Bft) W-SW 247 0 min 0,000 mm 0,0 UV-I 18 W/m 3,1 C -0,8 C 22,5 km/h (4 Bft) 100,00 %
24.12.2017 08:21 4,9 C 3,9 C 87 % 1029,1 hPa 0,0 l/m 19,3 km/h (3 Bft) W-SW 247 0 min 0,000 mm 0,0 UV-I 12 W/m 2,9 C -3,0 C 27,4 km/h (4 Bft) 100,00 %
24.12.2017 08:22 4,9 C 3,9 C 87 % 1029,1 hPa 0,0 l/m 17,7 km/h (3 Bft) W 270 0 min 0,000 mm 0,0 UV-I 16 W/m 2,9 C -2,3 C 25,7 km/h (4 Bft) 91,30 %
24.12.2017 08:23 5,0 C 3,9 C 87 % 1029,1 hPa 0,0 l/m 14,5 km/h (3 Bft) W 270 0 min 0,000 mm 0,0 UV-I 18 W/m 3,0 C -0,7 C 19,3 km/h (3 Bft) 91,30 %
24.12.2017 08:24 5,0 C 3,9 C 87 % 1029,1 hPa 0,0 l/m 16,1 km/h (3 Bft) W-SW 247 0 min 0,000 mm 0,0 UV-I 21 W/m 3,0 C -1,5 C 24,1 km/h (4 Bft) 100,00 %
24.12.2017 08:25 5,0 C 3,9 C 87 % 1029,2 hPa 0,0 l/m 12,9 km/h (3 Bft) W 270 0 min 0,000 mm 0,0 UV-I 21 W/m 3,0 C 0,2 C 19,3 km/h (3 Bft) 95,65 %
24.12.2017 08:26 5,0 C 3,9 C 87 % 1029,2 hPa 0,0 l/m 16,1 km/h (3 Bft) W-SW 247 0 min 0,000 mm 0,0 UV-I 21 W/m 3,0 C -1,5 C 22,5 km/h (4 Bft) 100,00 %
24.12.2017 08:27 5,0 C 3,9 C 87 % 1029,2 hPa 0,0 l/m 16,1 km/h (3 Bft) W-SW 247 0 min 0,000 mm 0,0 UV-I 25 W/m 3,0 C -1,5 C 25,7 km/h (4 Bft) 91,30 %
24.12.2017 08:28 5,1 C 3,9 C 87 % 1029,2 hPa 0,0 l/m 20,9 km/h (4 Bft) W 270 0 min 0,000 mm 0,0 UV-I 27 W/m 3,1 C -3,4 C 24,1 km/h (4 Bft) 100,00 %
24.12.2017 08:29 5,1 C 3,9 C 87 % 1029,3 hPa 0,0 l/m 12,9 km/h (3 Bft) W-SW 247 0 min 0,000 mm 0,0 UV-I 21 W/m 3,1 C 0,3 C 20,9 km/h (4 Bft) 100,00 %
24.12.2017 08:30 5,1 C 3,9 C 87 % 1029,3 hPa 0,0 l/m 17,7 km/h (3 Bft) W 270 0 min 0,000 mm 0,0 UV-I 21 W/m 3,1 C -2,1 C 22,5 km/h (4 Bft) 95,65 %
24.12.2017 08:31 5,1 C 3,9 C 87 % 1029,3 hPa 0,0 l/m 17,7 km/h (3 Bft) W 270 0 min 0,000 mm 0,0 UV-I 25 W/m 3,1 C -2,1 C 25,7 km/h (4 Bft) 95,65 %
24.12.2017 08:32 5,1 C 3,9 C 86 % 1029,3 hPa 0,0 l/m 16,1 km/h (3 Bft) W-SW 247 0 min 0,000 mm 0,0 UV-I 25 W/m 3,0 C -1,3 C 20,9 km/h (4 Bft) 100,00 %
24.12.2017 08:33 5,1 C 3,9 C 86 % 1029,3 hPa 0,0 l/m 12,9 km/h (3 Bft) W-SW 247 0 min 0,000 mm 0,0 UV-I 26 W/m 3,0 C 0,3 C 20,9 km/h (4 Bft) 91,30 %
24.12.2017 08:34 5,1 C 3,9 C 86 % 1029,4 hPa 0,0 l/m 11,3 km/h (2 Bft) W 270 0 min 0,000 mm 0,0 UV-I 26 W/m 3,0 C 1,3 C 16,1 km/h (3 Bft) 100,00 %
24.12.2017 08:35 5,1 C 3,9 C 87 % 1029,4 hPa 0,0 l/m 14,5 km/h (3 Bft) W 270 0 min 0,000 mm 0,0 UV-I 26 W/m 3,1 C -0,5 C 19,3 km/h (3 Bft) 95,65 %
24.12.2017 08:36 5,1 C 3,9 C 87 % 1029,4 hPa 0,0 l/m 17,7 km/h (3 Bft) W-SW 247 0 min 0,000 mm 0,0 UV-I 30 W/m 3,1 C -2,1 C 25,7 km/h (4 Bft) 100,00 %
24.12.2017 08:37 5,2 C 3,9 C 86 % 1029,3 hPa 0,0 l/m 12,9 km/h (3 Bft) W-SW 247 0 min 0,000 mm 0,0 UV-I 28 W/m 3,1 C 0,5 C 22,5 km/h (4 Bft) 91,30 %
24.12.2017 08:38 5,2 C 3,9 C 86 % 1029,3 hPa 0,0 l/m 11,3 km/h (2 Bft) W-SW 247 0 min 0,000 mm 0,0 UV-I 32 W/m 3,1 C 1,4 C 16,1 km/h (3 Bft) 100,00 %
24.12.2017 08:39 5,2 C 3,9 C 86 % 1029,3 hPa 0,0 l/m 12,9 km/h (3 Bft) W-SW 247 0 min 0,000 mm 0,0 UV-I 37 W/m 3,1 C 0,5 C 22,5 km/h (4 Bft) 95,65 %
24.12.2017 08:40 5,2 C 3,9 C 86 % 1029,3 hPa 0,0 l/m 9,7 km/h (2 Bft) W 270 0 min 0,000 mm 0,0 UV-I 39 W/m 3,1 C 2,5 C 20,9 km/h (4 Bft) 95,65 %
24.12.2017 08:41 5,1 C 3,9 C 86 % 1029,3 hPa 0,0 l/m 9,7 km/h (2 Bft) W-SW 247 0 min 0,000 mm 0,0 UV-I 37 W/m 3,0 C 2,4 C 12,9 km/h (3 Bft) 91,30 %
24.12.2017 08:42 5,2 C 3,9 C 87 % 1029,3 hPa 0,0 l/m 11,3 km/h (2 Bft) W-SW 247 0 min 0,000 mm 0,0 UV-I 33 W/m 3,2 C 1,4 C 14,5 km/h (3 Bft) 95,65 %
24.12.2017 08:43 5,1 C 3,9 C 86 % 1029,2 hPa 0,0 l/m 12,9 km/h (3 Bft) W-SW 247 0 min 0,000 mm 0,0 UV-I 25 W/m 3,0 C 0,3 C 20,9 km/h (4 Bft) 100,00 %
24.12.2017 08:44 5,2 C 3,9 C 87 % 1029,2 hPa 0,0 l/m 16,1 km/h (3 Bft) W-SW 247 0 min 0,000 mm 0,0 UV-I 19 W/m 3,2 C -1,2 C 20,9 km/h (4 Bft) 91,30 %
24.12.2017 08:45 5,2 C 3,9 C 86 % 1029,2 hPa 0,0 l/m 12,9 km/h (3 Bft) W-SW 247 0 min 0,000 mm 0,0 UV-I 20 W/m 3,1 C 0,5 C 17,7 km/h (3 Bft) 100,00 %
24.12.2017 08:46 5,2 C 3,9 C 86 % 1029,2 hPa 0,0 l/m 16,1 km/h (3 Bft) W 270 0 min 0,000 mm 0,0 UV-I 23 W/m 3,1 C -1,2 C 24,1 km/h (4 Bft) 95,65 %
24.12.2017 08:47 5,2 C 3,9 C 86 % 1029,2 hPa 0,0 l/m 17,7 km/h (3 Bft) W-SW 247 0 min 0,000 mm 0,0 UV-I 26 W/m 3,1 C -2,0 C 22,5 km/h (4 Bft) 100,00 %
24.12.2017 08:48 5,2 C 3,9 C 86 % 1029,3 hPa 0,0 l/m 11,3 km/h (2 Bft) W-SW 247 0 min 0,000 mm 0,0 UV-I 25 W/m 3,1 C 1,4 C 14,5 km/h (3 Bft) 95,65 %
24.12.2017 08:49 5,2 C 3,9 C 86 % 1029,3 hPa 0,0 l/m 9,7 km/h (2 Bft) W-SW 247 0 min 0,000 mm 0,0 UV-I 25 W/m 3,1 C 2,5 C 12,9 km/h (3 Bft) 100,00 %
24.12.2017 08:50 5,2 C 3,9 C 86 % 1029,3 hPa 0,0 l/m 9,7 km/h (2 Bft) W-SW 247 0 min 0,000 mm 0,0 UV-I 26 W/m 3,1 C 2,5 C 12,9 km/h (3 Bft) 86,96 %
24.12.2017 08:51 5,2 C 3,9 C 86 % 1029,3 hPa 0,0 l/m 14,5 km/h (3 Bft) W-SW 247 0 min 0,000 mm 0,0 UV-I 29 W/m 3,1 C -0,4 C 22,5 km/h (4 Bft) 95,65 %
24.12.2017 08:52 5,2 C 3,9 C 86 % 1029,2 hPa 0,0 l/m 14,5 km/h (3 Bft) W-SW 247 0 min 0,000 mm 0,0 UV-I 32 W/m 3,1 C -0,4 C 19,3 km/h (3 Bft) 95,65 %
24.12.2017 08:53 5,2 C 3,9 C 86 % 1029,3 hPa 0,0 l/m 12,9 km/h (3 Bft) W-SW 247 0 min 0,000 mm 0,0 UV-I 33 W/m 3,1 C 0,5 C 17,7 km/h (3 Bft) 100,00 %
24.12.2017 08:54 5,2 C 3,9 C 86 % 1029,2 hPa 0,0 l/m 12,9 km/h (3 Bft) W 270 0 min 0,000 mm 0,0 UV-I 33 W/m 3,1 C 0,5 C 17,7 km/h (3 Bft) 100,00 %
24.12.2017 08:55 5,2 C 3,9 C 86 % 1029,3 hPa 0,0 l/m 16,1 km/h (3 Bft) SW 225 0 min 0,000 mm 0,0 UV-I 37 W/m 3,1 C -1,2 C 25,7 km/h (4 Bft) 95,65 %
24.12.2017 08:56 5,2 C 3,9 C 86 % 1029,3 hPa 0,0 l/m 16,1 km/h (3 Bft) SW 225 0 min 0,000 mm 0,0 UV-I 39 W/m 3,1 C -1,2 C 20,9 km/h (4 Bft) 100,00 %
24.12.2017 08:57 5,2 C 3,9 C 86 % 1029,2 hPa 0,0 l/m 16,1 km/h (3 Bft) W-SW 247 0 min 0,000 mm 0,0 UV-I 37 W/m 3,1 C -1,2 C 19,3 km/h (3 Bft) 100,00 %
24.12.2017 08:58 5,2 C 3,9 C 86 % 1029,3 hPa 0,0 l/m 14,5 km/h (3 Bft) W 270 0 min 0,000 mm 0,0 UV-I 39 W/m 3,1 C -0,4 C 17,7 km/h (3 Bft) 95,65 %
24.12.2017 08:59 5,2 C 3,9 C 86 % 1029,3 hPa 0,0 l/m 11,3 km/h (2 Bft) W 270 0 min 0,000 mm 0,0 UV-I 47 W/m 3,1 C 1,4 C 16,1 km/h (3 Bft) 100,00 %
24.12.2017 09:00 5,2 C 3,9 C 86 % 1029,3 hPa 0,0 l/m 22,5 km/h (4 Bft) W-SW 247 0 min 0,025 mm 0,0 UV-I 40 W/m 3,1 C -3,8 C 30,6 km/h (5 Bft) 100,00 %
24.12.2017 09:01 5,2 C 3,9 C 86 % 1029,2 hPa 0,0 l/m 19,3 km/h (3 Bft) W-SW 247 0 min 0,000 mm 0,0 UV-I 44 W/m 3,1 C -2,6 C 30,6 km/h (5 Bft) 100,00 %
24.12.2017 09:02 5,2 C 3,9 C 86 % 1029,2 hPa 0,0 l/m 17,7 km/h (3 Bft) W-SW 247 0 min 0,000 mm 0,0 UV-I 53 W/m 3,1 C -2,0 C 24,1 km/h (4 Bft) 100,00 %
24.12.2017 09:03 5,3 C 3,9 C 86 % 1029,2 hPa 0,0 l/m 16,1 km/h (3 Bft) W 270 0 min 0,000 mm 0,0 UV-I 53 W/m 3,2 C -1,1 C 19,3 km/h (3 Bft) 100,00 %
24.12.2017 09:04 5,2 C 3,9 C 86 % 1029,2 hPa 0,0 l/m 14,5 km/h (3 Bft) W-SW 247 0 min 0,000 mm 0,0 UV-I 56 W/m 3,1 C -0,4 C 19,3 km/h (3 Bft) 100,00 %
24.12.2017 09:05 5,2 C 3,9 C 86 % 1029,2 hPa 0,0 l/m 12,9 km/h (3 Bft) W-SW 247 0 min 0,000 mm 0,0 UV-I 56 W/m 3,1 C 0,5 C 19,3 km/h (3 Bft) 95,65 %
24.12.2017 09:06 5,2 C 3,9 C 86 % 1029,2 hPa 0,0 l/m 17,7 km/h (3 Bft) W-SW 247 0 min 0,000 mm 0,0 UV-I 63 W/m 3,1 C -2,0 C 22,5 km/h (4 Bft) 100,00 %
24.12.2017 09:07 5,2 C 3,9 C 86 % 1029,2 hPa 0,0 l/m 14,5 km/h (3 Bft) W 270 0 min 0,000 mm 0,0 UV-I 69 W/m 3,1 C -0,4 C 20,9 km/h (4 Bft) 100,00 %
24.12.2017 09:08 5,3 C 3,9 C 86 % 1029,2 hPa 0,0 l/m 14,5 km/h (3 Bft) W-SW 247 0 min 0,000 mm 0,0 UV-I 69 W/m 3,2 C -0,3 C 19,3 km/h (3 Bft) 100,00 %
24.12.2017 09:09 5,3 C 3,9 C 87 % 1029,2 hPa 0,0 l/m 17,7 km/h (3 Bft) W 270 0 min 0,000 mm 0,0 UV-I 71 W/m 3,3 C -1,8 C 27,4 km/h (4 Bft) 100,00 %
24.12.2017 09:10 5,3 C 3,9 C 86 % 1029,1 hPa 0,0 l/m 16,1 km/h (3 Bft) W-SW 247 0 min 0,000 mm 0,0 UV-I 79 W/m 3,2 C -1,1 C 25,7 km/h (4 Bft) 95,65 %
24.12.2017 09:11 5,3 C 3,9 C 86 % 1029,2 hPa 0,0 l/m 17,7 km/h (3 Bft) W-SW 247 0 min 0,000 mm 0,0 UV-I 81 W/m 3,2 C -1,8 C 29,0 km/h (5 Bft) 100,00 %
24.12.2017 09:12 5,3 C 3,9 C 86 % 1029,2 hPa 0,0 l/m 17,7 km/h (3 Bft) W-SW 247 0 min 0,000 mm 0,0 UV-I 77 W/m 3,2 C -1,8 C 22,5 km/h (4 Bft) 95,65 %
24.12.2017 09:13 5,3 C 3,9 C 86 % 1029,1 hPa 0,0 l/m 16,1 km/h (3 Bft) W 270 1 min 0,000 mm 0,0 UV-I 90 W/m 3,2 C -1,1 C 20,9 km/h (4 Bft) 91,30 %
24.12.2017 09:14 5,3 C 3,9 C 86 % 1029,1 hPa 0,0 l/m 17,7 km/h (3 Bft) W-SW 247 0 min 0,000 mm 0,0 UV-I 85 W/m 3,2 C -1,8 C 25,7 km/h (4 Bft) 95,65 %
24.12.2017 09:15 5,3 C 3,9 C 86 % 1029,2 hPa 0,0 l/m 17,7 km/h (3 Bft) W 270 0 min 0,000 mm 0,0 UV-I 84 W/m 3,2 C -1,8 C 22,5 km/h (4 Bft) 95,65 %
24.12.2017 09:16 5,3 C 3,9 C 86 % 1029,2 hPa 0,0 l/m 16,1 km/h (3 Bft) W 270 0 min 0,000 mm 0,0 UV-I 86 W/m 3,2 C -1,1 C 20,9 km/h (4 Bft) 100,00 %
24.12.2017 09:17 5,3 C 3,9 C 86 % 1029,2 hPa 0,0 l/m 16,1 km/h (3 Bft) W-SW 247 0 min 0,000 mm 0,0 UV-I 81 W/m 3,2 C -1,1 C 22,5 km/h (4 Bft) 95,65 %
24.12.2017 09:18 5,3 C 3,9 C 86 % 1029,2 hPa 0,0 l/m 11,3 km/h (2 Bft) W-SW 247 0 min 0,000 mm 0,0 UV-I 84 W/m 3,2 C 1,5 C 14,5 km/h (3 Bft) 95,65 %
24.12.2017 09:19 5,4 C 3,9 C 86 % 1029,2 hPa 0,0 l/m 17,7 km/h (3 Bft) W-SW 247 0 min 0,000 mm 0,0 UV-I 81 W/m 3,3 C -1,7 C 24,1 km/h (4 Bft) 91,30 %
24.12.2017 09:20 5,4 C 3,9 C 86 % 1029,2 hPa 0,0 l/m 16,1 km/h (3 Bft) W-SW 247 0 min 0,000 mm 0,0 UV-I 75 W/m 3,3 C -1,0 C 24,1 km/h (4 Bft) 100,00 %
24.12.2017 09:21 5,4 C 3,9 C 86 % 1029,3 hPa 0,0 l/m 12,9 km/h (3 Bft) W 270 0 min 0,000 mm 0,0 UV-I 76 W/m 3,3 C 0,7 C 17,7 km/h (3 Bft) 100,00 %
24.12.2017 09:22 5,4 C 3,9 C 86 % 1029,3 hPa 0,0 l/m 14,5 km/h (3 Bft) W 270 0 min 0,000 mm 0,0 UV-I 67 W/m 3,3 C -0,2 C 17,7 km/h (3 Bft) 95,65 %
24.12.2017 09:23 5,4 C 3,9 C 86 % 1029,3 hPa 0,0 l/m 12,9 km/h (3 Bft) W 270 0 min 0,000 mm 0,0 UV-I 83 W/m 3,3 C 0,7 C 19,3 km/h (3 Bft) 95,65 %
24.12.2017 09:24 5,4 C 3,9 C 86 % 1029,3 hPa 0,0 l/m 11,3 km/h (2 Bft) W 270 1 min 0,000 mm 0,0 UV-I 100 W/m 3,3 C 1,7 C 14,5 km/h (3 Bft) 100,00 %
24.12.2017 09:25 5,4 C 3,9 C 86 % 1029,3 hPa 0,0 l/m 16,1 km/h (3 Bft) W 270 1 min 0,000 mm 0,0 UV-I 102 W/m 3,3 C -1,0 C 19,3 km/h (3 Bft) 100,00 %
24.12.2017 09:26 5,4 C 3,9 C 86 % 1029,3 hPa 0,0 l/m 14,5 km/h (3 Bft) W-SW 247 1 min 0,000 mm 0,0 UV-I 107 W/m 3,3 C -0,2 C 20,9 km/h (4 Bft) 95,65 %
24.12.2017 09:27 5,4 C 3,9 C 86 % 1029,3 hPa 0,0 l/m 14,5 km/h (3 Bft) W 270 1 min 0,000 mm 0,0 UV-I 107 W/m 3,3 C -0,2 C 17,7 km/h (3 Bft) 100,00 %
24.12.2017 09:28 5,4 C 3,9 C 86 % 1029,3 hPa 0,0 l/m 9,7 km/h (2 Bft) W-SW 247 1 min 0,000 mm 0,0 UV-I 109 W/m 3,3 C 2,7 C 16,1 km/h (3 Bft) 100,00 %
24.12.2017 09:29 5,4 C 3,9 C 86 % 1029,3 hPa 0,0 l/m 17,7 km/h (3 Bft) W-SW 247 1 min 0,000 mm 0,0 UV-I 109 W/m 3,3 C -1,7 C 25,7 km/h (4 Bft) 95,65 %
24.12.2017 09:30 5,4 C 3,9 C 86 % 1029,3 hPa 0,0 l/m 20,9 km/h (4 Bft) W-SW 247 0 min 0,000 mm 0,0 UV-I 91 W/m 3,3 C -3,0 C 25,7 km/h (4 Bft) 100,00 %
24.12.2017 09:31 5,4 C 3,9 C 86 % 1029,3 hPa 0,0 l/m 16,1 km/h (3 Bft) W-SW 247 0 min 0,000 mm 0,0 UV-I 100 W/m 3,3 C -1,0 C 20,9 km/h (4 Bft) 100,00 %
24.12.2017 09:32 5,4 C 3,9 C 86 % 1029,3 hPa 0,0 l/m 16,1 km/h (3 Bft) W 270 1 min 0,000 mm 0,0 UV-I 148 W/m 3,3 C -1,0 C 22,5 km/h (4 Bft) 100,00 %
24.12.2017 09:33 5,4 C 3,9 C 86 % 1029,3 hPa 0,0 l/m 11,3 km/h (2 Bft) W-SW 247 1 min 0,000 mm 0,0 UV-I 127 W/m 3,3 C 1,7 C 17,7 km/h (3 Bft) 91,30 %
24.12.2017 09:34 5,5 C 3,9 C 86 % 1029,3 hPa 0,0 l/m 9,7 km/h (2 Bft) W-SW 247 1 min 0,000 mm 0,0 UV-I 120 W/m 3,3 C 2,8 C 17,7 km/h (3 Bft) 95,65 %
24.12.2017 09:35 5,5 C 3,9 C 86 % 1029,2 hPa 0,0 l/m 12,9 km/h (3 Bft) W 270 0 min 0,000 mm 0,0 UV-I 102 W/m 3,3 C 0,8 C 19,3 km/h (3 Bft) 95,65 %
24.12.2017 09:36 5,5 C 3,9 C 86 % 1029,3 hPa 0,0 l/m 14,5 km/h (3 Bft) W 270 0 min 0,000 mm 0,0 UV-I 107 W/m 3,3 C -0,1 C 19,3 km/h (3 Bft) 95,65 %
24.12.2017 09:37 5,5 C 3,9 C 86 % 1029,2 hPa 0,0 l/m 16,1 km/h (3 Bft) W 270 0 min 0,000 mm 0,0 UV-I 98 W/m 3,3 C -0,9 C 22,5 km/h (4 Bft) 95,65 %
24.12.2017 09:38 5,5 C 3,9 C 86 % 1029,3 hPa 0,0 l/m 11,3 km/h (2 Bft) W-SW 247 1 min 0,000 mm 0,0 UV-I 137 W/m 3,3 C 1,8 C 14,5 km/h (3 Bft) 95,65 %
24.12.2017 09:39 5,5 C 3,9 C 86 % 1029,3 hPa 0,0 l/m 11,3 km/h (2 Bft) W-SW 247 1 min 0,000 mm 0,0 UV-I 114 W/m 3,3 C 1,8 C 14,5 km/h (3 Bft) 100,00 %
24.12.2017 09:40 5,5 C 3,9 C 86 % 1029,2 hPa 0,0 l/m 6,4 km/h (2 Bft) W-SW 247 0 min 0,000 mm 0,0 UV-I 109 W/m 3,3 C 5,5 C 11,3 km/h (2 Bft) 86,96 %
24.12.2017 09:41 5,5 C 3,9 C 86 % 1029,3 hPa 0,0 l/m 9,7 km/h (2 Bft) W-SW 247 0 min 0,000 mm 0,0 UV-I 109 W/m 3,3 C 2,8 C 14,5 km/h (3 Bft) 100,00 %
24.12.2017 09:42 5,5 C 3,9 C 86 % 1029,3 hPa 0,0 l/m 9,7 km/h (2 Bft) W 270 0 min 0,000 mm 0,0 UV-I 98 W/m 3,3 C 2,8 C 12,9 km/h (3 Bft) 95,65 %
24.12.2017 09:43 5,5 C 3,9 C 86 % 1029,3 hPa 0,0 l/m 11,3 km/h (2 Bft) W-SW 247 0 min 0,000 mm 0,0 UV-I 93 W/m 3,3 C 1,8 C 16,1 km/h (3 Bft) 100,00 %
24.12.2017 09:44 5,5 C 3,9 C 86 % 1029,3 hPa 0,0 l/m 9,7 km/h (2 Bft) W 270 0 min 0,000 mm 0,0 UV-I 85 W/m 3,3 C 2,8 C 14,5 km/h (3 Bft) 95,65 %
24.12.2017 09:45 5,5 C 3,9 C 86 % 1029,3 hPa 0,0 l/m 14,5 km/h (3 Bft) W-SW 247 0 min 0,000 mm 0,0 UV-I 83 W/m 3,3 C -0,1 C 19,3 km/h (3 Bft) 95,65 %
24.12.2017 09:46 5,5 C 3,9 C 86 % 1029,3 hPa 0,0 l/m 11,3 km/h (2 Bft) W 270 0 min 0,000 mm 0,0 UV-I 84 W/m 3,3 C 1,8 C 19,3 km/h (3 Bft) 100,00 %
24.12.2017 09:47 5,5 C 3,9 C 86 % 1029,3 hPa 0,0 l/m 17,7 km/h (3 Bft) W 270 0 min 0,000 mm 0,0 UV-I 95 W/m 3,3 C -1,6 C 24,1 km/h (4 Bft) 91,30 %
24.12.2017 09:48 5,5 C 3,9 C 86 % 1029,3 hPa 0,0 l/m 14,5 km/h (3 Bft) W-SW 247 0 min 0,000 mm 0,0 UV-I 86 W/m 3,3 C -0,1 C 19,3 km/h (3 Bft) 95,65 %
24.12.2017 09:49 5,5 C 3,9 C 86 % 1029,2 hPa 0,0 l/m 14,5 km/h (3 Bft) W 270 0 min 0,000 mm 0,0 UV-I 76 W/m 3,3 C -0,1 C 17,7 km/h (3 Bft) 95,65 %
24.12.2017 09:50 5,5 C 3,9 C 86 % 1029,2 hPa 0,0 l/m 11,3 km/h (2 Bft) W 270 0 min 0,000 mm 0,0 UV-I 91 W/m 3,3 C 1,8 C 16,1 km/h (3 Bft) 100,00 %
24.12.2017 09:51 5,5 C 3,9 C 86 % 1029,3 hPa 0,0 l/m 9,7 km/h (2 Bft) W 270 0 min 0,000 mm 0,0 UV-I 97 W/m 3,3 C 2,8 C 12,9 km/h (3 Bft) 95,65 %
24.12.2017 09:52 5,5 C 3,9 C 86 % 1029,2 hPa 0,0 l/m 8,0 km/h (2 Bft) W-SW 247 0 min 0,000 mm 0,0 UV-I 105 W/m 3,3 C 4,1 C 14,5 km/h (3 Bft) 95,65 %
24.12.2017 09:53 5,5 C 3,9 C 86 % 1029,2 hPa 0,0 l/m 6,4 km/h (2 Bft) W 270 0 min 0,000 mm 0,0 UV-I 114 W/m 3,3 C 5,5 C 11,3 km/h (2 Bft) 95,65 %
24.12.2017 09:54 5,6 C 3,9 C 86 % 1029,2 hPa 0,0 l/m 8,0 km/h (2 Bft) W-SW 247 0 min 0,000 mm 0,0 UV-I 97 W/m 3,4 C 4,2 C 17,7 km/h (3 Bft) 86,96 %
24.12.2017 09:55 5,6 C 3,9 C 86 % 1029,2 hPa 0,0 l/m 14,5 km/h (3 Bft) W 270 0 min 0,000 mm 0,0 UV-I 121 W/m 3,4 C 0,1 C 17,7 km/h (3 Bft) 100,00 %
24.12.2017 09:56 5,5 C 3,9 C 86 % 1029,2 hPa 0,0 l/m 11,3 km/h (2 Bft) W-SW 247 0 min 0,000 mm 0,0 UV-I 104 W/m 3,3 C 1,8 C 14,5 km/h (3 Bft) 91,30 %
24.12.2017 09:57 5,6 C 3,9 C 86 % 1029,2 hPa 0,0 l/m 11,3 km/h (2 Bft) W-SW 247 0 min 0,000 mm 0,0 UV-I 109 W/m 3,4 C 1,9 C 14,5 km/h (3 Bft) 100,00 %
24.12.2017 09:58 5,6 C 3,9 C 86 % 1029,2 hPa 0,0 l/m 12,9 km/h (3 Bft) W 270 0 min 0,000 mm 0,0 UV-I 104 W/m 3,4 C 0,9 C 17,7 km/h (3 Bft) 91,30 %
24.12.2017 09:59 5,6 C 3,9 C 86 % 1029,2 hPa 0,0 l/m 11,3 km/h (2 Bft) W-SW 247 0 min 0,000 mm 0,0 UV-I 102 W/m 3,4 C 1,9 C 17,7 km/h (3 Bft) 100,00 %
24.12.2017 10:00 5,6 C 3,9 C 86 % 1029,2 hPa 0,0 l/m 9,7 km/h (2 Bft) W-SW 247 0 min 0,051 mm 0,0 UV-I 98 W/m 3,4 C 2,9 C 14,5 km/h (3 Bft) 95,65 %
24.12.2017 10:01 5,6 C 3,9 C 86 % 1029,2 hPa 0,0 l/m 11,3 km/h (2 Bft) W-SW 247 0 min 0,000 mm 0,0 UV-I 94 W/m 3,4 C 1,9 C 14,5 km/h (3 Bft) 86,96 %
24.12.2017 10:02 5,6 C 3,9 C 86 % 1029,3 hPa 0,0 l/m 11,3 km/h (2 Bft) W 270 0 min 0,000 mm 0,0 UV-I 86 W/m 3,4 C 1,9 C 16,1 km/h (3 Bft) 95,65 %
24.12.2017 10:03 5,6 C 3,9 C 86 % 1029,3 hPa 0,0 l/m 11,3 km/h (2 Bft) W 270 0 min 0,000 mm 0,0 UV-I 84 W/m 3,4 C 1,9 C 16,1 km/h (3 Bft) 91,30 %
24.12.2017 10:04 5,6 C 3,9 C 86 % 1029,2 hPa 0,0 l/m 9,7 km/h (2 Bft) W 270 0 min 0,000 mm 0,0 UV-I 77 W/m 3,4 C 2,9 C 17,7 km/h (3 Bft) 100,00 %
24.12.2017 10:05 5,6 C 3,9 C 86 % 1029,2 hPa 0,0 l/m 8,0 km/h (2 Bft) W 270 0 min 0,000 mm 0,0 UV-I 79 W/m 3,4 C 4,2 C 12,9 km/h (3 Bft) 86,96 %
24.12.2017 10:06 5,6 C 3,9 C 86 % 1029,2 hPa 0,0 l/m 12,9 km/h (3 Bft) W 270 0 min 0,000 mm 0,0 UV-I 90 W/m 3,4 C 0,9 C 19,3 km/h (3 Bft) 95,65 %
24.12.2017 10:07 5,6 C 3,9 C 86 % 1029,2 hPa 0,0 l/m 12,9 km/h (3 Bft) W 270 0 min 0,000 mm 0,0 UV-I 79 W/m 3,4 C 0,9 C 19,3 km/h (3 Bft) 91,30 %
24.12.2017 10:08 5,6 C 3,9 C 86 % 1029,1 hPa 0,0 l/m 14,5 km/h (3 Bft) W 270 0 min 0,000 mm 0,0 UV-I 84 W/m 3,4 C 0,1 C 17,7 km/h (3 Bft) 91,30 %
24.12.2017 10:09 5,6 C 3,9 C 86 % 1029,2 hPa 0,0 l/m 14,5 km/h (3 Bft) W 270 0 min 0,000 mm 0,0 UV-I 91 W/m 3,4 C 0,1 C 20,9 km/h (4 Bft) 91,30 %
24.12.2017 10:10 5,6 C 3,9 C 86 % 1029,1 hPa 0,0 l/m 8,0 km/h (2 Bft) W-SW 247 0 min 0,000 mm 0,0 UV-I 86 W/m 3,4 C 4,2 C 11,3 km/h (2 Bft) 100,00 %
24.12.2017 10:11 5,6 C 3,9 C 86 % 1029,1 hPa 0,0 l/m 11,3 km/h (2 Bft) W-SW 247 0 min 0,000 mm 0,0 UV-I 88 W/m 3,4 C 1,9 C 19,3 km/h (3 Bft) 86,96 %
24.12.2017 10:12 5,6 C 3,9 C 86 % 1029,1 hPa 0,0 l/m 12,9 km/h (3 Bft) W 270 0 min 0,000 mm 0,0 UV-I 114 W/m 3,4 C 0,9 C 17,7 km/h (3 Bft) 100,00 %
24.12.2017 10:13 5,6 C 3,9 C 86 % 1029,1 hPa 0,0 l/m 17,7 km/h (3 Bft) W-SW 247 0 min 0,000 mm 0,0 UV-I 114 W/m 3,4 C -1,5 C 24,1 km/h (4 Bft) 95,65 %
24.12.2017 10:14 5,6 C 3,9 C 85 % 1029,0 hPa 0,0 l/m 14,5 km/h (3 Bft) W 270 0 min 0,000 mm 0,0 UV-I 134 W/m 3,3 C 0,1 C 19,3 km/h (3 Bft) 100,00 %
24.12.2017 10:15 5,6 C 3,9 C 85 % 1029,0 hPa 0,0 l/m 12,9 km/h (3 Bft) W-SW 247 1 min 0,000 mm 0,0 UV-I 160 W/m 3,3 C 0,9 C 17,7 km/h (3 Bft) 91,30 %
24.12.2017 10:16 5,6 C 3,9 C 86 % 1029,1 hPa 0,0 l/m 14,5 km/h (3 Bft) W-SW 247 1 min 0,000 mm 0,0 UV-I 144 W/m 3,4 C 0,1 C 19,3 km/h (3 Bft) 100,00 %
24.12.2017 10:17 5,6 C 3,9 C 86 % 1029,1 hPa 0,0 l/m 11,3 km/h (2 Bft) W 270 1 min 0,000 mm 0,0 UV-I 165 W/m 3,4 C 1,9 C 16,1 km/h (3 Bft) 100,00 %
24.12.2017 10:18 5,7 C 3,9 C 86 % 1029,0 hPa 0,0 l/m 11,3 km/h (2 Bft) W 270 1 min 0,000 mm 0,0 UV-I 181 W/m 3,5 C 2,0 C 14,5 km/h (3 Bft) 100,00 %
24.12.2017 10:19 5,7 C 3,9 C 86 % 1029,1 hPa 0,0 l/m 12,9 km/h (3 Bft) W 270 1 min 0,000 mm 0,0 UV-I 213 W/m 3,5 C 1,0 C 19,3 km/h (3 Bft) 91,30 %
24.12.2017 10:20 5,7 C 3,9 C 86 % 1029,0 hPa 0,0 l/m 11,3 km/h (2 Bft) W 270 1 min 0,000 mm 0,0 UV-I 185 W/m 3,5 C 2,0 C 16,1 km/h (3 Bft) 100,00 %
24.12.2017 10:21 5,7 C 3,9 C 86 % 1029,1 hPa 0,0 l/m 14,5 km/h (3 Bft) W 270 1 min 0,000 mm 0,0 UV-I 188 W/m 3,5 C 0,2 C 19,3 km/h (3 Bft) 100,00 %
24.12.2017 10:22 5,8 C 3,9 C 85 % 1029,0 hPa 0,0 l/m 12,9 km/h (3 Bft) W 270 1 min 0,000 mm 0,0 UV-I 221 W/m 3,5 C 1,2 C 20,9 km/h (4 Bft) 91,30 %
24.12.2017 10:23 5,8 C 3,9 C 85 % 1029,0 hPa 0,0 l/m 19,3 km/h (3 Bft) W 270 1 min 0,000 mm 0,0 UV-I 160 W/m 3,5 C -1,9 C 29,0 km/h (5 Bft) 100,00 %
24.12.2017 10:24 5,8 C 3,9 C 85 % 1029,0 hPa 0,0 l/m 11,3 km/h (2 Bft) W 270 1 min 0,000 mm 0,0 UV-I 160 W/m 3,5 C 2,1 C 14,5 km/h (3 Bft) 100,00 %
24.12.2017 10:25 5,8 C 3,9 C 85 % 1028,9 hPa 0,0 l/m 12,9 km/h (3 Bft) W 270 1 min 0,000 mm 0,0 UV-I 163 W/m 3,5 C 1,2 C 19,3 km/h (3 Bft) 100,00 %
24.12.2017 10:26 5,8 C 3,9 C 85 % 1029,0 hPa 0,0 l/m 16,1 km/h (3 Bft) W-SW 247 0 min 0,000 mm 0,0 UV-I 142 W/m 3,5 C -0,5 C 19,3 km/h (3 Bft) 100,00 %
24.12.2017 10:27 5,8 C 3,9 C 85 % 1029,0 hPa 0,0 l/m 14,5 km/h (3 Bft) W 270 1 min 0,000 mm 0,0 UV-I 151 W/m 3,5 C 0,3 C 17,7 km/h (3 Bft) 100,00 %
24.12.2017 10:28 5,8 C 3,9 C 84 % 1029,0 hPa 0,0 l/m 12,9 km/h (3 Bft) W 270 1 min 0,000 mm 0,0 UV-I 167 W/m 3,3 C 1,2 C 20,9 km/h (4 Bft) 95,65 %
24.12.2017 10:29 5,8 C 3,9 C 85 % 1029,0 hPa 0,0 l/m 12,9 km/h (3 Bft) W-SW 247 1 min 0,000 mm 0,0 UV-I 197 W/m 3,5 C 1,2 C 17,7 km/h (3 Bft) 95,65 %
24.12.2017 10:30 5,8 C 3,9 C 85 % 1029,0 hPa 0,0 l/m 11,3 km/h (2 Bft) W 270 1 min 0,000 mm 0,0 UV-I 203 W/m 3,5 C 2,1 C 17,7 km/h (3 Bft) 100,00 %
24.12.2017 10:31 5,8 C 3,9 C 85 % 1029,0 hPa 0,0 l/m 12,9 km/h (3 Bft) W-SW 247 1 min 0,000 mm 0,0 UV-I 165 W/m 3,5 C 1,2 C 16,1 km/h (3 Bft) 100,00 %
24.12.2017 10:32 5,8 C 3,9 C 85 % 1029,0 hPa 0,0 l/m 12,9 km/h (3 Bft) W 270 1 min 0,000 mm 0,0 UV-I 158 W/m 3,5 C 1,2 C 19,3 km/h (3 Bft) 100,00 %
24.12.2017 10:33 5,9 C 3,9 C 85 % 1029,1 hPa 0,0 l/m 12,9 km/h (3 Bft) W 270 0 min 0,000 mm 0,0 UV-I 132 W/m 3,6 C 1,3 C 20,9 km/h (4 Bft) 95,65 %
24.12.2017 10:34 5,9 C 3,9 C 85 % 1029,0 hPa 0,0 l/m 9,7 km/h (2 Bft) W 270 0 min 0,000 mm 0,0 UV-I 135 W/m 3,6 C 3,3 C 17,7 km/h (3 Bft) 100,00 %
24.12.2017 10:35 5,9 C 3,9 C 85 % 1029,0 hPa 0,0 l/m 11,3 km/h (2 Bft) W 270 0 min 0,000 mm 0,0 UV-I 142 W/m 3,6 C 2,2 C 19,3 km/h (3 Bft) 100,00 %
24.12.2017 10:36 5,9 C 3,9 C 85 % 1029,0 hPa 0,0 l/m 16,1 km/h (3 Bft) W-SW 247 0 min 0,000 mm 0,0 UV-I 135 W/m 3,6 C -0,4 C 20,9 km/h (4 Bft) 91,30 %
24.12.2017 10:37 5,9 C 3,9 C 85 % 1029,1 hPa 0,0 l/m 9,7 km/h (2 Bft) W 270 0 min 0,000 mm 0,0 UV-I 116 W/m 3,6 C 3,3 C 17,7 km/h (3 Bft) 100,00 %
24.12.2017 10:38 5,8 C 3,9 C 85 % 1029,1 hPa 0,0 l/m 16,1 km/h (3 Bft) W 270 0 min 0,000 mm 0,0 UV-I 118 W/m 3,5 C -0,5 C 25,7 km/h (4 Bft) 100,00 %
24.12.2017 10:39 5,8 C 3,9 C 84 % 1029,0 hPa 0,0 l/m 11,3 km/h (2 Bft) W-SW 247 0 min 0,000 mm 0,0 UV-I 111 W/m 3,3 C 2,1 C 19,3 km/h (3 Bft) 100,00 %
24.12.2017 10:40 5,8 C 3,9 C 84 % 1029,0 hPa 0,0 l/m 14,5 km/h (3 Bft) W 270 0 min 0,000 mm 0,0 UV-I 113 W/m 3,3 C 0,3 C 22,5 km/h (4 Bft) 100,00 %
24.12.2017 10:41 5,8 C 3,9 C 84 % 1029,1 hPa 0,0 l/m 14,5 km/h (3 Bft) W 270 0 min 0,000 mm 0,0 UV-I 135 W/m 3,3 C 0,3 C 19,3 km/h (3 Bft) 100,00 %
24.12.2017 10:42 5,7 C 3,9 C 84 % 1029,1 hPa 0,0 l/m 12,9 km/h (3 Bft) W-SW 247 0 min 0,000 mm 0,0 UV-I 107 W/m 3,2 C 1,0 C 19,3 km/h (3 Bft) 100,00 %
24.12.2017 10:43 5,7 C 3,9 C 84 % 1029,1 hPa 0,0 l/m 11,3 km/h (2 Bft) W 270 0 min 0,000 mm 0,0 UV-I 100 W/m 3,2 C 2,0 C 16,1 km/h (3 Bft) 95,65 %
24.12.2017 10:44 5,7 C 3,9 C 84 % 1029,1 hPa 0,0 l/m 9,7 km/h (2 Bft) W-SW 247 0 min 0,000 mm 0,0 UV-I 104 W/m 3,2 C 3,1 C 14,5 km/h (3 Bft) 95,65 %
24.12.2017 10:45 5,7 C 3,9 C 84 % 1029,1 hPa 0,0 l/m 16,1 km/h (3 Bft) W-SW 247 0 min 0,000 mm 0,0 UV-I 113 W/m 3,2 C -0,6 C 20,9 km/h (4 Bft) 100,00 %
24.12.2017 10:46 5,7 C 3,9 C 84 % 1029,0 hPa 0,0 l/m 9,7 km/h (2 Bft) W 270 0 min 0,000 mm 0,0 UV-I 123 W/m 3,2 C 3,1 C 17,7 km/h (3 Bft) 100,00 %
24.12.2017 10:47 5,7 C 3,9 C 85 % 1029,1 hPa 0,0 l/m 11,3 km/h (2 Bft) W 270 0 min 0,000 mm 0,0 UV-I 105 W/m 3,4 C 2,0 C 19,3 km/h (3 Bft) 100,00 %
24.12.2017 10:48 5,7 C 3,9 C 84 % 1029,1 hPa 0,0 l/m 17,7 km/h (3 Bft) W 270 0 min 0,000 mm 0,0 UV-I 84 W/m 3,2 C -1,3 C 22,5 km/h (4 Bft) 100,00 %
24.12.2017 10:49 5,7 C 3,9 C 84 % 1029,1 hPa 0,0 l/m 12,9 km/h (3 Bft) W 270 0 min 0,000 mm 0,0 UV-I 86 W/m 3,2 C 1,0 C 17,7 km/h (3 Bft) 100,00 %
24.12.2017 10:50 5,7 C 3,9 C 84 % 1029,1 hPa 0,0 l/m 14,5 km/h (3 Bft) W 270 0 min 0,000 mm 0,0 UV-I 98 W/m 3,2 C 0,2 C 24,1 km/h (4 Bft) 95,65 %
24.12.2017 10:51 5,6 C 3,9 C 84 % 1029,1 hPa 0,0 l/m 17,7 km/h (3 Bft) W 270 0 min 0,000 mm 0,0 UV-I 109 W/m 3,1 C -1,5 C 25,7 km/h (4 Bft) 100,00 %
24.12.2017 10:52 5,6 C 3,9 C 84 % 1029,0 hPa 0,0 l/m 16,1 km/h (3 Bft) W 270 0 min 0,000 mm 0,0 UV-I 107 W/m 3,1 C -0,7 C 24,1 km/h (4 Bft) 100,00 %
24.12.2017 10:53 5,6 C 3,9 C 84 % 1029,0 hPa 0,0 l/m 14,5 km/h (3 Bft) W-SW 247 0 min 0,000 mm 0,0 UV-I 107 W/m 3,1 C 0,1 C 17,7 km/h (3 Bft) 100,00 %
24.12.2017 10:54 5,6 C 3,9 C 84 % 1029,0 hPa 0,0 l/m 12,9 km/h (3 Bft) W-SW 247 0 min 0,000 mm 0,0 UV-I 115 W/m 3,1 C 0,9 C 19,3 km/h (3 Bft) 100,00 %
24.12.2017 10:55 5,6 C 3,9 C 85 % 1029,0 hPa 0,0 l/m 12,9 km/h (3 Bft) W 270 0 min 0,000 mm 0,0 UV-I 118 W/m 3,3 C 0,9 C 22,5 km/h (4 Bft) 100,00 %
24.12.2017 10:56 5,6 C 3,9 C 85 % 1029,0 hPa 0,0 l/m 14,5 km/h (3 Bft) W 270 0 min 0,000 mm 0,0 UV-I 130 W/m 3,3 C 0,1 C 17,7 km/h (3 Bft) 100,00 %
24.12.2017 10:57 5,6 C 3,9 C 85 % 1028,9 hPa 0,0 l/m 11,3 km/h (2 Bft) W 270 1 min 0,000 mm 0,0 UV-I 221 W/m 3,3 C 1,9 C 19,3 km/h (3 Bft) 95,65 %
24.12.2017 10:58 5,7 C 3,9 C 85 % 1028,9 hPa 0,0 l/m 14,5 km/h (3 Bft) W 270 1 min 0,000 mm 0,0 UV-I 167 W/m 3,4 C 0,2 C 19,3 km/h (3 Bft) 100,00 %
24.12.2017 10:59 5,7 C 3,9 C 85 % 1028,9 hPa 0,0 l/m 14,5 km/h (3 Bft) W 270 1 min 0,000 mm 0,0 UV-I 167 W/m 3,4 C 0,2 C 19,3 km/h (3 Bft) 100,00 %
24.12.2017 11:00 5,7 C 3,9 C 84 % 1028,9 hPa 0,0 l/m 14,5 km/h (3 Bft) W 270 1 min 0,076 mm 0,0 UV-I 178 W/m 3,2 C 0,2 C 30,6 km/h (5 Bft) 100,00 %
24.12.2017 11:01 5,7 C 3,9 C 84 % 1028,8 hPa 0,0 l/m 20,9 km/h (4 Bft) W-SW 247 0 min 0,000 mm 0,0 UV-I 148 W/m 3,2 C -2,6 C 37,0 km/h (5 Bft) 95,65 %
24.12.2017 11:02 5,7 C 3,9 C 84 % 1028,9 hPa 0,0 l/m 11,3 km/h (2 Bft) W-SW 247 0 min 0,000 mm 0,0 UV-I 148 W/m 3,2 C 2,0 C 16,1 km/h (3 Bft) 100,00 %
24.12.2017 11:03 5,7 C 3,9 C 84 % 1028,9 hPa 0,0 l/m 11,3 km/h (2 Bft) W 270 0 min 0,000 mm 0,0 UV-I 165 W/m 3,2 C 2,0 C 16,1 km/h (3 Bft) 100,00 %
24.12.2017 11:04 5,7 C 3,9 C 84 % 1028,8 hPa 0,0 l/m 11,3 km/h (2 Bft) W-SW 247 0 min 0,000 mm 0,0 UV-I 165 W/m 3,2 C 2,0 C 16,1 km/h (3 Bft) 95,65 %
24.12.2017 11:05 5,8 C 3,9 C 84 % 1028,8 hPa 0,0 l/m 14,5 km/h (3 Bft) W 270 1 min 0,000 mm 0,0 UV-I 241 W/m 3,3 C 0,3 C 22,5 km/h (4 Bft) 100,00 %
24.12.2017 11:06 5,8 C 3,9 C 84 % 1028,9 hPa 0,0 l/m 11,3 km/h (2 Bft) W-SW 247 0 min 0,000 mm 0,0 UV-I 132 W/m 3,3 C 2,1 C 22,5 km/h (4 Bft) 100,00 %
24.12.2017 11:07 5,7 C 3,9 C 84 % 1028,8 hPa 0,0 l/m 14,5 km/h (3 Bft) W 270 0 min 0,000 mm 0,0 UV-I 134 W/m 3,2 C 0,2 C 25,7 km/h (4 Bft) 100,00 %
24.12.2017 11:08 5,7 C 3,9 C 83 % 1028,8 hPa 0,0 l/m 12,9 km/h (3 Bft) W 270 0 min 0,000 mm 0,0 UV-I 128 W/m 3,0 C 1,0 C 17,7 km/h (3 Bft) 100,00 %
24.12.2017 11:09 5,7 C 3,9 C 83 % 1028,8 hPa 0,0 l/m 8,0 km/h (2 Bft) W 270 0 min 0,000 mm 0,0 UV-I 116 W/m 3,0 C 4,3 C 16,1 km/h (3 Bft) 100,00 %
24.12.2017 11:10 5,7 C 3,9 C 84 % 1028,7 hPa 0,0 l/m 11,3 km/h (2 Bft) W-SW 247 0 min 0,000 mm 0,0 UV-I 118 W/m 3,2 C 2,0 C 16,1 km/h (3 Bft) 100,00 %
24.12.2017 11:11 5,7 C 3,9 C 84 % 1028,8 hPa 0,0 l/m 8,0 km/h (2 Bft) W 270 0 min 0,000 mm 0,0 UV-I 94 W/m 3,2 C 4,3 C 11,3 km/h (2 Bft) 95,65 %
24.12.2017 11:12 5,7 C 3,9 C 84 % 1028,8 hPa 0,0 l/m 11,3 km/h (2 Bft) W-SW 247 0 min 0,000 mm 0,0 UV-I 98 W/m 3,2 C 2,0 C 14,5 km/h (3 Bft) 100,00 %
24.12.2017 11:13 5,7 C 3,9 C 84 % 1028,7 hPa 0,0 l/m 9,7 km/h (2 Bft) W-SW 247 0 min 0,000 mm 0,0 UV-I 113 W/m 3,2 C 3,1 C 14,5 km/h (3 Bft) 91,30 %
24.12.2017 11:14 5,7 C 3,9 C 84 % 1028,7 hPa 0,0 l/m 9,7 km/h (2 Bft) W 270 0 min 0,000 mm 0,0 UV-I 121 W/m 3,2 C 3,1 C 16,1 km/h (3 Bft) 95,65 %
24.12.2017 11:15 5,7 C 3,9 C 84 % 1028,6 hPa 0,0 l/m 12,9 km/h (3 Bft) W-SW 247 0 min 0,000 mm 0,0 UV-I 128 W/m 3,2 C 1,0 C 17,7 km/h (3 Bft) 95,65 %
24.12.2017 11:16 5,6 C 3,9 C 84 % 1028,6 hPa 0,0 l/m 17,7 km/h (3 Bft) W 270 0 min 0,000 mm 0,0 UV-I 125 W/m 3,1 C -1,5 C 29,0 km/h (5 Bft) 100,00 %
24.12.2017 11:17 5,6 C 3,9 C 84 % 1028,6 hPa 0,0 l/m 12,9 km/h (3 Bft) W 270 0 min 0,000 mm 0,0 UV-I 109 W/m 3,1 C 0,9 C 17,7 km/h (3 Bft) 91,30 %
24.12.2017 11:18 5,6 C 3,9 C 84 % 1028,5 hPa 0,0 l/m 9,7 km/h (2 Bft) W-SW 247 0 min 0,000 mm 0,0 UV-I 121 W/m 3,1 C 2,9 C 17,7 km/h (3 Bft) 91,30 %
24.12.2017 11:19 5,6 C 3,9 C 84 % 1028,6 hPa 0,0 l/m 9,7 km/h (2 Bft) W-SW 247 0 min 0,000 mm 0,0 UV-I 113 W/m 3,1 C 2,9 C 22,5 km/h (4 Bft) 95,65 %
24.12.2017 11:20 5,6 C 3,9 C 84 % 1028,5 hPa 0,0 l/m 14,5 km/h (3 Bft) W 270 0 min 0,000 mm 0,0 UV-I 116 W/m 3,1 C 0,1 C 20,9 km/h (4 Bft) 91,30 %
24.12.2017 11:21 5,6 C 3,9 C 84 % 1028,6 hPa 0,0 l/m 8,0 km/h (2 Bft) W 270 0 min 0,000 mm 0,0 UV-I 127 W/m 3,1 C 4,2 C 12,9 km/h (3 Bft) 95,65 %
24.12.2017 11:22 5,6 C 3,9 C 84 % 1028,5 hPa 0,0 l/m 11,3 km/h (2 Bft) W 270 0 min 0,000 mm 0,0 UV-I 134 W/m 3,1 C 1,9 C 22,5 km/h (4 Bft) 95,65 %
24.12.2017 11:23 5,6 C 3,9 C 84 % 1028,5 hPa 0,0 l/m 11,3 km/h (2 Bft) W-NW 292 0 min 0,000 mm 0,0 UV-I 134 W/m 3,1 C 1,9 C 20,9 km/h (4 Bft) 100,00 %
24.12.2017 11:24 5,6 C 3,9 C 84 % 1028,4 hPa 0,0 l/m 11,3 km/h (2 Bft) W 270 0 min 0,000 mm 0,5 UV-I 130 W/m 3,1 C 1,9 C 16,1 km/h (3 Bft) 95,65 %
24.12.2017 11:25 5,6 C 3,9 C 84 % 1028,5 hPa 0,0 l/m 14,5 km/h (3 Bft) W-SW 247 0 min 0,000 mm 0,5 UV-I 134 W/m 3,1 C 0,1 C 22,5 km/h (4 Bft) 95,65 %
24.12.2017 11:26 5,6 C 3,9 C 84 % 1028,5 hPa 0,0 l/m 12,9 km/h (3 Bft) W 270 0 min 0,000 mm 0,0 UV-I 128 W/m 3,1 C 0,9 C 19,3 km/h (3 Bft) 86,96 %
24.12.2017 11:27 5,6 C 3,9 C 84 % 1028,5 hPa 0,0 l/m 16,1 km/h (3 Bft) W 270 0 min 0,000 mm 0,0 UV-I 111 W/m 3,1 C -0,7 C 20,9 km/h (4 Bft) 100,00 %
24.12.2017 11:28 5,5 C 3,9 C 84 % 1028,5 hPa 0,0 l/m 11,3 km/h (2 Bft) W 270 0 min 0,000 mm 0,5 UV-I 121 W/m 3,0 C 1,8 C 14,5 km/h (3 Bft) 91,30 %
24.12.2017 11:29 5,6 C 3,9 C 84 % 1028,5 hPa 0,0 l/m 14,5 km/h (3 Bft) W-NW 292 0 min 0,000 mm 0,5 UV-I 135 W/m 3,1 C 0,1 C 24,1 km/h (4 Bft) 95,65 %
24.12.2017 11:30 5,6 C 3,9 C 84 % 1028,5 hPa 0,0 l/m 12,9 km/h (3 Bft) W-SW 247 0 min 0,000 mm 0,5 UV-I 128 W/m 3,1 C 0,9 C 20,9 km/h (4 Bft) 95,65 %
24.12.2017 11:31 5,6 C 3,9 C 84 % 1028,5 hPa 0,0 l/m 12,9 km/h (3 Bft) W-SW 247 0 min 0,000 mm 0,6 UV-I 167 W/m 3,1 C 0,9 C 17,7 km/h (3 Bft) 100,00 %
24.12.2017 11:32 5,6 C 3,9 C 84 % 1028,4 hPa 0,0 l/m 16,1 km/h (3 Bft) W 270 0 min 0,000 mm 0,6 UV-I 151 W/m 3,1 C -0,7 C 19,3 km/h (3 Bft) 91,30 %
24.12.2017 11:33 5,6 C 3,9 C 84 % 1028,4 hPa 0,0 l/m 20,9 km/h (4 Bft) W 270 0 min 0,000 mm 0,6 UV-I 162 W/m 3,1 C -2,7 C 32,2 km/h (5 Bft) 95,65 %
24.12.2017 11:34 5,6 C 3,9 C 84 % 1028,4 hPa 0,0 l/m 17,7 km/h (3 Bft) W 270 0 min 0,000 mm 0,6 UV-I 162 W/m 3,1 C -1,5 C 29,0 km/h (5 Bft) 91,30 %
24.12.2017 11:35 5,7 C 3,9 C 83 % 1028,4 hPa 0,0 l/m 19,3 km/h (3 Bft) W-SW 247 1 min 0,000 mm 0,6 UV-I 230 W/m 3,0 C -2,0 C 24,1 km/h (4 Bft) 95,65 %
24.12.2017 11:36 5,7 C 3,9 C 83 % 1028,4 hPa 0,0 l/m 16,1 km/h (3 Bft) W 270 1 min 0,000 mm 0,6 UV-I 188 W/m 3,0 C -0,6 C 25,7 km/h (4 Bft) 86,96 %
24.12.2017 11:37 5,7 C 3,9 C 83 % 1028,4 hPa 0,0 l/m 9,7 km/h (2 Bft) W-SW 247 1 min 0,000 mm 0,6 UV-I 188 W/m 3,0 C 3,1 C 17,7 km/h (3 Bft) 100,00 %
24.12.2017 11:38 5,7 C 3,9 C 83 % 1028,4 hPa 0,0 l/m 19,3 km/h (3 Bft) W-SW 247 0 min 0,000 mm 0,6 UV-I 132 W/m 3,0 C -2,0 C 30,6 km/h (5 Bft) 95,65 %
24.12.2017 11:39 5,7 C 3,9 C 83 % 1028,3 hPa 0,0 l/m 22,5 km/h (4 Bft) W 270 0 min 0,000 mm 0,7 UV-I 132 W/m 3,0 C -3,2 C 32,2 km/h (5 Bft) 95,65 %
24.12.2017 11:40 5,7 C 3,9 C 83 % 1028,4 hPa 0,0 l/m 12,9 km/h (3 Bft) W-SW 247 0 min 0,000 mm 0,6 UV-I 132 W/m 3,0 C 1,0 C 19,3 km/h (3 Bft) 95,65 %
24.12.2017 11:41 5,7 C 3,9 C 83 % 1028,3 hPa 0,0 l/m 17,7 km/h (3 Bft) W-SW 247 0 min 0,000 mm 0,6 UV-I 146 W/m 3,0 C -1,3 C 25,7 km/h (4 Bft) 95,65 %
24.12.2017 11:42 5,7 C 3,9 C 83 % 1028,3 hPa 0,0 l/m 22,5 km/h (4 Bft) W-SW 247 0 min 0,000 mm 0,6 UV-I 158 W/m 3,0 C -3,2 C 32,2 km/h (5 Bft) 95,65 %
24.12.2017 11:43 5,6 C 3,9 C 83 % 1028,2 hPa 0,0 l/m 17,7 km/h (3 Bft) W-SW 247 1 min 0,000 mm 0,7 UV-I 221 W/m 2,9 C -1,5 C 27,4 km/h (4 Bft) 95,65 %
24.12.2017 11:44 5,7 C 3,9 C 83 % 1028,3 hPa 0,0 l/m 11,3 km/h (2 Bft) W 270 1 min 0,000 mm 0,7 UV-I 221 W/m 3,0 C 2,0 C 12,9 km/h (3 Bft) 95,65 %
24.12.2017 11:45 5,7 C 3,9 C 83 % 1028,3 hPa 0,0 l/m 19,3 km/h (3 Bft) W-SW 247 1 min 0,000 mm 0,7 UV-I 362 W/m 3,0 C -2,0 C 27,4 km/h (4 Bft) 95,65 %
24.12.2017 11:46 5,8 C 3,9 C 83 % 1028,2 hPa 0,0 l/m 24,1 km/h (4 Bft) W-SW 247 1 min 0,000 mm 0,7 UV-I 366 W/m 3,1 C -3,6 C 35,4 km/h (5 Bft) 95,65 %
24.12.2017 11:47 5,8 C 3,9 C 83 % 1028,2 hPa 0,0 l/m 17,7 km/h (3 Bft) W 270 1 min 0,000 mm 0,7 UV-I 371 W/m 3,1 C -1,2 C 33,8 km/h (5 Bft) 95,65 %
24.12.2017 11:48 5,9 C 3,9 C 83 % 1028,1 hPa 0,0 l/m 22,5 km/h (4 Bft) W 270 1 min 0,000 mm 0,7 UV-I 381 W/m 3,2 C -2,9 C 32,2 km/h (5 Bft) 100,00 %
24.12.2017 11:49 5,9 C 3,9 C 82 % 1028,1 hPa 0,0 l/m 12,9 km/h (3 Bft) W-SW 247 1 min 0,000 mm 0,7 UV-I 385 W/m 3,1 C 1,3 C 19,3 km/h (3 Bft) 95,65 %
24.12.2017 11:50 5,9 C 3,9 C 82 % 1028,0 hPa 0,0 l/m 24,1 km/h (4 Bft) W-SW 247 1 min 0,000 mm 0,7 UV-I 367 W/m 3,1 C -3,4 C 32,2 km/h (5 Bft) 95,65 %
24.12.2017 11:51 6,0 C 3,9 C 82 % 1028,0 hPa 0,0 l/m 17,7 km/h (3 Bft) W 270 1 min 0,000 mm 0,7 UV-I 378 W/m 3,2 C -1,0 C 25,7 km/h (4 Bft) 95,65 %
24.12.2017 11:52 6,1 C 3,9 C 82 % 1028,0 hPa 0,0 l/m 16,1 km/h (3 Bft) W 270 1 min 0,000 mm 0,7 UV-I 384 W/m 3,3 C -0,1 C 20,9 km/h (4 Bft) 95,65 %
24.12.2017 11:53 6,1 C 3,9 C 82 % 1028,0 hPa 0,0 l/m 17,7 km/h (3 Bft) W 270 1 min 0,000 mm 0,7 UV-I 404 W/m 3,3 C -0,8 C 29,0 km/h (5 Bft) 95,65 %
24.12.2017 11:54 6,1 C 3,9 C 82 % 1028,0 hPa 0,0 l/m 24,1 km/h (4 Bft) W-SW 247 1 min 0,000 mm 0,7 UV-I 408 W/m 3,3 C -3,2 C 30,6 km/h (5 Bft) 91,30 %
24.12.2017 11:55 6,1 C 3,9 C 82 % 1028,0 hPa 0,0 l/m 17,7 km/h (3 Bft) W 270 1 min 0,000 mm 0,7 UV-I 403 W/m 3,3 C -0,8 C 22,5 km/h (4 Bft) 95,65 %
24.12.2017 11:56 6,1 C 3,9 C 81 % 1028,0 hPa 0,0 l/m 17,7 km/h (3 Bft) W 270 1 min 0,000 mm 0,7 UV-I 424 W/m 3,1 C -0,8 C 22,5 km/h (4 Bft) 95,65 %
24.12.2017 11:57 6,2 C 3,9 C 82 % 1028,0 hPa 0,0 l/m 16,1 km/h (3 Bft) W 270 1 min 0,000 mm 0,7 UV-I 424 W/m 3,4 C 0,0 C 22,5 km/h (4 Bft) 95,65 %
24.12.2017 11:58 6,2 C 3,9 C 82 % 1028,0 hPa 0,0 l/m 20,9 km/h (4 Bft) W-SW 247 1 min 0,000 mm 0,7 UV-I 432 W/m 3,4 C -2,0 C 27,4 km/h (4 Bft) 95,65 %
24.12.2017 11:59 6,2 C 3,9 C 81 % 1028,0 hPa 0,0 l/m 16,1 km/h (3 Bft) W 270 1 min 0,000 mm 0,7 UV-I 380 W/m 3,2 C 0,0 C 29,0 km/h (5 Bft) 100,00 %
24.12.2017 12:00 6,2 C 3,9 C 82 % 1028,0 hPa 0,0 l/m 14,5 km/h (3 Bft) W 270 1 min 0,102 mm 0,7 UV-I 357 W/m 3,4 C 0,8 C 24,1 km/h (4 Bft) 100,00 %
24.12.2017 12:01 6,3 C 3,9 C 82 % 1028,0 hPa 0,0 l/m 12,9 km/h (3 Bft) W-SW 247 1 min 0,000 mm 0,7 UV-I 271 W/m 3,5 C 1,7 C 17,7 km/h (3 Bft) 95,65 %
24.12.2017 12:02 6,3 C 3,9 C 82 % 1027,9 hPa 0,0 l/m 11,3 km/h (2 Bft) W-SW 247 1 min 0,000 mm 0,7 UV-I 352 W/m 3,5 C 2,7 C 17,7 km/h (3 Bft) 100,00 %
24.12.2017 12:03 6,3 C 3,9 C 82 % 1028,0 hPa 0,0 l/m 8,0 km/h (2 Bft) W-SW 247 1 min 0,000 mm 0,7 UV-I 338 W/m 3,5 C 5,0 C 14,5 km/h (3 Bft) 100,00 %
24.12.2017 12:04 6,4 C 3,9 C 82 % 1028,0 hPa 0,0 l/m 8,0 km/h (2 Bft) SW 225 1 min 0,000 mm 0,7 UV-I 338 W/m 3,6 C 5,1 C 11,3 km/h (2 Bft) 100,00 %
24.12.2017 12:05 6,5 C 3,9 C 82 % 1028,0 hPa 0,0 l/m 11,3 km/h (2 Bft) W 270 1 min 0,000 mm 0,7 UV-I 348 W/m 3,7 C 2,9 C 20,9 km/h (4 Bft) 100,00 %
24.12.2017 12:06 6,5 C 3,9 C 82 % 1028,0 hPa 0,0 l/m 14,5 km/h (3 Bft) W 270 1 min 0,000 mm 0,7 UV-I 345 W/m 3,7 C 1,1 C 20,9 km/h (4 Bft) 100,00 %
24.12.2017 12:07 6,4 C 3,9 C 81 % 1028,1 hPa 0,0 l/m 12,9 km/h (3 Bft) W-SW 247 1 min 0,000 mm 0,7 UV-I 346 W/m 3,4 C 1,9 C 17,7 km/h (3 Bft) 100,00 %
24.12.2017 12:08 6,5 C 3,9 C 81 % 1028,0 hPa 0,0 l/m 14,5 km/h (3 Bft) W 270 1 min 0,000 mm 0,7 UV-I 346 W/m 3,5 C 1,1 C 24,1 km/h (4 Bft) 95,65 %
24.12.2017 12:09 6,5 C 3,9 C 81 % 1028,0 hPa 0,0 l/m 16,1 km/h (3 Bft) W 270 1 min 0,000 mm 0,6 UV-I 341 W/m 3,5 C 0,4 C 29,0 km/h (5 Bft) 100,00 %
24.12.2017 12:10 6,5 C 3,9 C 80 % 1028,0 hPa 0,0 l/m 20,9 km/h (4 Bft) W-SW 247 1 min 0,000 mm 0,7 UV-I 330 W/m 3,3 C -1,6 C 29,0 km/h (5 Bft) 100,00 %
24.12.2017 12:11 6,4 C 3,9 C 80 % 1028,0 hPa 0,0 l/m 20,9 km/h (4 Bft) W 270 1 min 0,000 mm 0,7 UV-I 338 W/m 3,2 C -1,7 C 30,6 km/h (5 Bft) 100,00 %
24.12.2017 12:12 6,4 C 3,9 C 80 % 1028,0 hPa 0,0 l/m 12,9 km/h (3 Bft) W 270 1 min 0,000 mm 0,7 UV-I 346 W/m 3,2 C 1,9 C 20,9 km/h (4 Bft) 100,00 %
24.12.2017 12:13 6,3 C 3,9 C 80 % 1028,0 hPa 0,0 l/m 17,7 km/h (3 Bft) W-SW 247 1 min 0,000 mm 0,7 UV-I 336 W/m 3,1 C -0,6 C 25,7 km/h (4 Bft) 100,00 %
24.12.2017 12:14 6,3 C 3,9 C 80 % 1028,0 hPa 0,0 l/m 19,3 km/h (3 Bft) W 270 1 min 0,000 mm 0,7 UV-I 339 W/m 3,1 C -1,2 C 25,7 km/h (4 Bft) 95,65 %
24.12.2017 12:15 6,3 C 3,9 C 80 % 1027,9 hPa 0,0 l/m 17,7 km/h (3 Bft) W-SW 247 1 min 0,000 mm 0,6 UV-I 339 W/m 3,1 C -0,6 C 24,1 km/h (4 Bft) 95,65 %
24.12.2017 12:16 6,3 C 3,9 C 80 % 1027,9 hPa 0,0 l/m 11,3 km/h (2 Bft) W-SW 247 1 min 0,000 mm 0,7 UV-I 195 W/m 3,1 C 2,7 C 16,1 km/h (3 Bft) 100,00 %
24.12.2017 12:17 6,2 C 3,9 C 81 % 1027,9 hPa 0,0 l/m 12,9 km/h (3 Bft) W 270 1 min 0,000 mm 0,7 UV-I 360 W/m 3,2 C 1,6 C 16,1 km/h (3 Bft) 100,00 %
24.12.2017 12:18 6,3 C 3,9 C 81 % 1027,9 hPa 0,0 l/m 17,7 km/h (3 Bft) W-SW 247 1 min 0,000 mm 0,7 UV-I 378 W/m 3,3 C -0,6 C 20,9 km/h (4 Bft) 95,65 %
24.12.2017 12:19 6,3 C 3,9 C 81 % 1027,9 hPa 0,0 l/m 12,9 km/h (3 Bft) W-SW 247 1 min 0,000 mm 0,6 UV-I 360 W/m 3,3 C 1,7 C 17,7 km/h (3 Bft) 100,00 %
24.12.2017 12:20 6,3 C 3,9 C 81 % 1027,9 hPa 0,0 l/m 11,3 km/h (2 Bft) W-SW 247 1 min 0,000 mm 0,7 UV-I 341 W/m 3,3 C 2,7 C 17,7 km/h (3 Bft) 100,00 %
24.12.2017 12:21 6,3 C 3,9 C 81 % 1027,8 hPa 0,0 l/m 17,7 km/h (3 Bft) W-SW 247 1 min 0,000 mm 0,7 UV-I 376 W/m 3,3 C -0,6 C 25,7 km/h (4 Bft) 100,00 %
24.12.2017 12:22 6,3 C 3,9 C 81 % 1027,8 hPa 0,0 l/m 20,9 km/h (4 Bft) W-SW 247 1 min 0,000 mm 0,7 UV-I 376 W/m 3,3 C -1,8 C 27,4 km/h (4 Bft) 95,65 %
24.12.2017 12:23 6,4 C 3,9 C 80 % 1027,8 hPa 0,0 l/m 17,7 km/h (3 Bft) W-SW 247 1 min 0,000 mm 0,7 UV-I 390 W/m 3,2 C -0,4 C 24,1 km/h (4 Bft) 100,00 %
24.12.2017 12:24 6,4 C 3,9 C 81 % 1027,8 hPa 0,0 l/m 20,9 km/h (4 Bft) W 270 1 min 0,000 mm 0,7 UV-I 406 W/m 3,4 C -1,7 C 27,4 km/h (4 Bft) 100,00 %
24.12.2017 12:25 6,4 C 3,9 C 81 % 1027,8 hPa 0,0 l/m 17,7 km/h (3 Bft) W-SW 247 1 min 0,000 mm 0,7 UV-I 436 W/m 3,4 C -0,4 C 25,7 km/h (4 Bft) 95,65 %
24.12.2017 12:26 6,4 C 3,9 C 81 % 1027,8 hPa 0,0 l/m 12,9 km/h (3 Bft) W 270 1 min 0,000 mm 0,7 UV-I 436 W/m 3,4 C 1,9 C 17,7 km/h (3 Bft) 95,65 %
24.12.2017 12:27 6,5 C 3,9 C 81 % 1027,8 hPa 0,0 l/m 14,5 km/h (3 Bft) SW 225 1 min 0,000 mm 0,7 UV-I 394 W/m 3,5 C 1,1 C 20,9 km/h (4 Bft) 100,00 %
24.12.2017 12:28 6,6 C 3,9 C 81 % 1027,7 hPa 0,0 l/m 16,1 km/h (3 Bft) W-SW 247 1 min 0,000 mm 0,7 UV-I 425 W/m 3,6 C 0,5 C 20,9 km/h (4 Bft) 100,00 %
24.12.2017 12:29 6,7 C 3,9 C 81 % 1027,8 hPa 0,0 l/m 8,0 km/h (2 Bft) W 270 1 min 0,000 mm 0,7 UV-I 417 W/m 3,7 C 5,4 C 16,1 km/h (3 Bft) 95,65 %
24.12.2017 12:30 6,7 C 3,9 C 81 % 1027,8 hPa 0,0 l/m 8,0 km/h (2 Bft) W 270 1 min 0,000 mm 0,7 UV-I 431 W/m 3,7 C 5,4 C 17,7 km/h (3 Bft) 95,65 %
24.12.2017 12:31 6,8 C 3,9 C 81 % 1027,8 hPa 0,0 l/m 11,3 km/h (2 Bft) W-SW 247 1 min 0,000 mm 0,7 UV-I 411 W/m 3,8 C 3,2 C 19,3 km/h (3 Bft) 100,00 %
24.12.2017 12:32 6,8 C 3,9 C 81 % 1027,7 hPa 0,0 l/m 12,9 km/h (3 Bft) W 270 1 min 0,000 mm 0,7 UV-I 406 W/m 3,8 C 2,3 C 16,1 km/h (3 Bft) 95,65 %
24.12.2017 12:33 6,8 C 3,9 C 80 % 1027,7 hPa 0,0 l/m 14,5 km/h (3 Bft) W 270 1 min 0,000 mm 0,7 UV-I 400 W/m 3,6 C 1,5 C 22,5 km/h (4 Bft) 91,30 %
24.12.2017 12:34 6,8 C 3,9 C 80 % 1027,7 hPa 0,0 l/m 14,5 km/h (3 Bft) W 270 1 min 0,000 mm 0,7 UV-I 371 W/m 3,6 C 1,5 C 20,9 km/h (4 Bft) 100,00 %
24.12.2017 12:35 6,8 C 3,9 C 80 % 1027,7 hPa 0,0 l/m 9,7 km/h (2 Bft) W 270 1 min 0,000 mm 0,7 UV-I 360 W/m 3,6 C 4,3 C 14,5 km/h (3 Bft) 100,00 %
24.12.2017 12:36 6,8 C 3,9 C 80 % 1027,6 hPa 0,0 l/m 11,3 km/h (2 Bft) W-SW 247 1 min 0,000 mm 0,7 UV-I 355 W/m 3,6 C 3,2 C 16,1 km/h (3 Bft) 86,96 %
24.12.2017 12:37 6,8 C 3,9 C 80 % 1027,6 hPa 0,0 l/m 9,7 km/h (2 Bft) W-SW 247 1 min 0,000 mm 0,7 UV-I 334 W/m 3,6 C 4,3 C 16,1 km/h (3 Bft) 100,00 %
24.12.2017 12:38 6,8 C 3,9 C 81 % 1027,6 hPa 0,0 l/m 11,3 km/h (2 Bft) W 270 1 min 0,000 mm 0,7 UV-I 336 W/m 3,8 C 3,2 C 14,5 km/h (3 Bft) 95,65 %
24.12.2017 12:39 6,8 C 3,9 C 80 % 1027,6 hPa 0,0 l/m 9,7 km/h (2 Bft) W 270 1 min 0,000 mm 0,7 UV-I 351 W/m 3,6 C 4,3 C 12,9 km/h (3 Bft) 100,00 %
24.12.2017 12:40 6,8 C 3,9 C 81 % 1027,6 hPa 0,0 l/m 8,0 km/h (2 Bft) W 270 1 min 0,000 mm 0,7 UV-I 334 W/m 3,8 C 5,5 C 12,9 km/h (3 Bft) 95,65 %
24.12.2017 12:41 6,9 C 3,9 C 80 % 1027,6 hPa 0,0 l/m 4,8 km/h (1 Bft) W-SW 247 1 min 0,000 mm 0,7 UV-I 330 W/m 3,7 C 6,9 C 11,3 km/h (2 Bft) 95,65 %
24.12.2017 12:42 6,9 C 3,9 C 80 % 1027,6 hPa 0,0 l/m 9,7 km/h (2 Bft) W 270 1 min 0,000 mm 0,7 UV-I 359 W/m 3,7 C 4,4 C 12,9 km/h (3 Bft) 95,65 %
24.12.2017 12:43 6,9 C 3,9 C 80 % 1027,6 hPa 0,0 l/m 8,0 km/h (2 Bft) W 270 1 min 0,000 mm 0,7 UV-I 362 W/m 3,7 C 5,6 C 12,9 km/h (3 Bft) 86,96 %
24.12.2017 12:44 6,9 C 3,9 C 80 % 1027,6 hPa 0,0 l/m 9,7 km/h (2 Bft) W 270 1 min 0,000 mm 0,7 UV-I 357 W/m 3,7 C 4,4 C 12,9 km/h (3 Bft) 100,00 %
24.12.2017 12:45 6,9 C 3,9 C 80 % 1027,6 hPa 0,0 l/m 12,9 km/h (3 Bft) W-SW 247 1 min 0,000 mm 0,7 UV-I 323 W/m 3,7 C 2,4 C 17,7 km/h (3 Bft) 95,65 %
24.12.2017 12:46 6,9 C 3,9 C 80 % 1027,5 hPa 0,0 l/m 12,9 km/h (3 Bft) W-SW 247 1 min 0,000 mm 0,7 UV-I 322 W/m 3,7 C 2,4 C 16,1 km/h (3 Bft) 100,00 %
24.12.2017 12:47 6,8 C 3,9 C 79 % 1027,5 hPa 0,0 l/m 14,5 km/h (3 Bft) W 270 1 min 0,000 mm 0,7 UV-I 345 W/m 3,4 C 1,5 C 17,7 km/h (3 Bft) 95,65 %
24.12.2017 12:48 6,8 C 3,9 C 79 % 1027,5 hPa 0,0 l/m 4,8 km/h (1 Bft) W 270 1 min 0,000 mm 0,7 UV-I 371 W/m 3,4 C 6,8 C 9,7 km/h (2 Bft) 100,00 %
24.12.2017 12:49 6,8 C 3,9 C 80 % 1027,5 hPa 0,0 l/m 4,8 km/h (1 Bft) W-SW 247 1 min 0,000 mm 0,7 UV-I 367 W/m 3,6 C 6,8 C 8,0 km/h (2 Bft) 95,65 %
24.12.2017 12:50 6,8 C 3,9 C 81 % 1027,4 hPa 0,0 l/m 12,9 km/h (3 Bft) W-SW 247 1 min 0,000 mm 0,7 UV-I 345 W/m 3,8 C 2,3 C 19,3 km/h (3 Bft) 95,65 %
24.12.2017 12:51 6,8 C 3,9 C 80 % 1027,4 hPa 0,0 l/m 9,7 km/h (2 Bft) W-SW 247 1 min 0,000 mm 0,7 UV-I 337 W/m 3,6 C 4,3 C 14,5 km/h (3 Bft) 95,65 %
24.12.2017 12:52 6,8 C 3,9 C 80 % 1027,4 hPa 0,0 l/m 9,7 km/h (2 Bft) W-SW 247 1 min 0,000 mm 0,7 UV-I 330 W/m 3,6 C 4,3 C 19,3 km/h (3 Bft) 100,00 %
24.12.2017 12:53 6,8 C 3,9 C 80 % 1027,4 hPa 0,0 l/m 11,3 km/h (2 Bft) W 270 1 min 0,000 mm 0,7 UV-I 320 W/m 3,6 C 3,2 C 19,3 km/h (3 Bft) 95,65 %
24.12.2017 12:54 6,8 C 3,9 C 80 % 1027,4 hPa 0,0 l/m 14,5 km/h (3 Bft) W-SW 247 1 min 0,000 mm 0,7 UV-I 316 W/m 3,6 C 1,5 C 22,5 km/h (4 Bft) 100,00 %
24.12.2017 12:55 6,8 C 3,9 C 80 % 1027,3 hPa 0,0 l/m 14,5 km/h (3 Bft) W 270 1 min 0,000 mm 0,6 UV-I 236 W/m 3,6 C 1,5 C 20,9 km/h (4 Bft) 91,30 %
24.12.2017 12:56 6,8 C 3,9 C 80 % 1027,3 hPa 0,0 l/m 11,3 km/h (2 Bft) W-SW 247 1 min 0,000 mm 0,7 UV-I 332 W/m 3,6 C 3,2 C 19,3 km/h (3 Bft) 100,00 %
24.12.2017 12:57 6,8 C 3,9 C 80 % 1027,3 hPa 0,0 l/m 9,7 km/h (2 Bft) W 270 1 min 0,000 mm 0,7 UV-I 342 W/m 3,6 C 4,3 C 12,9 km/h (3 Bft) 91,30 %
24.12.2017 12:58 6,8 C 3,9 C 80 % 1027,3 hPa 0,0 l/m 9,7 km/h (2 Bft) W-SW 247 1 min 0,000 mm 0,7 UV-I 339 W/m 3,6 C 4,3 C 11,3 km/h (2 Bft) 95,65 %
24.12.2017 12:59 6,8 C 3,9 C 81 % 1027,3 hPa 0,0 l/m 11,3 km/h (2 Bft) W-SW 247 1 min 0,000 mm 0,7 UV-I 343 W/m 3,8 C 3,2 C 17,7 km/h (3 Bft) 100,00 %
24.12.2017 13:00 6,8 C 3,9 C 80 % 1027,3 hPa 0,0 l/m 11,3 km/h (2 Bft) W-SW 247 1 min 0,178 mm 0,6 UV-I 341 W/m 3,6 C 3,2 C 16,1 km/h (3 Bft) 100,00 %
24.12.2017 13:01 6,9 C 3,9 C 80 % 1027,3 hPa 0,0 l/m 14,5 km/h (3 Bft) W-SW 247 1 min 0,000 mm 0,6 UV-I 301 W/m 3,7 C 1,6 C 22,5 km/h (4 Bft) 100,00 %
24.12.2017 13:02 6,8 C 3,9 C 79 % 1027,2 hPa 0,0 l/m 14,5 km/h (3 Bft) W 270 1 min 0,000 mm 0,6 UV-I 262 W/m 3,4 C 1,5 C 20,9 km/h (4 Bft) 100,00 %
24.12.2017 13:03 6,8 C 3,9 C 79 % 1027,2 hPa 0,0 l/m 12,9 km/h (3 Bft) W-SW 247 1 min 0,000 mm 0,6 UV-I 324 W/m 3,4 C 2,3 C 16,1 km/h (3 Bft) 91,30 %
24.12.2017 13:04 6,8 C 3,9 C 79 % 1027,2 hPa 0,0 l/m 11,3 km/h (2 Bft) W 270 1 min 0,000 mm 0,6 UV-I 325 W/m 3,4 C 3,2 C 14,5 km/h (3 Bft) 91,30 %
24.12.2017 13:05 6,8 C 3,9 C 79 % 1027,2 hPa 0,0 l/m 4,8 km/h (1 Bft) W 270 1 min 0,000 mm 0,6 UV-I 320 W/m 3,4 C 6,8 C 8,0 km/h (2 Bft) 100,00 %
24.12.2017 13:06 6,8 C 3,9 C 80 % 1027,2 hPa 0,0 l/m 9,7 km/h (2 Bft) W 270 1 min 0,000 mm 0,6 UV-I 308 W/m 3,6 C 4,3 C 17,7 km/h (3 Bft) 95,65 %
24.12.2017 13:07 6,8 C 3,9 C 80 % 1027,2 hPa 0,0 l/m 6,4 km/h (2 Bft) SW 225 1 min 0,000 mm 0,6 UV-I 265 W/m 3,6 C 6,8 C 11,3 km/h (2 Bft) 95,65 %
24.12.2017 13:08 6,8 C 3,9 C 79 % 1027,2 hPa 0,0 l/m 11,3 km/h (2 Bft) W 270 1 min 0,000 mm 0,6 UV-I 309 W/m 3,4 C 3,2 C 14,5 km/h (3 Bft) 91,30 %
24.12.2017 13:09 6,8 C 3,9 C 79 % 1027,1 hPa 0,0 l/m 8,0 km/h (2 Bft) W 270 1 min 0,000 mm 0,6 UV-I 338 W/m 3,4 C 5,5 C 12,9 km/h (3 Bft) 100,00 %
24.12.2017 13:10 6,8 C 3,9 C 80 % 1027,2 hPa 0,0 l/m 12,9 km/h (3 Bft) W 270 1 min 0,000 mm 0,6 UV-I 334 W/m 3,6 C 2,3 C 17,7 km/h (3 Bft) 95,65 %
24.12.2017 13:11 6,8 C 3,9 C 80 % 1027,1 hPa 0,0 l/m 9,7 km/h (2 Bft) W-SW 247 1 min 0,000 mm 0,6 UV-I 325 W/m 3,6 C 4,3 C 12,9 km/h (3 Bft) 95,65 %
24.12.2017 13:12 6,8 C 3,9 C 80 % 1027,1 hPa 0,0 l/m 9,7 km/h (2 Bft) W-NW 292 1 min 0,000 mm 0,6 UV-I 329 W/m 3,6 C 4,3 C 16,1 km/h (3 Bft) 95,65 %
24.12.2017 13:13 6,8 C 3,9 C 79 % 1027,1 hPa 0,0 l/m 11,3 km/h (2 Bft) W-NW 292 1 min 0,000 mm 0,6 UV-I 302 W/m 3,4 C 3,2 C 24,1 km/h (4 Bft) 95,65 %
24.12.2017 13:14 6,8 C 3,9 C 79 % 1027,1 hPa 0,0 l/m 9,7 km/h (2 Bft) W 270 1 min 0,000 mm 0,6 UV-I 327 W/m 3,4 C 4,3 C 17,7 km/h (3 Bft) 100,00 %
24.12.2017 13:15 6,8 C 3,9 C 79 % 1027,1 hPa 0,0 l/m 6,4 km/h (2 Bft) W-SW 247 1 min 0,000 mm 0,6 UV-I 327 W/m 3,4 C 6,8 C 11,3 km/h (2 Bft) 91,30 %
24.12.2017 13:16 6,8 C 3,9 C 80 % 1027,1 hPa 0,0 l/m 12,9 km/h (3 Bft) W-SW 247 1 min 0,000 mm 0,6 UV-I 325 W/m 3,6 C 2,3 C 17,7 km/h (3 Bft) 100,00 %
24.12.2017 13:17 6,8 C 3,9 C 79 % 1027,1 hPa 0,0 l/m 12,9 km/h (3 Bft) W-SW 247 1 min 0,000 mm 0,6 UV-I 323 W/m 3,4 C 2,3 C 17,7 km/h (3 Bft) 95,65 %
24.12.2017 13:18 6,7 C 3,9 C 79 % 1027,1 hPa 0,0 l/m 14,5 km/h (3 Bft) W 270 1 min 0,000 mm 0,6 UV-I 327 W/m 3,3 C 1,4 C 17,7 km/h (3 Bft) 91,30 %
24.12.2017 13:19 6,7 C 3,9 C 79 % 1027,1 hPa 0,0 l/m 14,5 km/h (3 Bft) W 270 1 min 0,000 mm 0,6 UV-I 315 W/m 3,3 C 1,4 C 24,1 km/h (4 Bft) 95,65 %
24.12.2017 13:20 6,7 C 3,9 C 80 % 1027,0 hPa 0,0 l/m 19,3 km/h (3 Bft) W 270 1 min 0,000 mm 0,6 UV-I 317 W/m 3,5 C -0,7 C 20,9 km/h (4 Bft) 95,65 %
24.12.2017 13:21 6,7 C 3,9 C 79 % 1027,0 hPa 0,0 l/m 8,0 km/h (2 Bft) W-SW 247 1 min 0,000 mm 0,6 UV-I 325 W/m 3,3 C 5,4 C 14,5 km/h (3 Bft) 100,00 %
24.12.2017 13:22 6,8 C 3,9 C 80 % 1027,0 hPa 0,0 l/m 8,0 km/h (2 Bft) W-SW 247 1 min 0,000 mm 0,6 UV-I 325 W/m 3,6 C 5,5 C 12,9 km/h (3 Bft) 95,65 %
24.12.2017 13:23 6,8 C 3,9 C 80 % 1027,0 hPa 0,0 l/m 8,0 km/h (2 Bft) W 270 1 min 0,000 mm 0,6 UV-I 322 W/m 3,6 C 5,5 C 12,9 km/h (3 Bft) 100,00 %
24.12.2017 13:24 6,9 C 3,9 C 80 % 1027,0 hPa 0,0 l/m 9,7 km/h (2 Bft) W 270 1 min 0,000 mm 0,6 UV-I 316 W/m 3,7 C 4,4 C 12,9 km/h (3 Bft) 95,65 %
24.12.2017 13:25 6,9 C 3,9 C 79 % 1026,9 hPa 0,0 l/m 8,0 km/h (2 Bft) W 270 1 min 0,000 mm 0,6 UV-I 313 W/m 3,5 C 5,6 C 14,5 km/h (3 Bft) 95,65 %
24.12.2017 13:26 6,9 C 3,9 C 79 % 1027,0 hPa 0,0 l/m 6,4 km/h (2 Bft) W-SW 247 1 min 0,000 mm 0,6 UV-I 311 W/m 3,5 C 6,9 C 12,9 km/h (3 Bft) 95,65 %
24.12.2017 13:27 6,9 C 3,9 C 79 % 1027,0 hPa 0,0 l/m 12,9 km/h (3 Bft) W-SW 247 1 min 0,000 mm 0,6 UV-I 297 W/m 3,5 C 2,4 C 19,3 km/h (3 Bft) 100,00 %
24.12.2017 13:28 6,9 C 3,9 C 79 % 1027,0 hPa 0,0 l/m 6,4 km/h (2 Bft) W 270 1 min 0,000 mm 0,6 UV-I 301 W/m 3,5 C 6,9 C 12,9 km/h (3 Bft) 91,30 %
24.12.2017 13:29 6,9 C 3,9 C 79 % 1027,0 hPa 0,0 l/m 9,7 km/h (2 Bft) W 270 1 min 0,000 mm 0,5 UV-I 301 W/m 3,5 C 4,4 C 16,1 km/h (3 Bft) 100,00 %
24.12.2017 13:30 6,9 C 3,9 C 79 % 1027,0 hPa 0,0 l/m 9,7 km/h (2 Bft) W-SW 247 1 min 0,000 mm 0,5 UV-I 301 W/m 3,5 C 4,4 C 14,5 km/h (3 Bft) 100,00 %
24.12.2017 13:31 6,9 C 3,9 C 79 % 1027,0 hPa 0,0 l/m 12,9 km/h (3 Bft) W-SW 247 1 min 0,000 mm 0,5 UV-I 304 W/m 3,5 C 2,4 C 24,1 km/h (4 Bft) 100,00 %
24.12.2017 13:32 6,9 C 3,9 C 79 % 1026,9 hPa 0,0 l/m 12,9 km/h (3 Bft) W-SW 247 1 min 0,000 mm 0,5 UV-I 309 W/m 3,5 C 2,4 C 19,3 km/h (3 Bft) 95,65 %
24.12.2017 13:33 6,9 C 3,9 C 79 % 1027,0 hPa 0,0 l/m 11,3 km/h (2 Bft) W 270 1 min 0,000 mm 0,5 UV-I 309 W/m 3,5 C 3,4 C 16,1 km/h (3 Bft) 100,00 %
24.12.2017 13:34 6,9 C 3,9 C 79 % 1026,9 hPa 0,0 l/m 11,3 km/h (2 Bft) W-SW 247 1 min 0,000 mm 0,5 UV-I 311 W/m 3,5 C 3,4 C 14,5 km/h (3 Bft) 100,00 %
24.12.2017 13:35 6,9 C 3,9 C 79 % 1026,9 hPa 0,0 l/m 4,8 km/h (1 Bft) W-NW 292 1 min 0,000 mm 0,5 UV-I 315 W/m 3,5 C 6,9 C 9,7 km/h (2 Bft) 100,00 %
24.12.2017 13:36 6,9 C 3,9 C 80 % 1026,9 hPa 0,0 l/m 11,3 km/h (2 Bft) W-SW 247 1 min 0,000 mm 0,5 UV-I 316 W/m 3,7 C 3,4 C 17,7 km/h (3 Bft) 100,00 %
24.12.2017 13:37 7,0 C 3,9 C 79 % 1026,9 hPa 0,0 l/m 12,9 km/h (3 Bft) W-SW 247 1 min 0,000 mm 0,5 UV-I 311 W/m 3,6 C 2,6 C 19,3 km/h (3 Bft) 100,00 %
24.12.2017 13:38 6,9 C 3,9 C 79 % 1026,9 hPa 0,0 l/m 4,8 km/h (1 Bft) W 270 1 min 0,000 mm 0,5 UV-I 300 W/m 3,5 C 6,9 C 11,3 km/h (2 Bft) 100,00 %
24.12.2017 13:39 6,9 C 3,9 C 79 % 1026,8 hPa 0,0 l/m 9,7 km/h (2 Bft) W 270 1 min 0,000 mm 0,5 UV-I 292 W/m 3,5 C 4,4 C 14,5 km/h (3 Bft) 91,30 %
24.12.2017 13:40 6,9 C 3,9 C 79 % 1026,9 hPa 0,0 l/m 6,4 km/h (2 Bft) W-SW 247 1 min 0,000 mm 0,5 UV-I 283 W/m 3,5 C 6,9 C 12,9 km/h (3 Bft) 95,65 %
24.12.2017 13:41 6,9 C 3,9 C 79 % 1026,8 hPa 0,0 l/m 6,4 km/h (2 Bft) W-NW 292 1 min 0,000 mm 0,5 UV-I 283 W/m 3,5 C 6,9 C 12,9 km/h (3 Bft) 95,65 %
24.12.2017 13:42 6,9 C 3,9 C 79 % 1026,8 hPa 0,0 l/m 9,7 km/h (2 Bft) W 270 1 min 0,000 mm 0,5 UV-I 271 W/m 3,5 C 4,4 C 17,7 km/h (3 Bft) 100,00 %
24.12.2017 13:43 6,9 C 3,9 C 79 % 1026,8 hPa 0,0 l/m 8,0 km/h (2 Bft) NW 315 1 min 0,000 mm 0,5 UV-I 269 W/m 3,5 C 5,6 C 11,3 km/h (2 Bft) 100,00 %
24.12.2017 13:44 7,0 C 3,9 C 79 % 1026,8 hPa 0,0 l/m 4,8 km/h (1 Bft) W-NW 292 1 min 0,000 mm 0,5 UV-I 265 W/m 3,6 C 7,0 C 9,7 km/h (2 Bft) 100,00 %
24.12.2017 13:45 7,1 C 3,9 C 79 % 1026,8 hPa 0,0 l/m 6,4 km/h (2 Bft) W-SW 247 1 min 0,000 mm 0,5 UV-I 267 W/m 3,7 C 7,1 C 11,3 km/h (2 Bft) 100,00 %
24.12.2017 13:46 7,0 C 3,9 C 78 % 1026,8 hPa 0,0 l/m 9,7 km/h (2 Bft) W 270 1 min 0,000 mm 0,5 UV-I 262 W/m 3,4 C 4,5 C 14,5 km/h (3 Bft) 95,65 %
24.12.2017 13:47 7,0 C 3,9 C 79 % 1026,8 hPa 0,0 l/m 14,5 km/h (3 Bft) W 270 1 min 0,000 mm 0,5 UV-I 262 W/m 3,6 C 1,7 C 17,7 km/h (3 Bft) 100,00 %
24.12.2017 13:48 6,9 C 3,9 C 78 % 1026,8 hPa 0,0 l/m 11,3 km/h (2 Bft) W-SW 247 1 min 0,000 mm 0,5 UV-I 258 W/m 3,3 C 3,4 C 16,1 km/h (3 Bft) 100,00 %
24.12.2017 13:49 6,9 C 3,9 C 79 % 1026,7 hPa 0,0 l/m 11,3 km/h (2 Bft) W 270 1 min 0,000 mm 0,5 UV-I 257 W/m 3,5 C 3,4 C 20,9 km/h (4 Bft) 100,00 %
24.12.2017 13:50 6,8 C 3,9 C 78 % 1026,7 hPa 0,0 l/m 11,3 km/h (2 Bft) W 270 1 min 0,000 mm 0,5 UV-I 252 W/m 3,2 C 3,2 C 16,1 km/h (3 Bft) 100,00 %
24.12.2017 13:51 6,8 C 3,9 C 79 % 1026,7 hPa 0,0 l/m 8,0 km/h (2 Bft) W 270 1 min 0,000 mm 0,5 UV-I 243 W/m 3,4 C 5,5 C 14,5 km/h (3 Bft) 100,00 %
24.12.2017 13:52 6,8 C 3,9 C 79 % 1026,6 hPa 0,0 l/m 9,7 km/h (2 Bft) SW 225 1 min 0,000 mm 0,5 UV-I 236 W/m 3,4 C 4,3 C 14,5 km/h (3 Bft) 100,00 %
24.12.2017 13:53 6,8 C 3,9 C 79 % 1026,7 hPa 0,0 l/m 12,9 km/h (3 Bft) W 270 1 min 0,000 mm 0,5 UV-I 227 W/m 3,4 C 2,3 C 20,9 km/h (4 Bft) 91,30 %
24.12.2017 13:54 6,8 C 3,9 C 79 % 1026,7 hPa 0,0 l/m 11,3 km/h (2 Bft) W-SW 247 1 min 0,000 mm 0,0 UV-I 244 W/m 3,4 C 3,2 C 16,1 km/h (3 Bft) 100,00 %
24.12.2017 13:55 6,8 C 3,9 C 79 % 1026,6 hPa 0,0 l/m 11,3 km/h (2 Bft) W 270 1 min 0,000 mm 0,0 UV-I 249 W/m 3,4 C 3,2 C 16,1 km/h (3 Bft) 100,00 %
24.12.2017 13:56 6,8 C 3,9 C 79 % 1026,6 hPa 0,0 l/m 11,3 km/h (2 Bft) W 270 1 min 0,000 mm 0,0 UV-I 244 W/m 3,4 C 3,2 C 14,5 km/h (3 Bft) 100,00 %
24.12.2017 13:57 6,8 C 3,9 C 79 % 1026,6 hPa 0,0 l/m 9,7 km/h (2 Bft) W 270 1 min 0,000 mm 0,0 UV-I 244 W/m 3,4 C 4,3 C 12,9 km/h (3 Bft) 100,00 %
24.12.2017 13:58 6,8 C 3,9 C 79 % 1026,7 hPa 0,0 l/m 9,7 km/h (2 Bft) W 270 1 min 0,000 mm 0,0 UV-I 243 W/m 3,4 C 4,3 C 12,9 km/h (3 Bft) 100,00 %
24.12.2017 13:59 6,8 C 3,9 C 80 % 1026,6 hPa 0,0 l/m 4,8 km/h (1 Bft) W 270 1 min 0,000 mm 0,0 UV-I 244 W/m 3,6 C 6,8 C 6,4 km/h (2 Bft) 100,00 %
24.12.2017 14:00 6,8 C 3,9 C 80 % 1026,6 hPa 0,0 l/m 11,3 km/h (2 Bft) W-NW 292 1 min 0,152 mm 0,0 UV-I 237 W/m 3,6 C 3,2 C 14,5 km/h (3 Bft) 95,65 %
24.12.2017 14:01 6,8 C 3,9 C 80 % 1026,5 hPa 0,0 l/m 11,3 km/h (2 Bft) W-SW 247 1 min 0,000 mm 0,0 UV-I 238 W/m 3,6 C 3,2 C 16,1 km/h (3 Bft) 100,00 %
24.12.2017 14:02 6,8 C 3,9 C 80 % 1026,5 hPa 0,0 l/m 9,7 km/h (2 Bft) W-SW 247 1 min 0,000 mm 0,0 UV-I 246 W/m 3,6 C 4,3 C 12,9 km/h (3 Bft) 100,00 %
24.12.2017 14:03 6,8 C 3,9 C 80 % 1026,5 hPa 0,0 l/m 8,0 km/h (2 Bft) W 270 1 min 0,000 mm 0,0 UV-I 243 W/m 3,6 C 5,5 C 11,3 km/h (2 Bft) 95,65 %
24.12.2017 14:04 6,8 C 3,9 C 80 % 1026,5 hPa 0,0 l/m 6,4 km/h (2 Bft) W 270 1 min 0,000 mm 0,0 UV-I 246 W/m 3,6 C 6,8 C 11,3 km/h (2 Bft) 95,65 %
24.12.2017 14:05 6,8 C 3,9 C 80 % 1026,5 hPa 0,0 l/m 6,4 km/h (2 Bft) W 270 1 min 0,000 mm 0,0 UV-I 250 W/m 3,6 C 6,8 C 9,7 km/h (2 Bft) 100,00 %
24.12.2017 14:06 6,8 C 3,9 C 81 % 1026,6 hPa 0,0 l/m 6,4 km/h (2 Bft) W 270 1 min 0,000 mm 0,0 UV-I 250 W/m 3,8 C 6,8 C 9,7 km/h (2 Bft) 91,30 %
24.12.2017 14:07 6,8 C 3,9 C 81 % 1026,6 hPa 0,0 l/m 11,3 km/h (2 Bft) W-SW 247 1 min 0,000 mm 0,0 UV-I 243 W/m 3,8 C 3,2 C 16,1 km/h (3 Bft) 95,65 %
24.12.2017 14:08 6,8 C 3,9 C 81 % 1026,6 hPa 0,0 l/m 4,8 km/h (1 Bft) W-SW 247 1 min 0,000 mm 0,0 UV-I 236 W/m 3,8 C 6,8 C 8,0 km/h (2 Bft) 95,65 %
24.12.2017 14:09 6,8 C 3,9 C 81 % 1026,6 hPa 0,0 l/m 6,4 km/h (2 Bft) W-SW 247 1 min 0,000 mm 0,0 UV-I 230 W/m 3,8 C 6,8 C 9,7 km/h (2 Bft) 95,65 %
24.12.2017 14:10 6,8 C 3,9 C 81 % 1026,5 hPa 0,0 l/m 6,4 km/h (2 Bft) W-SW 247 1 min 0,000 mm 0,0 UV-I 227 W/m 3,8 C 6,8 C 11,3 km/h (2 Bft) 95,65 %
24.12.2017 14:11 6,8 C 3,9 C 81 % 1026,6 hPa 0,0 l/m 4,8 km/h (1 Bft) W 270 1 min 0,000 mm 0,0 UV-I 229 W/m 3,8 C 6,8 C 11,3 km/h (2 Bft) 100,00 %
24.12.2017 14:12 6,8 C 3,9 C 81 % 1026,6 hPa 0,0 l/m 9,7 km/h (2 Bft) W 270 1 min 0,000 mm 0,0 UV-I 232 W/m 3,8 C 4,3 C 12,9 km/h (3 Bft) 95,65 %
24.12.2017 14:13 6,8 C 3,9 C 81 % 1026,6 hPa 0,0 l/m 6,4 km/h (2 Bft) W 270 1 min 0,000 mm 0,0 UV-I 230 W/m 3,8 C 6,8 C 11,3 km/h (2 Bft) 100,00 %
24.12.2017 14:14 6,8 C 3,9 C 82 % 1026,6 hPa 0,0 l/m 4,8 km/h (1 Bft) W-SW 247 1 min 0,000 mm 0,0 UV-I 218 W/m 3,9 C 6,8 C 6,4 km/h (2 Bft) 91,30 %
24.12.2017 14:15 6,7 C 3,9 C 81 % 1026,6 hPa 0,0 l/m 6,4 km/h (2 Bft) W 270 1 min 0,000 mm 0,0 UV-I 218 W/m 3,7 C 6,7 C 9,7 km/h (2 Bft) 100,00 %
24.12.2017 14:16 6,7 C 3,9 C 81 % 1026,6 hPa 0,0 l/m 6,4 km/h (2 Bft) W-NW 292 1 min 0,000 mm 0,0 UV-I 216 W/m 3,7 C 6,7 C 8,0 km/h (2 Bft) 91,30 %
24.12.2017 14:17 6,7 C 3,9 C 82 % 1026,6 hPa 0,0 l/m 4,8 km/h (1 Bft) W-SW 247 1 min 0,000 mm 0,0 UV-I 209 W/m 3,8 C 6,7 C 9,7 km/h (2 Bft) 100,00 %
24.12.2017 14:18 6,7 C 3,9 C 82 % 1026,6 hPa 0,0 l/m 9,7 km/h (2 Bft) W-SW 247 1 min 0,000 mm 0,0 UV-I 206 W/m 3,8 C 4,2 C 12,9 km/h (3 Bft) 95,65 %
24.12.2017 14:19 6,7 C 3,9 C 81 % 1026,6 hPa 0,0 l/m 6,4 km/h (2 Bft) W 270 1 min 0,000 mm 0,0 UV-I 206 W/m 3,7 C 6,7 C 12,9 km/h (3 Bft) 95,65 %
24.12.2017 14:20 6,7 C 3,9 C 82 % 1026,6 hPa 0,0 l/m 12,9 km/h (3 Bft) W 270 1 min 0,000 mm 0,0 UV-I 200 W/m 3,8 C 2,2 C 19,3 km/h (3 Bft) 100,00 %
24.12.2017 14:21 6,6 C 3,9 C 82 % 1026,6 hPa 0,0 l/m 11,3 km/h (2 Bft) W-SW 247 1 min 0,000 mm 0,0 UV-I 195 W/m 3,8 C 3,0 C 16,1 km/h (3 Bft) 91,30 %
24.12.2017 14:22 6,6 C 3,9 C 81 % 1026,6 hPa 0,0 l/m 8,0 km/h (2 Bft) W-SW 247 1 min 0,000 mm 0,0 UV-I 195 W/m 3,6 C 5,3 C 11,3 km/h (2 Bft) 95,65 %
24.12.2017 14:23 6,6 C 3,9 C 82 % 1026,6 hPa 0,0 l/m 6,4 km/h (2 Bft) SW 225 1 min 0,000 mm 0,0 UV-I 193 W/m 3,8 C 6,6 C 8,0 km/h (2 Bft) 91,30 %
24.12.2017 14:24 6,6 C 3,9 C 82 % 1026,6 hPa 0,0 l/m 4,8 km/h (1 Bft) W-NW 292 1 min 0,000 mm 0,0 UV-I 190 W/m 3,8 C 6,6 C 9,7 km/h (2 Bft) 100,00 %
24.12.2017 14:25 6,6 C 3,9 C 82 % 1026,6 hPa 0,0 l/m 12,9 km/h (3 Bft) W 270 1 min 0,000 mm 0,0 UV-I 190 W/m 3,8 C 2,1 C 17,7 km/h (3 Bft) 91,30 %
24.12.2017 14:26 6,6 C 3,9 C 82 % 1026,6 hPa 0,0 l/m 14,5 km/h (3 Bft) W 270 1 min 0,000 mm 0,0 UV-I 188 W/m 3,8 C 1,3 C 19,3 km/h (3 Bft) 100,00 %
24.12.2017 14:27 6,6 C 3,9 C 82 % 1026,6 hPa 0,0 l/m 12,9 km/h (3 Bft) W-SW 247 1 min 0,000 mm 0,0 UV-I 186 W/m 3,8 C 2,1 C 16,1 km/h (3 Bft) 91,30 %
24.12.2017 14:28 6,6 C 3,9 C 81 % 1026,5 hPa 0,0 l/m 12,9 km/h (3 Bft) W 270 1 min 0,000 mm 0,0 UV-I 172 W/m 3,6 C 2,1 C 16,1 km/h (3 Bft) 95,65 %
24.12.2017 14:29 6,5 C 3,9 C 81 % 1026,6 hPa 0,0 l/m 12,9 km/h (3 Bft) W-SW 247 1 min 0,000 mm 0,0 UV-I 183 W/m 3,5 C 2,0 C 17,7 km/h (3 Bft) 95,65 %
24.12.2017 14:30 6,5 C 3,9 C 81 % 1026,6 hPa 0,0 l/m 9,7 km/h (2 Bft) SW 225 1 min 0,000 mm 0,0 UV-I 179 W/m 3,5 C 3,9 C 16,1 km/h (3 Bft) 95,65 %
24.12.2017 14:31 6,5 C 3,9 C 81 % 1026,5 hPa 0,0 l/m 11,3 km/h (2 Bft) W 270 1 min 0,000 mm 0,0 UV-I 174 W/m 3,5 C 2,9 C 14,5 km/h (3 Bft) 100,00 %
24.12.2017 14:32 6,4 C 3,9 C 81 % 1026,5 hPa 0,0 l/m 8,0 km/h (2 Bft) SW 225 1 min 0,000 mm 0,0 UV-I 176 W/m 3,4 C 5,1 C 14,5 km/h (3 Bft) 95,65 %
24.12.2017 14:33 6,4 C 3,9 C 82 % 1026,5 hPa 0,0 l/m 6,4 km/h (2 Bft) W-SW 247 1 min 0,000 mm 0,0 UV-I 172 W/m 3,6 C 6,4 C 8,0 km/h (2 Bft) 100,00 %
24.12.2017 14:34 6,4 C 3,9 C 82 % 1026,5 hPa 0,0 l/m 12,9 km/h (3 Bft) W 270 1 min 0,000 mm 0,0 UV-I 172 W/m 3,6 C 1,9 C 14,5 km/h (3 Bft) 95,65 %
24.12.2017 14:35 6,5 C 3,9 C 82 % 1026,5 hPa 0,0 l/m 6,4 km/h (2 Bft) SW 225 1 min 0,000 mm 0,0 UV-I 174 W/m 3,7 C 6,5 C 14,5 km/h (3 Bft) 91,30 %
24.12.2017 14:36 6,5 C 3,9 C 82 % 1026,5 hPa 0,0 l/m 9,7 km/h (2 Bft) W-SW 247 1 min 0,000 mm 0,0 UV-I 174 W/m 3,7 C 3,9 C 14,5 km/h (3 Bft) 95,65 %
24.12.2017 14:37 6,4 C 3,9 C 82 % 1026,5 hPa 0,0 l/m 8,0 km/h (2 Bft) W 270 1 min 0,000 mm 0,0 UV-I 169 W/m 3,6 C 5,1 C 11,3 km/h (2 Bft) 100,00 %
24.12.2017 14:38 6,4 C 3,9 C 82 % 1026,5 hPa 0,0 l/m 4,8 km/h (1 Bft) W-NW 292 1 min 0,000 mm 0,0 UV-I 165 W/m 3,6 C 6,4 C 9,7 km/h (2 Bft) 95,65 %
24.12.2017 14:39 6,4 C 3,9 C 82 % 1026,5 hPa 0,0 l/m 3,2 km/h (1 Bft) W-SW 247 1 min 0,000 mm 0,0 UV-I 163 W/m 3,6 C 6,4 C 4,8 km/h (1 Bft) 91,30 %
24.12.2017 14:40 6,4 C 3,9 C 82 % 1026,5 hPa 0,0 l/m 4,8 km/h (1 Bft) W-SW 247 1 min 0,000 mm 0,0 UV-I 167 W/m 3,6 C 6,4 C 6,4 km/h (2 Bft) 91,30 %
24.12.2017 14:41 6,4 C 3,9 C 82 % 1026,5 hPa 0,0 l/m 4,8 km/h (1 Bft) W-NW 292 1 min 0,000 mm 0,0 UV-I 163 W/m 3,6 C 6,4 C 11,3 km/h (2 Bft) 95,65 %
24.12.2017 14:42 6,4 C 3,9 C 82 % 1026,5 hPa 0,0 l/m 4,8 km/h (1 Bft) W-NW 292 1 min 0,000 mm 0,0 UV-I 169 W/m 3,6 C 6,4 C 6,4 km/h (2 Bft) 95,65 %
24.12.2017 14:43 6,3 C 3,9 C 82 % 1026,5 hPa 0,0 l/m 3,2 km/h (1 Bft) NW 315 1 min 0,000 mm 0,0 UV-I 169 W/m 3,5 C 6,3 C 6,4 km/h (2 Bft) 91,30 %
24.12.2017 14:44 6,3 C 3,9 C 82 % 1026,5 hPa 0,0 l/m 6,4 km/h (2 Bft) W-NW 292 1 min 0,000 mm 0,0 UV-I 169 W/m 3,5 C 6,3 C 9,7 km/h (2 Bft) 100,00 %
24.12.2017 14:45 6,3 C 3,9 C 83 % 1026,5 hPa 0,0 l/m 3,2 km/h (1 Bft) NW 315 1 min 0,000 mm 0,0 UV-I 167 W/m 3,6 C 6,3 C 6,4 km/h (2 Bft) 95,65 %
24.12.2017 14:46 6,2 C 3,9 C 83 % 1026,4 hPa 0,0 l/m 4,8 km/h (1 Bft) W-NW 292 1 min 0,000 mm 0,0 UV-I 169 W/m 3,5 C 6,2 C 6,4 km/h (2 Bft) 95,65 %
24.12.2017 14:47 6,2 C 3,9 C 84 % 1026,4 hPa 0,0 l/m 4,8 km/h (1 Bft) W-NW 292 1 min 0,000 mm 0,0 UV-I 171 W/m 3,7 C 6,2 C 11,3 km/h (2 Bft) 95,65 %
24.12.2017 14:48 6,2 C 3,9 C 84 % 1026,4 hPa 0,0 l/m 3,2 km/h (1 Bft) W-NW 292 1 min 0,000 mm 0,0 UV-I 167 W/m 3,7 C 6,2 C 8,0 km/h (2 Bft) 95,65 %
24.12.2017 14:49 6,1 C 3,9 C 84 % 1026,4 hPa 0,0 l/m 6,4 km/h (2 Bft) W-NW 292 1 min 0,000 mm 0,0 UV-I 155 W/m 3,6 C 6,1 C 11,3 km/h (2 Bft) 95,65 %
24.12.2017 14:50 6,1 C 3,9 C 84 % 1026,4 hPa 0,0 l/m 3,2 km/h (1 Bft) W-NW 292 1 min 0,000 mm 0,0 UV-I 153 W/m 3,6 C 6,1 C 4,8 km/h (1 Bft) 91,30 %
24.12.2017 14:51 6,1 C 3,9 C 84 % 1026,4 hPa 0,0 l/m 3,2 km/h (1 Bft) W-NW 292 1 min 0,000 mm 0,0 UV-I 148 W/m 3,6 C 6,1 C 4,8 km/h (1 Bft) 100,00 %
24.12.2017 14:52 6,1 C 3,9 C 84 % 1026,4 hPa 0,0 l/m 4,8 km/h (1 Bft) W-NW 292 1 min 0,000 mm 0,0 UV-I 144 W/m 3,6 C 6,1 C 9,7 km/h (2 Bft) 95,65 %
24.12.2017 14:53 6,1 C 3,9 C 84 % 1026,4 hPa 0,0 l/m 4,8 km/h (1 Bft) W-SW 247 1 min 0,000 mm 0,0 UV-I 141 W/m 3,6 C 6,1 C 9,7 km/h (2 Bft) 100,00 %
24.12.2017 14:54 6,1 C 3,9 C 84 % 1026,4 hPa 0,0 l/m 4,8 km/h (1 Bft) W-SW 247 1 min 0,000 mm 0,0 UV-I 138 W/m 3,6 C 6,1 C 6,4 km/h (2 Bft) 91,30 %
24.12.2017 14:55 6,0 C 3,9 C 84 % 1026,4 hPa 0,0 l/m 4,8 km/h (1 Bft) S-SW 202 1 min 0,000 mm 0,0 UV-I 134 W/m 3,5 C 6,0 C 6,4 km/h (2 Bft) 91,30 %
24.12.2017 14:56 6,0 C 3,9 C 84 % 1026,4 hPa 0,0 l/m 4,8 km/h (1 Bft) W-SW 247 1 min 0,000 mm 0,0 UV-I 130 W/m 3,5 C 6,0 C 6,4 km/h (2 Bft) 91,30 %
24.12.2017 14:57 6,0 C 3,9 C 84 % 1026,3 hPa 0,0 l/m 3,2 km/h (1 Bft) W 270 1 min 0,000 mm 0,0 UV-I 130 W/m 3,5 C 6,0 C 6,4 km/h (2 Bft) 100,00 %
24.12.2017 14:58 6,0 C 3,9 C 84 % 1026,4 hPa 0,0 l/m 6,4 km/h (2 Bft) W-SW 247 1 min 0,000 mm 0,0 UV-I 128 W/m 3,5 C 6,0 C 12,9 km/h (3 Bft) 100,00 %
24.12.2017 14:59 5,9 C 3,9 C 84 % 1026,4 hPa 0,0 l/m 6,4 km/h (2 Bft) W 270 1 min 0,000 mm 0,0 UV-I 128 W/m 3,4 C 5,9 C 12,9 km/h (3 Bft) 100,00 %
24.12.2017 15:00 5,9 C 3,9 C 84 % 1026,4 hPa 0,0 l/m 6,4 km/h (2 Bft) W-SW 247 1 min 0,076 mm 0,0 UV-I 121 W/m 3,4 C 5,9 C 8,0 km/h (2 Bft) 100,00 %
24.12.2017 15:01 5,9 C 3,9 C 84 % 1026,4 hPa 0,0 l/m 4,8 km/h (1 Bft) W-SW 247 1 min 0,000 mm 0,0 UV-I 123 W/m 3,4 C 5,9 C 6,4 km/h (2 Bft) 95,65 %
24.12.2017 15:02 5,9 C 3,9 C 84 % 1026,4 hPa 0,0 l/m 3,2 km/h (1 Bft) W-SW 247 1 min 0,000 mm 0,0 UV-I 121 W/m 3,4 C 5,9 C 4,8 km/h (1 Bft) 100,00 %
24.12.2017 15:03 5,9 C 3,9 C 84 % 1026,4 hPa 0,0 l/m 6,4 km/h (2 Bft) W-SW 247 1 min 0,000 mm 0,0 UV-I 121 W/m 3,4 C 5,9 C 9,7 km/h (2 Bft) 95,65 %
24.12.2017 15:04 6,0 C 3,9 C 84 % 1026,4 hPa 0,0 l/m 8,0 km/h (2 Bft) W 270 1 min 0,000 mm 0,0 UV-I 118 W/m 3,5 C 4,7 C 11,3 km/h (2 Bft) 100,00 %
24.12.2017 15:05 5,9 C 3,9 C 84 % 1026,3 hPa 0,0 l/m 6,4 km/h (2 Bft) W-SW 247 1 min 0,000 mm 0,0 UV-I 118 W/m 3,4 C 5,9 C 6,4 km/h (2 Bft) 100,00 %
24.12.2017 15:06 6,0 C 3,9 C 84 % 1026,3 hPa 0,0 l/m 8,0 km/h (2 Bft) W-SW 247 1 min 0,000 mm 0,0 UV-I 115 W/m 3,5 C 4,7 C 12,9 km/h (3 Bft) 100,00 %
24.12.2017 15:07 5,9 C 3,9 C 84 % 1026,3 hPa 0,0 l/m 8,0 km/h (2 Bft) W 270 1 min 0,000 mm 0,0 UV-I 113 W/m 3,4 C 4,5 C 14,5 km/h (3 Bft) 100,00 %
24.12.2017 15:08 5,9 C 3,9 C 84 % 1026,3 hPa 0,0 l/m 8,0 km/h (2 Bft) W-SW 247 1 min 0,000 mm 0,0 UV-I 109 W/m 3,4 C 4,5 C 12,9 km/h (3 Bft) 95,65 %
24.12.2017 15:09 5,9 C 3,9 C 84 % 1026,3 hPa 0,0 l/m 6,4 km/h (2 Bft) W 270 1 min 0,000 mm 0,0 UV-I 109 W/m 3,4 C 5,9 C 12,9 km/h (3 Bft) 95,65 %
24.12.2017 15:10 5,9 C 3,9 C 84 % 1026,3 hPa 0,0 l/m 6,4 km/h (2 Bft) W 270 1 min 0,000 mm 0,0 UV-I 109 W/m 3,4 C 5,9 C 9,7 km/h (2 Bft) 91,30 %
24.12.2017 15:11 5,9 C 3,9 C 84 % 1026,3 hPa 0,0 l/m 4,8 km/h (1 Bft) W-NW 292 1 min 0,000 mm 0,0 UV-I 107 W/m 3,4 C 5,9 C 9,7 km/h (2 Bft) 100,00 %
24.12.2017 15:12 5,9 C 3,9 C 84 % 1026,3 hPa 0,0 l/m 8,0 km/h (2 Bft) W-SW 247 1 min 0,000 mm 0,0 UV-I 105 W/m 3,4 C 4,5 C 11,3 km/h (2 Bft) 100,00 %
24.12.2017 15:13 5,9 C 3,9 C 84 % 1026,3 hPa 0,0 l/m 4,8 km/h (1 Bft) W 270 1 min 0,000 mm 0,0 UV-I 102 W/m 3,4 C 5,9 C 6,4 km/h (2 Bft) 100,00 %
24.12.2017 15:14 5,9 C 3,9 C 84 % 1026,4 hPa 0,0 l/m 4,8 km/h (1 Bft) W-SW 247 1 min 0,000 mm 0,0 UV-I 100 W/m 3,4 C 5,9 C 8,0 km/h (2 Bft) 100,00 %
24.12.2017 15:15 5,9 C 3,9 C 84 % 1026,3 hPa 0,0 l/m 4,8 km/h (1 Bft) W-SW 247 1 min 0,000 mm 0,0 UV-I 98 W/m 3,4 C 5,9 C 9,7 km/h (2 Bft) 100,00 %
24.12.2017 15:16 5,8 C 3,9 C 85 % 1026,3 hPa 0,0 l/m 6,4 km/h (2 Bft) W-SW 247 1 min 0,000 mm 0,0 UV-I 97 W/m 3,5 C 5,8 C 11,3 km/h (2 Bft) 100,00 %
24.12.2017 15:17 5,8 C 3,9 C 85 % 1026,3 hPa 0,0 l/m 6,4 km/h (2 Bft) W-SW 247 1 min 0,000 mm 0,0 UV-I 94 W/m 3,5 C 5,8 C 6,4 km/h (2 Bft) 95,65 %
24.12.2017 15:18 5,8 C 3,9 C 85 % 1026,3 hPa 0,0 l/m 9,7 km/h (2 Bft) W 270 1 min 0,000 mm 0,0 UV-I 91 W/m 3,5 C 3,2 C 16,1 km/h (3 Bft) 100,00 %
24.12.2017 15:19 5,8 C 3,9 C 85 % 1026,3 hPa 0,0 l/m 6,4 km/h (2 Bft) W 270 1 min 0,000 mm 0,0 UV-I 90 W/m 3,5 C 5,8 C 12,9 km/h (3 Bft) 100,00 %
24.12.2017 15:20 5,8 C 3,9 C 85 % 1026,3 hPa 0,0 l/m 4,8 km/h (1 Bft) W 270 1 min 0,000 mm 0,0 UV-I 86 W/m 3,5 C 5,8 C 9,7 km/h (2 Bft) 100,00 %
24.12.2017 15:21 5,8 C 3,9 C 85 % 1026,3 hPa 0,0 l/m 8,0 km/h (2 Bft) W 270 1 min 0,000 mm 0,0 UV-I 84 W/m 3,5 C 4,4 C 11,3 km/h (2 Bft) 100,00 %
24.12.2017 15:22 5,8 C 3,9 C 85 % 1026,4 hPa 0,0 l/m 3,2 km/h (1 Bft) W 270 1 min 0,000 mm 0,0 UV-I 83 W/m 3,5 C 5,8 C 6,4 km/h (2 Bft) 100,00 %
24.12.2017 15:23 5,8 C 3,9 C 85 % 1026,3 hPa 0,0 l/m 6,4 km/h (2 Bft) W 270 1 min 0,000 mm 0,0 UV-I 80 W/m 3,5 C 5,8 C 9,7 km/h (2 Bft) 100,00 %
24.12.2017 15:24 5,8 C 3,9 C 85 % 1026,3 hPa 0,0 l/m 3,2 km/h (1 Bft) W 270 1 min 0,000 mm 0,0 UV-I 77 W/m 3,5 C 5,8 C 6,4 km/h (2 Bft) 95,65 %
24.12.2017 15:25 5,8 C 3,9 C 85 % 1026,3 hPa 0,0 l/m 3,2 km/h (1 Bft) W 270 1 min 0,000 mm 0,0 UV-I 76 W/m 3,5 C 5,8 C 6,4 km/h (2 Bft) 95,65 %
24.12.2017 15:26 5,7 C 3,9 C 85 % 1026,3 hPa 0,0 l/m 3,2 km/h (1 Bft) W-NW 292 1 min 0,000 mm 0,0 UV-I 74 W/m 3,4 C 5,7 C 9,7 km/h (2 Bft) 100,00 %
24.12.2017 15:27 5,7 C 3,9 C 85 % 1026,3 hPa 0,0 l/m 3,2 km/h (1 Bft) W-NW 292 1 min 0,000 mm 0,0 UV-I 72 W/m 3,4 C 5,7 C 6,4 km/h (2 Bft) 100,00 %
24.12.2017 15:28 5,7 C 3,9 C 85 % 1026,3 hPa 0,0 l/m 3,2 km/h (1 Bft) W-NW 292 1 min 0,000 mm 0,0 UV-I 72 W/m 3,4 C 5,7 C 6,4 km/h (2 Bft) 100,00 %
24.12.2017 15:29 5,6 C 3,9 C 85 % 1026,3 hPa 0,0 l/m 4,8 km/h (1 Bft) NW 315 1 min 0,000 mm 0,0 UV-I 70 W/m 3,3 C 5,6 C 9,7 km/h (2 Bft) 100,00 %
24.12.2017 15:30 5,6 C 3,9 C 86 % 1026,3 hPa 0,0 l/m 4,8 km/h (1 Bft) W-NW 292 1 min 0,000 mm 0,0 UV-I 67 W/m 3,4 C 5,6 C 6,4 km/h (2 Bft) 100,00 %
24.12.2017 15:31 5,5 C 3,9 C 86 % 1026,3 hPa 0,0 l/m 4,8 km/h (1 Bft) W-NW 292 1 min 0,000 mm 0,0 UV-I 65 W/m 3,3 C 5,5 C 12,9 km/h (3 Bft) 91,30 %
24.12.2017 15:32 5,5 C 3,9 C 86 % 1026,3 hPa 0,0 l/m 4,8 km/h (1 Bft) W 270 1 min 0,000 mm 0,0 UV-I 63 W/m 3,3 C 5,5 C 6,4 km/h (2 Bft) 95,65 %
24.12.2017 15:33 5,4 C 3,9 C 86 % 1026,3 hPa 0,0 l/m 4,8 km/h (1 Bft) W 270 1 min 0,000 mm 0,0 UV-I 63 W/m 3,3 C 5,4 C 6,4 km/h (2 Bft) 100,00 %
24.12.2017 15:34 5,4 C 3,9 C 86 % 1026,3 hPa 0,0 l/m 9,7 km/h (2 Bft) W 270 1 min 0,000 mm 0,0 UV-I 60 W/m 3,3 C 2,7 C 12,9 km/h (3 Bft) 100,00 %
24.12.2017 15:35 5,4 C 3,9 C 86 % 1026,3 hPa 0,0 l/m 6,4 km/h (2 Bft) W 270 1 min 0,000 mm 0,0 UV-I 57 W/m 3,3 C 5,4 C 11,3 km/h (2 Bft) 95,65 %
24.12.2017 15:36 5,4 C 3,9 C 87 % 1026,2 hPa 0,0 l/m 12,9 km/h (3 Bft) W 270 1 min 0,000 mm 0,0 UV-I 56 W/m 3,4 C 0,7 C 14,5 km/h (3 Bft) 100,00 %
24.12.2017 15:37 5,4 C 3,9 C 87 % 1026,2 hPa 0,0 l/m 8,0 km/h (2 Bft) W 270 1 min 0,000 mm 0,0 UV-I 54 W/m 3,4 C 4,0 C 14,5 km/h (3 Bft) 95,65 %
24.12.2017 15:38 5,4 C 3,9 C 87 % 1026,2 hPa 0,0 l/m 4,8 km/h (1 Bft) W 270 1 min 0,000 mm 0,0 UV-I 53 W/m 3,4 C 5,4 C 9,7 km/h (2 Bft) 91,30 %
24.12.2017 15:39 5,3 C 3,9 C 87 % 1026,2 hPa 0,0 l/m 4,8 km/h (1 Bft) W 270 1 min 0,000 mm 0,0 UV-I 51 W/m 3,3 C 5,3 C 8,0 km/h (2 Bft) 100,00 %
24.12.2017 15:40 5,4 C 3,9 C 87 % 1026,2 hPa 0,0 l/m 8,0 km/h (2 Bft) W 270 1 min 0,000 mm 0,0 UV-I 51 W/m 3,4 C 4,0 C 14,5 km/h (3 Bft) 95,65 %
24.12.2017 15:41 5,3 C 3,9 C 87 % 1026,2 hPa 0,0 l/m 8,0 km/h (2 Bft) W-NW 292 1 min 0,000 mm 0,0 UV-I 49 W/m 3,3 C 3,9 C 17,7 km/h (3 Bft) 100,00 %
24.12.2017 15:42 5,4 C 3,9 C 87 % 1026,2 hPa 0,0 l/m 12,9 km/h (3 Bft) W 270 1 min 0,000 mm 0,0 UV-I 47 W/m 3,4 C 0,7 C 19,3 km/h (3 Bft) 91,30 %
24.12.2017 15:43 5,4 C 3,9 C 87 % 1026,2 hPa 0,0 l/m 8,0 km/h (2 Bft) W-SW 247 1 min 0,000 mm 0,0 UV-I 46 W/m 3,4 C 4,0 C 11,3 km/h (2 Bft) 100,00 %
24.12.2017 15:44 5,4 C 3,9 C 87 % 1026,2 hPa 0,0 l/m 6,4 km/h (2 Bft) W 270 1 min 0,000 mm 0,0 UV-I 44 W/m 3,4 C 5,4 C 14,5 km/h (3 Bft) 95,65 %
24.12.2017 15:45 5,3 C 3,9 C 87 % 1026,2 hPa 0,0 l/m 9,7 km/h (2 Bft) W-NW 292 1 min 0,000 mm 0,0 UV-I 44 W/m 3,3 C 2,6 C 14,5 km/h (3 Bft) 91,30 %
24.12.2017 15:46 5,3 C 3,9 C 87 % 1026,2 hPa 0,0 l/m 9,7 km/h (2 Bft) W 270 1 min 0,000 mm 0,0 UV-I 42 W/m 3,3 C 2,6 C 16,1 km/h (3 Bft) 95,65 %
24.12.2017 15:47 5,3 C 3,9 C 87 % 1026,2 hPa 0,0 l/m 11,3 km/h (2 Bft) W 270 1 min 0,000 mm 0,0 UV-I 40 W/m 3,3 C 1,5 C 16,1 km/h (3 Bft) 100,00 %
24.12.2017 15:48 5,3 C 3,9 C 87 % 1026,2 hPa 0,0 l/m 4,8 km/h (1 Bft) W 270 1 min 0,000 mm 0,0 UV-I 39 W/m 3,3 C 5,3 C 8,0 km/h (2 Bft) 91,30 %
24.12.2017 15:49 5,3 C 3,9 C 87 % 1026,2 hPa 0,0 l/m 6,4 km/h (2 Bft) W 270 1 min 0,000 mm 0,0 UV-I 37 W/m 3,3 C 5,3 C 11,3 km/h (2 Bft) 95,65 %
24.12.2017 15:50 5,3 C 3,9 C 87 % 1026,2 hPa 0,0 l/m 6,4 km/h (2 Bft) W 270 1 min 0,000 mm 0,0 UV-I 35 W/m 3,3 C 5,3 C 9,7 km/h (2 Bft) 95,65 %
24.12.2017 15:51 5,2 C 3,9 C 87 % 1026,2 hPa 0,0 l/m 8,0 km/h (2 Bft) W 270 1 min 0,000 mm 0,0 UV-I 35 W/m 3,2 C 3,8 C 12,9 km/h (3 Bft) 95,65 %
24.12.2017 15:52 5,2 C 3,9 C 87 % 1026,1 hPa 0,0 l/m 6,4 km/h (2 Bft) W 270 1 min 0,000 mm 0,0 UV-I 33 W/m 3,2 C 5,2 C 11,3 km/h (2 Bft) 91,30 %
24.12.2017 15:53 5,2 C 3,9 C 87 % 1026,2 hPa 0,0 l/m 8,0 km/h (2 Bft) W 270 1 min 0,000 mm 0,0 UV-I 32 W/m 3,2 C 3,8 C 11,3 km/h (2 Bft) 100,00 %
24.12.2017 15:54 5,2 C 3,9 C 87 % 1026,2 hPa 0,0 l/m 6,4 km/h (2 Bft) W 270 1 min 0,000 mm 0,0 UV-I 30 W/m 3,2 C 5,2 C 11,3 km/h (2 Bft) 95,65 %
24.12.2017 15:55 5,1 C 3,9 C 88 % 1026,2 hPa 0,0 l/m 8,0 km/h (2 Bft) W 270 1 min 0,000 mm 0,0 UV-I 30 W/m 3,3 C 3,7 C 11,3 km/h (2 Bft) 95,65 %
24.12.2017 15:56 5,1 C 3,9 C 88 % 1026,2 hPa 0,0 l/m 6,4 km/h (2 Bft) W 270 1 min 0,000 mm 0,0 UV-I 28 W/m 3,3 C 5,1 C 9,7 km/h (2 Bft) 100,00 %
24.12.2017 15:57 5,1 C 3,9 C 88 % 1026,2 hPa 0,0 l/m 8,0 km/h (2 Bft) W 270 1 min 0,000 mm 0,0 UV-I 26 W/m 3,3 C 3,7 C 11,3 km/h (2 Bft) 95,65 %
24.12.2017 15:58 5,1 C 3,9 C 88 % 1026,2 hPa 0,0 l/m 8,0 km/h (2 Bft) W 270 1 min 0,000 mm 0,0 UV-I 26 W/m 3,3 C 3,7 C 12,9 km/h (3 Bft) 100,00 %
24.12.2017 15:59 5,1 C 3,9 C 88 % 1026,2 hPa 0,0 l/m 8,0 km/h (2 Bft) W 270 1 min 0,000 mm 0,0 UV-I 25 W/m 3,3 C 3,7 C 11,3 km/h (2 Bft) 91,30 %
24.12.2017 16:00 5,0 C 3,9 C 88 % 1026,2 hPa 0,0 l/m 8,0 km/h (2 Bft) W 270 1 min 0,025 mm 0,0 UV-I 23 W/m 3,2 C 3,6 C 14,5 km/h (3 Bft) 100,00 %
24.12.2017 16:01 5,0 C 3,9 C 88 % 1026,2 hPa 0,0 l/m 8,0 km/h (2 Bft) W 270 1 min 0,000 mm 0,0 UV-I 23 W/m 3,2 C 3,6 C 11,3 km/h (2 Bft) 82,61 %
24.12.2017 16:02 5,0 C 3,9 C 88 % 1026,2 hPa 0,0 l/m 6,4 km/h (2 Bft) W-SW 247 0 min 0,000 mm 0,0 UV-I 15 W/m 3,2 C 5,0 C 11,3 km/h (2 Bft) 100,00 %
24.12.2017 16:03 5,0 C 3,9 C 88 % 1026,2 hPa 0,0 l/m 4,8 km/h (1 Bft) W 270 0 min 0,000 mm 0,0 UV-I 12 W/m 3,2 C 5,0 C 6,4 km/h (2 Bft) 95,65 %
24.12.2017 16:04 4,9 C 3,9 C 88 % 1026,2 hPa 0,0 l/m 4,8 km/h (1 Bft) W 270 0 min 0,000 mm 0,0 UV-I 18 W/m 3,1 C 4,9 C 6,4 km/h (2 Bft) 100,00 %
24.12.2017 16:05 4,9 C 3,9 C 88 % 1026,2 hPa 0,0 l/m 4,8 km/h (1 Bft) W 270 0 min 0,000 mm 0,0 UV-I 16 W/m 3,1 C 4,9 C 9,7 km/h (2 Bft) 95,65 %
24.12.2017 16:06 4,9 C 3,9 C 88 % 1026,2 hPa 0,0 l/m 8,0 km/h (2 Bft) W 270 0 min 0,000 mm 0,0 UV-I 14 W/m 3,1 C 3,5 C 11,3 km/h (2 Bft) 91,30 %
24.12.2017 16:07 4,9 C 3,9 C 89 % 1026,2 hPa 0,0 l/m 8,0 km/h (2 Bft) W 270 0 min 0,000 mm 0,0 UV-I 14 W/m 3,2 C 3,5 C 11,3 km/h (2 Bft) 100,00 %
24.12.2017 16:08 4,9 C 3,9 C 88 % 1026,2 hPa 0,0 l/m 4,8 km/h (1 Bft) W 270 0 min 0,000 mm 0,0 UV-I 12 W/m 3,1 C 4,9 C 6,4 km/h (2 Bft) 100,00 %
24.12.2017 16:09 4,8 C 3,9 C 88 % 1026,2 hPa 0,0 l/m 6,4 km/h (2 Bft) W 270 0 min 0,000 mm 0,0 UV-I 12 W/m 3,0 C 4,8 C 9,7 km/h (2 Bft) 100,00 %
24.12.2017 16:10 4,8 C 3,9 C 89 % 1026,2 hPa 0,0 l/m 4,8 km/h (1 Bft) W 270 0 min 0,000 mm 0,0 UV-I 12 W/m 3,1 C 4,8 C 6,4 km/h (2 Bft) 100,00 %
24.12.2017 16:11 4,8 C 3,9 C 89 % 1026,2 hPa 0,0 l/m 4,8 km/h (1 Bft) W 270 0 min 0,000 mm 0,0 UV-I 11 W/m 3,1 C 4,8 C 8,0 km/h (2 Bft) 95,65 %
24.12.2017 16:12 4,7 C 3,9 C 89 % 1026,1 hPa 0,0 l/m 4,8 km/h (1 Bft) W-SW 247 0 min 0,000 mm 0,0 UV-I 11 W/m 3,0 C 4,7 C 6,4 km/h (2 Bft) 100,00 %
24.12.2017 16:13 4,7 C 3,9 C 89 % 1026,2 hPa 0,0 l/m 4,8 km/h (1 Bft) W 270 0 min 0,000 mm 0,0 UV-I 11 W/m 3,0 C 4,7 C 6,4 km/h (2 Bft) 95,65 %
24.12.2017 16:14 4,7 C 3,9 C 89 % 1026,2 hPa 0,0 l/m 4,8 km/h (1 Bft) W 270 0 min 0,000 mm 0,0 UV-I 11 W/m 3,0 C 4,7 C 6,4 km/h (2 Bft) 100,00 %
24.12.2017 16:15 4,7 C 3,9 C 89 % 1026,2 hPa 0,0 l/m 3,2 km/h (1 Bft) W-NW 292 0 min 0,000 mm 0,0 UV-I 11 W/m 3,0 C 4,7 C 4,8 km/h (1 Bft) 95,65 %
24.12.2017 16:16 4,6 C 3,9 C 89 % 1026,2 hPa 0,0 l/m 4,8 km/h (1 Bft) W-NW 292 0 min 0,000 mm 0,0 UV-I 9 W/m 2,9 C 4,6 C 6,4 km/h (2 Bft) 100,00 %
24.12.2017 16:17 4,6 C 3,9 C 89 % 1026,3 hPa 0,0 l/m 4,8 km/h (1 Bft) W-NW 292 0 min 0,000 mm 0,0 UV-I 9 W/m 2,9 C 4,6 C 6,4 km/h (2 Bft) 100,00 %
24.12.2017 16:18 4,6 C 3,9 C 90 % 1026,2 hPa 0,0 l/m 4,8 km/h (1 Bft) W 270 0 min 0,000 mm 0,0 UV-I 9 W/m 3,1 C 4,6 C 6,4 km/h (2 Bft) 95,65 %
24.12.2017 16:19 4,6 C 3,9 C 90 % 1026,3 hPa 0,0 l/m 4,8 km/h (1 Bft) W 270 0 min 0,000 mm 0,0 UV-I 9 W/m 3,1 C 4,6 C 9,7 km/h (2 Bft) 100,00 %
24.12.2017 16:20 4,6 C 3,9 C 90 % 1026,2 hPa 0,0 l/m 6,4 km/h (2 Bft) W 270 0 min 0,000 mm 0,0 UV-I 9 W/m 3,1 C 4,6 C 9,7 km/h (2 Bft) 91,30 %
24.12.2017 16:21 4,6 C 3,9 C 90 % 1026,3 hPa 0,0 l/m 6,4 km/h (2 Bft) W 270 0 min 0,000 mm 0,0 UV-I 9 W/m 3,1 C 4,6 C 9,7 km/h (2 Bft) 100,00 %
24.12.2017 16:22 4,5 C 3,9 C 90 % 1026,3 hPa 0,0 l/m 6,4 km/h (2 Bft) W 270 0 min 0,000 mm 0,0 UV-I 7 W/m 3,0 C 4,5 C 11,3 km/h (2 Bft) 100,00 %
24.12.2017 16:23 4,5 C 3,9 C 90 % 1026,3 hPa 0,0 l/m 6,4 km/h (2 Bft) W 270 0 min 0,000 mm 0,0 UV-I 7 W/m 3,0 C 4,5 C 9,7 km/h (2 Bft) 100,00 %
24.12.2017 16:24 4,5 C 3,9 C 90 % 1026,2 hPa 0,0 l/m 4,8 km/h (1 Bft) W 270 0 min 0,000 mm 0,0 UV-I 7 W/m 3,0 C 4,5 C 6,4 km/h (2 Bft) 100,00 %
24.12.2017 16:25 4,5 C 3,9 C 90 % 1026,3 hPa 0,0 l/m 4,8 km/h (1 Bft) W 270 0 min 0,000 mm 0,0 UV-I 7 W/m 3,0 C 4,5 C 6,4 km/h (2 Bft) 100,00 %
24.12.2017 16:26 4,4 C 3,9 C 90 % 1026,3 hPa 0,0 l/m 6,4 km/h (2 Bft) W 270 0 min 0,000 mm 0,0 UV-I 7 W/m 2,9 C 4,4 C 9,7 km/h (2 Bft) 100,00 %
24.12.2017 16:27 4,4 C 3,9 C 90 % 1026,3 hPa 0,0 l/m 8,0 km/h (2 Bft) W 270 0 min 0,000 mm 0,0 UV-I 7 W/m 2,9 C 3,0 C 11,3 km/h (2 Bft) 95,65 %
24.12.2017 16:28 4,4 C 3,9 C 90 % 1026,2 hPa 0,0 l/m 8,0 km/h (2 Bft) W 270 0 min 0,000 mm 0,0 UV-I 7 W/m 2,9 C 3,0 C 9,7 km/h (2 Bft) 100,00 %
24.12.2017 16:29 4,4 C 3,9 C 90 % 1026,3 hPa 0,0 l/m 6,4 km/h (2 Bft) W 270 0 min 0,000 mm 0,0 UV-I 5 W/m 2,9 C 4,4 C 9,7 km/h (2 Bft) 100,00 %
24.12.2017 16:30 4,4 C 3,9 C 90 % 1026,3 hPa 0,0 l/m 6,4 km/h (2 Bft) W-NW 292 0 min 0,000 mm 0,0 UV-I 5 W/m 2,9 C 4,4 C 11,3 km/h (2 Bft) 100,00 %
24.12.2017 16:31 4,4 C 3,9 C 90 % 1026,2 hPa 0,0 l/m 4,8 km/h (1 Bft) W 270 0 min 0,000 mm 0,0 UV-I 5 W/m 2,9 C 4,4 C 6,4 km/h (2 Bft) 95,65 %
24.12.2017 16:32 4,4 C 3,9 C 90 % 1026,2 hPa 0,0 l/m 6,4 km/h (2 Bft) W 270 0 min 0,000 mm 0,0 UV-I 5 W/m 2,9 C 4,4 C 9,7 km/h (2 Bft) 100,00 %
24.12.2017 16:33 4,4 C 3,9 C 90 % 1026,2 hPa 0,0 l/m 6,4 km/h (2 Bft) W 270 0 min 0,000 mm 0,0 UV-I 5 W/m 2,9 C 4,4 C 11,3 km/h (2 Bft) 95,65 %
24.12.2017 16:34 4,4 C 3,9 C 90 % 1026,2 hPa 0,0 l/m 6,4 km/h (2 Bft) W 270 0 min 0,000 mm 0,0 UV-I 5 W/m 2,9 C 4,4 C 11,3 km/h (2 Bft) 95,65 %
24.12.2017 16:35 4,3 C 3,9 C 90 % 1026,2 hPa 0,0 l/m 3,2 km/h (1 Bft) W 270 0 min 0,000 mm 0,0 UV-I 0 W/m 2,8 C 4,3 C 4,8 km/h (1 Bft) 100,00 %
24.12.2017 16:36 4,3 C 3,9 C 90 % 1026,2 hPa 0,0 l/m 3,2 km/h (1 Bft) W 270 0 min 0,000 mm 0,0 UV-I 0 W/m 2,8 C 4,3 C 4,8 km/h (1 Bft) 100,00 %
24.12.2017 16:37 4,3 C 3,9 C 90 % 1026,2 hPa 0,0 l/m 4,8 km/h (1 Bft) W-SW 247 0 min 0,000 mm 0,0 UV-I 0 W/m 2,8 C 4,3 C 11,3 km/h (2 Bft) 100,00 %
24.12.2017 16:38 4,3 C 3,9 C 90 % 1026,2 hPa 0,0 l/m 6,4 km/h (2 Bft) W-SW 247 0 min 0,000 mm 0,0 UV-I 0 W/m 2,8 C 4,3 C 11,3 km/h (2 Bft) 100,00 %
24.12.2017 16:39 4,3 C 3,9 C 90 % 1026,2 hPa 0,0 l/m 9,7 km/h (2 Bft) W 270 0 min 0,000 mm 0,0 UV-I 0 W/m 2,8 C 1,5 C 14,5 km/h (3 Bft) 95,65 %
24.12.2017 16:40 4,3 C 3,9 C 90 % 1026,3 hPa 0,0 l/m 4,8 km/h (1 Bft) W 270 0 min 0,000 mm 0,0 UV-I 0 W/m 2,8 C 4,3 C 6,4 km/h (2 Bft) 100,00 %
24.12.2017 16:41 4,3 C 3,9 C 90 % 1026,2 hPa 0,0 l/m 3,2 km/h (1 Bft) W 270 0 min 0,000 mm 0,0 UV-I 0 W/m 2,8 C 4,3 C 4,8 km/h (1 Bft) 95,65 %
24.12.2017 16:42 4,2 C 3,9 C 90 % 1026,3 hPa 0,0 l/m 8,0 km/h (2 Bft) W 270 0 min 0,000 mm 0,0 UV-I 0 W/m 2,7 C 2,8 C 12,9 km/h (3 Bft) 100,00 %
24.12.2017 16:43 4,2 C 3,9 C 90 % 1026,2 hPa 0,0 l/m 6,4 km/h (2 Bft) W 270 0 min 0,000 mm 0,0 UV-I 0 W/m 2,7 C 4,2 C 9,7 km/h (2 Bft) 95,65 %
24.12.2017 16:44 4,2 C 3,9 C 91 % 1026,2 hPa 0,0 l/m 6,4 km/h (2 Bft) W 270 0 min 0,000 mm 0,0 UV-I 0 W/m 2,9 C 4,2 C 9,7 km/h (2 Bft) 95,65 %
24.12.2017 16:45 4,2 C 3,9 C 91 % 1026,3 hPa 0,0 l/m 6,4 km/h (2 Bft) W 270 0 min 0,000 mm 0,0 UV-I 0 W/m 2,9 C 4,2 C 9,7 km/h (2 Bft) 95,65 %
24.12.2017 16:46 4,2 C 3,9 C 90 % 1026,2 hPa 0,0 l/m 6,4 km/h (2 Bft) W 270 0 min 0,000 mm 0,0 UV-I 0 W/m 2,7 C 4,2 C 9,7 km/h (2 Bft) 100,00 %
24.12.2017 16:47 4,2 C 3,9 C 90 % 1026,3 hPa 0,0 l/m 6,4 km/h (2 Bft) W 270 0 min 0,000 mm 0,0 UV-I 0 W/m 2,7 C 4,2 C 9,7 km/h (2 Bft) 95,65 %
24.12.2017 16:48 4,2 C 3,9 C 91 % 1026,3 hPa 0,0 l/m 6,4 km/h (2 Bft) W 270 0 min 0,000 mm 0,0 UV-I 0 W/m 2,9 C 4,2 C 9,7 km/h (2 Bft) 86,96 %
24.12.2017 16:49 4,2 C 3,9 C 91 % 1026,3 hPa 0,0 l/m 6,4 km/h (2 Bft) W 270 0 min 0,000 mm 0,0 UV-I 0 W/m 2,9 C 4,2 C 9,7 km/h (2 Bft) 100,00 %
24.12.2017 16:50 4,1 C 3,9 C 91 % 1026,3 hPa 0,0 l/m 6,4 km/h (2 Bft) W 270 0 min 0,000 mm 0,0 UV-I 0 W/m 2,8 C 4,1 C 9,7 km/h (2 Bft) 95,65 %
24.12.2017 16:51 4,1 C 3,9 C 91 % 1026,3 hPa 0,0 l/m 6,4 km/h (2 Bft) W 270 0 min 0,000 mm 0,0 UV-I 0 W/m 2,8 C 4,1 C 9,7 km/h (2 Bft) 100,00 %
24.12.2017 16:52 4,1 C 3,9 C 91 % 1026,3 hPa 0,0 l/m 8,0 km/h (2 Bft) W 270 0 min 0,000 mm 0,0 UV-I 0 W/m 2,8 C 2,7 C 14,5 km/h (3 Bft) 95,65 %
24.12.2017 16:53 4,1 C 3,9 C 91 % 1026,2 hPa 0,0 l/m 4,8 km/h (1 Bft) W 270 0 min 0,000 mm 0,0 UV-I 0 W/m 2,8 C 4,1 C 12,9 km/h (3 Bft) 100,00 %
24.12.2017 16:54 4,1 C 3,9 C 91 % 1026,3 hPa 0,0 l/m 6,4 km/h (2 Bft) W 270 0 min 0,000 mm 0,0 UV-I 0 W/m 2,8 C 4,1 C 11,3 km/h (2 Bft) 95,65 %
24.12.2017 16:55 4,1 C 3,9 C 91 % 1026,3 hPa 0,0 l/m 6,4 km/h (2 Bft) W 270 0 min 0,000 mm 0,0 UV-I 0 W/m 2,8 C 4,1 C 11,3 km/h (2 Bft) 95,65 %
24.12.2017 16:56 4,1 C 3,9 C 91 % 1026,3 hPa 0,0 l/m 3,2 km/h (1 Bft) W 270 0 min 0,000 mm 0,0 UV-I 0 W/m 2,8 C 4,1 C 4,8 km/h (1 Bft) 91,30 %
24.12.2017 16:57 4,1 C 3,9 C 91 % 1026,2 hPa 0,0 l/m 3,2 km/h (1 Bft) W 270 0 min 0,000 mm 0,0 UV-I 0 W/m 2,8 C 4,1 C 3,2 km/h (1 Bft) 91,30 %
24.12.2017 16:58 4,1 C 3,9 C 91 % 1026,3 hPa 0,0 l/m 1,6 km/h (1 Bft) W 270 0 min 0,000 mm 0,0 UV-I 0 W/m 2,8 C 4,1 C 4,8 km/h (1 Bft) 95,65 %
24.12.2017 16:59 4,0 C 3,9 C 90 % 1026,3 hPa 0,0 l/m 3,2 km/h (1 Bft) W 270 0 min 0,000 mm 0,0 UV-I 0 W/m 2,5 C 4,0 C 6,4 km/h (2 Bft) 91,30 %
24.12.2017 17:00 4,0 C 3,9 C 91 % 1026,3 hPa 0,0 l/m 3,2 km/h (1 Bft) W 270 0 min 0,000 mm 0,0 UV-I 0 W/m 2,7 C 4,0 C 4,8 km/h (1 Bft) 100,00 %
24.12.2017 17:01 4,0 C 3,9 C 91 % 1026,3 hPa 0,0 l/m 3,2 km/h (1 Bft) W 270 0 min 0,000 mm 0,0 UV-I 0 W/m 2,7 C 4,0 C 4,8 km/h (1 Bft) 95,65 %
24.12.2017 17:02 3,9 C 3,9 C 90 % 1026,3 hPa 0,0 l/m 1,6 km/h (1 Bft) W 270 0 min 0,000 mm 0,0 UV-I 0 W/m 2,4 C 3,9 C 1,6 km/h (1 Bft) 91,30 %
24.12.2017 17:03 3,9 C 3,9 C 91 % 1026,2 hPa 0,0 l/m 3,2 km/h (1 Bft) W 270 0 min 0,000 mm 0,0 UV-I 0 W/m 2,6 C 3,9 C 3,2 km/h (1 Bft) 95,65 %
24.12.2017 17:04 3,8 C 3,9 C 91 % 1026,2 hPa 0,0 l/m 3,2 km/h (1 Bft) W 270 0 min 0,000 mm 0,0 UV-I 0 W/m 2,5 C 3,8 C 6,4 km/h (2 Bft) 100,00 %
24.12.2017 17:05 3,8 C 3,9 C 91 % 1026,2 hPa 0,0 l/m 3,2 km/h (1 Bft) W 270 0 min 0,000 mm 0,0 UV-I 0 W/m 2,5 C 3,8 C 4,8 km/h (1 Bft) 91,30 %
24.12.2017 17:06 3,8 C 3,9 C 91 % 1026,2 hPa 0,0 l/m 3,2 km/h (1 Bft) W 270 0 min 0,000 mm 0,0 UV-I 0 W/m 2,5 C 3,8 C 4,8 km/h (1 Bft) 95,65 %
24.12.2017 17:07 3,8 C 3,9 C 91 % 1026,2 hPa 0,0 l/m 1,6 km/h (1 Bft) W 270 0 min 0,000 mm 0,0 UV-I 0 W/m 2,5 C 3,8 C 3,2 km/h (1 Bft) 95,65 %
24.12.2017 17:08 3,7 C 3,9 C 91 % 1026,2 hPa 0,0 l/m 3,2 km/h (1 Bft) W 270 0 min 0,000 mm 0,0 UV-I 0 W/m 2,4 C 3,7 C 4,8 km/h (1 Bft) 95,65 %
24.12.2017 17:09 3,7 C 3,9 C 91 % 1026,2 hPa 0,0 l/m 3,2 km/h (1 Bft) W 270 0 min 0,000 mm 0,0 UV-I 0 W/m 2,4 C 3,7 C 4,8 km/h (1 Bft) 95,65 %
24.12.2017 17:10 3,7 C 3,9 C 91 % 1026,2 hPa 0,0 l/m 1,6 km/h (1 Bft) W 270 0 min 0,000 mm 0,0 UV-I 0 W/m 2,4 C 3,7 C 3,2 km/h (1 Bft) 91,30 %
24.12.2017 17:11 3,6 C 3,9 C 91 % 1026,2 hPa 0,0 l/m 3,2 km/h (1 Bft) W 270 0 min 0,000 mm 0,0 UV-I 0 W/m 2,3 C 3,6 C 3,2 km/h (1 Bft) 95,65 %
24.12.2017 17:12 3,6 C 3,9 C 91 % 1026,2 hPa 0,0 l/m 3,2 km/h (1 Bft) W 270 0 min 0,000 mm 0,0 UV-I 0 W/m 2,3 C 3,6 C 4,8 km/h (1 Bft) 95,65 %
24.12.2017 17:13 3,6 C 3,9 C 92 % 1026,2 hPa 0,0 l/m 1,6 km/h (1 Bft) W 270 0 min 0,000 mm 0,0 UV-I 0 W/m 2,4 C 3,6 C 3,2 km/h (1 Bft) 95,65 %
24.12.2017 17:14 3,7 C 3,9 C 92 % 1026,2 hPa 0,0 l/m 1,6 km/h (1 Bft) W 270 0 min 0,000 mm 0,0 UV-I 0 W/m 2,5 C 3,7 C 3,2 km/h (1 Bft) 91,30 %
24.12.2017 17:15 3,7 C 3,9 C 92 % 1026,2 hPa 0,0 l/m 3,2 km/h (1 Bft) W 270 0 min 0,000 mm 0,0 UV-I 0 W/m 2,5 C 3,7 C 4,8 km/h (1 Bft) 91,30 %
24.12.2017 17:16 3,7 C 3,9 C 92 % 1026,2 hPa 0,0 l/m 3,2 km/h (1 Bft) W 270 0 min 0,000 mm 0,0 UV-I 0 W/m 2,5 C 3,7 C 4,8 km/h (1 Bft) 91,30 %
24.12.2017 17:17 3,6 C 3,9 C 91 % 1026,1 hPa 0,0 l/m 4,8 km/h (1 Bft) W 270 0 min 0,000 mm 0,0 UV-I 0 W/m 2,3 C 3,6 C 9,7 km/h (2 Bft) 86,96 %
24.12.2017 17:18 3,7 C 3,9 C 92 % 1026,1 hPa 0,0 l/m 4,8 km/h (1 Bft) W-SW 247 0 min 0,000 mm 0,0 UV-I 0 W/m 2,5 C 3,7 C 8,0 km/h (2 Bft) 95,65 %
24.12.2017 17:19 3,7 C 3,9 C 92 % 1026,1 hPa 0,0 l/m 4,8 km/h (1 Bft) W-SW 247 0 min 0,000 mm 0,0 UV-I 0 W/m 2,5 C 3,7 C 6,4 km/h (2 Bft) 95,65 %
24.12.2017 17:20 3,7 C 3,9 C 92 % 1026,1 hPa 0,0 l/m 3,2 km/h (1 Bft) W 270 0 min 0,000 mm 0,0 UV-I 0 W/m 2,5 C 3,7 C 4,8 km/h (1 Bft) 95,65 %
24.12.2017 17:21 3,7 C 3,9 C 92 % 1026,1 hPa 0,0 l/m 4,8 km/h (1 Bft) W 270 0 min 0,000 mm 0,0 UV-I 0 W/m 2,5 C 3,7 C 6,4 km/h (2 Bft) 95,65 %
24.12.2017 17:22 3,7 C 3,9 C 92 % 1026,1 hPa 0,0 l/m 3,2 km/h (1 Bft) W 270 0 min 0,000 mm 0,0 UV-I 0 W/m 2,5 C 3,7 C 4,8 km/h (1 Bft) 95,65 %
24.12.2017 17:23 3,7 C 3,9 C 91 % 1026,1 hPa 0,0 l/m 4,8 km/h (1 Bft) W 270 0 min 0,000 mm 0,0 UV-I 0 W/m 2,4 C 3,7 C 4,8 km/h (1 Bft) 95,65 %
24.12.2017 17:24 3,6 C 3,9 C 91 % 1026,1 hPa 0,0 l/m 3,2 km/h (1 Bft) W 270 0 min 0,000 mm 0,0 UV-I 0 W/m 2,3 C 3,6 C 4,8 km/h (1 Bft) 86,96 %
24.12.2017 17:25 3,6 C 3,9 C 92 % 1026,1 hPa 0,0 l/m 3,2 km/h (1 Bft) W 270 0 min 0,000 mm 0,0 UV-I 0 W/m 2,4 C 3,6 C 3,2 km/h (1 Bft) 100,00 %
24.12.2017 17:26 3,6 C 3,9 C 92 % 1026,1 hPa 0,0 l/m 4,8 km/h (1 Bft) W 270 0 min 0,000 mm 0,0 UV-I 0 W/m 2,4 C 3,6 C 6,4 km/h (2 Bft) 91,30 %
24.12.2017 17:27 3,7 C 3,9 C 92 % 1026,1 hPa 0,0 l/m 4,8 km/h (1 Bft) W-SW 247 0 min 0,000 mm 0,0 UV-I 0 W/m 2,5 C 3,7 C 6,4 km/h (2 Bft) 100,00 %
24.12.2017 17:28 3,7 C 3,9 C 92 % 1026,0 hPa 0,0 l/m 6,4 km/h (2 Bft) W-SW 247 0 min 0,000 mm 0,0 UV-I 0 W/m 2,5 C 3,7 C 12,9 km/h (3 Bft) 100,00 %
24.12.2017 17:29 3,7 C 3,9 C 92 % 1026,1 hPa 0,0 l/m 6,4 km/h (2 Bft) W-NW 292 0 min 0,000 mm 0,0 UV-I 0 W/m 2,5 C 3,7 C 11,3 km/h (2 Bft) 100,00 %
24.12.2017 17:30 3,7 C 3,9 C 92 % 1026,0 hPa 0,0 l/m 3,2 km/h (1 Bft) W-NW 292 0 min 0,000 mm 0,0 UV-I 0 W/m 2,5 C 3,7 C 6,4 km/h (2 Bft) 100,00 %
24.12.2017 17:31 3,7 C 3,9 C 92 % 1026,0 hPa 0,0 l/m 6,4 km/h (2 Bft) W-NW 292 0 min 0,000 mm 0,0 UV-I 0 W/m 2,5 C 3,7 C 9,7 km/h (2 Bft) 95,65 %
24.12.2017 17:32 3,7 C 3,9 C 92 % 1026,0 hPa 0,0 l/m 4,8 km/h (1 Bft) W-NW 292 0 min 0,000 mm 0,0 UV-I 0 W/m 2,5 C 3,7 C 11,3 km/h (2 Bft) 100,00 %
24.12.2017 17:33 3,7 C 3,9 C 92 % 1026,0 hPa 0,0 l/m 4,8 km/h (1 Bft) W 270 0 min 0,000 mm 0,0 UV-I 0 W/m 2,5 C 3,7 C 9,7 km/h (2 Bft) 100,00 %
24.12.2017 17:34 3,7 C 3,9 C 92 % 1026,0 hPa 0,0 l/m 4,8 km/h (1 Bft) W 270 0 min 0,000 mm 0,0 UV-I 0 W/m 2,5 C 3,7 C 6,4 km/h (2 Bft) 100,00 %
24.12.2017 17:35 3,6 C 3,9 C 91 % 1026,0 hPa 0,0 l/m 6,4 km/h (2 Bft) W-SW 247 0 min 0,000 mm 0,0 UV-I 0 W/m 2,3 C 3,6 C 8,0 km/h (2 Bft) 100,00 %
24.12.2017 17:36 3,6 C 3,9 C 92 % 1026,0 hPa 0,0 l/m 4,8 km/h (1 Bft) W 270 0 min 0,000 mm 0,0 UV-I 0 W/m 2,4 C 3,6 C 9,7 km/h (2 Bft) 95,65 %
24.12.2017 17:37 3,6 C 3,9 C 92 % 1026,0 hPa 0,0 l/m 4,8 km/h (1 Bft) W 270 0 min 0,000 mm 0,0 UV-I 0 W/m 2,4 C 3,6 C 6,4 km/h (2 Bft) 100,00 %
24.12.2017 17:38 3,6 C 3,9 C 91 % 1026,0 hPa 0,0 l/m 6,4 km/h (2 Bft) W 270 0 min 0,000 mm 0,0 UV-I 0 W/m 2,3 C 3,6 C 11,3 km/h (2 Bft) 86,96 %
24.12.2017 17:39 3,5 C 3,9 C 91 % 1026,0 hPa 0,0 l/m 6,4 km/h (2 Bft) W 270 0 min 0,000 mm 0,0 UV-I 0 W/m 2,2 C 3,5 C 8,0 km/h (2 Bft) 95,65 %
24.12.2017 17:40 3,5 C 3,9 C 92 % 1026,0 hPa 0,0 l/m 4,8 km/h (1 Bft) W-SW 247 0 min 0,000 mm 0,0 UV-I 0 W/m 2,3 C 3,5 C 6,4 km/h (2 Bft) 100,00 %
24.12.2017 17:41 3,6 C 3,9 C 92 % 1026,0 hPa 0,0 l/m 4,8 km/h (1 Bft) W 270 0 min 0,000 mm 0,0 UV-I 0 W/m 2,4 C 3,6 C 8,0 km/h (2 Bft) 100,00 %
24.12.2017 17:42 3,6 C 3,9 C 92 % 1025,9 hPa 0,0 l/m 3,2 km/h (1 Bft) W-SW 247 0 min 0,000 mm 0,0 UV-I 0 W/m 2,4 C 3,6 C 6,4 km/h (2 Bft) 100,00 %
24.12.2017 17:43 3,6 C 3,9 C 92 % 1025,9 hPa 0,0 l/m 4,8 km/h (1 Bft) W-SW 247 0 min 0,000 mm 0,0 UV-I 0 W/m 2,4 C 3,6 C 9,7 km/h (2 Bft) 100,00 %
24.12.2017 17:44 3,5 C 3,9 C 92 % 1025,9 hPa 0,0 l/m 4,8 km/h (1 Bft) W 270 0 min 0,000 mm 0,0 UV-I 0 W/m 2,3 C 3,5 C 8,0 km/h (2 Bft) 100,00 %
24.12.2017 17:45 3,5 C 3,9 C 92 % 1025,9 hPa 0,0 l/m 6,4 km/h (2 Bft) W 270 0 min 0,000 mm 0,0 UV-I 0 W/m 2,3 C 3,5 C 14,5 km/h (3 Bft) 95,65 %
24.12.2017 17:46 3,5 C 3,9 C 92 % 1025,9 hPa 0,0 l/m 9,7 km/h (2 Bft) W 270 0 min 0,000 mm 0,0 UV-I 0 W/m 2,3 C 0,6 C 14,5 km/h (3 Bft) 100,00 %
24.12.2017 17:47 3,5 C 3,9 C 92 % 1025,9 hPa 0,0 l/m 3,2 km/h (1 Bft) W 270 0 min 0,000 mm 0,0 UV-I 0 W/m 2,3 C 3,5 C 6,4 km/h (2 Bft) 100,00 %
24.12.2017 17:48 3,5 C 3,9 C 92 % 1025,9 hPa 0,0 l/m 6,4 km/h (2 Bft) W 270 0 min 0,000 mm 0,0 UV-I 0 W/m 2,3 C 3,5 C 11,3 km/h (2 Bft) 100,00 %
24.12.2017 17:49 3,5 C 3,9 C 92 % 1025,9 hPa 0,0 l/m 8,0 km/h (2 Bft) W 270 0 min 0,000 mm 0,0 UV-I 0 W/m 2,3 C 2,0 C 11,3 km/h (2 Bft) 100,00 %
24.12.2017 17:50 3,4 C 3,9 C 92 % 1025,9 hPa 0,0 l/m 4,8 km/h (1 Bft) W 270 0 min 0,000 mm 0,0 UV-I 0 W/m 2,2 C 3,4 C 8,0 km/h (2 Bft) 100,00 %
24.12.2017 17:51 3,4 C 3,9 C 92 % 1025,9 hPa 0,0 l/m 8,0 km/h (2 Bft) W 270 0 min 0,000 mm 0,0 UV-I 0 W/m 2,2 C 1,9 C 12,9 km/h (3 Bft) 100,00 %
24.12.2017 17:52 3,3 C 3,9 C 92 % 1025,9 hPa 0,0 l/m 6,4 km/h (2 Bft) W 270 0 min 0,000 mm 0,0 UV-I 0 W/m 2,1 C 3,3 C 9,7 km/h (2 Bft) 95,65 %
24.12.2017 17:53 3,3 C 3,9 C 92 % 1025,9 hPa 0,0 l/m 6,4 km/h (2 Bft) W 270 0 min 0,000 mm 0,0 UV-I 0 W/m 2,1 C 3,3 C 6,4 km/h (2 Bft) 100,00 %
24.12.2017 17:54 3,3 C 3,9 C 92 % 1025,9 hPa 0,0 l/m 6,4 km/h (2 Bft) W 270 0 min 0,000 mm 0,0 UV-I 0 W/m 2,1 C 3,3 C 11,3 km/h (2 Bft) 95,65 %
24.12.2017 17:55 3,3 C 3,9 C 92 % 1026,0 hPa 0,0 l/m 6,4 km/h (2 Bft) W 270 0 min 0,000 mm 0,0 UV-I 0 W/m 2,1 C 3,3 C 11,3 km/h (2 Bft) 100,00 %
24.12.2017 17:56 3,3 C 3,9 C 92 % 1026,0 hPa 0,0 l/m 8,0 km/h (2 Bft) W 270 0 min 0,000 mm 0,0 UV-I 0 W/m 2,1 C 1,8 C 11,3 km/h (2 Bft) 95,65 %
24.12.2017 17:57 3,3 C 3,9 C 92 % 1026,0 hPa 0,0 l/m 8,0 km/h (2 Bft) W 270 0 min 0,000 mm 0,0 UV-I 0 W/m 2,1 C 1,8 C 14,5 km/h (3 Bft) 100,00 %
24.12.2017 17:58 3,3 C 3,9 C 92 % 1026,0 hPa 0,0 l/m 8,0 km/h (2 Bft) W-NW 292 0 min 0,000 mm 0,0 UV-I 0 W/m 2,1 C 1,8 C 12,9 km/h (3 Bft) 100,00 %
24.12.2017 17:59 3,3 C 3,9 C 93 % 1026,0 hPa 0,0 l/m 4,8 km/h (1 Bft) W 270 0 min 0,000 mm 0,0 UV-I 0 W/m 2,3 C 3,3 C 6,4 km/h (2 Bft) 95,65 %
24.12.2017 18:00 3,2 C 3,9 C 93 % 1026,0 hPa 0,0 l/m 6,4 km/h (2 Bft) W 270 0 min 0,000 mm 0,0 UV-I 0 W/m 2,2 C 3,2 C 9,7 km/h (2 Bft) 100,00 %
24.12.2017 18:01 3,2 C 3,9 C 92 % 1026,0 hPa 0,0 l/m 6,4 km/h (2 Bft) W 270 0 min 0,000 mm 0,0 UV-I 0 W/m 2,0 C 3,2 C 9,7 km/h (2 Bft) 100,00 %
24.12.2017 18:02 3,2 C 3,9 C 93 % 1026,0 hPa 0,0 l/m 4,8 km/h (1 Bft) W 270 0 min 0,000 mm 0,0 UV-I 0 W/m 2,2 C 3,2 C 6,4 km/h (2 Bft) 100,00 %
24.12.2017 18:03 3,2 C 3,9 C 93 % 1026,0 hPa 0,0 l/m 9,7 km/h (2 Bft) W 270 0 min 0,000 mm 0,0 UV-I 0 W/m 2,2 C 0,3 C 14,5 km/h (3 Bft) 100,00 %
24.12.2017 18:04 3,3 C 3,9 C 93 % 1026,0 hPa 0,0 l/m 6,4 km/h (2 Bft) W 270 0 min 0,000 mm 0,0 UV-I 0 W/m 2,3 C 3,3 C 11,3 km/h (2 Bft) 100,00 %
24.12.2017 18:05 3,3 C 3,9 C 93 % 1026,0 hPa 0,0 l/m 8,0 km/h (2 Bft) W 270 0 min 0,000 mm 0,0 UV-I 0 W/m 2,3 C 1,8 C 11,3 km/h (2 Bft) 100,00 %
24.12.2017 18:06 3,3 C 3,9 C 93 % 1026,1 hPa 0,0 l/m 6,4 km/h (2 Bft) W 270 0 min 0,000 mm 0,0 UV-I 0 W/m 2,3 C 3,3 C 9,7 km/h (2 Bft) 95,65 %
24.12.2017 18:07 3,3 C 3,9 C 93 % 1026,1 hPa 0,0 l/m 9,7 km/h (2 Bft) W 270 0 min 0,000 mm 0,0 UV-I 0 W/m 2,3 C 0,4 C 14,5 km/h (3 Bft) 95,65 %
24.12.2017 18:08 3,2 C 3,9 C 93 % 1026,1 hPa 0,0 l/m 8,0 km/h (2 Bft) W 270 0 min 0,000 mm 0,0 UV-I 0 W/m 2,2 C 1,7 C 11,3 km/h (2 Bft) 100,00 %
24.12.2017 18:09 3,2 C 3,9 C 93 % 1026,1 hPa 0,0 l/m 11,3 km/h (2 Bft) W 270 0 min 0,000 mm 0,0 UV-I 0 W/m 2,2 C -0,8 C 16,1 km/h (3 Bft) 95,65 %
24.12.2017 18:10 3,2 C 3,9 C 93 % 1026,1 hPa 0,0 l/m 8,0 km/h (2 Bft) W 270 0 min 0,000 mm 0,0 UV-I 0 W/m 2,2 C 1,7 C 12,9 km/h (3 Bft) 100,00 %
24.12.2017 18:11 3,2 C 3,9 C 93 % 1026,1 hPa 0,0 l/m 8,0 km/h (2 Bft) W 270 0 min 0,000 mm 0,0 UV-I 0 W/m 2,2 C 1,7 C 9,7 km/h (2 Bft) 100,00 %
24.12.2017 18:12 3,2 C 3,9 C 92 % 1026,1 hPa 0,0 l/m 9,7 km/h (2 Bft) W 270 0 min 0,000 mm 0,0 UV-I 0 W/m 2,0 C 0,3 C 12,9 km/h (3 Bft) 100,00 %
24.12.2017 18:13 3,2 C 3,9 C 93 % 1026,1 hPa 0,0 l/m 8,0 km/h (2 Bft) W 270 0 min 0,000 mm 0,0 UV-I 0 W/m 2,2 C 1,7 C 11,3 km/h (2 Bft) 95,65 %
24.12.2017 18:14 3,2 C 3,9 C 93 % 1026,1 hPa 0,0 l/m 9,7 km/h (2 Bft) W 270 0 min 0,000 mm 0,0 UV-I 0 W/m 2,2 C 0,3 C 14,5 km/h (3 Bft) 100,00 %
24.12.2017 18:15 3,2 C 3,9 C 93 % 1026,1 hPa 0,0 l/m 8,0 km/h (2 Bft) W 270 0 min 0,000 mm 0,0 UV-I 0 W/m 2,2 C 1,7 C 14,5 km/h (3 Bft) 100,00 %
24.12.2017 18:16 3,2 C 3,9 C 93 % 1026,1 hPa 0,0 l/m 6,4 km/h (2 Bft) W 270 0 min 0,000 mm 0,0 UV-I 0 W/m 2,2 C 3,2 C 11,3 km/h (2 Bft) 100,00 %
24.12.2017 18:17 3,2 C 3,9 C 93 % 1026,1 hPa 0,0 l/m 11,3 km/h (2 Bft) W 270 0 min 0,000 mm 0,0 UV-I 0 W/m 2,2 C -0,8 C 14,5 km/h (3 Bft) 100,00 %
24.12.2017 18:18 3,2 C 3,9 C 93 % 1026,1 hPa 0,0 l/m 8,0 km/h (2 Bft) W 270 0 min 0,000 mm 0,0 UV-I 0 W/m 2,2 C 1,7 C 12,9 km/h (3 Bft) 100,00 %
24.12.2017 18:19 3,2 C 3,9 C 93 % 1026,1 hPa 0,0 l/m 8,0 km/h (2 Bft) W 270 0 min 0,000 mm 0,0 UV-I 0 W/m 2,2 C 1,7 C 11,3 km/h (2 Bft) 95,65 %
24.12.2017 18:20 3,2 C 3,9 C 93 % 1026,1 hPa 0,0 l/m 8,0 km/h (2 Bft) W 270 0 min 0,000 mm 0,0 UV-I 0 W/m 2,2 C 1,7 C 12,9 km/h (3 Bft) 95,65 %
24.12.2017 18:21 3,2 C 3,9 C 93 % 1026,1 hPa 0,0 l/m 11,3 km/h (2 Bft) W 270 0 min 0,000 mm 0,0 UV-I 0 W/m 2,2 C -0,8 C 12,9 km/h (3 Bft) 100,00 %
24.12.2017 18:22 3,2 C 3,9 C 93 % 1026,1 hPa 0,0 l/m 9,7 km/h (2 Bft) W 270 0 min 0,000 mm 0,0 UV-I 0 W/m 2,2 C 0,3 C 17,7 km/h (3 Bft) 100,00 %
24.12.2017 18:23 3,2 C 3,9 C 93 % 1026,2 hPa 0,0 l/m 11,3 km/h (2 Bft) W 270 0 min 0,000 mm 0,0 UV-I 0 W/m 2,2 C -0,8 C 14,5 km/h (3 Bft) 100,00 %
24.12.2017 18:24 3,2 C 3,9 C 93 % 1026,2 hPa 0,0 l/m 9,7 km/h (2 Bft) W 270 0 min 0,000 mm 0,0 UV-I 0 W/m 2,2 C 0,3 C 14,5 km/h (3 Bft) 100,00 %
24.12.2017 18:25 3,2 C 3,9 C 93 % 1026,2 hPa 0,0 l/m 9,7 km/h (2 Bft) W 270 0 min 0,000 mm 0,0 UV-I 0 W/m 2,2 C 0,3 C 16,1 km/h (3 Bft) 100,00 %
24.12.2017 18:26 3,2 C 3,9 C 93 % 1026,2 hPa 0,0 l/m 8,0 km/h (2 Bft) W 270 0 min 0,000 mm 0,0 UV-I 0 W/m 2,2 C 1,7 C 11,3 km/h (2 Bft) 95,65 %
24.12.2017 18:27 3,2 C 3,9 C 93 % 1026,2 hPa 0,0 l/m 9,7 km/h (2 Bft) W 270 0 min 0,000 mm 0,0 UV-I 0 W/m 2,2 C 0,3 C 14,5 km/h (3 Bft) 91,30 %
24.12.2017 18:28 3,2 C 3,9 C 93 % 1026,1 hPa 0,0 l/m 9,7 km/h (2 Bft) W 270 0 min 0,000 mm 0,0 UV-I 0 W/m 2,2 C 0,3 C 12,9 km/h (3 Bft) 95,65 %
24.12.2017 18:29 3,2 C 3,9 C 93 % 1026,2 hPa 0,0 l/m 9,7 km/h (2 Bft) W 270 0 min 0,000 mm 0,0 UV-I 0 W/m 2,2 C 0,3 C 12,9 km/h (3 Bft) 100,00 %
24.12.2017 18:30 3,2 C 3,9 C 93 % 1026,2 hPa 0,0 l/m 9,7 km/h (2 Bft) W 270 0 min 0,000 mm 0,0 UV-I 0 W/m 2,2 C 0,3 C 12,9 km/h (3 Bft) 95,65 %
24.12.2017 18:31 3,2 C 3,9 C 93 % 1026,2 hPa 0,0 l/m 8,0 km/h (2 Bft) W 270 0 min 0,000 mm 0,0 UV-I 0 W/m 2,2 C 1,7 C 12,9 km/h (3 Bft) 100,00 %
24.12.2017 18:32 3,2 C 3,9 C 93 % 1026,2 hPa 0,0 l/m 8,0 km/h (2 Bft) W 270 0 min 0,000 mm 0,0 UV-I 0 W/m 2,2 C 1,7 C 11,3 km/h (2 Bft) 95,65 %
24.12.2017 18:33 3,2 C 3,9 C 93 % 1026,2 hPa 0,0 l/m 11,3 km/h (2 Bft) W 270 0 min 0,000 mm 0,0 UV-I 0 W/m 2,2 C -0,8 C 16,1 km/h (3 Bft) 95,65 %
24.12.2017 18:34 3,2 C 3,9 C 93 % 1026,3 hPa 0,0 l/m 11,3 km/h (2 Bft) W 270 0 min 0,000 mm 0,0 UV-I 0 W/m 2,2 C -0,8 C 12,9 km/h (3 Bft) 95,65 %
24.12.2017 18:35 3,2 C 3,9 C 93 % 1026,2 hPa 0,0 l/m 9,7 km/h (2 Bft) W 270 0 min 0,000 mm 0,0 UV-I 0 W/m 2,2 C 0,3 C 12,9 km/h (3 Bft) 95,65 %
24.12.2017 18:36 3,2 C 3,9 C 93 % 1026,2 hPa 0,0 l/m 8,0 km/h (2 Bft) W 270 0 min 0,000 mm 0,0 UV-I 0 W/m 2,2 C 1,7 C 11,3 km/h (2 Bft) 95,65 %
24.12.2017 18:37 3,2 C 3,9 C 93 % 1026,3 hPa 0,0 l/m 6,4 km/h (2 Bft) W-NW 292 0 min 0,000 mm 0,0 UV-I 0 W/m 2,2 C 3,2 C 11,3 km/h (2 Bft) 95,65 %
24.12.2017 18:38 3,2 C 3,9 C 93 % 1026,2 hPa 0,0 l/m 6,4 km/h (2 Bft) W 270 0 min 0,000 mm 0,0 UV-I 0 W/m 2,2 C 3,2 C 9,7 km/h (2 Bft) 100,00 %
24.12.2017 18:39 3,2 C 3,9 C 93 % 1026,2 hPa 0,0 l/m 6,4 km/h (2 Bft) W 270 0 min 0,000 mm 0,0 UV-I 0 W/m 2,2 C 3,2 C 11,3 km/h (2 Bft) 95,65 %
24.12.2017 18:40 3,2 C 3,9 C 93 % 1026,2 hPa 0,0 l/m 8,0 km/h (2 Bft) W 270 0 min 0,000 mm 0,0 UV-I 0 W/m 2,2 C 1,7 C 11,3 km/h (2 Bft) 100,00 %
24.12.2017 18:41 3,2 C 3,9 C 93 % 1026,2 hPa 0,0 l/m 8,0 km/h (2 Bft) W 270 0 min 0,000 mm 0,0 UV-I 0 W/m 2,2 C 1,7 C 11,3 km/h (2 Bft) 91,30 %
24.12.2017 18:42 3,2 C 3,9 C 93 % 1026,2 hPa 0,0 l/m 6,4 km/h (2 Bft) W 270 0 min 0,000 mm 0,0 UV-I 0 W/m 2,2 C 3,2 C 9,7 km/h (2 Bft) 95,65 %
24.12.2017 18:43 3,2 C 3,9 C 93 % 1026,2 hPa 0,0 l/m 9,7 km/h (2 Bft) W 270 0 min 0,000 mm 0,0 UV-I 0 W/m 2,2 C 0,3 C 17,7 km/h (3 Bft) 95,65 %
24.12.2017 18:44 3,2 C 3,9 C 93 % 1026,2 hPa 0,0 l/m 8,0 km/h (2 Bft) W 270 0 min 0,000 mm 0,0 UV-I 0 W/m 2,2 C 1,7 C 11,3 km/h (2 Bft) 95,65 %
24.12.2017 18:45 3,2 C 3,9 C 93 % 1026,2 hPa 0,0 l/m 8,0 km/h (2 Bft) W 270 0 min 0,000 mm 0,0 UV-I 0 W/m 2,2 C 1,7 C 11,3 km/h (2 Bft) 91,30 %
24.12.2017 18:46 3,2 C 3,9 C 93 % 1026,2 hPa 0,0 l/m 8,0 km/h (2 Bft) W 270 0 min 0,000 mm 0,0 UV-I 0 W/m 2,2 C 1,7 C 11,3 km/h (2 Bft) 100,00 %
24.12.2017 18:47 3,2 C 3,9 C 93 % 1026,2 hPa 0,0 l/m 6,4 km/h (2 Bft) W-SW 247 0 min 0,000 mm 0,0 UV-I 0 W/m 2,2 C 3,2 C 11,3 km/h (2 Bft) 95,65 %
24.12.2017 18:48 3,2 C 3,9 C 93 % 1026,2 hPa 0,0 l/m 6,4 km/h (2 Bft) W 270 0 min 0,000 mm 0,0 UV-I 0 W/m 2,2 C 3,2 C 9,7 km/h (2 Bft) 95,65 %
24.12.2017 18:49 3,2 C 3,9 C 93 % 1026,2 hPa 0,0 l/m 4,8 km/h (1 Bft) W 270 0 min 0,000 mm 0,0 UV-I 0 W/m 2,2 C 3,2 C 6,4 km/h (2 Bft) 95,65 %
24.12.2017 18:50 3,2 C 3,9 C 93 % 1026,2 hPa 0,0 l/m 4,8 km/h (1 Bft) W 270 0 min 0,000 mm 0,0 UV-I 0 W/m 2,2 C 3,2 C 6,4 km/h (2 Bft) 95,65 %
24.12.2017 18:51 3,1 C 3,9 C 93 % 1026,2 hPa 0,0 l/m 6,4 km/h (2 Bft) W 270 0 min 0,000 mm 0,0 UV-I 0 W/m 2,1 C 3,1 C 9,7 km/h (2 Bft) 100,00 %
24.12.2017 18:52 3,1 C 3,9 C 93 % 1026,2 hPa 0,0 l/m 9,7 km/h (2 Bft) W 270 0 min 0,000 mm 0,0 UV-I 0 W/m 2,1 C 0,2 C 14,5 km/h (3 Bft) 100,00 %
24.12.2017 18:53 3,1 C 3,9 C 93 % 1026,2 hPa 0,0 l/m 4,8 km/h (1 Bft) W 270 0 min 0,000 mm 0,0 UV-I 0 W/m 2,1 C 3,1 C 9,7 km/h (2 Bft) 100,00 %
24.12.2017 18:54 3,1 C 3,9 C 93 % 1026,2 hPa 0,0 l/m 6,4 km/h (2 Bft) W-NW 292 0 min 0,000 mm 0,0 UV-I 0 W/m 2,1 C 3,1 C 11,3 km/h (2 Bft) 95,65 %
24.12.2017 18:55 3,1 C 3,9 C 93 % 1026,2 hPa 0,0 l/m 6,4 km/h (2 Bft) W 270 0 min 0,000 mm 0,0 UV-I 0 W/m 2,1 C 3,1 C 9,7 km/h (2 Bft) 95,65 %
24.12.2017 18:56 3,1 C 3,9 C 93 % 1026,2 hPa 0,0 l/m 4,8 km/h (1 Bft) W 270 0 min 0,000 mm 0,0 UV-I 0 W/m 2,1 C 3,1 C 6,4 km/h (2 Bft) 95,65 %
24.12.2017 18:57 3,1 C 3,9 C 93 % 1026,2 hPa 0,0 l/m 6,4 km/h (2 Bft) W 270 0 min 0,000 mm 0,0 UV-I 0 W/m 2,1 C 3,1 C 9,7 km/h (2 Bft) 100,00 %
24.12.2017 18:58 3,0 C 3,9 C 93 % 1026,2 hPa 0,0 l/m 6,4 km/h (2 Bft) W 270 0 min 0,000 mm 0,0 UV-I 0 W/m 2,0 C 3,0 C 11,3 km/h (2 Bft) 95,65 %
24.12.2017 18:59 3,1 C 3,9 C 93 % 1026,2 hPa 0,0 l/m 6,4 km/h (2 Bft) W 270 0 min 0,000 mm 0,0 UV-I 0 W/m 2,1 C 3,1 C 11,3 km/h (2 Bft) 91,30 %
24.12.2017 19:00 3,0 C 3,9 C 93 % 1026,2 hPa 0,0 l/m 4,8 km/h (1 Bft) W 270 0 min 0,000 mm 0,0 UV-I 0 W/m 2,0 C 3,0 C 9,7 km/h (2 Bft) 100,00 %
24.12.2017 19:01 3,0 C 3,9 C 93 % 1026,2 hPa 0,0 l/m 6,4 km/h (2 Bft) W 270 0 min 0,000 mm 0,0 UV-I 0 W/m 2,0 C 3,0 C 9,7 km/h (2 Bft) 95,65 %
24.12.2017 19:02 3,0 C 3,9 C 93 % 1026,2 hPa 0,0 l/m 4,8 km/h (1 Bft) W 270 0 min 0,000 mm 0,0 UV-I 0 W/m 2,0 C 3,0 C 6,4 km/h (2 Bft) 95,65 %
24.12.2017 19:03 3,0 C 3,9 C 93 % 1026,2 hPa 0,0 l/m 6,4 km/h (2 Bft) W 270 0 min 0,000 mm 0,0 UV-I 0 W/m 2,0 C 3,0 C 9,7 km/h (2 Bft) 91,30 %
24.12.2017 19:04 2,9 C 3,9 C 93 % 1026,3 hPa 0,0 l/m 4,8 km/h (1 Bft) W 270 0 min 0,000 mm 0,0 UV-I 0 W/m 1,9 C 2,9 C 6,4 km/h (2 Bft) 95,65 %
24.12.2017 19:05 2,9 C 3,9 C 93 % 1026,2 hPa 0,0 l/m 6,4 km/h (2 Bft) W 270 0 min 0,000 mm 0,0 UV-I 0 W/m 1,9 C 2,9 C 12,9 km/h (3 Bft) 95,65 %
24.12.2017 19:06 2,9 C 3,9 C 93 % 1026,2 hPa 0,0 l/m 6,4 km/h (2 Bft) W-SW 247 0 min 0,000 mm 0,0 UV-I 0 W/m 1,9 C 2,9 C 9,7 km/h (2 Bft) 100,00 %
24.12.2017 19:07 2,9 C 3,9 C 93 % 1026,3 hPa 0,0 l/m 8,0 km/h (2 Bft) W 270 0 min 0,000 mm 0,0 UV-I 0 W/m 1,9 C 1,4 C 12,9 km/h (3 Bft) 95,65 %
24.12.2017 19:08 2,9 C 3,9 C 93 % 1026,2 hPa 0,0 l/m 8,0 km/h (2 Bft) W 270 0 min 0,000 mm 0,0 UV-I 0 W/m 1,9 C 1,4 C 12,9 km/h (3 Bft) 95,65 %
24.12.2017 19:09 2,9 C 3,9 C 93 % 1026,3 hPa 0,0 l/m 6,4 km/h (2 Bft) W 270 0 min 0,000 mm 0,0 UV-I 0 W/m 1,9 C 2,9 C 9,7 km/h (2 Bft) 91,30 %
24.12.2017 19:10 2,9 C 3,9 C 93 % 1026,3 hPa 0,0 l/m 4,8 km/h (1 Bft) W 270 0 min 0,000 mm 0,0 UV-I 0 W/m 1,9 C 2,9 C 9,7 km/h (2 Bft) 91,30 %
24.12.2017 19:11 2,8 C 3,9 C 93 % 1026,3 hPa 0,0 l/m 6,4 km/h (2 Bft) W 270 0 min 0,000 mm 0,0 UV-I 0 W/m 1,8 C 2,8 C 9,7 km/h (2 Bft) 100,00 %
24.12.2017 19:12 2,9 C 3,9 C 93 % 1026,3 hPa 0,0 l/m 4,8 km/h (1 Bft) W 270 0 min 0,000 mm 0,0 UV-I 0 W/m 1,9 C 2,9 C 6,4 km/h (2 Bft) 95,65 %
24.12.2017 19:13 2,8 C 3,9 C 94 % 1026,3 hPa 0,0 l/m 4,8 km/h (1 Bft) W 270 0 min 0,000 mm 0,0 UV-I 0 W/m 1,9 C 2,8 C 6,4 km/h (2 Bft) 100,00 %
24.12.2017 19:14 2,8 C 3,9 C 93 % 1026,3 hPa 0,0 l/m 4,8 km/h (1 Bft) W 270 0 min 0,000 mm 0,0 UV-I 0 W/m 1,8 C 2,8 C 11,3 km/h (2 Bft) 95,65 %
24.12.2017 19:15 2,8 C 3,9 C 93 % 1026,3 hPa 0,0 l/m 6,4 km/h (2 Bft) W 270 0 min 0,000 mm 0,0 UV-I 0 W/m 1,8 C 2,8 C 11,3 km/h (2 Bft) 91,30 %
24.12.2017 19:16 2,8 C 3,9 C 93 % 1026,4 hPa 0,0 l/m 3,2 km/h (1 Bft) W 270 0 min 0,000 mm 0,0 UV-I 0 W/m 1,8 C 2,8 C 4,8 km/h (1 Bft) 95,65 %
24.12.2017 19:17 2,7 C 3,9 C 93 % 1026,4 hPa 0,0 l/m 4,8 km/h (1 Bft) W 270 0 min 0,000 mm 0,0 UV-I 0 W/m 1,7 C 2,7 C 6,4 km/h (2 Bft) 95,65 %
24.12.2017 19:18 2,7 C 3,9 C 94 % 1026,4 hPa 0,0 l/m 3,2 km/h (1 Bft) W 270 0 min 0,000 mm 0,0 UV-I 0 W/m 1,8 C 2,7 C 6,4 km/h (2 Bft) 100,00 %
24.12.2017 19:19 2,7 C 3,9 C 94 % 1026,4 hPa 0,0 l/m 4,8 km/h (1 Bft) W 270 0 min 0,000 mm 0,0 UV-I 0 W/m 1,8 C 2,7 C 4,8 km/h (1 Bft) 91,30 %
24.12.2017 19:20 2,7 C 3,9 C 94 % 1026,3 hPa 0,0 l/m 4,8 km/h (1 Bft) W 270 0 min 0,000 mm 0,0 UV-I 0 W/m 1,8 C 2,7 C 9,7 km/h (2 Bft) 100,00 %
24.12.2017 19:21 2,7 C 3,9 C 94 % 1026,3 hPa 0,0 l/m 6,4 km/h (2 Bft) W 270 0 min 0,000 mm 0,0 UV-I 0 W/m 1,8 C 2,7 C 11,3 km/h (2 Bft) 95,65 %
24.12.2017 19:22 2,7 C 3,9 C 94 % 1026,3 hPa 0,0 l/m 3,2 km/h (1 Bft) W 270 0 min 0,000 mm 0,0 UV-I 0 W/m 1,8 C 2,7 C 4,8 km/h (1 Bft) 95,65 %
24.12.2017 19:23 2,6 C 3,9 C 94 % 1026,3 hPa 0,0 l/m 3,2 km/h (1 Bft) W 270 0 min 0,000 mm 0,0 UV-I 0 W/m 1,7 C 2,6 C 9,7 km/h (2 Bft) 86,96 %
24.12.2017 19:24 2,6 C 3,9 C 94 % 1026,3 hPa 0,0 l/m 6,4 km/h (2 Bft) W 270 0 min 0,000 mm 0,0 UV-I 0 W/m 1,7 C 2,6 C 9,7 km/h (2 Bft) 95,65 %
24.12.2017 19:25 2,6 C 3,9 C 94 % 1026,4 hPa 0,0 l/m 3,2 km/h (1 Bft) W 270 0 min 0,000 mm 0,0 UV-I 0 W/m 1,7 C 2,6 C 4,8 km/h (1 Bft) 95,65 %
24.12.2017 19:26 2,6 C 3,9 C 94 % 1026,4 hPa 0,0 l/m 3,2 km/h (1 Bft) W 270 0 min 0,000 mm 0,0 UV-I 0 W/m 1,7 C 2,6 C 6,4 km/h (2 Bft) 95,65 %
24.12.2017 19:27 2,6 C 3,9 C 94 % 1026,3 hPa 0,0 l/m 3,2 km/h (1 Bft) W-NW 292 0 min 0,000 mm 0,0 UV-I 0 W/m 1,7 C 2,6 C 6,4 km/h (2 Bft) 100,00 %
24.12.2017 19:28 2,6 C 3,9 C 94 % 1026,4 hPa 0,0 l/m 3,2 km/h (1 Bft) W-NW 292 0 min 0,000 mm 0,0 UV-I 0 W/m 1,7 C 2,6 C 4,8 km/h (1 Bft) 91,30 %
24.12.2017 19:29 2,5 C 3,9 C 94 % 1026,3 hPa 0,0 l/m 3,2 km/h (1 Bft) W-NW 292 0 min 0,000 mm 0,0 UV-I 0 W/m 1,6 C 2,5 C 4,8 km/h (1 Bft) 100,00 %
24.12.2017 19:30 2,4 C 3,9 C 94 % 1026,4 hPa 0,0 l/m 3,2 km/h (1 Bft) W-NW 292 0 min 0,000 mm 0,0 UV-I 0 W/m 1,5 C 2,4 C 4,8 km/h (1 Bft) 91,30 %
24.12.2017 19:31 2,4 C 3,9 C 94 % 1026,3 hPa 0,0 l/m 3,2 km/h (1 Bft) W-NW 292 0 min 0,000 mm 0,0 UV-I 0 W/m 1,5 C 2,4 C 6,4 km/h (2 Bft) 100,00 %
24.12.2017 19:32 2,4 C 3,9 C 94 % 1026,3 hPa 0,0 l/m 4,8 km/h (1 Bft) W-NW 292 0 min 0,000 mm 0,0 UV-I 0 W/m 1,5 C 2,4 C 6,4 km/h (2 Bft) 95,65 %
24.12.2017 19:33 2,4 C 3,9 C 94 % 1026,3 hPa 0,0 l/m 3,2 km/h (1 Bft) W 270 0 min 0,000 mm 0,0 UV-I 0 W/m 1,5 C 2,4 C 4,8 km/h (1 Bft) 95,65 %
24.12.2017 19:34 2,4 C 3,9 C 94 % 1026,3 hPa 0,0 l/m 3,2 km/h (1 Bft) W 270 0 min 0,000 mm 0,0 UV-I 0 W/m 1,5 C 2,4 C 4,8 km/h (1 Bft) 100,00 %
24.12.2017 19:35 2,4 C 3,9 C 94 % 1026,3 hPa 0,0 l/m 4,8 km/h (1 Bft) W-NW 292 0 min 0,000 mm 0,0 UV-I 0 W/m 1,5 C 2,4 C 6,4 km/h (2 Bft) 100,00 %
24.12.2017 19:36 2,4 C 3,9 C 94 % 1026,3 hPa 0,0 l/m 4,8 km/h (1 Bft) W 270 0 min 0,000 mm 0,0 UV-I 0 W/m 1,5 C 2,4 C 4,8 km/h (1 Bft) 95,65 %
24.12.2017 19:37 2,4 C 3,9 C 94 % 1026,3 hPa 0,0 l/m 6,4 km/h (2 Bft) W 270 0 min 0,000 mm 0,0 UV-I 0 W/m 1,5 C 2,4 C 11,3 km/h (2 Bft) 95,65 %
24.12.2017 19:38 2,4 C 3,9 C 94 % 1026,3 hPa 0,0 l/m 3,2 km/h (1 Bft) W-NW 292 0 min 0,000 mm 0,0 UV-I 0 W/m 1,5 C 2,4 C 6,4 km/h (2 Bft) 100,00 %
24.12.2017 19:39 2,4 C 3,9 C 94 % 1026,3 hPa 0,0 l/m 6,4 km/h (2 Bft) W-NW 292 0 min 0,000 mm 0,0 UV-I 0 W/m 1,5 C 2,4 C 12,9 km/h (3 Bft) 100,00 %
24.12.2017 19:40 2,6 C 3,9 C 95 % 1026,2 hPa 0,0 l/m 12,9 km/h (3 Bft) W 270 0 min 0,000 mm 0,0 UV-I 0 W/m 1,9 C -2,6 C 14,5 km/h (3 Bft) 100,00 %
24.12.2017 19:41 2,7 C 3,9 C 95 % 1026,2 hPa 0,0 l/m 9,7 km/h (2 Bft) W 270 0 min 0,000 mm 0,0 UV-I 0 W/m 2,0 C -0,2 C 16,1 km/h (3 Bft) 100,00 %
24.12.2017 19:42 2,7 C 3,9 C 95 % 1026,2 hPa 0,0 l/m 6,4 km/h (2 Bft) W 270 0 min 0,000 mm 0,0 UV-I 0 W/m 2,0 C 2,7 C 9,7 km/h (2 Bft) 100,00 %
24.12.2017 19:43 2,7 C 3,9 C 94 % 1026,2 hPa 0,0 l/m 9,7 km/h (2 Bft) W 270 0 min 0,000 mm 0,0 UV-I 0 W/m 1,8 C -0,2 C 14,5 km/h (3 Bft) 100,00 %
24.12.2017 19:44 2,8 C 3,9 C 95 % 1026,2 hPa 0,0 l/m 9,7 km/h (2 Bft) W 270 0 min 0,000 mm 0,0 UV-I 0 W/m 2,1 C -0,1 C 12,9 km/h (3 Bft) 95,65 %
24.12.2017 19:45 2,8 C 3,9 C 95 % 1026,2 hPa 0,0 l/m 9,7 km/h (2 Bft) W-SW 247 0 min 0,000 mm 0,0 UV-I 0 W/m 2,1 C -0,1 C 16,1 km/h (3 Bft) 100,00 %
24.12.2017 19:46 2,9 C 3,9 C 95 % 1026,2 hPa 0,0 l/m 9,7 km/h (2 Bft) W 270 0 min 0,000 mm 0,0 UV-I 0 W/m 2,2 C -0,0 C 14,5 km/h (3 Bft) 100,00 %
24.12.2017 19:47 3,0 C 3,9 C 94 % 1026,2 hPa 0,0 l/m 9,7 km/h (2 Bft) W 270 0 min 0,000 mm 0,0 UV-I 0 W/m 2,1 C 0,1 C 14,5 km/h (3 Bft) 100,00 %
24.12.2017 19:48 3,0 C 3,9 C 94 % 1026,2 hPa 0,0 l/m 9,7 km/h (2 Bft) W 270 0 min 0,000 mm 0,0 UV-I 0 W/m 2,1 C 0,1 C 16,1 km/h (3 Bft) 100,00 %
24.12.2017 19:49 3,0 C 3,9 C 94 % 1026,2 hPa 0,0 l/m 9,7 km/h (2 Bft) W 270 0 min 0,000 mm 0,0 UV-I 0 W/m 2,1 C 0,1 C 12,9 km/h (3 Bft) 100,00 %
24.12.2017 19:50 3,0 C 3,9 C 94 % 1026,2 hPa 0,0 l/m 8,0 km/h (2 Bft) W 270 0 min 0,000 mm 0,0 UV-I 0 W/m 2,1 C 1,5 C 14,5 km/h (3 Bft) 100,00 %
24.12.2017 19:51 3,1 C 3,9 C 94 % 1026,2 hPa 0,0 l/m 9,7 km/h (2 Bft) W 270 0 min 0,000 mm 0,0 UV-I 0 W/m 2,2 C 0,2 C 14,5 km/h (3 Bft) 95,65 %
24.12.2017 19:52 3,1 C 3,9 C 94 % 1026,2 hPa 0,0 l/m 6,4 km/h (2 Bft) W 270 0 min 0,000 mm 0,0 UV-I 0 W/m 2,2 C 3,1 C 9,7 km/h (2 Bft) 95,65 %
24.12.2017 19:53 3,1 C 3,9 C 94 % 1026,2 hPa 0,0 l/m 8,0 km/h (2 Bft) W 270 0 min 0,000 mm 0,0 UV-I 0 W/m 2,2 C 1,6 C 11,3 km/h (2 Bft) 95,65 %
24.12.2017 19:54 3,1 C 3,9 C 94 % 1026,2 hPa 0,0 l/m 9,7 km/h (2 Bft) W 270 0 min 0,000 mm 0,0 UV-I 0 W/m 2,2 C 0,2 C 17,7 km/h (3 Bft) 95,65 %
24.12.2017 19:55 3,2 C 3,9 C 94 % 1026,2 hPa 0,0 l/m 9,7 km/h (2 Bft) W 270 0 min 0,000 mm 0,0 UV-I 0 W/m 2,3 C 0,3 C 16,1 km/h (3 Bft) 100,00 %
24.12.2017 19:56 3,2 C 3,9 C 94 % 1026,2 hPa 0,0 l/m 6,4 km/h (2 Bft) W 270 0 min 0,000 mm 0,0 UV-I 0 W/m 2,3 C 3,2 C 9,7 km/h (2 Bft) 95,65 %
24.12.2017 19:57 3,2 C 3,9 C 93 % 1026,2 hPa 0,0 l/m 8,0 km/h (2 Bft) W 270 0 min 0,000 mm 0,0 UV-I 0 W/m 2,2 C 1,7 C 11,3 km/h (2 Bft) 100,00 %
24.12.2017 19:58 3,2 C 3,9 C 93 % 1026,2 hPa 0,0 l/m 9,7 km/h (2 Bft) W 270 0 min 0,000 mm 0,0 UV-I 0 W/m 2,2 C 0,3 C 12,9 km/h (3 Bft) 91,30 %
24.12.2017 19:59 3,2 C 3,9 C 93 % 1026,2 hPa 0,0 l/m 8,0 km/h (2 Bft) W-SW 247 0 min 0,000 mm 0,0 UV-I 0 W/m 2,2 C 1,7 C 11,3 km/h (2 Bft) 100,00 %
24.12.2017 20:00 3,2 C 3,9 C 93 % 1026,1 hPa 0,0 l/m 9,7 km/h (2 Bft) W 270 0 min 0,000 mm 0,0 UV-I 0 W/m 2,2 C 0,3 C 11,3 km/h (2 Bft) 91,30 %
24.12.2017 20:01 3,1 C 3,9 C 93 % 1026,1 hPa 0,0 l/m 11,3 km/h (2 Bft) W-SW 247 0 min 0,000 mm 0,0 UV-I 0 W/m 2,1 C -1,0 C 14,5 km/h (3 Bft) 100,00 %
24.12.2017 20:02 3,1 C 3,9 C 93 % 1026,1 hPa 0,0 l/m 11,3 km/h (2 Bft) W-SW 247 0 min 0,000 mm 0,0 UV-I 0 W/m 2,1 C -1,0 C 16,1 km/h (3 Bft) 95,65 %
24.12.2017 20:03 3,1 C 3,9 C 93 % 1026,0 hPa 0,0 l/m 9,7 km/h (2 Bft) W 270 0 min 0,000 mm 0,0 UV-I 0 W/m 2,1 C 0,2 C 14,5 km/h (3 Bft) 100,00 %
24.12.2017 20:04 3,1 C 3,9 C 93 % 1026,1 hPa 0,0 l/m 9,7 km/h (2 Bft) W 270 0 min 0,000 mm 0,0 UV-I 0 W/m 2,1 C 0,2 C 14,5 km/h (3 Bft) 95,65 %
24.12.2017 20:05 3,1 C 3,9 C 93 % 1026,0 hPa 0,0 l/m 8,0 km/h (2 Bft) W 270 0 min 0,000 mm 0,0 UV-I 0 W/m 2,1 C 1,6 C 12,9 km/h (3 Bft) 95,65 %
24.12.2017 20:06 3,1 C 3,9 C 93 % 1026,0 hPa 0,0 l/m 11,3 km/h (2 Bft) W 270 0 min 0,000 mm 0,0 UV-I 0 W/m 2,1 C -1,0 C 17,7 km/h (3 Bft) 91,30 %
24.12.2017 20:07 3,2 C 3,9 C 93 % 1026,1 hPa 0,0 l/m 11,3 km/h (2 Bft) W 270 0 min 0,000 mm 0,0 UV-I 0 W/m 2,2 C -0,8 C 14,5 km/h (3 Bft) 95,65 %
24.12.2017 20:08 3,2 C 3,9 C 93 % 1026,1 hPa 0,0 l/m 9,7 km/h (2 Bft) W-SW 247 0 min 0,000 mm 0,0 UV-I 0 W/m 2,2 C 0,3 C 14,5 km/h (3 Bft) 91,30 %
24.12.2017 20:09 3,2 C 3,9 C 93 % 1026,0 hPa 0,0 l/m 9,7 km/h (2 Bft) W 270 0 min 0,000 mm 0,0 UV-I 0 W/m 2,2 C 0,3 C 14,5 km/h (3 Bft) 91,30 %
24.12.2017 20:10 3,2 C 3,9 C 93 % 1026,0 hPa 0,0 l/m 11,3 km/h (2 Bft) W 270 0 min 0,000 mm 0,0 UV-I 0 W/m 2,2 C -0,8 C 12,9 km/h (3 Bft) 100,00 %
24.12.2017 20:11 3,2 C 3,9 C 93 % 1026,0 hPa 0,0 l/m 11,3 km/h (2 Bft) W 270 0 min 0,000 mm 0,0 UV-I 0 W/m 2,2 C -0,8 C 16,1 km/h (3 Bft) 95,65 %
24.12.2017 20:12 3,2 C 3,9 C 93 % 1026,0 hPa 0,0 l/m 12,9 km/h (3 Bft) W-SW 247 0 min 0,000 mm 0,0 UV-I 0 W/m 2,2 C -1,9 C 17,7 km/h (3 Bft) 95,65 %
24.12.2017 20:13 3,2 C 3,9 C 93 % 1026,0 hPa 0,0 l/m 9,7 km/h (2 Bft) W 270 0 min 0,000 mm 0,0 UV-I 0 W/m 2,2 C 0,3 C 12,9 km/h (3 Bft) 95,65 %
24.12.2017 20:14 3,2 C 3,9 C 93 % 1026,0 hPa 0,0 l/m 11,3 km/h (2 Bft) W 270 0 min 0,000 mm 0,0 UV-I 0 W/m 2,2 C -0,8 C 14,5 km/h (3 Bft) 100,00 %
24.12.2017 20:15 3,2 C 3,9 C 93 % 1026,0 hPa 0,0 l/m 12,9 km/h (3 Bft) W 270 0 min 0,000 mm 0,0 UV-I 0 W/m 2,2 C -1,9 C 16,1 km/h (3 Bft) 100,00 %
24.12.2017 20:16 3,2 C 3,9 C 93 % 1026,0 hPa 0,0 l/m 9,7 km/h (2 Bft) W 270 0 min 0,000 mm 0,0 UV-I 0 W/m 2,2 C 0,3 C 12,9 km/h (3 Bft) 100,00 %
24.12.2017 20:17 3,1 C 3,9 C 93 % 1026,0 hPa 0,0 l/m 11,3 km/h (2 Bft) W-NW 292 0 min 0,000 mm 0,0 UV-I 0 W/m 2,1 C -1,0 C 14,5 km/h (3 Bft) 100,00 %
24.12.2017 20:18 3,1 C 3,9 C 93 % 1026,1 hPa 0,0 l/m 9,7 km/h (2 Bft) W 270 0 min 0,000 mm 0,0 UV-I 0 W/m 2,1 C 0,2 C 12,9 km/h (3 Bft) 91,30 %
24.12.2017 20:19 3,1 C 3,9 C 93 % 1026,1 hPa 0,0 l/m 8,0 km/h (2 Bft) W 270 0 min 0,000 mm 0,0 UV-I 0 W/m 2,1 C 1,6 C 12,9 km/h (3 Bft) 95,65 %
24.12.2017 20:20 3,1 C 3,9 C 93 % 1026,1 hPa 0,0 l/m 9,7 km/h (2 Bft) W 270 0 min 0,000 mm 0,0 UV-I 0 W/m 2,1 C 0,2 C 20,9 km/h (4 Bft) 100,00 %
24.12.2017 20:21 3,0 C 3,9 C 93 % 1026,0 hPa 0,0 l/m 11,3 km/h (2 Bft) W-SW 247 0 min 0,000 mm 0,0 UV-I 0 W/m 2,0 C -1,1 C 14,5 km/h (3 Bft) 95,65 %
24.12.2017 20:22 3,0 C 3,9 C 93 % 1026,0 hPa 0,0 l/m 12,9 km/h (3 Bft) W-SW 247 0 min 0,000 mm 0,0 UV-I 0 W/m 2,0 C -2,1 C 14,5 km/h (3 Bft) 95,65 %
24.12.2017 20:23 3,0 C 3,9 C 93 % 1026,0 hPa 0,0 l/m 11,3 km/h (2 Bft) W-SW 247 0 min 0,000 mm 0,0 UV-I 0 W/m 2,0 C -1,1 C 14,5 km/h (3 Bft) 95,65 %
24.12.2017 20:24 3,0 C 3,9 C 93 % 1026,0 hPa 0,0 l/m 11,3 km/h (2 Bft) W-SW 247 0 min 0,000 mm 0,0 UV-I 0 W/m 2,0 C -1,1 C 12,9 km/h (3 Bft) 100,00 %
24.12.2017 20:25 2,9 C 3,9 C 93 % 1026,0 hPa 0,0 l/m 11,3 km/h (2 Bft) W-SW 247 0 min 0,000 mm 0,0 UV-I 0 W/m 1,9 C -1,2 C 14,5 km/h (3 Bft) 100,00 %
24.12.2017 20:26 2,9 C 3,9 C 93 % 1026,0 hPa 0,0 l/m 11,3 km/h (2 Bft) W-SW 247 0 min 0,000 mm 0,0 UV-I 0 W/m 1,9 C -1,2 C 14,5 km/h (3 Bft) 95,65 %
24.12.2017 20:27 2,9 C 3,9 C 93 % 1026,0 hPa 0,0 l/m 12,9 km/h (3 Bft) W-SW 247 0 min 0,000 mm 0,0 UV-I 0 W/m 1,9 C -2,2 C 14,5 km/h (3 Bft) 95,65 %
24.12.2017 20:28 2,8 C 3,9 C 93 % 1026,0 hPa 0,0 l/m 11,3 km/h (2 Bft) W-SW 247 0 min 0,000 mm 0,0 UV-I 0 W/m 1,8 C -1,3 C 16,1 km/h (3 Bft) 100,00 %
24.12.2017 20:29 2,8 C 3,9 C 93 % 1025,9 hPa 0,0 l/m 11,3 km/h (2 Bft) W-SW 247 0 min 0,000 mm 0,0 UV-I 0 W/m 1,8 C -1,3 C 16,1 km/h (3 Bft) 100,00 %
24.12.2017 20:30 2,8 C 3,9 C 93 % 1026,0 hPa 0,0 l/m 11,3 km/h (2 Bft) W-SW 247 0 min 0,000 mm 0,0 UV-I 0 W/m 1,8 C -1,3 C 14,5 km/h (3 Bft) 100,00 %
24.12.2017 20:31 2,8 C 3,9 C 93 % 1026,0 hPa 0,0 l/m 9,7 km/h (2 Bft) W-SW 247 0 min 0,000 mm 0,0 UV-I 0 W/m 1,8 C -0,1 C 14,5 km/h (3 Bft) 100,00 %
24.12.2017 20:32 2,8 C 3,9 C 94 % 1026,0 hPa 0,0 l/m 11,3 km/h (2 Bft) W-SW 247 0 min 0,000 mm 0,0 UV-I 0 W/m 1,9 C -1,3 C 14,5 km/h (3 Bft) 100,00 %
24.12.2017 20:33 2,8 C 3,9 C 94 % 1026,0 hPa 0,0 l/m 11,3 km/h (2 Bft) W 270 0 min 0,000 mm 0,0 UV-I 0 W/m 1,9 C -1,3 C 14,5 km/h (3 Bft) 95,65 %
24.12.2017 20:34 2,8 C 3,9 C 93 % 1026,0 hPa 0,0 l/m 11,3 km/h (2 Bft) W-SW 247 0 min 0,000 mm 0,0 UV-I 0 W/m 1,8 C -1,3 C 16,1 km/h (3 Bft) 100,00 %
24.12.2017 20:35 2,8 C 3,9 C 93 % 1026,0 hPa 0,0 l/m 9,7 km/h (2 Bft) W 270 0 min 0,000 mm 0,0 UV-I 0 W/m 1,8 C -0,1 C 12,9 km/h (3 Bft) 100,00 %
24.12.2017 20:36 2,8 C 3,9 C 93 % 1026,0 hPa 0,0 l/m 9,7 km/h (2 Bft) W-SW 247 0 min 0,000 mm 0,0 UV-I 0 W/m 1,8 C -0,1 C 12,9 km/h (3 Bft) 95,65 %
24.12.2017 20:37 2,8 C 3,9 C 93 % 1026,0 hPa 0,0 l/m 11,3 km/h (2 Bft) W 270 0 min 0,000 mm 0,0 UV-I 0 W/m 1,8 C -1,3 C 16,1 km/h (3 Bft) 100,00 %
24.12.2017 20:38 2,8 C 3,9 C 93 % 1025,9 hPa 0,0 l/m 9,7 km/h (2 Bft) W-SW 247 0 min 0,000 mm 0,0 UV-I 0 W/m 1,8 C -0,1 C 14,5 km/h (3 Bft) 100,00 %
24.12.2017 20:39 2,8 C 3,9 C 93 % 1026,0 hPa 0,0 l/m 9,7 km/h (2 Bft) W 270 0 min 0,000 mm 0,0 UV-I 0 W/m 1,8 C -0,1 C 11,3 km/h (2 Bft) 95,65 %
24.12.2017 20:40 2,7 C 3,9 C 93 % 1026,0 hPa 0,0 l/m 8,0 km/h (2 Bft) W 270 0 min 0,000 mm 0,0 UV-I 0 W/m 1,7 C 1,2 C 11,3 km/h (2 Bft) 95,65 %
24.12.2017 20:41 2,7 C 3,9 C 93 % 1026,0 hPa 0,0 l/m 9,7 km/h (2 Bft) W 270 0 min 0,000 mm 0,0 UV-I 0 W/m 1,7 C -0,2 C 14,5 km/h (3 Bft) 100,00 %
24.12.2017 20:42 2,7 C 3,9 C 93 % 1026,0 hPa 0,0 l/m 8,0 km/h (2 Bft) W-SW 247 0 min 0,000 mm 0,0 UV-I 0 W/m 1,7 C 1,2 C 11,3 km/h (2 Bft) 100,00 %
24.12.2017 20:43 2,7 C 3,9 C 94 % 1026,0 hPa 0,0 l/m 9,7 km/h (2 Bft) W-SW 247 0 min 0,000 mm 0,0 UV-I 0 W/m 1,8 C -0,2 C 12,9 km/h (3 Bft) 100,00 %
24.12.2017 20:44 2,7 C 3,9 C 94 % 1025,9 hPa 0,0 l/m 8,0 km/h (2 Bft) W 270 0 min 0,000 mm 0,0 UV-I 0 W/m 1,8 C 1,2 C 11,3 km/h (2 Bft) 100,00 %
24.12.2017 20:45 2,7 C 3,9 C 94 % 1025,9 hPa 0,0 l/m 8,0 km/h (2 Bft) W-SW 247 0 min 0,000 mm 0,0 UV-I 0 W/m 1,8 C 1,2 C 12,9 km/h (3 Bft) 100,00 %
24.12.2017 20:46 2,7 C 3,9 C 94 % 1025,9 hPa 0,0 l/m 9,7 km/h (2 Bft) W 270 0 min 0,000 mm 0,0 UV-I 0 W/m 1,8 C -0,2 C 12,9 km/h (3 Bft) 100,00 %
24.12.2017 20:47 2,7 C 3,9 C 94 % 1025,9 hPa 0,0 l/m 8,0 km/h (2 Bft) W-SW 247 0 min 0,000 mm 0,0 UV-I 0 W/m 1,8 C 1,2 C 12,9 km/h (3 Bft) 95,65 %
24.12.2017 20:48 2,7 C 3,9 C 94 % 1025,9 hPa 0,0 l/m 9,7 km/h (2 Bft) W 270 0 min 0,000 mm 0,0 UV-I 0 W/m 1,8 C -0,2 C 12,9 km/h (3 Bft) 100,00 %
24.12.2017 20:49 2,7 C 3,9 C 94 % 1025,9 hPa 0,0 l/m 12,9 km/h (3 Bft) W 270 0 min 0,000 mm 0,0 UV-I 0 W/m 1,8 C -2,5 C 16,1 km/h (3 Bft) 100,00 %
24.12.2017 20:50 2,7 C 3,9 C 94 % 1025,8 hPa 0,0 l/m 9,7 km/h (2 Bft) W 270 0 min 0,000 mm 0,0 UV-I 0 W/m 1,8 C -0,2 C 14,5 km/h (3 Bft) 100,00 %
24.12.2017 20:51 2,7 C 3,9 C 94 % 1025,8 hPa 0,0 l/m 11,3 km/h (2 Bft) W-SW 247 0 min 0,000 mm 0,0 UV-I 0 W/m 1,8 C -1,4 C 14,5 km/h (3 Bft) 95,65 %
24.12.2017 20:52 2,7 C 3,9 C 94 % 1025,7 hPa 0,0 l/m 9,7 km/h (2 Bft) W-SW 247 0 min 0,000 mm 0,0 UV-I 0 W/m 1,8 C -0,2 C 14,5 km/h (3 Bft) 95,65 %
24.12.2017 20:53 2,7 C 3,9 C 94 % 1025,8 hPa 0,0 l/m 12,9 km/h (3 Bft) W-SW 247 0 min 0,000 mm 0,0 UV-I 0 W/m 1,8 C -2,5 C 16,1 km/h (3 Bft) 100,00 %
24.12.2017 20:54 2,7 C 3,9 C 94 % 1025,8 hPa 0,0 l/m 12,9 km/h (3 Bft) W-SW 247 0 min 0,000 mm 0,0 UV-I 0 W/m 1,8 C -2,5 C 17,7 km/h (3 Bft) 95,65 %
24.12.2017 20:55 2,7 C 3,9 C 94 % 1025,8 hPa 0,0 l/m 9,7 km/h (2 Bft) W-SW 247 0 min 0,000 mm 0,0 UV-I 0 W/m 1,8 C -0,2 C 12,9 km/h (3 Bft) 100,00 %
24.12.2017 20:56 2,7 C 3,9 C 93 % 1025,8 hPa 0,0 l/m 14,5 km/h (3 Bft) W-SW 247 0 min 0,000 mm 0,0 UV-I 0 W/m 1,7 C -3,4 C 17,7 km/h (3 Bft) 100,00 %
24.12.2017 20:57 2,7 C 3,9 C 94 % 1025,8 hPa 0,0 l/m 14,5 km/h (3 Bft) W 270 0 min 0,000 mm 0,0 UV-I 0 W/m 1,8 C -3,4 C 19,3 km/h (3 Bft) 100,00 %
24.12.2017 20:58 2,7 C 3,9 C 94 % 1025,8 hPa 0,0 l/m 11,3 km/h (2 Bft) W-SW 247 0 min 0,000 mm 0,0 UV-I 0 W/m 1,8 C -1,4 C 14,5 km/h (3 Bft) 100,00 %
24.12.2017 20:59 2,7 C 3,9 C 94 % 1025,8 hPa 0,0 l/m 12,9 km/h (3 Bft) W 270 0 min 0,000 mm 0,0 UV-I 0 W/m 1,8 C -2,5 C 22,5 km/h (4 Bft) 95,65 %
24.12.2017 21:00 2,7 C 3,9 C 94 % 1025,8 hPa 0,0 l/m 12,9 km/h (3 Bft) W-SW 247 0 min 0,000 mm 0,0 UV-I 0 W/m 1,8 C -2,5 C 19,3 km/h (3 Bft) 100,00 %
24.12.2017 21:01 2,8 C 3,9 C 94 % 1025,8 hPa 0,0 l/m 11,3 km/h (2 Bft) W 270 0 min 0,000 mm 0,0 UV-I 0 W/m 1,9 C -1,3 C 14,5 km/h (3 Bft) 95,65 %
24.12.2017 21:02 2,8 C 3,9 C 94 % 1025,8 hPa 0,0 l/m 12,9 km/h (3 Bft) W-SW 247 0 min 0,000 mm 0,0 UV-I 0 W/m 1,9 C -2,4 C 14,5 km/h (3 Bft) 100,00 %
24.12.2017 21:03 2,8 C 3,9 C 94 % 1025,8 hPa 0,0 l/m 9,7 km/h (2 Bft) W-SW 247 0 min 0,000 mm 0,0 UV-I 0 W/m 1,9 C -0,1 C 14,5 km/h (3 Bft) 95,65 %
24.12.2017 21:04 2,8 C 3,9 C 94 % 1025,8 hPa 0,0 l/m 11,3 km/h (2 Bft) W 270 0 min 0,000 mm 0,0 UV-I 0 W/m 1,9 C -1,3 C 16,1 km/h (3 Bft) 100,00 %
24.12.2017 21:05 2,8 C 3,9 C 94 % 1025,8 hPa 0,0 l/m 11,3 km/h (2 Bft) W 270 0 min 0,000 mm 0,0 UV-I 0 W/m 1,9 C -1,3 C 12,9 km/h (3 Bft) 100,00 %
24.12.2017 21:06 2,8 C 3,9 C 94 % 1025,8 hPa 0,0 l/m 12,9 km/h (3 Bft) W 270 0 min 0,000 mm 0,0 UV-I 0 W/m 1,9 C -2,4 C 17,7 km/h (3 Bft) 100,00 %
24.12.2017 21:07 2,8 C 3,9 C 94 % 1025,9 hPa 0,0 l/m 11,3 km/h (2 Bft) W 270 0 min 0,000 mm 0,0 UV-I 0 W/m 1,9 C -1,3 C 14,5 km/h (3 Bft) 91,30 %
24.12.2017 21:08 2,8 C 3,9 C 94 % 1025,9 hPa 0,0 l/m 11,3 km/h (2 Bft) W-SW 247 0 min 0,000 mm 0,0 UV-I 0 W/m 1,9 C -1,3 C 14,5 km/h (3 Bft) 91,30 %
24.12.2017 21:09 2,9 C 3,9 C 94 % 1025,9 hPa 0,0 l/m 12,9 km/h (3 Bft) W 270 0 min 0,000 mm 0,0 UV-I 0 W/m 2,0 C -2,2 C 16,1 km/h (3 Bft) 100,00 %
24.12.2017 21:10 2,9 C 3,9 C 94 % 1025,9 hPa 0,0 l/m 12,9 km/h (3 Bft) W 270 0 min 0,000 mm 0,0 UV-I 0 W/m 2,0 C -2,2 C 16,1 km/h (3 Bft) 95,65 %
24.12.2017 21:11 2,8 C 3,9 C 94 % 1025,8 hPa 0,0 l/m 11,3 km/h (2 Bft) W 270 0 min 0,000 mm 0,0 UV-I 0 W/m 1,9 C -1,3 C 16,1 km/h (3 Bft) 100,00 %
24.12.2017 21:12 2,8 C 3,9 C 93 % 1025,8 hPa 0,0 l/m 12,9 km/h (3 Bft) W 270 0 min 0,000 mm 0,0 UV-I 0 W/m 1,8 C -2,4 C 22,5 km/h (4 Bft) 91,30 %
24.12.2017 21:13 2,8 C 3,9 C 94 % 1025,8 hPa 0,0 l/m 14,5 km/h (3 Bft) W 270 0 min 0,000 mm 0,0 UV-I 0 W/m 1,9 C -3,3 C 17,7 km/h (3 Bft) 100,00 %
24.12.2017 21:14 2,9 C 3,9 C 94 % 1025,8 hPa 0,0 l/m 16,1 km/h (3 Bft) W 270 0 min 0,000 mm 0,0 UV-I 0 W/m 2,0 C -4,1 C 22,5 km/h (4 Bft) 95,65 %
24.12.2017 21:15 2,9 C 3,9 C 94 % 1025,8 hPa 0,0 l/m 12,9 km/h (3 Bft) W-SW 247 0 min 0,000 mm 0,0 UV-I 0 W/m 2,0 C -2,2 C 19,3 km/h (3 Bft) 95,65 %
24.12.2017 21:16 2,9 C 3,9 C 93 % 1025,8 hPa 0,0 l/m 14,5 km/h (3 Bft) W 270 0 min 0,000 mm 0,0 UV-I 0 W/m 1,9 C -3,2 C 20,9 km/h (4 Bft) 95,65 %
24.12.2017 21:17 3,0 C 3,9 C 94 % 1025,8 hPa 0,0 l/m 9,7 km/h (2 Bft) W 270 0 min 0,000 mm 0,0 UV-I 0 W/m 2,1 C 0,1 C 16,1 km/h (3 Bft) 95,65 %
24.12.2017 21:18 3,0 C 3,9 C 93 % 1025,8 hPa 0,0 l/m 11,3 km/h (2 Bft) W 270 0 min 0,000 mm 0,0 UV-I 0 W/m 2,0 C -1,1 C 14,5 km/h (3 Bft) 100,00 %
24.12.2017 21:19 2,9 C 3,9 C 93 % 1025,9 hPa 0,0 l/m 14,5 km/h (3 Bft) W 270 0 min 0,000 mm 0,0 UV-I 0 W/m 1,9 C -3,2 C 19,3 km/h (3 Bft) 91,30 %
24.12.2017 21:20 2,9 C 3,9 C 93 % 1025,9 hPa 0,0 l/m 11,3 km/h (2 Bft) W-SW 247 0 min 0,000 mm 0,0 UV-I 0 W/m 1,9 C -1,2 C 16,1 km/h (3 Bft) 100,00 %
24.12.2017 21:21 2,9 C 3,9 C 93 % 1025,9 hPa 0,0 l/m 8,0 km/h (2 Bft) W 270 0 min 0,000 mm 0,0 UV-I 0 W/m 1,9 C 1,4 C 11,3 km/h (2 Bft) 95,65 %
24.12.2017 21:22 2,9 C 3,9 C 93 % 1025,9 hPa 0,0 l/m 11,3 km/h (2 Bft) W 270 0 min 0,000 mm 0,0 UV-I 0 W/m 1,9 C -1,2 C 14,5 km/h (3 Bft) 95,65 %
24.12.2017 21:23 2,9 C 3,9 C 93 % 1025,9 hPa 0,0 l/m 11,3 km/h (2 Bft) W 270 0 min 0,000 mm 0,0 UV-I 0 W/m 1,9 C -1,2 C 14,5 km/h (3 Bft) 86,96 %
24.12.2017 21:24 2,9 C 3,9 C 93 % 1025,9 hPa 0,0 l/m 11,3 km/h (2 Bft) W 270 0 min 0,000 mm 0,0 UV-I 0 W/m 1,9 C -1,2 C 14,5 km/h (3 Bft) 100,00 %
24.12.2017 21:25 2,8 C 3,9 C 93 % 1025,9 hPa 0,0 l/m 9,7 km/h (2 Bft) W 270 0 min 0,000 mm 0,0 UV-I 0 W/m 1,8 C -0,1 C 12,9 km/h (3 Bft) 91,30 %
24.12.2017 21:26 2,8 C 3,9 C 93 % 1025,9 hPa 0,0 l/m 9,7 km/h (2 Bft) W 270 0 min 0,000 mm 0,0 UV-I 0 W/m 1,8 C -0,1 C 16,1 km/h (3 Bft) 95,65 %
24.12.2017 21:27 2,8 C 3,9 C 93 % 1025,9 hPa 0,0 l/m 11,3 km/h (2 Bft) W 270 0 min 0,000 mm 0,0 UV-I 0 W/m 1,8 C -1,3 C 17,7 km/h (3 Bft) 95,65 %
24.12.2017 21:28 2,8 C 3,9 C 93 % 1025,9 hPa 0,0 l/m 11,3 km/h (2 Bft) W 270 0 min 0,000 mm 0,0 UV-I 0 W/m 1,8 C -1,3 C 14,5 km/h (3 Bft) 91,30 %
24.12.2017 21:29 2,9 C 3,9 C 93 % 1025,9 hPa 0,0 l/m 11,3 km/h (2 Bft) W 270 0 min 0,000 mm 0,0 UV-I 0 W/m 1,9 C -1,2 C 12,9 km/h (3 Bft) 91,30 %
24.12.2017 21:30 2,9 C 3,9 C 93 % 1025,9 hPa 0,0 l/m 11,3 km/h (2 Bft) W-SW 247 0 min 0,000 mm 0,0 UV-I 0 W/m 1,9 C -1,2 C 16,1 km/h (3 Bft) 91,30 %
24.12.2017 21:31 2,9 C 3,9 C 93 % 1025,9 hPa 0,0 l/m 8,0 km/h (2 Bft) W 270 0 min 0,000 mm 0,0 UV-I 0 W/m 1,9 C 1,4 C 14,5 km/h (3 Bft) 100,00 %
24.12.2017 21:32 2,9 C 3,9 C 93 % 1025,9 hPa 0,0 l/m 11,3 km/h (2 Bft) W 270 0 min 0,000 mm 0,0 UV-I 0 W/m 1,9 C -1,2 C 16,1 km/h (3 Bft) 86,96 %
24.12.2017 21:33 3,0 C 3,9 C 93 % 1025,9 hPa 0,0 l/m 11,3 km/h (2 Bft) W-SW 247 0 min 0,000 mm 0,0 UV-I 0 W/m 2,0 C -1,1 C 17,7 km/h (3 Bft) 95,65 %
24.12.2017 21:34 3,1 C 3,9 C 93 % 1025,9 hPa 0,0 l/m 11,3 km/h (2 Bft) W 270 0 min 0,000 mm 0,0 UV-I 0 W/m 2,1 C -1,0 C 16,1 km/h (3 Bft) 91,30 %
24.12.2017 21:35 3,1 C 3,9 C 93 % 1025,9 hPa 0,0 l/m 11,3 km/h (2 Bft) W 270 0 min 0,000 mm 0,0 UV-I 0 W/m 2,1 C -1,0 C 14,5 km/h (3 Bft) 95,65 %
24.12.2017 21:36 3,1 C 3,9 C 93 % 1025,9 hPa 0,0 l/m 12,9 km/h (3 Bft) W 270 0 min 0,000 mm 0,0 UV-I 0 W/m 2,1 C -2,0 C 19,3 km/h (3 Bft) 91,30 %
24.12.2017 21:37 3,1 C 3,9 C 93 % 1025,9 hPa 0,0 l/m 9,7 km/h (2 Bft) W-SW 247 0 min 0,000 mm 0,0 UV-I 0 W/m 2,1 C 0,2 C 12,9 km/h (3 Bft) 95,65 %
24.12.2017 21:38 3,1 C 3,9 C 93 % 1025,9 hPa 0,0 l/m 9,7 km/h (2 Bft) W 270 0 min 0,000 mm 0,0 UV-I 0 W/m 2,1 C 0,2 C 14,5 km/h (3 Bft) 95,65 %
24.12.2017 21:39 3,1 C 3,9 C 93 % 1026,0 hPa 0,0 l/m 6,4 km/h (2 Bft) W-SW 247 0 min 0,000 mm 0,0 UV-I 0 W/m 2,1 C 3,1 C 11,3 km/h (2 Bft) 95,65 %
24.12.2017 21:40 3,0 C 3,9 C 93 % 1026,0 hPa 0,0 l/m 6,4 km/h (2 Bft) W-SW 247 0 min 0,000 mm 0,0 UV-I 0 W/m 2,0 C 3,0 C 11,3 km/h (2 Bft) 95,65 %
24.12.2017 21:41 2,9 C 3,9 C 93 % 1026,0 hPa 0,0 l/m 9,7 km/h (2 Bft) W 270 0 min 0,000 mm 0,0 UV-I 0 W/m 1,9 C -0,0 C 12,9 km/h (3 Bft) 95,65 %
24.12.2017 21:42 2,9 C 3,9 C 93 % 1025,9 hPa 0,0 l/m 11,3 km/h (2 Bft) W 270 0 min 0,000 mm 0,0 UV-I 0 W/m 1,9 C -1,2 C 14,5 km/h (3 Bft) 95,65 %
24.12.2017 21:43 2,9 C 3,9 C 93 % 1026,0 hPa 0,0 l/m 9,7 km/h (2 Bft) W 270 0 min 0,000 mm 0,0 UV-I 0 W/m 1,9 C -0,0 C 14,5 km/h (3 Bft) 91,30 %
24.12.2017 21:44 2,9 C 3,9 C 93 % 1026,0 hPa 0,0 l/m 9,7 km/h (2 Bft) W 270 0 min 0,000 mm 0,0 UV-I 0 W/m 1,9 C -0,0 C 11,3 km/h (2 Bft) 91,30 %
24.12.2017 21:45 2,9 C 3,9 C 93 % 1026,1 hPa 0,0 l/m 9,7 km/h (2 Bft) W 270 0 min 0,000 mm 0,0 UV-I 0 W/m 1,9 C -0,0 C 11,3 km/h (2 Bft) 95,65 %
24.12.2017 21:46 2,9 C 3,9 C 93 % 1025,9 hPa 0,0 l/m 9,7 km/h (2 Bft) W-SW 247 0 min 0,000 mm 0,0 UV-I 0 W/m 1,9 C -0,0 C 12,9 km/h (3 Bft) 95,65 %
24.12.2017 21:47 3,0 C 3,9 C 93 % 1026,0 hPa 0,0 l/m 9,7 km/h (2 Bft) W 270 0 min 0,000 mm 0,0 UV-I 0 W/m 2,0 C 0,1 C 17,7 km/h (3 Bft) 95,65 %
24.12.2017 21:48 3,0 C 3,9 C 93 % 1025,9 hPa 0,0 l/m 8,0 km/h (2 Bft) W-SW 247 0 min 0,000 mm 0,0 UV-I 0 W/m 2,0 C 1,5 C 11,3 km/h (2 Bft) 95,65 %
24.12.2017 21:49 2,9 C 3,9 C 93 % 1026,0 hPa 0,0 l/m 6,4 km/h (2 Bft) W 270 0 min 0,000 mm 0,0 UV-I 0 W/m 1,9 C 2,9 C 11,3 km/h (2 Bft) 100,00 %
24.12.2017 21:50 2,9 C 3,9 C 93 % 1026,0 hPa 0,0 l/m 8,0 km/h (2 Bft) W 270 0 min 0,000 mm 0,0 UV-I 0 W/m 1,9 C 1,4 C 11,3 km/h (2 Bft) 95,65 %
24.12.2017 21:51 2,9 C 3,9 C 93 % 1025,9 hPa 0,0 l/m 9,7 km/h (2 Bft) W 270 0 min 0,000 mm 0,0 UV-I 0 W/m 1,9 C -0,0 C 11,3 km/h (2 Bft) 95,65 %
24.12.2017 21:52 2,9 C 3,9 C 93 % 1025,9 hPa 0,0 l/m 11,3 km/h (2 Bft) W-SW 247 0 min 0,000 mm 0,0 UV-I 0 W/m 1,9 C -1,2 C 17,7 km/h (3 Bft) 100,00 %
24.12.2017 21:53 2,9 C 3,9 C 93 % 1026,0 hPa 0,0 l/m 8,0 km/h (2 Bft) W-SW 247 0 min 0,000 mm 0,0 UV-I 0 W/m 1,9 C 1,4 C 12,9 km/h (3 Bft) 100,00 %
24.12.2017 21:54 2,9 C 3,9 C 93 % 1026,0 hPa 0,0 l/m 8,0 km/h (2 Bft) W 270 0 min 0,000 mm 0,0 UV-I 0 W/m 1,9 C 1,4 C 9,7 km/h (2 Bft) 100,00 %
24.12.2017 21:55 2,9 C 3,9 C 93 % 1026,0 hPa 0,0 l/m 8,0 km/h (2 Bft) W-SW 247 0 min 0,000 mm 0,0 UV-I 0 W/m 1,9 C 1,4 C 12,9 km/h (3 Bft) 100,00 %
24.12.2017 21:56 2,9 C 3,9 C 93 % 1025,9 hPa 0,0 l/m 11,3 km/h (2 Bft) W-SW 247 0 min 0,000 mm 0,0 UV-I 0 W/m 1,9 C -1,2 C 14,5 km/h (3 Bft) 100,00 %
24.12.2017 21:57 2,8 C 3,9 C 93 % 1026,0 hPa 0,0 l/m 9,7 km/h (2 Bft) W 270 0 min 0,000 mm 0,0 UV-I 0 W/m 1,8 C -0,1 C 11,3 km/h (2 Bft) 91,30 %
24.12.2017 21:58 2,8 C 3,9 C 93 % 1026,0 hPa 0,0 l/m 8,0 km/h (2 Bft) W-SW 247 0 min 0,000 mm 0,0 UV-I 0 W/m 1,8 C 1,3 C 11,3 km/h (2 Bft) 100,00 %
24.12.2017 21:59 2,8 C 3,9 C 93 % 1026,0 hPa 0,0 l/m 9,7 km/h (2 Bft) W-SW 247 0 min 0,000 mm 0,0 UV-I 0 W/m 1,8 C -0,1 C 12,9 km/h (3 Bft) 91,30 %
24.12.2017 22:00 2,8 C 3,9 C 93 % 1026,0 hPa 0,0 l/m 11,3 km/h (2 Bft) W 270 0 min 0,000 mm 0,0 UV-I 0 W/m 1,8 C -1,3 C 16,1 km/h (3 Bft) 100,00 %
24.12.2017 22:01 2,8 C 3,9 C 93 % 1026,0 hPa 0,0 l/m 11,3 km/h (2 Bft) W 270 0 min 0,000 mm 0,0 UV-I 0 W/m 1,8 C -1,3 C 14,5 km/h (3 Bft) 100,00 %
24.12.2017 22:02 2,7 C 3,9 C 93 % 1026,0 hPa 0,0 l/m 11,3 km/h (2 Bft) W-SW 247 0 min 0,000 mm 0,0 UV-I 0 W/m 1,7 C -1,4 C 14,5 km/h (3 Bft) 100,00 %
24.12.2017 22:03 2,7 C 3,9 C 93 % 1026,0 hPa 0,0 l/m 8,0 km/h (2 Bft) W-SW 247 0 min 0,000 mm 0,0 UV-I 0 W/m 1,7 C 1,2 C 11,3 km/h (2 Bft) 95,65 %
24.12.2017 22:04 2,7 C 3,9 C 93 % 1025,9 hPa 0,0 l/m 8,0 km/h (2 Bft) W-SW 247 0 min 0,000 mm 0,0 UV-I 0 W/m 1,7 C 1,2 C 11,3 km/h (2 Bft) 95,65 %
24.12.2017 22:05 2,7 C 3,9 C 93 % 1025,9 hPa 0,0 l/m 11,3 km/h (2 Bft) W 270 0 min 0,000 mm 0,0 UV-I 0 W/m 1,7 C -1,4 C 16,1 km/h (3 Bft) 100,00 %
24.12.2017 22:06 2,7 C 3,9 C 93 % 1025,9 hPa 0,0 l/m 9,7 km/h (2 Bft) W-SW 247 0 min 0,000 mm 0,0 UV-I 0 W/m 1,7 C -0,2 C 12,9 km/h (3 Bft) 100,00 %
24.12.2017 22:07 2,6 C 3,9 C 93 % 1025,9 hPa 0,0 l/m 9,7 km/h (2 Bft) W-SW 247 0 min 0,000 mm 0,0 UV-I 0 W/m 1,6 C -0,3 C 12,9 km/h (3 Bft) 100,00 %
24.12.2017 22:08 2,6 C 3,9 C 93 % 1025,9 hPa 0,0 l/m 9,7 km/h (2 Bft) W 270 0 min 0,000 mm 0,0 UV-I 0 W/m 1,6 C -0,3 C 12,9 km/h (3 Bft) 100,00 %
24.12.2017 22:09 2,6 C 3,9 C 93 % 1025,9 hPa 0,0 l/m 9,7 km/h (2 Bft) W 270 0 min 0,000 mm 0,0 UV-I 0 W/m 1,6 C -0,3 C 14,5 km/h (3 Bft) 100,00 %
24.12.2017 22:10 2,6 C 3,9 C 93 % 1025,9 hPa 0,0 l/m 9,7 km/h (2 Bft) W-SW 247 0 min 0,000 mm 0,0 UV-I 0 W/m 1,6 C -0,3 C 16,1 km/h (3 Bft) 100,00 %
24.12.2017 22:11 2,6 C 3,9 C 93 % 1025,9 hPa 0,0 l/m 14,5 km/h (3 Bft) W-SW 247 0 min 0,000 mm 0,0 UV-I 0 W/m 1,6 C -3,5 C 17,7 km/h (3 Bft) 95,65 %
24.12.2017 22:12 2,7 C 3,9 C 94 % 1025,9 hPa 0,0 l/m 9,7 km/h (2 Bft) W 270 0 min 0,000 mm 0,0 UV-I 0 W/m 1,8 C -0,2 C 14,5 km/h (3 Bft) 100,00 %
24.12.2017 22:13 2,7 C 3,9 C 93 % 1025,9 hPa 0,0 l/m 9,7 km/h (2 Bft) W-SW 247 0 min 0,000 mm 0,0 UV-I 0 W/m 1,7 C -0,2 C 14,5 km/h (3 Bft) 100,00 %
24.12.2017 22:14 2,7 C 3,9 C 93 % 1025,9 hPa 0,0 l/m 12,9 km/h (3 Bft) W 270 0 min 0,000 mm 0,0 UV-I 0 W/m 1,7 C -2,5 C 16,1 km/h (3 Bft) 100,00 %
24.12.2017 22:15 2,7 C 3,9 C 93 % 1025,9 hPa 0,0 l/m 9,7 km/h (2 Bft) W 270 0 min 0,000 mm 0,0 UV-I 0 W/m 1,7 C -0,2 C 12,9 km/h (3 Bft) 95,65 %
24.12.2017 22:16 2,6 C 3,9 C 93 % 1026,0 hPa 0,0 l/m 9,7 km/h (2 Bft) W 270 0 min 0,000 mm 0,0 UV-I 0 W/m 1,6 C -0,3 C 12,9 km/h (3 Bft) 100,00 %
24.12.2017 22:17 2,6 C 3,9 C 93 % 1025,9 hPa 0,0 l/m 11,3 km/h (2 Bft) W 270 0 min 0,000 mm 0,0 UV-I 0 W/m 1,6 C -1,5 C 12,9 km/h (3 Bft) 100,00 %
24.12.2017 22:18 2,6 C 3,9 C 93 % 1025,9 hPa 0,0 l/m 12,9 km/h (3 Bft) W 270 0 min 0,000 mm 0,0 UV-I 0 W/m 1,6 C -2,6 C 16,1 km/h (3 Bft) 91,30 %
24.12.2017 22:19 2,6 C 3,9 C 93 % 1025,9 hPa 0,0 l/m 11,3 km/h (2 Bft) W 270 0 min 0,000 mm 0,0 UV-I 0 W/m 1,6 C -1,5 C 14,5 km/h (3 Bft) 100,00 %
24.12.2017 22:20 2,6 C 3,9 C 93 % 1025,9 hPa 0,0 l/m 14,5 km/h (3 Bft) W 270 0 min 0,000 mm 0,0 UV-I 0 W/m 1,6 C -3,5 C 19,3 km/h (3 Bft) 100,00 %
24.12.2017 22:21 2,7 C 3,9 C 93 % 1025,9 hPa 0,0 l/m 11,3 km/h (2 Bft) W-SW 247 0 min 0,000 mm 0,0 UV-I 0 W/m 1,7 C -1,4 C 14,5 km/h (3 Bft) 91,30 %
24.12.2017 22:22 2,7 C 3,9 C 93 % 1025,9 hPa 0,0 l/m 12,9 km/h (3 Bft) W-SW 247 0 min 0,000 mm 0,0 UV-I 0 W/m 1,7 C -2,5 C 16,1 km/h (3 Bft) 95,65 %
24.12.2017 22:23 2,7 C 3,9 C 93 % 1025,9 hPa 0,0 l/m 11,3 km/h (2 Bft) W 270 0 min 0,000 mm 0,0 UV-I 0 W/m 1,7 C -1,4 C 12,9 km/h (3 Bft) 100,00 %
24.12.2017 22:24 2,7 C 3,9 C 93 % 1025,9 hPa 0,0 l/m 11,3 km/h (2 Bft) W-SW 247 0 min 0,000 mm 0,0 UV-I 0 W/m 1,7 C -1,4 C 14,5 km/h (3 Bft) 100,00 %
24.12.2017 22:25 2,7 C 3,9 C 93 % 1025,9 hPa 0,0 l/m 9,7 km/h (2 Bft) W-SW 247 0 min 0,000 mm 0,0 UV-I 0 W/m 1,7 C -0,2 C 16,1 km/h (3 Bft) 91,30 %
24.12.2017 22:26 2,7 C 3,9 C 93 % 1025,9 hPa 0,0 l/m 11,3 km/h (2 Bft) W-SW 247 0 min 0,000 mm 0,0 UV-I 0 W/m 1,7 C -1,4 C 14,5 km/h (3 Bft) 100,00 %
24.12.2017 22:27 2,6 C 3,9 C 93 % 1025,9 hPa 0,0 l/m 9,7 km/h (2 Bft) W-SW 247 0 min 0,000 mm 0,0 UV-I 0 W/m 1,6 C -0,3 C 12,9 km/h (3 Bft) 100,00 %
24.12.2017 22:28 2,6 C 3,9 C 93 % 1025,9 hPa 0,0 l/m 11,3 km/h (2 Bft) W-SW 247 0 min 0,000 mm 0,0 UV-I 0 W/m 1,6 C -1,5 C 12,9 km/h (3 Bft) 100,00 %
24.12.2017 22:29 2,6 C 3,9 C 93 % 1025,9 hPa 0,0 l/m 11,3 km/h (2 Bft) W-SW 247 0 min 0,000 mm 0,0 UV-I 0 W/m 1,6 C -1,5 C 17,7 km/h (3 Bft) 100,00 %
24.12.2017 22:30 2,6 C 3,9 C 93 % 1025,9 hPa 0,0 l/m 12,9 km/h (3 Bft) W-SW 247 0 min 0,000 mm 0,0 UV-I 0 W/m 1,6 C -2,6 C 17,7 km/h (3 Bft) 100,00 %
24.12.2017 22:31 2,6 C 3,9 C 93 % 1025,9 hPa 0,0 l/m 11,3 km/h (2 Bft) W-SW 247 0 min 0,000 mm 0,0 UV-I 0 W/m 1,6 C -1,5 C 16,1 km/h (3 Bft) 100,00 %
24.12.2017 22:32 2,6 C 3,9 C 93 % 1025,9 hPa 0,0 l/m 11,3 km/h (2 Bft) W-SW 247 0 min 0,000 mm 0,0 UV-I 0 W/m 1,6 C -1,5 C 14,5 km/h (3 Bft) 95,65 %
24.12.2017 22:33 2,6 C 3,9 C 93 % 1025,9 hPa 0,0 l/m 12,9 km/h (3 Bft) W-SW 247 0 min 0,000 mm 0,0 UV-I 0 W/m 1,6 C -2,6 C 17,7 km/h (3 Bft) 100,00 %
24.12.2017 22:34 2,6 C 3,9 C 93 % 1025,9 hPa 0,0 l/m 12,9 km/h (3 Bft) W 270 0 min 0,000 mm 0,0 UV-I 0 W/m 1,6 C -2,6 C 14,5 km/h (3 Bft) 100,00 %
24.12.2017 22:35 2,6 C 3,9 C 93 % 1026,0 hPa 0,0 l/m 14,5 km/h (3 Bft) W-SW 247 0 min 0,000 mm 0,0 UV-I 0 W/m 1,6 C -3,5 C 17,7 km/h (3 Bft) 100,00 %
24.12.2017 22:36 2,6 C 3,9 C 93 % 1026,0 hPa 0,0 l/m 11,3 km/h (2 Bft) W-SW 247 0 min 0,000 mm 0,0 UV-I 0 W/m 1,6 C -1,5 C 16,1 km/h (3 Bft) 100,00 %
24.12.2017 22:37 2,6 C 3,9 C 93 % 1026,0 hPa 0,0 l/m 12,9 km/h (3 Bft) W 270 0 min 0,000 mm 0,0 UV-I 0 W/m 1,6 C -2,6 C 16,1 km/h (3 Bft) 100,00 %
24.12.2017 22:38 2,6 C 3,9 C 93 % 1026,0 hPa 0,0 l/m 9,7 km/h (2 Bft) W 270 0 min 0,000 mm 0,0 UV-I 0 W/m 1,6 C -0,3 C 14,5 km/h (3 Bft) 95,65 %
24.12.2017 22:39 2,6 C 3,9 C 93 % 1026,0 hPa 0,0 l/m 8,0 km/h (2 Bft) W 270 0 min 0,000 mm 0,0 UV-I 0 W/m 1,6 C 1,1 C 11,3 km/h (2 Bft) 95,65 %
24.12.2017 22:40 2,5 C 3,9 C 93 % 1026,0 hPa 0,0 l/m 9,7 km/h (2 Bft) W-SW 247 0 min 0,000 mm 0,0 UV-I 0 W/m 1,5 C -0,5 C 14,5 km/h (3 Bft) 100,00 %
24.12.2017 22:41 2,6 C 3,9 C 93 % 1026,0 hPa 0,0 l/m 8,0 km/h (2 Bft) W 270 0 min 0,000 mm 0,0 UV-I 0 W/m 1,6 C 1,1 C 11,3 km/h (2 Bft) 100,00 %
24.12.2017 22:42 2,6 C 3,9 C 93 % 1026,0 hPa 0,0 l/m 8,0 km/h (2 Bft) W 270 0 min 0,000 mm 0,0 UV-I 0 W/m 1,6 C 1,1 C 11,3 km/h (2 Bft) 95,65 %
24.12.2017 22:43 2,6 C 3,9 C 93 % 1026,0 hPa 0,0 l/m 8,0 km/h (2 Bft) W-SW 247 0 min 0,000 mm 0,0 UV-I 0 W/m 1,6 C 1,1 C 14,5 km/h (3 Bft) 100,00 %
24.12.2017 22:44 2,6 C 3,9 C 93 % 1026,0 hPa 0,0 l/m 11,3 km/h (2 Bft) W 270 0 min 0,000 mm 0,0 UV-I 0 W/m 1,6 C -1,5 C 14,5 km/h (3 Bft) 95,65 %
24.12.2017 22:45 2,6 C 3,9 C 93 % 1026,0 hPa 0,0 l/m 8,0 km/h (2 Bft) W 270 0 min 0,000 mm 0,0 UV-I 0 W/m 1,6 C 1,1 C 11,3 km/h (2 Bft) 100,00 %
24.12.2017 22:46 2,6 C 3,9 C 93 % 1026,0 hPa 0,0 l/m 9,7 km/h (2 Bft) W-SW 247 0 min 0,000 mm 0,0 UV-I 0 W/m 1,6 C -0,3 C 12,9 km/h (3 Bft) 91,30 %
24.12.2017 22:47 2,7 C 3,9 C 93 % 1026,0 hPa 0,0 l/m 9,7 km/h (2 Bft) W-SW 247 0 min 0,000 mm 0,0 UV-I 0 W/m 1,7 C -0,2 C 14,5 km/h (3 Bft) 100,00 %
24.12.2017 22:48 2,7 C 3,9 C 93 % 1026,0 hPa 0,0 l/m 9,7 km/h (2 Bft) W 270 0 min 0,000 mm 0,0 UV-I 0 W/m 1,7 C -0,2 C 12,9 km/h (3 Bft) 95,65 %
24.12.2017 22:49 2,7 C 3,9 C 93 % 1026,0 hPa 0,0 l/m 8,0 km/h (2 Bft) W-SW 247 0 min 0,000 mm 0,0 UV-I 0 W/m 1,7 C 1,2 C 12,9 km/h (3 Bft) 95,65 %
24.12.2017 22:50 2,7 C 3,9 C 93 % 1026,0 hPa 0,0 l/m 8,0 km/h (2 Bft) W-SW 247 0 min 0,000 mm 0,0 UV-I 0 W/m 1,7 C 1,2 C 11,3 km/h (2 Bft) 100,00 %
24.12.2017 22:51 2,7 C 3,9 C 93 % 1026,0 hPa 0,0 l/m 8,0 km/h (2 Bft) W-SW 247 0 min 0,000 mm 0,0 UV-I 0 W/m 1,7 C 1,2 C 14,5 km/h (3 Bft) 95,65 %
24.12.2017 22:52 2,7 C 3,9 C 93 % 1026,1 hPa 0,0 l/m 8,0 km/h (2 Bft) W-SW 247 0 min 0,000 mm 0,0 UV-I 0 W/m 1,7 C 1,2 C 11,3 km/h (2 Bft) 100,00 %
24.12.2017 22:53 2,7 C 3,9 C 93 % 1026,1 hPa 0,0 l/m 8,0 km/h (2 Bft) W-SW 247 0 min 0,000 mm 0,0 UV-I 0 W/m 1,7 C 1,2 C 9,7 km/h (2 Bft) 91,30 %
24.12.2017 22:54 2,7 C 3,9 C 93 % 1026,1 hPa 0,0 l/m 9,7 km/h (2 Bft) W-SW 247 0 min 0,000 mm 0,0 UV-I 0 W/m 1,7 C -0,2 C 16,1 km/h (3 Bft) 95,65 %
24.12.2017 22:55 2,8 C 3,9 C 93 % 1026,1 hPa 0,0 l/m 8,0 km/h (2 Bft) W-SW 247 0 min 0,000 mm 0,0 UV-I 0 W/m 1,8 C 1,3 C 11,3 km/h (2 Bft) 95,65 %
24.12.2017 22:56 2,8 C 3,9 C 93 % 1026,1 hPa 0,0 l/m 8,0 km/h (2 Bft) W 270 0 min 0,000 mm 0,0 UV-I 0 W/m 1,8 C 1,3 C 11,3 km/h (2 Bft) 100,00 %
24.12.2017 22:57 2,8 C 3,9 C 93 % 1026,1 hPa 0,0 l/m 9,7 km/h (2 Bft) W 270 0 min 0,000 mm 0,0 UV-I 0 W/m 1,8 C -0,1 C 14,5 km/h (3 Bft) 95,65 %
24.12.2017 22:58 2,8 C 3,9 C 93 % 1026,2 hPa 0,0 l/m 6,4 km/h (2 Bft) W-SW 247 0 min 0,000 mm 0,0 UV-I 0 W/m 1,8 C 2,8 C 9,7 km/h (2 Bft) 100,00 %
24.12.2017 22:59 2,8 C 3,9 C 93 % 1026,2 hPa 0,0 l/m 9,7 km/h (2 Bft) W 270 0 min 0,000 mm 0,0 UV-I 0 W/m 1,8 C -0,1 C 11,3 km/h (2 Bft) 95,65 %
24.12.2017 23:00 2,8 C 3,9 C 93 % 1026,1 hPa 0,0 l/m 8,0 km/h (2 Bft) W 270 0 min 0,000 mm 0,0 UV-I 0 W/m 1,8 C 1,3 C 11,3 km/h (2 Bft) 100,00 %
24.12.2017 23:01 2,9 C 3,9 C 93 % 1026,2 hPa 0,0 l/m 4,8 km/h (1 Bft) W 270 0 min 0,000 mm 0,0 UV-I 0 W/m 1,9 C 2,9 C 6,4 km/h (2 Bft) 91,30 %
24.12.2017 23:02 2,8 C 3,9 C 93 % 1026,1 hPa 0,0 l/m 4,8 km/h (1 Bft) W 270 0 min 0,000 mm 0,0 UV-I 0 W/m 1,8 C 2,8 C 6,4 km/h (2 Bft) 95,65 %
24.12.2017 23:03 2,8 C 3,9 C 93 % 1026,1 hPa 0,0 l/m 6,4 km/h (2 Bft) W-SW 247 0 min 0,000 mm 0,0 UV-I 0 W/m 1,8 C 2,8 C 11,3 km/h (2 Bft) 95,65 %
24.12.2017 23:04 2,8 C 3,9 C 93 % 1026,1 hPa 0,0 l/m 8,0 km/h (2 Bft) W 270 0 min 0,000 mm 0,0 UV-I 0 W/m 1,8 C 1,3 C 11,3 km/h (2 Bft) 100,00 %
24.12.2017 23:05 2,8 C 3,9 C 93 % 1026,1 hPa 0,0 l/m 8,0 km/h (2 Bft) W 270 0 min 0,000 mm 0,0 UV-I 0 W/m 1,8 C 1,3 C 9,7 km/h (2 Bft) 91,30 %
24.12.2017 23:06 2,8 C 3,9 C 93 % 1026,2 hPa 0,0 l/m 8,0 km/h (2 Bft) W-SW 247 0 min 0,000 mm 0,0 UV-I 0 W/m 1,8 C 1,3 C 11,3 km/h (2 Bft) 95,65 %
24.12.2017 23:07 2,8 C 3,9 C 93 % 1026,2 hPa 0,0 l/m 6,4 km/h (2 Bft) W-SW 247 0 min 0,000 mm 0,0 UV-I 0 W/m 1,8 C 2,8 C 9,7 km/h (2 Bft) 86,96 %
24.12.2017 23:08 2,8 C 3,9 C 93 % 1026,1 hPa 0,0 l/m 8,0 km/h (2 Bft) W-SW 247 0 min 0,000 mm 0,0 UV-I 0 W/m 1,8 C 1,3 C 11,3 km/h (2 Bft) 100,00 %
24.12.2017 23:09 2,8 C 3,9 C 93 % 1026,1 hPa 0,0 l/m 9,7 km/h (2 Bft) W 270 0 min 0,000 mm 0,0 UV-I 0 W/m 1,8 C -0,1 C 12,9 km/h (3 Bft) 100,00 %
24.12.2017 23:10 2,8 C 3,9 C 93 % 1026,1 hPa 0,0 l/m 8,0 km/h (2 Bft) W 270 0 min 0,000 mm 0,0 UV-I 0 W/m 1,8 C 1,3 C 14,5 km/h (3 Bft) 100,00 %
24.12.2017 23:11 2,8 C 3,9 C 93 % 1026,1 hPa 0,0 l/m 11,3 km/h (2 Bft) W-SW 247 0 min 0,000 mm 0,0 UV-I 0 W/m 1,8 C -1,3 C 16,1 km/h (3 Bft) 100,00 %
24.12.2017 23:12 2,8 C 3,9 C 93 % 1026,1 hPa 0,0 l/m 9,7 km/h (2 Bft) W 270 0 min 0,000 mm 0,0 UV-I 0 W/m 1,8 C -0,1 C 12,9 km/h (3 Bft) 100,00 %
24.12.2017 23:13 2,8 C 3,9 C 93 % 1026,1 hPa 0,0 l/m 8,0 km/h (2 Bft) W-SW 247 0 min 0,000 mm 0,0 UV-I 0 W/m 1,8 C 1,3 C 11,3 km/h (2 Bft) 100,00 %
24.12.2017 23:14 2,8 C 3,9 C 93 % 1026,1 hPa 0,0 l/m 8,0 km/h (2 Bft) W-SW 247 0 min 0,000 mm 0,0 UV-I 0 W/m 1,8 C 1,3 C 12,9 km/h (3 Bft) 91,30 %
24.12.2017 23:15 2,8 C 3,9 C 93 % 1026,1 hPa 0,0 l/m 8,0 km/h (2 Bft) W-SW 247 0 min 0,000 mm 0,0 UV-I 0 W/m 1,8 C 1,3 C 11,3 km/h (2 Bft) 100,00 %
24.12.2017 23:16 2,8 C 3,9 C 93 % 1026,1 hPa 0,0 l/m 6,4 km/h (2 Bft) W-SW 247 0 min 0,000 mm 0,0 UV-I 0 W/m 1,8 C 2,8 C 11,3 km/h (2 Bft) 100,00 %
24.12.2017 23:17 2,8 C 3,9 C 93 % 1026,1 hPa 0,0 l/m 6,4 km/h (2 Bft) W 270 0 min 0,000 mm 0,0 UV-I 0 W/m 1,8 C 2,8 C 9,7 km/h (2 Bft) 100,00 %
24.12.2017 23:18 2,8 C 3,9 C 93 % 1026,1 hPa 0,0 l/m 6,4 km/h (2 Bft) SW 225 0 min 0,000 mm 0,0 UV-I 0 W/m 1,8 C 2,8 C 11,3 km/h (2 Bft) 95,65 %
24.12.2017 23:19 2,7 C 3,9 C 93 % 1026,1 hPa 0,0 l/m 8,0 km/h (2 Bft) W-SW 247 0 min 0,000 mm 0,0 UV-I 0 W/m 1,7 C 1,2 C 12,9 km/h (3 Bft) 95,65 %
24.12.2017 23:20 2,7 C 3,9 C 93 % 1026,1 hPa 0,0 l/m 11,3 km/h (2 Bft) W-SW 247 0 min 0,000 mm 0,0 UV-I 0 W/m 1,7 C -1,4 C 16,1 km/h (3 Bft) 100,00 %
24.12.2017 23:21 2,7 C 3,9 C 93 % 1026,1 hPa 0,0 l/m 9,7 km/h (2 Bft) W 270 0 min 0,000 mm 0,0 UV-I 0 W/m 1,7 C -0,2 C 12,9 km/h (3 Bft) 86,96 %
24.12.2017 23:22 2,7 C 3,9 C 93 % 1026,1 hPa 0,0 l/m 12,9 km/h (3 Bft) W-SW 247 0 min 0,000 mm 0,0 UV-I 0 W/m 1,7 C -2,5 C 14,5 km/h (3 Bft) 100,00 %
24.12.2017 23:23 2,7 C 3,9 C 93 % 1026,1 hPa 0,0 l/m 11,3 km/h (2 Bft) W 270 0 min 0,000 mm 0,0 UV-I 0 W/m 1,7 C -1,4 C 12,9 km/h (3 Bft) 95,65 %
24.12.2017 23:24 2,7 C 3,9 C 93 % 1026,1 hPa 0,0 l/m 9,7 km/h (2 Bft) W 270 0 min 0,000 mm 0,0 UV-I 0 W/m 1,7 C -0,2 C 11,3 km/h (2 Bft) 95,65 %
24.12.2017 23:25 2,6 C 3,9 C 93 % 1026,1 hPa 0,0 l/m 9,7 km/h (2 Bft) W-SW 247 0 min 0,000 mm 0,0 UV-I 0 W/m 1,6 C -0,3 C 14,5 km/h (3 Bft) 91,30 %
24.12.2017 23:26 2,6 C 3,9 C 93 % 1026,1 hPa 0,0 l/m 9,7 km/h (2 Bft) W-SW 247 0 min 0,000 mm 0,0 UV-I 0 W/m 1,6 C -0,3 C 12,9 km/h (3 Bft) 100,00 %
24.12.2017 23:27 2,6 C 3,9 C 93 % 1026,1 hPa 0,0 l/m 8,0 km/h (2 Bft) W 270 0 min 0,000 mm 0,0 UV-I 0 W/m 1,6 C 1,1 C 11,3 km/h (2 Bft) 91,30 %
24.12.2017 23:28 2,6 C 3,9 C 93 % 1026,2 hPa 0,0 l/m 12,9 km/h (3 Bft) W 270 0 min 0,000 mm 0,0 UV-I 0 W/m 1,6 C -2,6 C 19,3 km/h (3 Bft) 91,30 %
24.12.2017 23:29 2,6 C 3,9 C 93 % 1026,1 hPa 0,0 l/m 11,3 km/h (2 Bft) W 270 0 min 0,000 mm 0,0 UV-I 0 W/m 1,6 C -1,5 C 16,1 km/h (3 Bft) 100,00 %
24.12.2017 23:30 2,6 C 3,9 C 93 % 1026,2 hPa 0,0 l/m 11,3 km/h (2 Bft) W-SW 247 0 min 0,000 mm 0,0 UV-I 0 W/m 1,6 C -1,5 C 16,1 km/h (3 Bft) 95,65 %
24.12.2017 23:31 2,6 C 3,9 C 93 % 1026,1 hPa 0,0 l/m 9,7 km/h (2 Bft) W 270 0 min 0,000 mm 0,0 UV-I 0 W/m 1,6 C -0,3 C 14,5 km/h (3 Bft) 95,65 %
24.12.2017 23:32 2,6 C 3,9 C 93 % 1026,1 hPa 0,0 l/m 8,0 km/h (2 Bft) W 270 0 min 0,000 mm 0,0 UV-I 0 W/m 1,6 C 1,1 C 12,9 km/h (3 Bft) 95,65 %
24.12.2017 23:33 2,6 C 3,9 C 93 % 1026,1 hPa 0,0 l/m 9,7 km/h (2 Bft) W-SW 247 0 min 0,000 mm 0,0 UV-I 0 W/m 1,6 C -0,3 C 12,9 km/h (3 Bft) 100,00 %
24.12.2017 23:34 2,6 C 3,9 C 93 % 1026,1 hPa 0,0 l/m 12,9 km/h (3 Bft) W-SW 247 0 min 0,000 mm 0,0 UV-I 0 W/m 1,6 C -2,6 C 16,1 km/h (3 Bft) 95,65 %
24.12.2017 23:35 2,6 C 3,9 C 93 % 1026,2 hPa 0,0 l/m 6,4 km/h (2 Bft) W 270 0 min 0,000 mm 0,0 UV-I 0 W/m 1,6 C 2,6 C 9,7 km/h (2 Bft) 95,65 %
24.12.2017 23:36 2,7 C 3,9 C 93 % 1026,2 hPa 0,0 l/m 11,3 km/h (2 Bft) W 270 0 min 0,000 mm 0,0 UV-I 0 W/m 1,7 C -1,4 C 14,5 km/h (3 Bft) 95,65 %
24.12.2017 23:37 2,7 C 3,9 C 93 % 1026,2 hPa 0,0 l/m 17,7 km/h (3 Bft) W 270 0 min 0,000 mm 0,0 UV-I 0 W/m 1,7 C -5,1 C 22,5 km/h (4 Bft) 91,30 %
24.12.2017 23:38 2,7 C 3,9 C 93 % 1026,1 hPa 0,0 l/m 12,9 km/h (3 Bft) W 270 0 min 0,000 mm 0,0 UV-I 0 W/m 1,7 C -2,5 C 17,7 km/h (3 Bft) 100,00 %
24.12.2017 23:39 2,7 C 3,9 C 93 % 1026,1 hPa 0,0 l/m 14,5 km/h (3 Bft) W-SW 247 0 min 0,000 mm 0,0 UV-I 0 W/m 1,7 C -3,4 C 19,3 km/h (3 Bft) 91,30 %
24.12.2017 23:40 2,8 C 3,9 C 93 % 1026,1 hPa 0,0 l/m 6,4 km/h (2 Bft) NW 315 0 min 0,000 mm 0,0 UV-I 0 W/m 1,8 C 2,8 C 14,5 km/h (3 Bft) 95,65 %
24.12.2017 23:41 2,8 C 3,9 C 93 % 1026,1 hPa 0,0 l/m 3,2 km/h (1 Bft) W 270 0 min 0,000 mm 0,0 UV-I 0 W/m 1,8 C 2,8 C 6,4 km/h (2 Bft) 95,65 %
24.12.2017 23:42 2,8 C 3,9 C 93 % 1026,1 hPa 0,0 l/m 6,4 km/h (2 Bft) W 270 0 min 0,000 mm 0,0 UV-I 0 W/m 1,8 C 2,8 C 11,3 km/h (2 Bft) 95,65 %
24.12.2017 23:43 2,8 C 3,9 C 93 % 1026,1 hPa 0,0 l/m 4,8 km/h (1 Bft) W 270 0 min 0,000 mm 0,0 UV-I 0 W/m 1,8 C 2,8 C 9,7 km/h (2 Bft) 95,65 %
24.12.2017 23:44 2,8 C 3,9 C 93 % 1026,1 hPa 0,0 l/m 8,0 km/h (2 Bft) W 270 0 min 0,000 mm 0,0 UV-I 0 W/m 1,8 C 1,3 C 17,7 km/h (3 Bft) 91,30 %
24.12.2017 23:45 2,8 C 3,9 C 93 % 1026,1 hPa 0,0 l/m 11,3 km/h (2 Bft) W 270 0 min 0,000 mm 0,0 UV-I 0 W/m 1,8 C -1,3 C 19,3 km/h (3 Bft) 100,00 %
24.12.2017 23:46 2,9 C 3,9 C 93 % 1026,1 hPa 0,0 l/m 6,4 km/h (2 Bft) W 270 0 min 0,000 mm 0,0 UV-I 0 W/m 1,9 C 2,9 C 11,3 km/h (2 Bft) 95,65 %
24.12.2017 23:47 2,9 C 3,9 C 93 % 1026,1 hPa 0,0 l/m 9,7 km/h (2 Bft) W-NW 292 0 min 0,000 mm 0,0 UV-I 0 W/m 1,9 C -0,0 C 16,1 km/h (3 Bft) 100,00 %
24.12.2017 23:48 2,9 C 3,9 C 93 % 1026,1 hPa 0,0 l/m 9,7 km/h (2 Bft) W 270 0 min 0,000 mm 0,0 UV-I 0 W/m 1,9 C -0,0 C 14,5 km/h (3 Bft) 91,30 %
24.12.2017 23:49 2,9 C 3,9 C 93 % 1026,1 hPa 0,0 l/m 11,3 km/h (2 Bft) W 270 0 min 0,000 mm 0,0 UV-I 0 W/m 1,9 C -1,2 C 19,3 km/h (3 Bft) 95,65 %
24.12.2017 23:50 2,9 C 3,9 C 92 % 1026,1 hPa 0,0 l/m 3,2 km/h (1 Bft) W-NW 292 0 min 0,000 mm 0,0 UV-I 0 W/m 1,7 C 2,9 C 6,4 km/h (2 Bft) 91,30 %
24.12.2017 23:51 2,9 C 3,9 C 92 % 1026,2 hPa 0,0 l/m 8,0 km/h (2 Bft) W-NW 292 0 min 0,000 mm 0,0 UV-I 0 W/m 1,7 C 1,4 C 14,5 km/h (3 Bft) 100,00 %
24.12.2017 23:52 2,9 C 3,9 C 92 % 1026,2 hPa 0,0 l/m 6,4 km/h (2 Bft) W 270 0 min 0,000 mm 0,0 UV-I 0 W/m 1,7 C 2,9 C 12,9 km/h (3 Bft) 95,65 %
24.12.2017 23:53 2,9 C 3,9 C 92 % 1026,2 hPa 0,0 l/m 4,8 km/h (1 Bft) W 270 0 min 0,000 mm 0,0 UV-I 0 W/m 1,7 C 2,9 C 9,7 km/h (2 Bft) 95,65 %
24.12.2017 23:54 2,9 C 4,4 C 92 % 1026,2 hPa 0,0 l/m 6,4 km/h (2 Bft) SW 225 0 min 0,000 mm 0,0 UV-I 0 W/m 1,7 C 2,9 C 12,9 km/h (3 Bft) 100,00 %
24.12.2017 23:55 2,9 C 4,4 C 92 % 1026,2 hPa 0,0 l/m 4,8 km/h (1 Bft) W 270 0 min 0,000 mm 0,0 UV-I 0 W/m 1,7 C 2,9 C 6,4 km/h (2 Bft) 95,65 %
24.12.2017 23:56 2,9 C 3,9 C 92 % 1026,2 hPa 0,0 l/m 8,0 km/h (2 Bft) W 270 0 min 0,000 mm 0,0 UV-I 0 W/m 1,7 C 1,4 C 11,3 km/h (2 Bft) 95,65 %
24.12.2017 23:57 2,9 C 3,9 C 92 % 1026,2 hPa 0,0 l/m 6,4 km/h (2 Bft) W-SW 247 0 min 0,000 mm 0,0 UV-I 0 W/m 1,7 C 2,9 C 8,0 km/h (2 Bft) 100,00 %
24.12.2017 23:58 2,9 C 3,9 C 92 % 1026,2 hPa 0,0 l/m 6,4 km/h (2 Bft) W-SW 247 0 min 0,000 mm 0,0 UV-I 0 W/m 1,7 C 2,9 C 11,3 km/h (2 Bft) 100,00 %
24.12.2017 23:59 2,9 C 3,9 C 92 % 1026,2 hPa 0,0 l/m 6,4 km/h (2 Bft) W-SW 247 0 min 0,000 mm 0,0 UV-I 0 W/m 1,7 C 2,9 C 11,3 km/h (2 Bft) 100,00 %
_ Min-Zeit 19:30 00:00 13:46 20:52 - 16:58 - - - - - - 22:40 23:37 17:02 01:50
Minimum _ 2,4 C 3,9 C 78 % 1025,7 hPa - 1,6 km/h (1 Bft) - - - - - - 1,5 C -5,1 C 1,6 km/h (1 Bft) 82,61 %
_ Max-Zeit 13:45 23:54 19:40 00:23 00:00 00:28 - - 08:05 13:00 11:39 12:25 00:04 13:45 00:27 00:00
Maximum _ 7,1 C 4,4 C 95 % 1030,5 hPa 0,0 l/m 27,4 km/h
W (4 Bft)
- - 1 min 0,178 mm 0,7 UV-I 436 W/m 4,3 C 7,1 C 40,2 km/h
W (6 Bft)
100,00 %
Durchschnitt _ 4,9 C 3,9 C 87 % 1028,0 hPa #0,0 l/m 12,0 km/h (2 Bft) W - #4:57 h #0,910 mm 0,6 UV-I 154 W/m 3,0 C 1,1 C 17,2 km/h (3 Bft) 97,04 %